<?xml version="1.0" encoding="UTF-8" standalone="no" ?>
<gpx xmlns="http://www.topografix.com/GPX/1/1" xmlns:xsi="http://www.w3.org/2001/XMLSchema-instance" xsi:schemaLocation="http://www.topografix.com/GPX/1/1 http://www.topografix.com/GPX/1/1/gpx.xsd" version="1.1" creator="VisuGPX - https://www.visugpx.com">
  <metadata>
    <name>Champagnat Cyclisme sur route</name>
  </metadata>
  <trk>
    <name><![CDATA[Champagnat Cyclisme sur route]]></name>
    <trkseg>
      <trkpt lat="46.48265" lon="5.3683">
        <ele>267.79998779297</ele>
        <time>2022-06-16T12:10:10.000Z</time>
      </trkpt>
      <trkpt lat="46.48256" lon="5.3682">
        <ele>266.79998779297</ele>
        <time>2022-06-16T12:10:11.000Z</time>
      </trkpt>
      <trkpt lat="46.48246" lon="5.3681">
        <ele>266.39999389648</ele>
        <time>2022-06-16T12:10:12.000Z</time>
      </trkpt>
      <trkpt lat="46.48227" lon="5.36794">
        <ele>265</ele>
        <time>2022-06-16T12:10:14.000Z</time>
      </trkpt>
      <trkpt lat="46.48203" lon="5.36775">
        <ele>263</ele>
        <time>2022-06-16T12:10:16.000Z</time>
      </trkpt>
      <trkpt lat="46.48181" lon="5.36756">
        <ele>261.79998779297</ele>
        <time>2022-06-16T12:10:18.000Z</time>
      </trkpt>
      <trkpt lat="46.48162" lon="5.3674">
        <ele>260.39999389648</ele>
        <time>2022-06-16T12:10:20.000Z</time>
      </trkpt>
      <trkpt lat="46.48149" lon="5.3673">
        <ele>259.39999389648</ele>
        <time>2022-06-16T12:10:21.000Z</time>
      </trkpt>
      <trkpt lat="46.48139" lon="5.36723">
        <ele>259.20001220703</ele>
        <time>2022-06-16T12:10:22.000Z</time>
      </trkpt>
      <trkpt lat="46.4813" lon="5.36716">
        <ele>257.79998779297</ele>
        <time>2022-06-16T12:10:23.000Z</time>
      </trkpt>
      <trkpt lat="46.48124" lon="5.36711">
        <ele>257.39999389648</ele>
        <time>2022-06-16T12:10:24.000Z</time>
      </trkpt>
      <trkpt lat="46.48117" lon="5.36705">
        <ele>256.60000610352</ele>
        <time>2022-06-16T12:10:25.000Z</time>
      </trkpt>
      <trkpt lat="46.48111" lon="5.36697">
        <ele>256.20001220703</ele>
        <time>2022-06-16T12:10:26.000Z</time>
      </trkpt>
      <trkpt lat="46.48108" lon="5.36689">
        <ele>255.19999694824</ele>
        <time>2022-06-16T12:10:27.000Z</time>
      </trkpt>
      <trkpt lat="46.48108" lon="5.36681">
        <ele>255</ele>
        <time>2022-06-16T12:10:28.000Z</time>
      </trkpt>
      <trkpt lat="46.48111" lon="5.36674">
        <ele>254</ele>
        <time>2022-06-16T12:10:29.000Z</time>
      </trkpt>
      <trkpt lat="46.48116" lon="5.36667">
        <ele>253.19999694824</ele>
        <time>2022-06-16T12:10:30.000Z</time>
      </trkpt>
      <trkpt lat="46.48121" lon="5.36661">
        <ele>253</ele>
        <time>2022-06-16T12:10:31.000Z</time>
      </trkpt>
      <trkpt lat="46.48132" lon="5.36649">
        <ele>252</ele>
        <time>2022-06-16T12:10:33.000Z</time>
      </trkpt>
      <trkpt lat="46.48138" lon="5.36645">
        <ele>251.80000305176</ele>
        <time>2022-06-16T12:10:34.000Z</time>
      </trkpt>
      <trkpt lat="46.48146" lon="5.36643">
        <ele>251.60000610352</ele>
        <time>2022-06-16T12:10:35.000Z</time>
      </trkpt>
      <trkpt lat="46.48161" lon="5.36632">
        <ele>251.19999694824</ele>
        <time>2022-06-16T12:10:37.000Z</time>
      </trkpt>
      <trkpt lat="46.48168" lon="5.36625">
        <ele>251.19999694824</ele>
        <time>2022-06-16T12:10:38.000Z</time>
      </trkpt>
      <trkpt lat="46.48174" lon="5.36618">
        <ele>251</ele>
        <time>2022-06-16T12:10:39.000Z</time>
      </trkpt>
      <trkpt lat="46.48188" lon="5.36609">
        <ele>251</ele>
        <time>2022-06-16T12:10:41.000Z</time>
      </trkpt>
      <trkpt lat="46.48195" lon="5.36607">
        <ele>250.80000305176</ele>
        <time>2022-06-16T12:10:42.000Z</time>
      </trkpt>
      <trkpt lat="46.4821" lon="5.36605">
        <ele>250.80000305176</ele>
        <time>2022-06-16T12:10:44.000Z</time>
      </trkpt>
      <trkpt lat="46.48216" lon="5.36599">
        <ele>250.80000305176</ele>
        <time>2022-06-16T12:10:45.000Z</time>
      </trkpt>
      <trkpt lat="46.4822" lon="5.36592">
        <ele>250.60000610352</ele>
        <time>2022-06-16T12:10:46.000Z</time>
      </trkpt>
      <trkpt lat="46.48224" lon="5.36573">
        <ele>250.19999694824</ele>
        <time>2022-06-16T12:10:48.000Z</time>
      </trkpt>
      <trkpt lat="46.48227" lon="5.36564">
        <ele>250.19999694824</ele>
        <time>2022-06-16T12:10:49.000Z</time>
      </trkpt>
      <trkpt lat="46.48231" lon="5.36558">
        <ele>250</ele>
        <time>2022-06-16T12:10:50.000Z</time>
      </trkpt>
      <trkpt lat="46.48242" lon="5.36546">
        <ele>249.80000305176</ele>
        <time>2022-06-16T12:10:52.000Z</time>
      </trkpt>
      <trkpt lat="46.48264" lon="5.36522">
        <ele>249.19999694824</ele>
        <time>2022-06-16T12:10:56.000Z</time>
      </trkpt>
      <trkpt lat="46.48282" lon="5.36503">
        <ele>248.80000305176</ele>
        <time>2022-06-16T12:10:59.000Z</time>
      </trkpt>
      <trkpt lat="46.48304" lon="5.36477">
        <ele>248.19999694824</ele>
        <time>2022-06-16T12:11:03.000Z</time>
      </trkpt>
      <trkpt lat="46.48321" lon="5.36459">
        <ele>247.60000610352</ele>
        <time>2022-06-16T12:11:06.000Z</time>
      </trkpt>
      <trkpt lat="46.48342" lon="5.36435">
        <ele>246.60000610352</ele>
        <time>2022-06-16T12:11:10.000Z</time>
      </trkpt>
      <trkpt lat="46.48347" lon="5.3643">
        <ele>246.19999694824</ele>
        <time>2022-06-16T12:11:11.000Z</time>
      </trkpt>
      <trkpt lat="46.48358" lon="5.36418">
        <ele>246</ele>
        <time>2022-06-16T12:11:13.000Z</time>
      </trkpt>
      <trkpt lat="46.48376" lon="5.36398">
        <ele>245.39999389648</ele>
        <time>2022-06-16T12:11:16.000Z</time>
      </trkpt>
      <trkpt lat="46.48398" lon="5.36376">
        <ele>244.60000610352</ele>
        <time>2022-06-16T12:11:20.000Z</time>
      </trkpt>
      <trkpt lat="46.48403" lon="5.36371">
        <ele>244.39999389648</ele>
        <time>2022-06-16T12:11:21.000Z</time>
      </trkpt>
      <trkpt lat="46.48414" lon="5.36362">
        <ele>244.19999694824</ele>
        <time>2022-06-16T12:11:23.000Z</time>
      </trkpt>
      <trkpt lat="46.48426" lon="5.36356">
        <ele>244.19999694824</ele>
        <time>2022-06-16T12:11:25.000Z</time>
      </trkpt>
      <trkpt lat="46.4845" lon="5.36349">
        <ele>244.19999694824</ele>
        <time>2022-06-16T12:11:29.000Z</time>
      </trkpt>
      <trkpt lat="46.48462" lon="5.36348">
        <ele>244.19999694824</ele>
        <time>2022-06-16T12:11:31.000Z</time>
      </trkpt>
      <trkpt lat="46.48521" lon="5.36337">
        <ele>243.60000610352</ele>
        <time>2022-06-16T12:11:40.000Z</time>
      </trkpt>
      <trkpt lat="46.48535" lon="5.36335">
        <ele>243.60000610352</ele>
        <time>2022-06-16T12:11:42.000Z</time>
      </trkpt>
      <trkpt lat="46.48541" lon="5.36334">
        <ele>243.39999389648</ele>
        <time>2022-06-16T12:11:43.000Z</time>
      </trkpt>
      <trkpt lat="46.48548" lon="5.36333">
        <ele>243.39999389648</ele>
        <time>2022-06-16T12:11:44.000Z</time>
      </trkpt>
      <trkpt lat="46.48606" lon="5.36324">
        <ele>243</ele>
        <time>2022-06-16T12:11:52.000Z</time>
      </trkpt>
      <trkpt lat="46.48613" lon="5.36321">
        <ele>242.80000305176</ele>
        <time>2022-06-16T12:11:53.000Z</time>
      </trkpt>
      <trkpt lat="46.48626" lon="5.36309">
        <ele>242.39999389648</ele>
        <time>2022-06-16T12:11:55.000Z</time>
      </trkpt>
      <trkpt lat="46.48631" lon="5.36299">
        <ele>242.19999694824</ele>
        <time>2022-06-16T12:11:56.000Z</time>
      </trkpt>
      <trkpt lat="46.48633" lon="5.36288">
        <ele>241.60000610352</ele>
        <time>2022-06-16T12:11:57.000Z</time>
      </trkpt>
      <trkpt lat="46.48636" lon="5.36276">
        <ele>241.19999694824</ele>
        <time>2022-06-16T12:11:58.000Z</time>
      </trkpt>
      <trkpt lat="46.48639" lon="5.36251">
        <ele>240.19999694824</ele>
        <time>2022-06-16T12:12:00.000Z</time>
      </trkpt>
      <trkpt lat="46.4864" lon="5.36239">
        <ele>239.60000610352</ele>
        <time>2022-06-16T12:12:01.000Z</time>
      </trkpt>
      <trkpt lat="46.48644" lon="5.36188">
        <ele>238.80000305176</ele>
        <time>2022-06-16T12:12:05.000Z</time>
      </trkpt>
      <trkpt lat="46.48646" lon="5.36163">
        <ele>238.19999694824</ele>
        <time>2022-06-16T12:12:07.000Z</time>
      </trkpt>
      <trkpt lat="46.48651" lon="5.36127">
        <ele>237.39999389648</ele>
        <time>2022-06-16T12:12:10.000Z</time>
      </trkpt>
      <trkpt lat="46.48656" lon="5.36103">
        <ele>237</ele>
        <time>2022-06-16T12:12:12.000Z</time>
      </trkpt>
      <trkpt lat="46.48669" lon="5.36049">
        <ele>236.60000610352</ele>
        <time>2022-06-16T12:12:17.000Z</time>
      </trkpt>
      <trkpt lat="46.48673" lon="5.3603">
        <ele>236.60000610352</ele>
        <time>2022-06-16T12:12:19.000Z</time>
      </trkpt>
      <trkpt lat="46.48677" lon="5.36014">
        <ele>236.60000610352</ele>
        <time>2022-06-16T12:12:21.000Z</time>
      </trkpt>
      <trkpt lat="46.4868" lon="5.35998">
        <ele>237</ele>
        <time>2022-06-16T12:12:23.000Z</time>
      </trkpt>
      <trkpt lat="46.48683" lon="5.35982">
        <ele>237.39999389648</ele>
        <time>2022-06-16T12:12:25.000Z</time>
      </trkpt>
      <trkpt lat="46.48686" lon="5.35957">
        <ele>238</ele>
        <time>2022-06-16T12:12:28.000Z</time>
      </trkpt>
      <trkpt lat="46.48689" lon="5.35928">
        <ele>238.39999389648</ele>
        <time>2022-06-16T12:12:31.000Z</time>
      </trkpt>
      <trkpt lat="46.48691" lon="5.35919">
        <ele>238.39999389648</ele>
        <time>2022-06-16T12:12:32.000Z</time>
      </trkpt>
      <trkpt lat="46.48695" lon="5.35907">
        <ele>238.39999389648</ele>
        <time>2022-06-16T12:12:33.000Z</time>
      </trkpt>
      <trkpt lat="46.48712" lon="5.35862">
        <ele>238.39999389648</ele>
        <time>2022-06-16T12:12:38.000Z</time>
      </trkpt>
      <trkpt lat="46.48732" lon="5.35813">
        <ele>237.39999389648</ele>
        <time>2022-06-16T12:12:43.000Z</time>
      </trkpt>
      <trkpt lat="46.48745" lon="5.35783">
        <ele>237</ele>
        <time>2022-06-16T12:12:46.000Z</time>
      </trkpt>
      <trkpt lat="46.48748" lon="5.35776">
        <ele>236.60000610352</ele>
        <time>2022-06-16T12:12:47.000Z</time>
      </trkpt>
      <trkpt lat="46.48752" lon="5.35767">
        <ele>236.39999389648</ele>
        <time>2022-06-16T12:12:48.000Z</time>
      </trkpt>
      <trkpt lat="46.48769" lon="5.35729">
        <ele>235.60000610352</ele>
        <time>2022-06-16T12:12:52.000Z</time>
      </trkpt>
      <trkpt lat="46.48785" lon="5.35692">
        <ele>235.39999389648</ele>
        <time>2022-06-16T12:12:56.000Z</time>
      </trkpt>
      <trkpt lat="46.48803" lon="5.3565">
        <ele>235.19999694824</ele>
        <time>2022-06-16T12:13:01.000Z</time>
      </trkpt>
      <trkpt lat="46.48833" lon="5.35584">
        <ele>235.39999389648</ele>
        <time>2022-06-16T12:13:09.000Z</time>
      </trkpt>
      <trkpt lat="46.48837" lon="5.35577">
        <ele>235.39999389648</ele>
        <time>2022-06-16T12:13:10.000Z</time>
      </trkpt>
      <trkpt lat="46.48847" lon="5.35566">
        <ele>235.60000610352</ele>
        <time>2022-06-16T12:13:12.000Z</time>
      </trkpt>
      <trkpt lat="46.48859" lon="5.35562">
        <ele>235.60000610352</ele>
        <time>2022-06-16T12:13:14.000Z</time>
      </trkpt>
      <trkpt lat="46.48865" lon="5.35562">
        <ele>235.60000610352</ele>
        <time>2022-06-16T12:13:15.000Z</time>
      </trkpt>
      <trkpt lat="46.4892" lon="5.35559">
        <ele>235.19999694824</ele>
        <time>2022-06-16T12:13:22.000Z</time>
      </trkpt>
      <trkpt lat="46.48928" lon="5.35558">
        <ele>235.19999694824</ele>
        <time>2022-06-16T12:13:23.000Z</time>
      </trkpt>
      <trkpt lat="46.48969" lon="5.35555">
        <ele>234.39999389648</ele>
        <time>2022-06-16T12:13:28.000Z</time>
      </trkpt>
      <trkpt lat="46.48977" lon="5.35555">
        <ele>234.19999694824</ele>
        <time>2022-06-16T12:13:29.000Z</time>
      </trkpt>
      <trkpt lat="46.49033" lon="5.35552">
        <ele>233.39999389648</ele>
        <time>2022-06-16T12:13:36.000Z</time>
      </trkpt>
      <trkpt lat="46.49041" lon="5.35552">
        <ele>233.39999389648</ele>
        <time>2022-06-16T12:13:37.000Z</time>
      </trkpt>
      <trkpt lat="46.49061" lon="5.3555">
        <ele>233.39999389648</ele>
        <time>2022-06-16T12:13:40.000Z</time>
      </trkpt>
      <trkpt lat="46.49079" lon="5.3555">
        <ele>233.80000305176</ele>
        <time>2022-06-16T12:13:43.000Z</time>
      </trkpt>
      <trkpt lat="46.4909" lon="5.3555">
        <ele>234</ele>
        <time>2022-06-16T12:13:45.000Z</time>
      </trkpt>
      <trkpt lat="46.4912" lon="5.35546">
        <ele>234.80000305176</ele>
        <time>2022-06-16T12:13:50.000Z</time>
      </trkpt>
      <trkpt lat="46.49131" lon="5.35546">
        <ele>235.19999694824</ele>
        <time>2022-06-16T12:13:52.000Z</time>
      </trkpt>
      <trkpt lat="46.49137" lon="5.35546">
        <ele>235.39999389648</ele>
        <time>2022-06-16T12:13:53.000Z</time>
      </trkpt>
      <trkpt lat="46.49156" lon="5.35545">
        <ele>236</ele>
        <time>2022-06-16T12:13:57.000Z</time>
      </trkpt>
      <trkpt lat="46.4916" lon="5.35544">
        <ele>236.39999389648</ele>
        <time>2022-06-16T12:13:58.000Z</time>
      </trkpt>
      <trkpt lat="46.49186" lon="5.35544">
        <ele>237</ele>
        <time>2022-06-16T12:14:02.000Z</time>
      </trkpt>
      <trkpt lat="46.49209" lon="5.35542">
        <ele>237.39999389648</ele>
        <time>2022-06-16T12:14:05.000Z</time>
      </trkpt>
      <trkpt lat="46.49236" lon="5.35538">
        <ele>237.80000305176</ele>
        <time>2022-06-16T12:14:08.000Z</time>
      </trkpt>
      <trkpt lat="46.49244" lon="5.35538">
        <ele>237.80000305176</ele>
        <time>2022-06-16T12:14:09.000Z</time>
      </trkpt>
      <trkpt lat="46.49268" lon="5.35537">
        <ele>237.80000305176</ele>
        <time>2022-06-16T12:14:12.000Z</time>
      </trkpt>
      <trkpt lat="46.49275" lon="5.35537">
        <ele>238</ele>
        <time>2022-06-16T12:14:13.000Z</time>
      </trkpt>
      <trkpt lat="46.49298" lon="5.35536">
        <ele>238</ele>
        <time>2022-06-16T12:14:16.000Z</time>
      </trkpt>
      <trkpt lat="46.4932" lon="5.35536">
        <ele>238</ele>
        <time>2022-06-16T12:14:19.000Z</time>
      </trkpt>
      <trkpt lat="46.49336" lon="5.35534">
        <ele>237.80000305176</ele>
        <time>2022-06-16T12:14:21.000Z</time>
      </trkpt>
      <trkpt lat="46.49375" lon="5.35535">
        <ele>237.39999389648</ele>
        <time>2022-06-16T12:14:26.000Z</time>
      </trkpt>
      <trkpt lat="46.49414" lon="5.35546">
        <ele>236.60000610352</ele>
        <time>2022-06-16T12:14:31.000Z</time>
      </trkpt>
      <trkpt lat="46.49444" lon="5.35559">
        <ele>236.19999694824</ele>
        <time>2022-06-16T12:14:35.000Z</time>
      </trkpt>
      <trkpt lat="46.49473" lon="5.3557">
        <ele>236.19999694824</ele>
        <time>2022-06-16T12:14:39.000Z</time>
      </trkpt>
      <trkpt lat="46.49507" lon="5.35585">
        <ele>236</ele>
        <time>2022-06-16T12:14:44.000Z</time>
      </trkpt>
      <trkpt lat="46.49558" lon="5.35606">
        <ele>235.39999389648</ele>
        <time>2022-06-16T12:14:51.000Z</time>
      </trkpt>
      <trkpt lat="46.49572" lon="5.35611">
        <ele>235.39999389648</ele>
        <time>2022-06-16T12:14:53.000Z</time>
      </trkpt>
      <trkpt lat="46.49609" lon="5.35622">
        <ele>234.80000305176</ele>
        <time>2022-06-16T12:14:58.000Z</time>
      </trkpt>
      <trkpt lat="46.49623" lon="5.35627">
        <ele>234.39999389648</ele>
        <time>2022-06-16T12:15:00.000Z</time>
      </trkpt>
      <trkpt lat="46.49679" lon="5.35644">
        <ele>233.19999694824</ele>
        <time>2022-06-16T12:15:08.000Z</time>
      </trkpt>
      <trkpt lat="46.4969" lon="5.35648">
        <ele>232.80000305176</ele>
        <time>2022-06-16T12:15:10.000Z</time>
      </trkpt>
      <trkpt lat="46.49694" lon="5.35648">
        <ele>232.60000610352</ele>
        <time>2022-06-16T12:15:11.000Z</time>
      </trkpt>
      <trkpt lat="46.49697" lon="5.35646">
        <ele>232.19999694824</ele>
        <time>2022-06-16T12:15:12.000Z</time>
      </trkpt>
      <trkpt lat="46.497" lon="5.35642">
        <ele>232.19999694824</ele>
        <time>2022-06-16T12:15:13.000Z</time>
      </trkpt>
      <trkpt lat="46.49703" lon="5.35636">
        <ele>231.80000305176</ele>
        <time>2022-06-16T12:15:14.000Z</time>
      </trkpt>
      <trkpt lat="46.49704" lon="5.35629">
        <ele>231.39999389648</ele>
        <time>2022-06-16T12:15:15.000Z</time>
      </trkpt>
      <trkpt lat="46.49707" lon="5.35613">
        <ele>231</ele>
        <time>2022-06-16T12:15:17.000Z</time>
      </trkpt>
      <trkpt lat="46.49708" lon="5.35604">
        <ele>230.80000305176</ele>
        <time>2022-06-16T12:15:18.000Z</time>
      </trkpt>
      <trkpt lat="46.49716" lon="5.35538">
        <ele>230</ele>
        <time>2022-06-16T12:15:25.000Z</time>
      </trkpt>
      <trkpt lat="46.49717" lon="5.35528">
        <ele>229.80000305176</ele>
        <time>2022-06-16T12:15:26.000Z</time>
      </trkpt>
      <trkpt lat="46.49727" lon="5.35446">
        <ele>229.60000610352</ele>
        <time>2022-06-16T12:15:34.000Z</time>
      </trkpt>
      <trkpt lat="46.49731" lon="5.35413">
        <ele>229.19999694824</ele>
        <time>2022-06-16T12:15:37.000Z</time>
      </trkpt>
      <trkpt lat="46.49735" lon="5.35368">
        <ele>229.19999694824</ele>
        <time>2022-06-16T12:15:41.000Z</time>
      </trkpt>
      <trkpt lat="46.49736" lon="5.35356">
        <ele>229</ele>
        <time>2022-06-16T12:15:42.000Z</time>
      </trkpt>
      <trkpt lat="46.49735" lon="5.35345">
        <ele>228.80000305176</ele>
        <time>2022-06-16T12:15:43.000Z</time>
      </trkpt>
      <trkpt lat="46.49728" lon="5.35292">
        <ele>228.39999389648</ele>
        <time>2022-06-16T12:15:48.000Z</time>
      </trkpt>
      <trkpt lat="46.49714" lon="5.35226">
        <ele>228.39999389648</ele>
        <time>2022-06-16T12:15:55.000Z</time>
      </trkpt>
      <trkpt lat="46.49701" lon="5.35159">
        <ele>228.60000610352</ele>
        <time>2022-06-16T12:16:02.000Z</time>
      </trkpt>
      <trkpt lat="46.49684" lon="5.35075">
        <ele>228.39999389648</ele>
        <time>2022-06-16T12:16:10.000Z</time>
      </trkpt>
      <trkpt lat="46.49682" lon="5.35065">
        <ele>228.60000610352</ele>
        <time>2022-06-16T12:16:11.000Z</time>
      </trkpt>
      <trkpt lat="46.49667" lon="5.34994">
        <ele>228.80000305176</ele>
        <time>2022-06-16T12:16:19.000Z</time>
      </trkpt>
      <trkpt lat="46.49656" lon="5.34939">
        <ele>229.60000610352</ele>
        <time>2022-06-16T12:16:26.000Z</time>
      </trkpt>
      <trkpt lat="46.49653" lon="5.34923">
        <ele>229.80000305176</ele>
        <time>2022-06-16T12:16:28.000Z</time>
      </trkpt>
      <trkpt lat="46.49641" lon="5.34856">
        <ele>230.39999389648</ele>
        <time>2022-06-16T12:16:36.000Z</time>
      </trkpt>
      <trkpt lat="46.49631" lon="5.34801">
        <ele>230.19999694824</ele>
        <time>2022-06-16T12:16:42.000Z</time>
      </trkpt>
      <trkpt lat="46.4963" lon="5.3479">
        <ele>230.19999694824</ele>
        <time>2022-06-16T12:16:43.000Z</time>
      </trkpt>
      <trkpt lat="46.49628" lon="5.34744">
        <ele>229.60000610352</ele>
        <time>2022-06-16T12:16:47.000Z</time>
      </trkpt>
      <trkpt lat="46.49632" lon="5.34682">
        <ele>228.60000610352</ele>
        <time>2022-06-16T12:16:52.000Z</time>
      </trkpt>
      <trkpt lat="46.49635" lon="5.34644">
        <ele>227.60000610352</ele>
        <time>2022-06-16T12:16:55.000Z</time>
      </trkpt>
      <trkpt lat="46.4964" lon="5.34606">
        <ele>226.39999389648</ele>
        <time>2022-06-16T12:16:58.000Z</time>
      </trkpt>
      <trkpt lat="46.49643" lon="5.34581">
        <ele>226</ele>
        <time>2022-06-16T12:17:00.000Z</time>
      </trkpt>
      <trkpt lat="46.49645" lon="5.34568">
        <ele>225.39999389648</ele>
        <time>2022-06-16T12:17:01.000Z</time>
      </trkpt>
      <trkpt lat="46.49652" lon="5.34532">
        <ele>224</ele>
        <time>2022-06-16T12:17:04.000Z</time>
      </trkpt>
      <trkpt lat="46.49657" lon="5.3451">
        <ele>223.60000610352</ele>
        <time>2022-06-16T12:17:06.000Z</time>
      </trkpt>
      <trkpt lat="46.49673" lon="5.34454">
        <ele>223.60000610352</ele>
        <time>2022-06-16T12:17:12.000Z</time>
      </trkpt>
      <trkpt lat="46.4968" lon="5.34428">
        <ele>224</ele>
        <time>2022-06-16T12:17:15.000Z</time>
      </trkpt>
      <trkpt lat="46.49686" lon="5.34403">
        <ele>224.39999389648</ele>
        <time>2022-06-16T12:17:18.000Z</time>
      </trkpt>
      <trkpt lat="46.49689" lon="5.34396">
        <ele>224.39999389648</ele>
        <time>2022-06-16T12:17:19.000Z</time>
      </trkpt>
      <trkpt lat="46.49696" lon="5.34375">
        <ele>225.19999694824</ele>
        <time>2022-06-16T12:17:22.000Z</time>
      </trkpt>
      <trkpt lat="46.49702" lon="5.34362">
        <ele>225.60000610352</ele>
        <time>2022-06-16T12:17:24.000Z</time>
      </trkpt>
      <trkpt lat="46.49704" lon="5.34355">
        <ele>225.39999389648</ele>
        <time>2022-06-16T12:17:25.000Z</time>
      </trkpt>
      <trkpt lat="46.49709" lon="5.34341">
        <ele>226</ele>
        <time>2022-06-16T12:17:27.000Z</time>
      </trkpt>
      <trkpt lat="46.49711" lon="5.34335">
        <ele>226.39999389648</ele>
        <time>2022-06-16T12:17:28.000Z</time>
      </trkpt>
      <trkpt lat="46.49731" lon="5.34291">
        <ele>227.39999389648</ele>
        <time>2022-06-16T12:17:34.000Z</time>
      </trkpt>
      <trkpt lat="46.49735" lon="5.34284">
        <ele>227.60000610352</ele>
        <time>2022-06-16T12:17:35.000Z</time>
      </trkpt>
      <trkpt lat="46.4974" lon="5.34276">
        <ele>227.80000305176</ele>
        <time>2022-06-16T12:17:36.000Z</time>
      </trkpt>
      <trkpt lat="46.49752" lon="5.34253">
        <ele>227.80000305176</ele>
        <time>2022-06-16T12:17:39.000Z</time>
      </trkpt>
      <trkpt lat="46.49769" lon="5.34221">
        <ele>227.60000610352</ele>
        <time>2022-06-16T12:17:43.000Z</time>
      </trkpt>
      <trkpt lat="46.49774" lon="5.34214">
        <ele>228</ele>
        <time>2022-06-16T12:17:44.000Z</time>
      </trkpt>
      <trkpt lat="46.49791" lon="5.34183">
        <ele>228</ele>
        <time>2022-06-16T12:17:48.000Z</time>
      </trkpt>
      <trkpt lat="46.49799" lon="5.34169">
        <ele>228</ele>
        <time>2022-06-16T12:17:50.000Z</time>
      </trkpt>
      <trkpt lat="46.49803" lon="5.34163">
        <ele>228</ele>
        <time>2022-06-16T12:17:51.000Z</time>
      </trkpt>
      <trkpt lat="46.49811" lon="5.34149">
        <ele>228.19999694824</ele>
        <time>2022-06-16T12:17:53.000Z</time>
      </trkpt>
      <trkpt lat="46.49815" lon="5.34141">
        <ele>228.19999694824</ele>
        <time>2022-06-16T12:17:54.000Z</time>
      </trkpt>
      <trkpt lat="46.49849" lon="5.34085">
        <ele>228</ele>
        <time>2022-06-16T12:18:02.000Z</time>
      </trkpt>
      <trkpt lat="46.49885" lon="5.34039">
        <ele>227.80000305176</ele>
        <time>2022-06-16T12:18:09.000Z</time>
      </trkpt>
      <trkpt lat="46.49911" lon="5.34012">
        <ele>227.80000305176</ele>
        <time>2022-06-16T12:18:14.000Z</time>
      </trkpt>
      <trkpt lat="46.49916" lon="5.34006">
        <ele>227.80000305176</ele>
        <time>2022-06-16T12:18:15.000Z</time>
      </trkpt>
      <trkpt lat="46.49948" lon="5.33973">
        <ele>228.39999389648</ele>
        <time>2022-06-16T12:18:22.000Z</time>
      </trkpt>
      <trkpt lat="46.49952" lon="5.33969">
        <ele>228.60000610352</ele>
        <time>2022-06-16T12:18:23.000Z</time>
      </trkpt>
      <trkpt lat="46.49974" lon="5.33948">
        <ele>229.60000610352</ele>
        <time>2022-06-16T12:18:28.000Z</time>
      </trkpt>
      <trkpt lat="46.49985" lon="5.33938">
        <ele>229.80000305176</ele>
        <time>2022-06-16T12:18:30.000Z</time>
      </trkpt>
      <trkpt lat="46.49989" lon="5.33932">
        <ele>230.19999694824</ele>
        <time>2022-06-16T12:18:31.000Z</time>
      </trkpt>
      <trkpt lat="46.49999" lon="5.33921">
        <ele>230.60000610352</ele>
        <time>2022-06-16T12:18:33.000Z</time>
      </trkpt>
      <trkpt lat="46.50032" lon="5.33884">
        <ele>230.80000305176</ele>
        <time>2022-06-16T12:18:39.000Z</time>
      </trkpt>
      <trkpt lat="46.50069" lon="5.33843">
        <ele>230.19999694824</ele>
        <time>2022-06-16T12:18:45.000Z</time>
      </trkpt>
      <trkpt lat="46.50108" lon="5.33798">
        <ele>229.39999389648</ele>
        <time>2022-06-16T12:18:51.000Z</time>
      </trkpt>
      <trkpt lat="46.50134" lon="5.3377">
        <ele>228.80000305176</ele>
        <time>2022-06-16T12:18:55.000Z</time>
      </trkpt>
      <trkpt lat="46.5014" lon="5.33763">
        <ele>228.80000305176</ele>
        <time>2022-06-16T12:18:56.000Z</time>
      </trkpt>
      <trkpt lat="46.50147" lon="5.33757">
        <ele>228.60000610352</ele>
        <time>2022-06-16T12:18:57.000Z</time>
      </trkpt>
      <trkpt lat="46.50178" lon="5.33729">
        <ele>228.60000610352</ele>
        <time>2022-06-16T12:19:02.000Z</time>
      </trkpt>
      <trkpt lat="46.50183" lon="5.33723">
        <ele>228.60000610352</ele>
        <time>2022-06-16T12:19:03.000Z</time>
      </trkpt>
      <trkpt lat="46.502" lon="5.33707">
        <ele>228.80000305176</ele>
        <time>2022-06-16T12:19:06.000Z</time>
      </trkpt>
      <trkpt lat="46.5021" lon="5.33696">
        <ele>228.80000305176</ele>
        <time>2022-06-16T12:19:08.000Z</time>
      </trkpt>
      <trkpt lat="46.5022" lon="5.33685">
        <ele>228.80000305176</ele>
        <time>2022-06-16T12:19:10.000Z</time>
      </trkpt>
      <trkpt lat="46.50231" lon="5.33673">
        <ele>229</ele>
        <time>2022-06-16T12:19:12.000Z</time>
      </trkpt>
      <trkpt lat="46.50237" lon="5.33666">
        <ele>229</ele>
        <time>2022-06-16T12:19:13.000Z</time>
      </trkpt>
      <trkpt lat="46.50242" lon="5.3366">
        <ele>228.80000305176</ele>
        <time>2022-06-16T12:19:14.000Z</time>
      </trkpt>
      <trkpt lat="46.50265" lon="5.33635">
        <ele>228.80000305176</ele>
        <time>2022-06-16T12:19:18.000Z</time>
      </trkpt>
      <trkpt lat="46.50282" lon="5.33616">
        <ele>228.60000610352</ele>
        <time>2022-06-16T12:19:21.000Z</time>
      </trkpt>
      <trkpt lat="46.503" lon="5.33595">
        <ele>228.39999389648</ele>
        <time>2022-06-16T12:19:24.000Z</time>
      </trkpt>
      <trkpt lat="46.50324" lon="5.33567">
        <ele>228.19999694824</ele>
        <time>2022-06-16T12:19:28.000Z</time>
      </trkpt>
      <trkpt lat="46.50336" lon="5.33555">
        <ele>227.80000305176</ele>
        <time>2022-06-16T12:19:30.000Z</time>
      </trkpt>
      <trkpt lat="46.50343" lon="5.33549">
        <ele>227.60000610352</ele>
        <time>2022-06-16T12:19:31.000Z</time>
      </trkpt>
      <trkpt lat="46.50372" lon="5.33517">
        <ele>227.39999389648</ele>
        <time>2022-06-16T12:19:36.000Z</time>
      </trkpt>
      <trkpt lat="46.50416" lon="5.3347">
        <ele>226.80000305176</ele>
        <time>2022-06-16T12:19:43.000Z</time>
      </trkpt>
      <trkpt lat="46.50422" lon="5.33463">
        <ele>226.80000305176</ele>
        <time>2022-06-16T12:19:44.000Z</time>
      </trkpt>
      <trkpt lat="46.50434" lon="5.33449">
        <ele>226.60000610352</ele>
        <time>2022-06-16T12:19:46.000Z</time>
      </trkpt>
      <trkpt lat="46.50453" lon="5.33414">
        <ele>226</ele>
        <time>2022-06-16T12:19:50.000Z</time>
      </trkpt>
      <trkpt lat="46.50456" lon="5.33405">
        <ele>225.80000305176</ele>
        <time>2022-06-16T12:19:51.000Z</time>
      </trkpt>
      <trkpt lat="46.50464" lon="5.33372">
        <ele>225.60000610352</ele>
        <time>2022-06-16T12:19:54.000Z</time>
      </trkpt>
      <trkpt lat="46.50466" lon="5.3335">
        <ele>225.39999389648</ele>
        <time>2022-06-16T12:19:56.000Z</time>
      </trkpt>
      <trkpt lat="46.50466" lon="5.33307">
        <ele>225</ele>
        <time>2022-06-16T12:20:00.000Z</time>
      </trkpt>
      <trkpt lat="46.50469" lon="5.33256">
        <ele>225.19999694824</ele>
        <time>2022-06-16T12:20:05.000Z</time>
      </trkpt>
      <trkpt lat="46.5047" lon="5.33199">
        <ele>225.60000610352</ele>
        <time>2022-06-16T12:20:11.000Z</time>
      </trkpt>
      <trkpt lat="46.5047" lon="5.33179">
        <ele>225.60000610352</ele>
        <time>2022-06-16T12:20:13.000Z</time>
      </trkpt>
      <trkpt lat="46.50469" lon="5.33159">
        <ele>225.39999389648</ele>
        <time>2022-06-16T12:20:15.000Z</time>
      </trkpt>
      <trkpt lat="46.50469" lon="5.33148">
        <ele>225.39999389648</ele>
        <time>2022-06-16T12:20:16.000Z</time>
      </trkpt>
      <trkpt lat="46.50471" lon="5.33086">
        <ele>224.80000305176</ele>
        <time>2022-06-16T12:20:21.000Z</time>
      </trkpt>
      <trkpt lat="46.50472" lon="5.33045">
        <ele>224.19999694824</ele>
        <time>2022-06-16T12:20:24.000Z</time>
      </trkpt>
      <trkpt lat="46.50472" lon="5.33015">
        <ele>223.60000610352</ele>
        <time>2022-06-16T12:20:26.000Z</time>
      </trkpt>
      <trkpt lat="46.50472" lon="5.32985">
        <ele>222.60000610352</ele>
        <time>2022-06-16T12:20:28.000Z</time>
      </trkpt>
      <trkpt lat="46.50473" lon="5.3294">
        <ele>221.60000610352</ele>
        <time>2022-06-16T12:20:31.000Z</time>
      </trkpt>
      <trkpt lat="46.50474" lon="5.32911">
        <ele>220.39999389648</ele>
        <time>2022-06-16T12:20:33.000Z</time>
      </trkpt>
      <trkpt lat="46.50474" lon="5.32867">
        <ele>219.39999389648</ele>
        <time>2022-06-16T12:20:36.000Z</time>
      </trkpt>
      <trkpt lat="46.50475" lon="5.32839">
        <ele>218.19999694824</ele>
        <time>2022-06-16T12:20:38.000Z</time>
      </trkpt>
      <trkpt lat="46.50476" lon="5.32797">
        <ele>217</ele>
        <time>2022-06-16T12:20:41.000Z</time>
      </trkpt>
      <trkpt lat="46.50476" lon="5.3277">
        <ele>215.80000305176</ele>
        <time>2022-06-16T12:20:43.000Z</time>
      </trkpt>
      <trkpt lat="46.50476" lon="5.32757">
        <ele>215.19999694824</ele>
        <time>2022-06-16T12:20:44.000Z</time>
      </trkpt>
      <trkpt lat="46.50477" lon="5.32731">
        <ele>214.80000305176</ele>
        <time>2022-06-16T12:20:46.000Z</time>
      </trkpt>
      <trkpt lat="46.50478" lon="5.32666">
        <ele>214.19999694824</ele>
        <time>2022-06-16T12:20:51.000Z</time>
      </trkpt>
      <trkpt lat="46.50478" lon="5.32628">
        <ele>213.80000305176</ele>
        <time>2022-06-16T12:20:54.000Z</time>
      </trkpt>
      <trkpt lat="46.50476" lon="5.32565">
        <ele>213</ele>
        <time>2022-06-16T12:20:59.000Z</time>
      </trkpt>
      <trkpt lat="46.50475" lon="5.3254">
        <ele>212.60000610352</ele>
        <time>2022-06-16T12:21:01.000Z</time>
      </trkpt>
      <trkpt lat="46.50469" lon="5.32456">
        <ele>211.80000305176</ele>
        <time>2022-06-16T12:21:08.000Z</time>
      </trkpt>
      <trkpt lat="46.50468" lon="5.32445">
        <ele>211.60000610352</ele>
        <time>2022-06-16T12:21:09.000Z</time>
      </trkpt>
      <trkpt lat="46.50462" lon="5.32411">
        <ele>211.19999694824</ele>
        <time>2022-06-16T12:21:12.000Z</time>
      </trkpt>
      <trkpt lat="46.50455" lon="5.32378">
        <ele>211</ele>
        <time>2022-06-16T12:21:15.000Z</time>
      </trkpt>
      <trkpt lat="46.50448" lon="5.32345">
        <ele>210.60000610352</ele>
        <time>2022-06-16T12:21:18.000Z</time>
      </trkpt>
      <trkpt lat="46.50436" lon="5.32283">
        <ele>210.19999694824</ele>
        <time>2022-06-16T12:21:24.000Z</time>
      </trkpt>
      <trkpt lat="46.50431" lon="5.32217">
        <ele>210.19999694824</ele>
        <time>2022-06-16T12:21:30.000Z</time>
      </trkpt>
      <trkpt lat="46.50436" lon="5.32198">
        <ele>210.19999694824</ele>
        <time>2022-06-16T12:21:32.000Z</time>
      </trkpt>
      <trkpt lat="46.50441" lon="5.3219">
        <ele>210.19999694824</ele>
        <time>2022-06-16T12:21:33.000Z</time>
      </trkpt>
      <trkpt lat="46.50447" lon="5.32186">
        <ele>210.19999694824</ele>
        <time>2022-06-16T12:21:34.000Z</time>
      </trkpt>
      <trkpt lat="46.50458" lon="5.32175">
        <ele>210</ele>
        <time>2022-06-16T12:21:36.000Z</time>
      </trkpt>
      <trkpt lat="46.50467" lon="5.32159">
        <ele>210</ele>
        <time>2022-06-16T12:21:38.000Z</time>
      </trkpt>
      <trkpt lat="46.5047" lon="5.3215">
        <ele>210</ele>
        <time>2022-06-16T12:21:39.000Z</time>
      </trkpt>
      <trkpt lat="46.50488" lon="5.32095">
        <ele>209.80000305176</ele>
        <time>2022-06-16T12:21:45.000Z</time>
      </trkpt>
      <trkpt lat="46.50492" lon="5.32086">
        <ele>209.80000305176</ele>
        <time>2022-06-16T12:21:46.000Z</time>
      </trkpt>
      <trkpt lat="46.50529" lon="5.32023">
        <ele>209.60000610352</ele>
        <time>2022-06-16T12:21:54.000Z</time>
      </trkpt>
      <trkpt lat="46.5055" lon="5.31989">
        <ele>209.80000305176</ele>
        <time>2022-06-16T12:21:59.000Z</time>
      </trkpt>
      <trkpt lat="46.5056" lon="5.3197">
        <ele>210.19999694824</ele>
        <time>2022-06-16T12:22:02.000Z</time>
      </trkpt>
      <trkpt lat="46.50566" lon="5.3195">
        <ele>210.80000305176</ele>
        <time>2022-06-16T12:22:05.000Z</time>
      </trkpt>
      <trkpt lat="46.50577" lon="5.3192">
        <ele>211.80000305176</ele>
        <time>2022-06-16T12:22:10.000Z</time>
      </trkpt>
      <trkpt lat="46.5058" lon="5.31914">
        <ele>211.80000305176</ele>
        <time>2022-06-16T12:22:11.000Z</time>
      </trkpt>
      <trkpt lat="46.50585" lon="5.31896">
        <ele>212.80000305176</ele>
        <time>2022-06-16T12:22:14.000Z</time>
      </trkpt>
      <trkpt lat="46.50592" lon="5.31878">
        <ele>213.39999389648</ele>
        <time>2022-06-16T12:22:17.000Z</time>
      </trkpt>
      <trkpt lat="46.50594" lon="5.31872">
        <ele>213.60000610352</ele>
        <time>2022-06-16T12:22:18.000Z</time>
      </trkpt>
      <trkpt lat="46.50597" lon="5.31867">
        <ele>214</ele>
        <time>2022-06-16T12:22:19.000Z</time>
      </trkpt>
      <trkpt lat="46.506" lon="5.31855">
        <ele>214.39999389648</ele>
        <time>2022-06-16T12:22:21.000Z</time>
      </trkpt>
      <trkpt lat="46.50604" lon="5.31844">
        <ele>214.60000610352</ele>
        <time>2022-06-16T12:22:23.000Z</time>
      </trkpt>
      <trkpt lat="46.50609" lon="5.31827">
        <ele>215.39999389648</ele>
        <time>2022-06-16T12:22:26.000Z</time>
      </trkpt>
      <trkpt lat="46.50617" lon="5.31803">
        <ele>216.60000610352</ele>
        <time>2022-06-16T12:22:30.000Z</time>
      </trkpt>
      <trkpt lat="46.50621" lon="5.31791">
        <ele>217</ele>
        <time>2022-06-16T12:22:32.000Z</time>
      </trkpt>
      <trkpt lat="46.5063" lon="5.31766">
        <ele>217.60000610352</ele>
        <time>2022-06-16T12:22:36.000Z</time>
      </trkpt>
      <trkpt lat="46.50632" lon="5.3176">
        <ele>218</ele>
        <time>2022-06-16T12:22:37.000Z</time>
      </trkpt>
      <trkpt lat="46.50637" lon="5.31748">
        <ele>218</ele>
        <time>2022-06-16T12:22:39.000Z</time>
      </trkpt>
      <trkpt lat="46.50645" lon="5.31736">
        <ele>218.19999694824</ele>
        <time>2022-06-16T12:22:41.000Z</time>
      </trkpt>
      <trkpt lat="46.50649" lon="5.3173">
        <ele>218.19999694824</ele>
        <time>2022-06-16T12:22:42.000Z</time>
      </trkpt>
      <trkpt lat="46.50664" lon="5.31719">
        <ele>218.39999389648</ele>
        <time>2022-06-16T12:22:45.000Z</time>
      </trkpt>
      <trkpt lat="46.50676" lon="5.31716">
        <ele>218.39999389648</ele>
        <time>2022-06-16T12:22:47.000Z</time>
      </trkpt>
      <trkpt lat="46.50701" lon="5.31712">
        <ele>218.60000610352</ele>
        <time>2022-06-16T12:22:51.000Z</time>
      </trkpt>
      <trkpt lat="46.50753" lon="5.31706">
        <ele>218.60000610352</ele>
        <time>2022-06-16T12:22:59.000Z</time>
      </trkpt>
      <trkpt lat="46.50766" lon="5.31707">
        <ele>218.60000610352</ele>
        <time>2022-06-16T12:23:01.000Z</time>
      </trkpt>
      <trkpt lat="46.50778" lon="5.31711">
        <ele>218.60000610352</ele>
        <time>2022-06-16T12:23:03.000Z</time>
      </trkpt>
      <trkpt lat="46.50801" lon="5.31729">
        <ele>218.80000305176</ele>
        <time>2022-06-16T12:23:07.000Z</time>
      </trkpt>
      <trkpt lat="46.50813" lon="5.31738">
        <ele>219</ele>
        <time>2022-06-16T12:23:09.000Z</time>
      </trkpt>
      <trkpt lat="46.5083" lon="5.31748">
        <ele>219.19999694824</ele>
        <time>2022-06-16T12:23:12.000Z</time>
      </trkpt>
      <trkpt lat="46.50843" lon="5.31748">
        <ele>219.39999389648</ele>
        <time>2022-06-16T12:23:14.000Z</time>
      </trkpt>
      <trkpt lat="46.50854" lon="5.31742">
        <ele>219.39999389648</ele>
        <time>2022-06-16T12:23:16.000Z</time>
      </trkpt>
      <trkpt lat="46.5086" lon="5.31737">
        <ele>219.60000610352</ele>
        <time>2022-06-16T12:23:17.000Z</time>
      </trkpt>
      <trkpt lat="46.5088" lon="5.31715">
        <ele>219.80000305176</ele>
        <time>2022-06-16T12:23:21.000Z</time>
      </trkpt>
      <trkpt lat="46.509" lon="5.31693">
        <ele>220</ele>
        <time>2022-06-16T12:23:25.000Z</time>
      </trkpt>
      <trkpt lat="46.50932" lon="5.3166">
        <ele>220</ele>
        <time>2022-06-16T12:23:30.000Z</time>
      </trkpt>
      <trkpt lat="46.50978" lon="5.31612">
        <ele>219</ele>
        <time>2022-06-16T12:23:37.000Z</time>
      </trkpt>
      <trkpt lat="46.50984" lon="5.31605">
        <ele>218.80000305176</ele>
        <time>2022-06-16T12:23:38.000Z</time>
      </trkpt>
      <trkpt lat="46.51008" lon="5.31581">
        <ele>218.60000610352</ele>
        <time>2022-06-16T12:23:42.000Z</time>
      </trkpt>
      <trkpt lat="46.51034" lon="5.31549">
        <ele>218.80000305176</ele>
        <time>2022-06-16T12:23:47.000Z</time>
      </trkpt>
      <trkpt lat="46.51041" lon="5.31532">
        <ele>218.80000305176</ele>
        <time>2022-06-16T12:23:49.000Z</time>
      </trkpt>
      <trkpt lat="46.51046" lon="5.3151">
        <ele>218.80000305176</ele>
        <time>2022-06-16T12:23:51.000Z</time>
      </trkpt>
      <trkpt lat="46.51065" lon="5.31426">
        <ele>218</ele>
        <time>2022-06-16T12:23:58.000Z</time>
      </trkpt>
      <trkpt lat="46.51069" lon="5.31401">
        <ele>217.39999389648</ele>
        <time>2022-06-16T12:24:00.000Z</time>
      </trkpt>
      <trkpt lat="46.51071" lon="5.31376">
        <ele>217</ele>
        <time>2022-06-16T12:24:02.000Z</time>
      </trkpt>
      <trkpt lat="46.51071" lon="5.31363">
        <ele>216.60000610352</ele>
        <time>2022-06-16T12:24:03.000Z</time>
      </trkpt>
      <trkpt lat="46.51071" lon="5.3135">
        <ele>216.39999389648</ele>
        <time>2022-06-16T12:24:04.000Z</time>
      </trkpt>
      <trkpt lat="46.51071" lon="5.31338">
        <ele>216.19999694824</ele>
        <time>2022-06-16T12:24:05.000Z</time>
      </trkpt>
      <trkpt lat="46.51072" lon="5.31312">
        <ele>215.80000305176</ele>
        <time>2022-06-16T12:24:07.000Z</time>
      </trkpt>
      <trkpt lat="46.51075" lon="5.313">
        <ele>215.60000610352</ele>
        <time>2022-06-16T12:24:08.000Z</time>
      </trkpt>
      <trkpt lat="46.51081" lon="5.31289">
        <ele>215.39999389648</ele>
        <time>2022-06-16T12:24:09.000Z</time>
      </trkpt>
      <trkpt lat="46.51088" lon="5.3128">
        <ele>214.80000305176</ele>
        <time>2022-06-16T12:24:10.000Z</time>
      </trkpt>
      <trkpt lat="46.51103" lon="5.31262">
        <ele>214</ele>
        <time>2022-06-16T12:24:12.000Z</time>
      </trkpt>
      <trkpt lat="46.51125" lon="5.31236">
        <ele>212.60000610352</ele>
        <time>2022-06-16T12:24:15.000Z</time>
      </trkpt>
      <trkpt lat="46.51164" lon="5.31191">
        <ele>211.60000610352</ele>
        <time>2022-06-16T12:24:20.000Z</time>
      </trkpt>
      <trkpt lat="46.51172" lon="5.31182">
        <ele>211.39999389648</ele>
        <time>2022-06-16T12:24:21.000Z</time>
      </trkpt>
      <trkpt lat="46.51193" lon="5.31156">
        <ele>210.60000610352</ele>
        <time>2022-06-16T12:24:24.000Z</time>
      </trkpt>
      <trkpt lat="46.512" lon="5.31148">
        <ele>210.39999389648</ele>
        <time>2022-06-16T12:24:25.000Z</time>
      </trkpt>
      <trkpt lat="46.5124" lon="5.31109">
        <ele>209.80000305176</ele>
        <time>2022-06-16T12:24:30.000Z</time>
      </trkpt>
      <trkpt lat="46.51256" lon="5.31094">
        <ele>209.60000610352</ele>
        <time>2022-06-16T12:24:32.000Z</time>
      </trkpt>
      <trkpt lat="46.51265" lon="5.31089">
        <ele>209.39999389648</ele>
        <time>2022-06-16T12:24:33.000Z</time>
      </trkpt>
      <trkpt lat="46.51273" lon="5.31086">
        <ele>209.39999389648</ele>
        <time>2022-06-16T12:24:34.000Z</time>
      </trkpt>
      <trkpt lat="46.51316" lon="5.31081">
        <ele>208.39999389648</ele>
        <time>2022-06-16T12:24:39.000Z</time>
      </trkpt>
      <trkpt lat="46.51324" lon="5.3108">
        <ele>208.19999694824</ele>
        <time>2022-06-16T12:24:40.000Z</time>
      </trkpt>
      <trkpt lat="46.51371" lon="5.31078">
        <ele>208</ele>
        <time>2022-06-16T12:24:46.000Z</time>
      </trkpt>
      <trkpt lat="46.51425" lon="5.31075">
        <ele>207.60000610352</ele>
        <time>2022-06-16T12:24:53.000Z</time>
      </trkpt>
      <trkpt lat="46.51486" lon="5.31074">
        <ele>207.60000610352</ele>
        <time>2022-06-16T12:25:01.000Z</time>
      </trkpt>
      <trkpt lat="46.51493" lon="5.31074">
        <ele>207.60000610352</ele>
        <time>2022-06-16T12:25:02.000Z</time>
      </trkpt>
      <trkpt lat="46.51535" lon="5.31075">
        <ele>207.80000305176</ele>
        <time>2022-06-16T12:25:08.000Z</time>
      </trkpt>
      <trkpt lat="46.51587" lon="5.31083">
        <ele>208</ele>
        <time>2022-06-16T12:25:16.000Z</time>
      </trkpt>
      <trkpt lat="46.51627" lon="5.31102">
        <ele>208.19999694824</ele>
        <time>2022-06-16T12:25:23.000Z</time>
      </trkpt>
      <trkpt lat="46.51638" lon="5.31106">
        <ele>208.39999389648</ele>
        <time>2022-06-16T12:25:25.000Z</time>
      </trkpt>
      <trkpt lat="46.51647" lon="5.31106">
        <ele>208.60000610352</ele>
        <time>2022-06-16T12:25:27.000Z</time>
      </trkpt>
      <trkpt lat="46.51652" lon="5.31105">
        <ele>208.80000305176</ele>
        <time>2022-06-16T12:25:28.000Z</time>
      </trkpt>
      <trkpt lat="46.51661" lon="5.31104">
        <ele>209.19999694824</ele>
        <time>2022-06-16T12:25:30.000Z</time>
      </trkpt>
      <trkpt lat="46.51669" lon="5.31107">
        <ele>209.39999389648</ele>
        <time>2022-06-16T12:25:32.000Z</time>
      </trkpt>
      <trkpt lat="46.51673" lon="5.31111">
        <ele>209.60000610352</ele>
        <time>2022-06-16T12:25:33.000Z</time>
      </trkpt>
      <trkpt lat="46.51676" lon="5.31117">
        <ele>209.60000610352</ele>
        <time>2022-06-16T12:25:34.000Z</time>
      </trkpt>
      <trkpt lat="46.51689" lon="5.31139">
        <ele>209.60000610352</ele>
        <time>2022-06-16T12:25:37.000Z</time>
      </trkpt>
      <trkpt lat="46.51692" lon="5.31145">
        <ele>209.60000610352</ele>
        <time>2022-06-16T12:25:38.000Z</time>
      </trkpt>
      <trkpt lat="46.51714" lon="5.31167">
        <ele>209.80000305176</ele>
        <time>2022-06-16T12:25:42.000Z</time>
      </trkpt>
      <trkpt lat="46.51722" lon="5.31172">
        <ele>209.60000610352</ele>
        <time>2022-06-16T12:25:43.000Z</time>
      </trkpt>
      <trkpt lat="46.51743" lon="5.31179">
        <ele>209.39999389648</ele>
        <time>2022-06-16T12:25:46.000Z</time>
      </trkpt>
      <trkpt lat="46.51786" lon="5.31182">
        <ele>209</ele>
        <time>2022-06-16T12:25:51.000Z</time>
      </trkpt>
      <trkpt lat="46.51795" lon="5.31182">
        <ele>208.60000610352</ele>
        <time>2022-06-16T12:25:52.000Z</time>
      </trkpt>
      <trkpt lat="46.51823" lon="5.31185">
        <ele>207.60000610352</ele>
        <time>2022-06-16T12:25:55.000Z</time>
      </trkpt>
      <trkpt lat="46.51833" lon="5.31187">
        <ele>207</ele>
        <time>2022-06-16T12:25:56.000Z</time>
      </trkpt>
      <trkpt lat="46.51842" lon="5.31191">
        <ele>206.80000305176</ele>
        <time>2022-06-16T12:25:57.000Z</time>
      </trkpt>
      <trkpt lat="46.5185" lon="5.31196">
        <ele>206.39999389648</ele>
        <time>2022-06-16T12:25:58.000Z</time>
      </trkpt>
      <trkpt lat="46.51865" lon="5.3121">
        <ele>205.39999389648</ele>
        <time>2022-06-16T12:26:00.000Z</time>
      </trkpt>
      <trkpt lat="46.51872" lon="5.31219">
        <ele>204.39999389648</ele>
        <time>2022-06-16T12:26:01.000Z</time>
      </trkpt>
      <trkpt lat="46.51898" lon="5.31257">
        <ele>203.39999389648</ele>
        <time>2022-06-16T12:26:05.000Z</time>
      </trkpt>
      <trkpt lat="46.51904" lon="5.31265">
        <ele>203.19999694824</ele>
        <time>2022-06-16T12:26:06.000Z</time>
      </trkpt>
      <trkpt lat="46.51936" lon="5.31313">
        <ele>202.80000305176</ele>
        <time>2022-06-16T12:26:12.000Z</time>
      </trkpt>
      <trkpt lat="46.51977" lon="5.31375">
        <ele>203</ele>
        <time>2022-06-16T12:26:20.000Z</time>
      </trkpt>
      <trkpt lat="46.51997" lon="5.31403">
        <ele>203.39999389648</ele>
        <time>2022-06-16T12:26:24.000Z</time>
      </trkpt>
      <trkpt lat="46.52029" lon="5.31451">
        <ele>203.80000305176</ele>
        <time>2022-06-16T12:26:31.000Z</time>
      </trkpt>
      <trkpt lat="46.5205" lon="5.31482">
        <ele>204.39999389648</ele>
        <time>2022-06-16T12:26:36.000Z</time>
      </trkpt>
      <trkpt lat="46.52054" lon="5.31488">
        <ele>204.60000610352</ele>
        <time>2022-06-16T12:26:37.000Z</time>
      </trkpt>
      <trkpt lat="46.52073" lon="5.31516">
        <ele>205.19999694824</ele>
        <time>2022-06-16T12:26:42.000Z</time>
      </trkpt>
      <trkpt lat="46.5208" lon="5.31527">
        <ele>205.39999389648</ele>
        <time>2022-06-16T12:26:44.000Z</time>
      </trkpt>
      <trkpt lat="46.52084" lon="5.31533">
        <ele>205.60000610352</ele>
        <time>2022-06-16T12:26:45.000Z</time>
      </trkpt>
      <trkpt lat="46.52099" lon="5.31557">
        <ele>206.19999694824</ele>
        <time>2022-06-16T12:26:50.000Z</time>
      </trkpt>
      <trkpt lat="46.52106" lon="5.31567">
        <ele>206.80000305176</ele>
        <time>2022-06-16T12:26:52.000Z</time>
      </trkpt>
      <trkpt lat="46.52123" lon="5.31594">
        <ele>207.19999694824</ele>
        <time>2022-06-16T12:26:57.000Z</time>
      </trkpt>
      <trkpt lat="46.52135" lon="5.31614">
        <ele>207.80000305176</ele>
        <time>2022-06-16T12:27:01.000Z</time>
      </trkpt>
      <trkpt lat="46.52139" lon="5.3162">
        <ele>207.80000305176</ele>
        <time>2022-06-16T12:27:02.000Z</time>
      </trkpt>
      <trkpt lat="46.52142" lon="5.31625">
        <ele>208.39999389648</ele>
        <time>2022-06-16T12:27:03.000Z</time>
      </trkpt>
      <trkpt lat="46.52149" lon="5.31635">
        <ele>208.80000305176</ele>
        <time>2022-06-16T12:27:05.000Z</time>
      </trkpt>
      <trkpt lat="46.52165" lon="5.31657">
        <ele>209.60000610352</ele>
        <time>2022-06-16T12:27:09.000Z</time>
      </trkpt>
      <trkpt lat="46.52175" lon="5.31667">
        <ele>209.80000305176</ele>
        <time>2022-06-16T12:27:11.000Z</time>
      </trkpt>
      <trkpt lat="46.52178" lon="5.31672">
        <ele>210</ele>
        <time>2022-06-16T12:27:12.000Z</time>
      </trkpt>
      <trkpt lat="46.52183" lon="5.31677">
        <ele>210</ele>
        <time>2022-06-16T12:27:13.000Z</time>
      </trkpt>
      <trkpt lat="46.52198" lon="5.31697">
        <ele>210.60000610352</ele>
        <time>2022-06-16T12:27:17.000Z</time>
      </trkpt>
      <trkpt lat="46.52206" lon="5.31708">
        <ele>211</ele>
        <time>2022-06-16T12:27:19.000Z</time>
      </trkpt>
      <trkpt lat="46.52229" lon="5.31744">
        <ele>212</ele>
        <time>2022-06-16T12:27:26.000Z</time>
      </trkpt>
      <trkpt lat="46.52232" lon="5.31749">
        <ele>212</ele>
        <time>2022-06-16T12:27:27.000Z</time>
      </trkpt>
      <trkpt lat="46.52261" lon="5.31788">
        <ele>213.19999694824</ele>
        <time>2022-06-16T12:27:35.000Z</time>
      </trkpt>
      <trkpt lat="46.52278" lon="5.31813">
        <ele>213.80000305176</ele>
        <time>2022-06-16T12:27:40.000Z</time>
      </trkpt>
      <trkpt lat="46.52292" lon="5.31832">
        <ele>214.19999694824</ele>
        <time>2022-06-16T12:27:44.000Z</time>
      </trkpt>
      <trkpt lat="46.5231" lon="5.31856">
        <ele>215</ele>
        <time>2022-06-16T12:27:49.000Z</time>
      </trkpt>
      <trkpt lat="46.52319" lon="5.3187">
        <ele>215.19999694824</ele>
        <time>2022-06-16T12:27:52.000Z</time>
      </trkpt>
      <trkpt lat="46.52329" lon="5.31884">
        <ele>215.80000305176</ele>
        <time>2022-06-16T12:27:55.000Z</time>
      </trkpt>
      <trkpt lat="46.52338" lon="5.31898">
        <ele>216.19999694824</ele>
        <time>2022-06-16T12:27:58.000Z</time>
      </trkpt>
      <trkpt lat="46.52347" lon="5.31913">
        <ele>216.60000610352</ele>
        <time>2022-06-16T12:28:01.000Z</time>
      </trkpt>
      <trkpt lat="46.52351" lon="5.31918">
        <ele>216.60000610352</ele>
        <time>2022-06-16T12:28:02.000Z</time>
      </trkpt>
      <trkpt lat="46.52379" lon="5.31955">
        <ele>217</ele>
        <time>2022-06-16T12:28:08.000Z</time>
      </trkpt>
      <trkpt lat="46.52399" lon="5.31983">
        <ele>216.60000610352</ele>
        <time>2022-06-16T12:28:12.000Z</time>
      </trkpt>
      <trkpt lat="46.52414" lon="5.32005">
        <ele>216</ele>
        <time>2022-06-16T12:28:15.000Z</time>
      </trkpt>
      <trkpt lat="46.52444" lon="5.32045">
        <ele>215.19999694824</ele>
        <time>2022-06-16T12:28:20.000Z</time>
      </trkpt>
      <trkpt lat="46.52456" lon="5.32061">
        <ele>214.80000305176</ele>
        <time>2022-06-16T12:28:22.000Z</time>
      </trkpt>
      <trkpt lat="46.52479" lon="5.32095">
        <ele>214</ele>
        <time>2022-06-16T12:28:26.000Z</time>
      </trkpt>
      <trkpt lat="46.52498" lon="5.32121">
        <ele>213</ele>
        <time>2022-06-16T12:28:29.000Z</time>
      </trkpt>
      <trkpt lat="46.52503" lon="5.3213">
        <ele>212.80000305176</ele>
        <time>2022-06-16T12:28:30.000Z</time>
      </trkpt>
      <trkpt lat="46.52522" lon="5.32154">
        <ele>212</ele>
        <time>2022-06-16T12:28:33.000Z</time>
      </trkpt>
      <trkpt lat="46.52543" lon="5.32177">
        <ele>211</ele>
        <time>2022-06-16T12:28:36.000Z</time>
      </trkpt>
      <trkpt lat="46.5255" lon="5.32184">
        <ele>210.80000305176</ele>
        <time>2022-06-16T12:28:37.000Z</time>
      </trkpt>
      <trkpt lat="46.52557" lon="5.32189">
        <ele>210.39999389648</ele>
        <time>2022-06-16T12:28:38.000Z</time>
      </trkpt>
      <trkpt lat="46.52564" lon="5.3219">
        <ele>210.19999694824</ele>
        <time>2022-06-16T12:28:39.000Z</time>
      </trkpt>
      <trkpt lat="46.52571" lon="5.32187">
        <ele>210</ele>
        <time>2022-06-16T12:28:40.000Z</time>
      </trkpt>
      <trkpt lat="46.52576" lon="5.32181">
        <ele>209.80000305176</ele>
        <time>2022-06-16T12:28:41.000Z</time>
      </trkpt>
      <trkpt lat="46.52581" lon="5.32173">
        <ele>209.39999389648</ele>
        <time>2022-06-16T12:28:42.000Z</time>
      </trkpt>
      <trkpt lat="46.52588" lon="5.32158">
        <ele>208.60000610352</ele>
        <time>2022-06-16T12:28:44.000Z</time>
      </trkpt>
      <trkpt lat="46.52594" lon="5.32143">
        <ele>208.19999694824</ele>
        <time>2022-06-16T12:28:46.000Z</time>
      </trkpt>
      <trkpt lat="46.52617" lon="5.32091">
        <ele>208.39999389648</ele>
        <time>2022-06-16T12:28:54.000Z</time>
      </trkpt>
      <trkpt lat="46.52638" lon="5.32034">
        <ele>209.80000305176</ele>
        <time>2022-06-16T12:29:03.000Z</time>
      </trkpt>
      <trkpt lat="46.52644" lon="5.32017">
        <ele>211</ele>
        <time>2022-06-16T12:29:06.000Z</time>
      </trkpt>
      <trkpt lat="46.52646" lon="5.32011">
        <ele>211.19999694824</ele>
        <time>2022-06-16T12:29:07.000Z</time>
      </trkpt>
      <trkpt lat="46.5265" lon="5.32001">
        <ele>211.39999389648</ele>
        <time>2022-06-16T12:29:09.000Z</time>
      </trkpt>
      <trkpt lat="46.52652" lon="5.31996">
        <ele>211.60000610352</ele>
        <time>2022-06-16T12:29:10.000Z</time>
      </trkpt>
      <trkpt lat="46.52657" lon="5.3198">
        <ele>212.39999389648</ele>
        <time>2022-06-16T12:29:13.000Z</time>
      </trkpt>
      <trkpt lat="46.52658" lon="5.31974">
        <ele>212.60000610352</ele>
        <time>2022-06-16T12:29:14.000Z</time>
      </trkpt>
      <trkpt lat="46.52663" lon="5.31954">
        <ele>213.39999389648</ele>
        <time>2022-06-16T12:29:18.000Z</time>
      </trkpt>
      <trkpt lat="46.52667" lon="5.31938">
        <ele>214</ele>
        <time>2022-06-16T12:29:21.000Z</time>
      </trkpt>
      <trkpt lat="46.5267" lon="5.31928">
        <ele>214.80000305176</ele>
        <time>2022-06-16T12:29:23.000Z</time>
      </trkpt>
      <trkpt lat="46.52674" lon="5.31913">
        <ele>215.80000305176</ele>
        <time>2022-06-16T12:29:26.000Z</time>
      </trkpt>
      <trkpt lat="46.52681" lon="5.31889">
        <ele>217</ele>
        <time>2022-06-16T12:29:31.000Z</time>
      </trkpt>
      <trkpt lat="46.52683" lon="5.31884">
        <ele>217.19999694824</ele>
        <time>2022-06-16T12:29:32.000Z</time>
      </trkpt>
      <trkpt lat="46.52688" lon="5.3186">
        <ele>218</ele>
        <time>2022-06-16T12:29:37.000Z</time>
      </trkpt>
      <trkpt lat="46.52693" lon="5.31845">
        <ele>218.80000305176</ele>
        <time>2022-06-16T12:29:40.000Z</time>
      </trkpt>
      <trkpt lat="46.52695" lon="5.3184">
        <ele>219</ele>
        <time>2022-06-16T12:29:41.000Z</time>
      </trkpt>
      <trkpt lat="46.52702" lon="5.31826">
        <ele>219.60000610352</ele>
        <time>2022-06-16T12:29:44.000Z</time>
      </trkpt>
      <trkpt lat="46.52706" lon="5.31821">
        <ele>219.80000305176</ele>
        <time>2022-06-16T12:29:45.000Z</time>
      </trkpt>
      <trkpt lat="46.52712" lon="5.31813">
        <ele>220.19999694824</ele>
        <time>2022-06-16T12:29:47.000Z</time>
      </trkpt>
      <trkpt lat="46.52719" lon="5.31804">
        <ele>220.39999389648</ele>
        <time>2022-06-16T12:29:49.000Z</time>
      </trkpt>
      <trkpt lat="46.52732" lon="5.31795">
        <ele>220.60000610352</ele>
        <time>2022-06-16T12:29:52.000Z</time>
      </trkpt>
      <trkpt lat="46.52766" lon="5.31779">
        <ele>221</ele>
        <time>2022-06-16T12:29:59.000Z</time>
      </trkpt>
      <trkpt lat="46.52776" lon="5.31774">
        <ele>221.19999694824</ele>
        <time>2022-06-16T12:30:01.000Z</time>
      </trkpt>
      <trkpt lat="46.52794" lon="5.31766">
        <ele>221.39999389648</ele>
        <time>2022-06-16T12:30:05.000Z</time>
      </trkpt>
      <trkpt lat="46.52819" lon="5.31756">
        <ele>221.60000610352</ele>
        <time>2022-06-16T12:30:11.000Z</time>
      </trkpt>
      <trkpt lat="46.52852" lon="5.31742">
        <ele>221.60000610352</ele>
        <time>2022-06-16T12:30:17.000Z</time>
      </trkpt>
      <trkpt lat="46.52859" lon="5.31739">
        <ele>221.39999389648</ele>
        <time>2022-06-16T12:30:18.000Z</time>
      </trkpt>
      <trkpt lat="46.52866" lon="5.31736">
        <ele>221.39999389648</ele>
        <time>2022-06-16T12:30:19.000Z</time>
      </trkpt>
      <trkpt lat="46.52887" lon="5.31731">
        <ele>220.80000305176</ele>
        <time>2022-06-16T12:30:22.000Z</time>
      </trkpt>
      <trkpt lat="46.52907" lon="5.31733">
        <ele>220.80000305176</ele>
        <time>2022-06-16T12:30:25.000Z</time>
      </trkpt>
      <trkpt lat="46.52914" lon="5.31737">
        <ele>220.80000305176</ele>
        <time>2022-06-16T12:30:26.000Z</time>
      </trkpt>
      <trkpt lat="46.5292" lon="5.31743">
        <ele>220.60000610352</ele>
        <time>2022-06-16T12:30:27.000Z</time>
      </trkpt>
      <trkpt lat="46.52931" lon="5.31753">
        <ele>220.60000610352</ele>
        <time>2022-06-16T12:30:29.000Z</time>
      </trkpt>
      <trkpt lat="46.52937" lon="5.31758">
        <ele>220.60000610352</ele>
        <time>2022-06-16T12:30:30.000Z</time>
      </trkpt>
      <trkpt lat="46.52964" lon="5.31777">
        <ele>220.60000610352</ele>
        <time>2022-06-16T12:30:34.000Z</time>
      </trkpt>
      <trkpt lat="46.5298" lon="5.31782">
        <ele>220.80000305176</ele>
        <time>2022-06-16T12:30:36.000Z</time>
      </trkpt>
      <trkpt lat="46.52993" lon="5.31781">
        <ele>220.60000610352</ele>
        <time>2022-06-16T12:30:38.000Z</time>
      </trkpt>
      <trkpt lat="46.53006" lon="5.31773">
        <ele>220.39999389648</ele>
        <time>2022-06-16T12:30:40.000Z</time>
      </trkpt>
      <trkpt lat="46.53023" lon="5.31746">
        <ele>220.19999694824</ele>
        <time>2022-06-16T12:30:43.000Z</time>
      </trkpt>
      <trkpt lat="46.53029" lon="5.31728">
        <ele>220.19999694824</ele>
        <time>2022-06-16T12:30:45.000Z</time>
      </trkpt>
      <trkpt lat="46.53032" lon="5.31719">
        <ele>220.19999694824</ele>
        <time>2022-06-16T12:30:46.000Z</time>
      </trkpt>
      <trkpt lat="46.53035" lon="5.31709">
        <ele>219.80000305176</ele>
        <time>2022-06-16T12:30:47.000Z</time>
      </trkpt>
      <trkpt lat="46.53055" lon="5.31662">
        <ele>218.60000610352</ele>
        <time>2022-06-16T12:30:52.000Z</time>
      </trkpt>
      <trkpt lat="46.53061" lon="5.31654">
        <ele>218.60000610352</ele>
        <time>2022-06-16T12:30:53.000Z</time>
      </trkpt>
      <trkpt lat="46.53068" lon="5.31647">
        <ele>218.19999694824</ele>
        <time>2022-06-16T12:30:54.000Z</time>
      </trkpt>
      <trkpt lat="46.53084" lon="5.31637">
        <ele>217.80000305176</ele>
        <time>2022-06-16T12:30:56.000Z</time>
      </trkpt>
      <trkpt lat="46.53093" lon="5.31634">
        <ele>217.60000610352</ele>
        <time>2022-06-16T12:30:57.000Z</time>
      </trkpt>
      <trkpt lat="46.5312" lon="5.31623">
        <ele>216.39999389648</ele>
        <time>2022-06-16T12:31:00.000Z</time>
      </trkpt>
      <trkpt lat="46.53136" lon="5.31615">
        <ele>215.19999694824</ele>
        <time>2022-06-16T12:31:02.000Z</time>
      </trkpt>
      <trkpt lat="46.53153" lon="5.31608">
        <ele>214.80000305176</ele>
        <time>2022-06-16T12:31:04.000Z</time>
      </trkpt>
      <trkpt lat="46.53173" lon="5.316">
        <ele>214.19999694824</ele>
        <time>2022-06-16T12:31:06.000Z</time>
      </trkpt>
      <trkpt lat="46.53202" lon="5.31588">
        <ele>213.19999694824</ele>
        <time>2022-06-16T12:31:09.000Z</time>
      </trkpt>
      <trkpt lat="46.53222" lon="5.31579">
        <ele>212</ele>
        <time>2022-06-16T12:31:11.000Z</time>
      </trkpt>
      <trkpt lat="46.5325" lon="5.31561">
        <ele>211</ele>
        <time>2022-06-16T12:31:14.000Z</time>
      </trkpt>
      <trkpt lat="46.5327" lon="5.31547">
        <ele>210</ele>
        <time>2022-06-16T12:31:16.000Z</time>
      </trkpt>
      <trkpt lat="46.5328" lon="5.31539">
        <ele>209.39999389648</ele>
        <time>2022-06-16T12:31:17.000Z</time>
      </trkpt>
      <trkpt lat="46.53299" lon="5.31523">
        <ele>208</ele>
        <time>2022-06-16T12:31:19.000Z</time>
      </trkpt>
      <trkpt lat="46.53316" lon="5.31507">
        <ele>206.80000305176</ele>
        <time>2022-06-16T12:31:21.000Z</time>
      </trkpt>
      <trkpt lat="46.53324" lon="5.31499">
        <ele>206.39999389648</ele>
        <time>2022-06-16T12:31:22.000Z</time>
      </trkpt>
      <trkpt lat="46.53357" lon="5.31471">
        <ele>205.80000305176</ele>
        <time>2022-06-16T12:31:26.000Z</time>
      </trkpt>
      <trkpt lat="46.53365" lon="5.31464">
        <ele>205.60000610352</ele>
        <time>2022-06-16T12:31:27.000Z</time>
      </trkpt>
      <trkpt lat="46.53383" lon="5.31438">
        <ele>205.80000305176</ele>
        <time>2022-06-16T12:31:30.000Z</time>
      </trkpt>
      <trkpt lat="46.53387" lon="5.31429">
        <ele>205.80000305176</ele>
        <time>2022-06-16T12:31:31.000Z</time>
      </trkpt>
      <trkpt lat="46.53409" lon="5.31382">
        <ele>205.60000610352</ele>
        <time>2022-06-16T12:31:36.000Z</time>
      </trkpt>
      <trkpt lat="46.53437" lon="5.31321">
        <ele>204.80000305176</ele>
        <time>2022-06-16T12:31:42.000Z</time>
      </trkpt>
      <trkpt lat="46.53441" lon="5.31311">
        <ele>204.60000610352</ele>
        <time>2022-06-16T12:31:43.000Z</time>
      </trkpt>
      <trkpt lat="46.53468" lon="5.31254">
        <ele>203.80000305176</ele>
        <time>2022-06-16T12:31:49.000Z</time>
      </trkpt>
      <trkpt lat="46.53472" lon="5.31244">
        <ele>203.60000610352</ele>
        <time>2022-06-16T12:31:50.000Z</time>
      </trkpt>
      <trkpt lat="46.53485" lon="5.31209">
        <ele>203.39999389648</ele>
        <time>2022-06-16T12:31:54.000Z</time>
      </trkpt>
      <trkpt lat="46.53491" lon="5.31166">
        <ele>203.60000610352</ele>
        <time>2022-06-16T12:31:59.000Z</time>
      </trkpt>
      <trkpt lat="46.53497" lon="5.31129">
        <ele>204.60000610352</ele>
        <time>2022-06-16T12:32:04.000Z</time>
      </trkpt>
      <trkpt lat="46.53501" lon="5.31121">
        <ele>204.80000305176</ele>
        <time>2022-06-16T12:32:05.000Z</time>
      </trkpt>
      <trkpt lat="46.53503" lon="5.31117">
        <ele>205</ele>
        <time>2022-06-16T12:32:06.000Z</time>
      </trkpt>
      <trkpt lat="46.53511" lon="5.31107">
        <ele>205.19999694824</ele>
        <time>2022-06-16T12:32:08.000Z</time>
      </trkpt>
      <trkpt lat="46.5352" lon="5.31099">
        <ele>205.60000610352</ele>
        <time>2022-06-16T12:32:10.000Z</time>
      </trkpt>
      <trkpt lat="46.53524" lon="5.31096">
        <ele>205.80000305176</ele>
        <time>2022-06-16T12:32:11.000Z</time>
      </trkpt>
      <trkpt lat="46.53529" lon="5.31093">
        <ele>206</ele>
        <time>2022-06-16T12:32:12.000Z</time>
      </trkpt>
      <trkpt lat="46.5354" lon="5.31088">
        <ele>206.39999389648</ele>
        <time>2022-06-16T12:32:14.000Z</time>
      </trkpt>
      <trkpt lat="46.53561" lon="5.31077">
        <ele>207</ele>
        <time>2022-06-16T12:32:18.000Z</time>
      </trkpt>
      <trkpt lat="46.53572" lon="5.31071">
        <ele>207.39999389648</ele>
        <time>2022-06-16T12:32:20.000Z</time>
      </trkpt>
      <trkpt lat="46.53614" lon="5.31046">
        <ele>208</ele>
        <time>2022-06-16T12:32:27.000Z</time>
      </trkpt>
      <trkpt lat="46.53658" lon="5.31024">
        <ele>208</ele>
        <time>2022-06-16T12:32:34.000Z</time>
      </trkpt>
      <trkpt lat="46.53665" lon="5.31024">
        <ele>207.80000305176</ele>
        <time>2022-06-16T12:32:35.000Z</time>
      </trkpt>
      <trkpt lat="46.53671" lon="5.31024">
        <ele>207.80000305176</ele>
        <time>2022-06-16T12:32:36.000Z</time>
      </trkpt>
      <trkpt lat="46.53697" lon="5.31029">
        <ele>207.80000305176</ele>
        <time>2022-06-16T12:32:40.000Z</time>
      </trkpt>
      <trkpt lat="46.53735" lon="5.31031">
        <ele>208.19999694824</ele>
        <time>2022-06-16T12:32:46.000Z</time>
      </trkpt>
      <trkpt lat="46.53775" lon="5.31019">
        <ele>208.19999694824</ele>
        <time>2022-06-16T12:32:52.000Z</time>
      </trkpt>
      <trkpt lat="46.53791" lon="5.31014">
        <ele>207.80000305176</ele>
        <time>2022-06-16T12:32:54.000Z</time>
      </trkpt>
      <trkpt lat="46.53806" lon="5.31">
        <ele>207.39999389648</ele>
        <time>2022-06-16T12:32:56.000Z</time>
      </trkpt>
      <trkpt lat="46.53819" lon="5.30969">
        <ele>206.80000305176</ele>
        <time>2022-06-16T12:32:59.000Z</time>
      </trkpt>
      <trkpt lat="46.53824" lon="5.30958">
        <ele>206.19999694824</ele>
        <time>2022-06-16T12:33:00.000Z</time>
      </trkpt>
      <trkpt lat="46.53841" lon="5.30919">
        <ele>205</ele>
        <time>2022-06-16T12:33:04.000Z</time>
      </trkpt>
      <trkpt lat="46.53849" lon="5.309">
        <ele>204.80000305176</ele>
        <time>2022-06-16T12:33:06.000Z</time>
      </trkpt>
      <trkpt lat="46.53873" lon="5.30839">
        <ele>205</ele>
        <time>2022-06-16T12:33:13.000Z</time>
      </trkpt>
      <trkpt lat="46.53888" lon="5.30798">
        <ele>205.80000305176</ele>
        <time>2022-06-16T12:33:19.000Z</time>
      </trkpt>
      <trkpt lat="46.53889" lon="5.30791">
        <ele>206</ele>
        <time>2022-06-16T12:33:20.000Z</time>
      </trkpt>
      <trkpt lat="46.53892" lon="5.30779">
        <ele>206.39999389648</ele>
        <time>2022-06-16T12:33:22.000Z</time>
      </trkpt>
      <trkpt lat="46.53894" lon="5.30766">
        <ele>206.80000305176</ele>
        <time>2022-06-16T12:33:24.000Z</time>
      </trkpt>
      <trkpt lat="46.53896" lon="5.30741">
        <ele>207.19999694824</ele>
        <time>2022-06-16T12:33:28.000Z</time>
      </trkpt>
      <trkpt lat="46.53897" lon="5.30722">
        <ele>207.80000305176</ele>
        <time>2022-06-16T12:33:31.000Z</time>
      </trkpt>
      <trkpt lat="46.53898" lon="5.30708">
        <ele>208.39999389648</ele>
        <time>2022-06-16T12:33:33.000Z</time>
      </trkpt>
      <trkpt lat="46.539" lon="5.30682">
        <ele>209.39999389648</ele>
        <time>2022-06-16T12:33:37.000Z</time>
      </trkpt>
      <trkpt lat="46.53903" lon="5.30661">
        <ele>210</ele>
        <time>2022-06-16T12:33:40.000Z</time>
      </trkpt>
      <trkpt lat="46.53912" lon="5.30626">
        <ele>210.60000610352</ele>
        <time>2022-06-16T12:33:45.000Z</time>
      </trkpt>
      <trkpt lat="46.53918" lon="5.30608">
        <ele>210.80000305176</ele>
        <time>2022-06-16T12:33:48.000Z</time>
      </trkpt>
      <trkpt lat="46.53923" lon="5.30595">
        <ele>211.19999694824</ele>
        <time>2022-06-16T12:33:50.000Z</time>
      </trkpt>
      <trkpt lat="46.53926" lon="5.3059">
        <ele>211.19999694824</ele>
        <time>2022-06-16T12:33:51.000Z</time>
      </trkpt>
      <trkpt lat="46.53934" lon="5.30574">
        <ele>211.39999389648</ele>
        <time>2022-06-16T12:33:54.000Z</time>
      </trkpt>
      <trkpt lat="46.53939" lon="5.30565">
        <ele>211.60000610352</ele>
        <time>2022-06-16T12:33:56.000Z</time>
      </trkpt>
      <trkpt lat="46.53946" lon="5.30557">
        <ele>212</ele>
        <time>2022-06-16T12:33:58.000Z</time>
      </trkpt>
      <trkpt lat="46.53954" lon="5.3055">
        <ele>212.39999389648</ele>
        <time>2022-06-16T12:34:00.000Z</time>
      </trkpt>
      <trkpt lat="46.53957" lon="5.30547">
        <ele>212.60000610352</ele>
        <time>2022-06-16T12:34:01.000Z</time>
      </trkpt>
      <trkpt lat="46.53973" lon="5.30538">
        <ele>213.80000305176</ele>
        <time>2022-06-16T12:34:05.000Z</time>
      </trkpt>
      <trkpt lat="46.53977" lon="5.30536">
        <ele>214</ele>
        <time>2022-06-16T12:34:06.000Z</time>
      </trkpt>
      <trkpt lat="46.53986" lon="5.30529">
        <ele>214.80000305176</ele>
        <time>2022-06-16T12:34:09.000Z</time>
      </trkpt>
      <trkpt lat="46.53995" lon="5.30525">
        <ele>215.39999389648</ele>
        <time>2022-06-16T12:34:11.000Z</time>
      </trkpt>
      <trkpt lat="46.54007" lon="5.30518">
        <ele>216.39999389648</ele>
        <time>2022-06-16T12:34:14.000Z</time>
      </trkpt>
      <trkpt lat="46.54019" lon="5.3051">
        <ele>216.80000305176</ele>
        <time>2022-06-16T12:34:17.000Z</time>
      </trkpt>
      <trkpt lat="46.5403" lon="5.30496">
        <ele>217.19999694824</ele>
        <time>2022-06-16T12:34:20.000Z</time>
      </trkpt>
      <trkpt lat="46.54034" lon="5.3049">
        <ele>217.60000610352</ele>
        <time>2022-06-16T12:34:21.000Z</time>
      </trkpt>
      <trkpt lat="46.54037" lon="5.30484">
        <ele>217.60000610352</ele>
        <time>2022-06-16T12:34:22.000Z</time>
      </trkpt>
      <trkpt lat="46.54049" lon="5.30456">
        <ele>218.19999694824</ele>
        <time>2022-06-16T12:34:26.000Z</time>
      </trkpt>
      <trkpt lat="46.54053" lon="5.3044">
        <ele>218.19999694824</ele>
        <time>2022-06-16T12:34:28.000Z</time>
      </trkpt>
      <trkpt lat="46.54066" lon="5.30384">
        <ele>218.39999389648</ele>
        <time>2022-06-16T12:34:35.000Z</time>
      </trkpt>
      <trkpt lat="46.54068" lon="5.30376">
        <ele>218.39999389648</ele>
        <time>2022-06-16T12:34:36.000Z</time>
      </trkpt>
      <trkpt lat="46.5408" lon="5.3033">
        <ele>218.60000610352</ele>
        <time>2022-06-16T12:34:42.000Z</time>
      </trkpt>
      <trkpt lat="46.54085" lon="5.30315">
        <ele>218.60000610352</ele>
        <time>2022-06-16T12:34:44.000Z</time>
      </trkpt>
      <trkpt lat="46.54104" lon="5.30256">
        <ele>219</ele>
        <time>2022-06-16T12:34:52.000Z</time>
      </trkpt>
      <trkpt lat="46.54128" lon="5.30186">
        <ele>219.39999389648</ele>
        <time>2022-06-16T12:35:01.000Z</time>
      </trkpt>
      <trkpt lat="46.54149" lon="5.30119">
        <ele>219.19999694824</ele>
        <time>2022-06-16T12:35:09.000Z</time>
      </trkpt>
      <trkpt lat="46.54159" lon="5.30108">
        <ele>219.19999694824</ele>
        <time>2022-06-16T12:35:11.000Z</time>
      </trkpt>
      <trkpt lat="46.54164" lon="5.30106">
        <ele>219.19999694824</ele>
        <time>2022-06-16T12:35:12.000Z</time>
      </trkpt>
      <trkpt lat="46.542" lon="5.30095">
        <ele>219</ele>
        <time>2022-06-16T12:35:18.000Z</time>
      </trkpt>
      <trkpt lat="46.54207" lon="5.30095">
        <ele>218.80000305176</ele>
        <time>2022-06-16T12:35:19.000Z</time>
      </trkpt>
      <trkpt lat="46.54262" lon="5.30101">
        <ele>218.60000610352</ele>
        <time>2022-06-16T12:35:27.000Z</time>
      </trkpt>
      <trkpt lat="46.54308" lon="5.30105">
        <ele>218.39999389648</ele>
        <time>2022-06-16T12:35:33.000Z</time>
      </trkpt>
      <trkpt lat="46.54355" lon="5.30122">
        <ele>217.60000610352</ele>
        <time>2022-06-16T12:35:39.000Z</time>
      </trkpt>
      <trkpt lat="46.54396" lon="5.30139">
        <ele>216.39999389648</ele>
        <time>2022-06-16T12:35:44.000Z</time>
      </trkpt>
      <trkpt lat="46.54415" lon="5.30145">
        <ele>215.80000305176</ele>
        <time>2022-06-16T12:35:46.000Z</time>
      </trkpt>
      <trkpt lat="46.54433" lon="5.30147">
        <ele>215.19999694824</ele>
        <time>2022-06-16T12:35:48.000Z</time>
      </trkpt>
      <trkpt lat="46.54458" lon="5.30146">
        <ele>214.19999694824</ele>
        <time>2022-06-16T12:35:51.000Z</time>
      </trkpt>
      <trkpt lat="46.5447" lon="5.30143">
        <ele>214</ele>
        <time>2022-06-16T12:35:52.000Z</time>
      </trkpt>
      <trkpt lat="46.54506" lon="5.30128">
        <ele>212.60000610352</ele>
        <time>2022-06-16T12:35:56.000Z</time>
      </trkpt>
      <trkpt lat="46.5454" lon="5.30108">
        <ele>211.19999694824</ele>
        <time>2022-06-16T12:36:00.000Z</time>
      </trkpt>
      <trkpt lat="46.54561" lon="5.30096">
        <ele>210</ele>
        <time>2022-06-16T12:36:02.000Z</time>
      </trkpt>
      <trkpt lat="46.5457" lon="5.3009">
        <ele>209.60000610352</ele>
        <time>2022-06-16T12:36:03.000Z</time>
      </trkpt>
      <trkpt lat="46.54587" lon="5.30079">
        <ele>208.60000610352</ele>
        <time>2022-06-16T12:36:05.000Z</time>
      </trkpt>
      <trkpt lat="46.54626" lon="5.30055">
        <ele>207</ele>
        <time>2022-06-16T12:36:09.000Z</time>
      </trkpt>
      <trkpt lat="46.54654" lon="5.30038">
        <ele>205.80000305176</ele>
        <time>2022-06-16T12:36:12.000Z</time>
      </trkpt>
      <trkpt lat="46.54673" lon="5.30027">
        <ele>204.60000610352</ele>
        <time>2022-06-16T12:36:14.000Z</time>
      </trkpt>
      <trkpt lat="46.54693" lon="5.30015">
        <ele>203.39999389648</ele>
        <time>2022-06-16T12:36:16.000Z</time>
      </trkpt>
      <trkpt lat="46.54711" lon="5.30003">
        <ele>202</ele>
        <time>2022-06-16T12:36:18.000Z</time>
      </trkpt>
      <trkpt lat="46.5472" lon="5.29996">
        <ele>201.39999389648</ele>
        <time>2022-06-16T12:36:19.000Z</time>
      </trkpt>
      <trkpt lat="46.54734" lon="5.29984">
        <ele>200.80000305176</ele>
        <time>2022-06-16T12:36:21.000Z</time>
      </trkpt>
      <trkpt lat="46.54759" lon="5.29963">
        <ele>200.19999694824</ele>
        <time>2022-06-16T12:36:24.000Z</time>
      </trkpt>
      <trkpt lat="46.54772" lon="5.2995">
        <ele>199.60000610352</ele>
        <time>2022-06-16T12:36:26.000Z</time>
      </trkpt>
      <trkpt lat="46.54809" lon="5.2991">
        <ele>198.60000610352</ele>
        <time>2022-06-16T12:36:31.000Z</time>
      </trkpt>
      <trkpt lat="46.54817" lon="5.299">
        <ele>198.39999389648</ele>
        <time>2022-06-16T12:36:32.000Z</time>
      </trkpt>
      <trkpt lat="46.54861" lon="5.29844">
        <ele>197.80000305176</ele>
        <time>2022-06-16T12:36:39.000Z</time>
      </trkpt>
      <trkpt lat="46.54868" lon="5.29835">
        <ele>197.60000610352</ele>
        <time>2022-06-16T12:36:40.000Z</time>
      </trkpt>
      <trkpt lat="46.54884" lon="5.29814">
        <ele>197.60000610352</ele>
        <time>2022-06-16T12:36:43.000Z</time>
      </trkpt>
      <trkpt lat="46.54896" lon="5.29797">
        <ele>197.60000610352</ele>
        <time>2022-06-16T12:36:45.000Z</time>
      </trkpt>
      <trkpt lat="46.54925" lon="5.29747">
        <ele>197.39999389648</ele>
        <time>2022-06-16T12:36:51.000Z</time>
      </trkpt>
      <trkpt lat="46.54949" lon="5.29691">
        <ele>197.39999389648</ele>
        <time>2022-06-16T12:36:57.000Z</time>
      </trkpt>
      <trkpt lat="46.54951" lon="5.29681">
        <ele>197.39999389648</ele>
        <time>2022-06-16T12:36:58.000Z</time>
      </trkpt>
      <trkpt lat="46.54956" lon="5.2965">
        <ele>197.19999694824</ele>
        <time>2022-06-16T12:37:01.000Z</time>
      </trkpt>
      <trkpt lat="46.54967" lon="5.296">
        <ele>197.60000610352</ele>
        <time>2022-06-16T12:37:07.000Z</time>
      </trkpt>
      <trkpt lat="46.5497" lon="5.29594">
        <ele>197.80000305176</ele>
        <time>2022-06-16T12:37:08.000Z</time>
      </trkpt>
      <trkpt lat="46.54978" lon="5.29576">
        <ele>198</ele>
        <time>2022-06-16T12:37:11.000Z</time>
      </trkpt>
      <trkpt lat="46.5499" lon="5.29555">
        <ele>198.19999694824</ele>
        <time>2022-06-16T12:37:15.000Z</time>
      </trkpt>
      <trkpt lat="46.54997" lon="5.29546">
        <ele>198.80000305176</ele>
        <time>2022-06-16T12:37:17.000Z</time>
      </trkpt>
      <trkpt lat="46.55" lon="5.29542">
        <ele>199</ele>
        <time>2022-06-16T12:37:18.000Z</time>
      </trkpt>
      <trkpt lat="46.55021" lon="5.29516">
        <ele>200</ele>
        <time>2022-06-16T12:37:24.000Z</time>
      </trkpt>
      <trkpt lat="46.55025" lon="5.29512">
        <ele>200.19999694824</ele>
        <time>2022-06-16T12:37:25.000Z</time>
      </trkpt>
      <trkpt lat="46.55038" lon="5.29503">
        <ele>201</ele>
        <time>2022-06-16T12:37:28.000Z</time>
      </trkpt>
      <trkpt lat="46.55048" lon="5.29498">
        <ele>202.19999694824</ele>
        <time>2022-06-16T12:37:31.000Z</time>
      </trkpt>
      <trkpt lat="46.55057" lon="5.29496">
        <ele>202.60000610352</ele>
        <time>2022-06-16T12:37:33.000Z</time>
      </trkpt>
      <trkpt lat="46.55073" lon="5.29498">
        <ele>203.39999389648</ele>
        <time>2022-06-16T12:37:37.000Z</time>
      </trkpt>
      <trkpt lat="46.55094" lon="5.29506">
        <ele>204.39999389648</ele>
        <time>2022-06-16T12:37:42.000Z</time>
      </trkpt>
      <trkpt lat="46.55107" lon="5.29512">
        <ele>205</ele>
        <time>2022-06-16T12:37:45.000Z</time>
      </trkpt>
      <trkpt lat="46.55118" lon="5.29518">
        <ele>205.39999389648</ele>
        <time>2022-06-16T12:37:47.000Z</time>
      </trkpt>
      <trkpt lat="46.55145" lon="5.2953">
        <ele>206.39999389648</ele>
        <time>2022-06-16T12:37:53.000Z</time>
      </trkpt>
      <trkpt lat="46.5515" lon="5.29532">
        <ele>206.60000610352</ele>
        <time>2022-06-16T12:37:54.000Z</time>
      </trkpt>
      <trkpt lat="46.55185" lon="5.29541">
        <ele>207.19999694824</ele>
        <time>2022-06-16T12:38:01.000Z</time>
      </trkpt>
      <trkpt lat="46.55189" lon="5.29541">
        <ele>207.19999694824</ele>
        <time>2022-06-16T12:38:02.000Z</time>
      </trkpt>
      <trkpt lat="46.55194" lon="5.2954">
        <ele>207.39999389648</ele>
        <time>2022-06-16T12:38:03.000Z</time>
      </trkpt>
      <trkpt lat="46.55208" lon="5.29536">
        <ele>207.60000610352</ele>
        <time>2022-06-16T12:38:06.000Z</time>
      </trkpt>
      <trkpt lat="46.55216" lon="5.29532">
        <ele>207.80000305176</ele>
        <time>2022-06-16T12:38:08.000Z</time>
      </trkpt>
      <trkpt lat="46.55227" lon="5.29525">
        <ele>208.19999694824</ele>
        <time>2022-06-16T12:38:11.000Z</time>
      </trkpt>
      <trkpt lat="46.5524" lon="5.29517">
        <ele>209</ele>
        <time>2022-06-16T12:38:14.000Z</time>
      </trkpt>
      <trkpt lat="46.5526" lon="5.29503">
        <ele>209.39999389648</ele>
        <time>2022-06-16T12:38:19.000Z</time>
      </trkpt>
      <trkpt lat="46.55274" lon="5.29497">
        <ele>209.80000305176</ele>
        <time>2022-06-16T12:38:22.000Z</time>
      </trkpt>
      <trkpt lat="46.55279" lon="5.29496">
        <ele>209.80000305176</ele>
        <time>2022-06-16T12:38:23.000Z</time>
      </trkpt>
      <trkpt lat="46.55289" lon="5.29497">
        <ele>210</ele>
        <time>2022-06-16T12:38:25.000Z</time>
      </trkpt>
      <trkpt lat="46.55301" lon="5.29504">
        <ele>210.19999694824</ele>
        <time>2022-06-16T12:38:27.000Z</time>
      </trkpt>
      <trkpt lat="46.55333" lon="5.29511">
        <ele>209.60000610352</ele>
        <time>2022-06-16T12:38:32.000Z</time>
      </trkpt>
      <trkpt lat="46.55367" lon="5.29518">
        <ele>208.80000305176</ele>
        <time>2022-06-16T12:38:37.000Z</time>
      </trkpt>
      <trkpt lat="46.55375" lon="5.2952">
        <ele>208.60000610352</ele>
        <time>2022-06-16T12:38:38.000Z</time>
      </trkpt>
      <trkpt lat="46.55413" lon="5.29538">
        <ele>208</ele>
        <time>2022-06-16T12:38:44.000Z</time>
      </trkpt>
      <trkpt lat="46.55467" lon="5.29575">
        <ele>208.39999389648</ele>
        <time>2022-06-16T12:38:53.000Z</time>
      </trkpt>
      <trkpt lat="46.55477" lon="5.29583">
        <ele>208.39999389648</ele>
        <time>2022-06-16T12:38:55.000Z</time>
      </trkpt>
      <trkpt lat="46.55528" lon="5.2962">
        <ele>206.19999694824</ele>
        <time>2022-06-16T12:39:04.000Z</time>
      </trkpt>
      <trkpt lat="46.55539" lon="5.29628">
        <ele>208.80000305176</ele>
        <time>2022-06-16T12:39:06.000Z</time>
      </trkpt>
      <trkpt lat="46.55591" lon="5.29663">
        <ele>209.39999389648</ele>
        <time>2022-06-16T12:39:15.000Z</time>
      </trkpt>
      <trkpt lat="46.55632" lon="5.29683">
        <ele>209.80000305176</ele>
        <time>2022-06-16T12:39:22.000Z</time>
      </trkpt>
      <trkpt lat="46.55649" lon="5.2969">
        <ele>210.19999694824</ele>
        <time>2022-06-16T12:39:25.000Z</time>
      </trkpt>
      <trkpt lat="46.55684" lon="5.29696">
        <ele>210.80000305176</ele>
        <time>2022-06-16T12:39:31.000Z</time>
      </trkpt>
      <trkpt lat="46.55695" lon="5.29695">
        <ele>210.80000305176</ele>
        <time>2022-06-16T12:39:33.000Z</time>
      </trkpt>
      <trkpt lat="46.55705" lon="5.29695">
        <ele>211</ele>
        <time>2022-06-16T12:39:35.000Z</time>
      </trkpt>
      <trkpt lat="46.55711" lon="5.29695">
        <ele>211.19999694824</ele>
        <time>2022-06-16T12:39:36.000Z</time>
      </trkpt>
      <trkpt lat="46.55724" lon="5.29698">
        <ele>212</ele>
        <time>2022-06-16T12:39:39.000Z</time>
      </trkpt>
      <trkpt lat="46.55738" lon="5.29703">
        <ele>212.60000610352</ele>
        <time>2022-06-16T12:39:42.000Z</time>
      </trkpt>
      <trkpt lat="46.55742" lon="5.29706">
        <ele>213</ele>
        <time>2022-06-16T12:39:43.000Z</time>
      </trkpt>
      <trkpt lat="46.55759" lon="5.2972">
        <ele>214.19999694824</ele>
        <time>2022-06-16T12:39:47.000Z</time>
      </trkpt>
      <trkpt lat="46.55763" lon="5.29723">
        <ele>214.19999694824</ele>
        <time>2022-06-16T12:39:48.000Z</time>
      </trkpt>
      <trkpt lat="46.55777" lon="5.29743">
        <ele>215.19999694824</ele>
        <time>2022-06-16T12:39:52.000Z</time>
      </trkpt>
      <trkpt lat="46.55785" lon="5.29754">
        <ele>215.39999389648</ele>
        <time>2022-06-16T12:39:54.000Z</time>
      </trkpt>
      <trkpt lat="46.55818" lon="5.29798">
        <ele>216.19999694824</ele>
        <time>2022-06-16T12:40:02.000Z</time>
      </trkpt>
      <trkpt lat="46.55852" lon="5.29844">
        <ele>217</ele>
        <time>2022-06-16T12:40:11.000Z</time>
      </trkpt>
      <trkpt lat="46.55856" lon="5.29849">
        <ele>217</ele>
        <time>2022-06-16T12:40:12.000Z</time>
      </trkpt>
      <trkpt lat="46.55874" lon="5.29874">
        <ele>217</ele>
        <time>2022-06-16T12:40:16.000Z</time>
      </trkpt>
      <trkpt lat="46.55913" lon="5.29926">
        <ele>216</ele>
        <time>2022-06-16T12:40:23.000Z</time>
      </trkpt>
      <trkpt lat="46.55937" lon="5.29958">
        <ele>215.19999694824</ele>
        <time>2022-06-16T12:40:27.000Z</time>
      </trkpt>
      <trkpt lat="46.55956" lon="5.29984">
        <ele>214.80000305176</ele>
        <time>2022-06-16T12:40:30.000Z</time>
      </trkpt>
      <trkpt lat="46.55966" lon="5.29998">
        <ele>214</ele>
        <time>2022-06-16T12:40:32.000Z</time>
      </trkpt>
      <trkpt lat="46.55987" lon="5.30025">
        <ele>213.19999694824</ele>
        <time>2022-06-16T12:40:36.000Z</time>
      </trkpt>
      <trkpt lat="46.56013" lon="5.3006">
        <ele>213.60000610352</ele>
        <time>2022-06-16T12:40:42.000Z</time>
      </trkpt>
      <trkpt lat="46.56036" lon="5.30089">
        <ele>214.60000610352</ele>
        <time>2022-06-16T12:40:48.000Z</time>
      </trkpt>
      <trkpt lat="46.5605" lon="5.30108">
        <ele>215.39999389648</ele>
        <time>2022-06-16T12:40:52.000Z</time>
      </trkpt>
      <trkpt lat="46.56056" lon="5.30118">
        <ele>215.60000610352</ele>
        <time>2022-06-16T12:40:54.000Z</time>
      </trkpt>
      <trkpt lat="46.56059" lon="5.30123">
        <ele>215.60000610352</ele>
        <time>2022-06-16T12:40:55.000Z</time>
      </trkpt>
      <trkpt lat="46.56062" lon="5.30129">
        <ele>215.80000305176</ele>
        <time>2022-06-16T12:40:56.000Z</time>
      </trkpt>
      <trkpt lat="46.56067" lon="5.30139">
        <ele>216</ele>
        <time>2022-06-16T12:40:58.000Z</time>
      </trkpt>
      <trkpt lat="46.56075" lon="5.30149">
        <ele>216.60000610352</ele>
        <time>2022-06-16T12:41:00.000Z</time>
      </trkpt>
      <trkpt lat="46.56079" lon="5.30154">
        <ele>216.80000305176</ele>
        <time>2022-06-16T12:41:01.000Z</time>
      </trkpt>
      <trkpt lat="46.56109" lon="5.30192">
        <ele>217.80000305176</ele>
        <time>2022-06-16T12:41:08.000Z</time>
      </trkpt>
      <trkpt lat="46.56113" lon="5.30198">
        <ele>218</ele>
        <time>2022-06-16T12:41:09.000Z</time>
      </trkpt>
      <trkpt lat="46.56145" lon="5.30243">
        <ele>218.39999389648</ele>
        <time>2022-06-16T12:41:17.000Z</time>
      </trkpt>
      <trkpt lat="46.56149" lon="5.30248">
        <ele>218.39999389648</ele>
        <time>2022-06-16T12:41:18.000Z</time>
      </trkpt>
      <trkpt lat="46.56171" lon="5.30278">
        <ele>218.39999389648</ele>
        <time>2022-06-16T12:41:23.000Z</time>
      </trkpt>
      <trkpt lat="46.56206" lon="5.30324">
        <ele>218.39999389648</ele>
        <time>2022-06-16T12:41:30.000Z</time>
      </trkpt>
      <trkpt lat="46.56223" lon="5.30355">
        <ele>218.39999389648</ele>
        <time>2022-06-16T12:41:34.000Z</time>
      </trkpt>
      <trkpt lat="46.56246" lon="5.3039">
        <ele>218.60000610352</ele>
        <time>2022-06-16T12:41:39.000Z</time>
      </trkpt>
      <trkpt lat="46.56286" lon="5.30446">
        <ele>218.80000305176</ele>
        <time>2022-06-16T12:41:48.000Z</time>
      </trkpt>
      <trkpt lat="46.56296" lon="5.30459">
        <ele>218.80000305176</ele>
        <time>2022-06-16T12:41:50.000Z</time>
      </trkpt>
      <trkpt lat="46.56314" lon="5.30484">
        <ele>219</ele>
        <time>2022-06-16T12:41:54.000Z</time>
      </trkpt>
      <trkpt lat="46.56346" lon="5.30528">
        <ele>219</ele>
        <time>2022-06-16T12:42:01.000Z</time>
      </trkpt>
      <trkpt lat="46.56387" lon="5.30585">
        <ele>218.60000610352</ele>
        <time>2022-06-16T12:42:10.000Z</time>
      </trkpt>
      <trkpt lat="46.56404" lon="5.30609">
        <ele>218.19999694824</ele>
        <time>2022-06-16T12:42:14.000Z</time>
      </trkpt>
      <trkpt lat="46.56408" lon="5.30618">
        <ele>218.19999694824</ele>
        <time>2022-06-16T12:42:16.000Z</time>
      </trkpt>
      <trkpt lat="46.56409" lon="5.3062">
        <ele>218</ele>
        <time>2022-06-16T12:42:17.000Z</time>
      </trkpt>
      <trkpt lat="46.56409" lon="5.30623">
        <ele>217.60000610352</ele>
        <time>2022-06-16T12:42:19.000Z</time>
      </trkpt>
      <trkpt lat="46.56411" lon="5.30628">
        <ele>217</ele>
        <time>2022-06-16T12:42:22.000Z</time>
      </trkpt>
      <trkpt lat="46.56416" lon="5.3063">
        <ele>216.80000305176</ele>
        <time>2022-06-16T12:42:24.000Z</time>
      </trkpt>
      <trkpt lat="46.56424" lon="5.30628">
        <ele>217</ele>
        <time>2022-06-16T12:42:26.000Z</time>
      </trkpt>
      <trkpt lat="46.56434" lon="5.30629">
        <ele>216.80000305176</ele>
        <time>2022-06-16T12:42:28.000Z</time>
      </trkpt>
      <trkpt lat="46.56459" lon="5.30623">
        <ele>216.80000305176</ele>
        <time>2022-06-16T12:42:32.000Z</time>
      </trkpt>
      <trkpt lat="46.56514" lon="5.3061">
        <ele>216.60000610352</ele>
        <time>2022-06-16T12:42:40.000Z</time>
      </trkpt>
      <trkpt lat="46.56573" lon="5.30602">
        <ele>216.19999694824</ele>
        <time>2022-06-16T12:42:48.000Z</time>
      </trkpt>
      <trkpt lat="46.56626" lon="5.30607">
        <ele>216.19999694824</ele>
        <time>2022-06-16T12:42:56.000Z</time>
      </trkpt>
      <trkpt lat="46.56664" lon="5.30622">
        <ele>216.39999389648</ele>
        <time>2022-06-16T12:43:02.000Z</time>
      </trkpt>
      <trkpt lat="46.56704" lon="5.30654">
        <ele>216.39999389648</ele>
        <time>2022-06-16T12:43:08.000Z</time>
      </trkpt>
      <trkpt lat="46.56735" lon="5.30698">
        <ele>216.19999694824</ele>
        <time>2022-06-16T12:43:14.000Z</time>
      </trkpt>
      <trkpt lat="46.56749" lon="5.30725">
        <ele>216</ele>
        <time>2022-06-16T12:43:17.000Z</time>
      </trkpt>
      <trkpt lat="46.56772" lon="5.30772">
        <ele>215</ele>
        <time>2022-06-16T12:43:22.000Z</time>
      </trkpt>
      <trkpt lat="46.56776" lon="5.30782">
        <ele>214.60000610352</ele>
        <time>2022-06-16T12:43:23.000Z</time>
      </trkpt>
      <trkpt lat="46.56789" lon="5.30813">
        <ele>213.80000305176</ele>
        <time>2022-06-16T12:43:26.000Z</time>
      </trkpt>
      <trkpt lat="46.56795" lon="5.30835">
        <ele>213.39999389648</ele>
        <time>2022-06-16T12:43:28.000Z</time>
      </trkpt>
      <trkpt lat="46.56802" lon="5.30872">
        <ele>212.80000305176</ele>
        <time>2022-06-16T12:43:31.000Z</time>
      </trkpt>
      <trkpt lat="46.56807" lon="5.30904">
        <ele>212</ele>
        <time>2022-06-16T12:43:34.000Z</time>
      </trkpt>
      <trkpt lat="46.5681" lon="5.30951">
        <ele>211.60000610352</ele>
        <time>2022-06-16T12:43:38.000Z</time>
      </trkpt>
      <trkpt lat="46.5681" lon="5.30962">
        <ele>211.39999389648</ele>
        <time>2022-06-16T12:43:39.000Z</time>
      </trkpt>
      <trkpt lat="46.56807" lon="5.31014">
        <ele>211.39999389648</ele>
        <time>2022-06-16T12:43:44.000Z</time>
      </trkpt>
      <trkpt lat="46.56808" lon="5.31053">
        <ele>211.19999694824</ele>
        <time>2022-06-16T12:43:48.000Z</time>
      </trkpt>
      <trkpt lat="46.56809" lon="5.31062">
        <ele>211.39999389648</ele>
        <time>2022-06-16T12:43:49.000Z</time>
      </trkpt>
      <trkpt lat="46.56811" lon="5.31071">
        <ele>211.39999389648</ele>
        <time>2022-06-16T12:43:50.000Z</time>
      </trkpt>
      <trkpt lat="46.56823" lon="5.31105">
        <ele>211.19999694824</ele>
        <time>2022-06-16T12:43:54.000Z</time>
      </trkpt>
      <trkpt lat="46.56841" lon="5.31132">
        <ele>211.39999389648</ele>
        <time>2022-06-16T12:43:58.000Z</time>
      </trkpt>
      <trkpt lat="46.56846" lon="5.31138">
        <ele>211.39999389648</ele>
        <time>2022-06-16T12:43:59.000Z</time>
      </trkpt>
      <trkpt lat="46.56856" lon="5.31148">
        <ele>211.60000610352</ele>
        <time>2022-06-16T12:44:01.000Z</time>
      </trkpt>
      <trkpt lat="46.56874" lon="5.31157">
        <ele>212</ele>
        <time>2022-06-16T12:44:04.000Z</time>
      </trkpt>
      <trkpt lat="46.56909" lon="5.31162">
        <ele>212.80000305176</ele>
        <time>2022-06-16T12:44:11.000Z</time>
      </trkpt>
      <trkpt lat="46.5693" lon="5.31167">
        <ele>212.80000305176</ele>
        <time>2022-06-16T12:44:15.000Z</time>
      </trkpt>
      <trkpt lat="46.5694" lon="5.31172">
        <ele>213.19999694824</ele>
        <time>2022-06-16T12:44:17.000Z</time>
      </trkpt>
      <trkpt lat="46.56978" lon="5.31204">
        <ele>213.60000610352</ele>
        <time>2022-06-16T12:44:25.000Z</time>
      </trkpt>
      <trkpt lat="46.56988" lon="5.31213">
        <ele>213.80000305176</ele>
        <time>2022-06-16T12:44:27.000Z</time>
      </trkpt>
      <trkpt lat="46.57034" lon="5.31255">
        <ele>214.80000305176</ele>
        <time>2022-06-16T12:44:37.000Z</time>
      </trkpt>
      <trkpt lat="46.57039" lon="5.31259">
        <ele>215</ele>
        <time>2022-06-16T12:44:38.000Z</time>
      </trkpt>
      <trkpt lat="46.57077" lon="5.31291">
        <ele>215.39999389648</ele>
        <time>2022-06-16T12:44:46.000Z</time>
      </trkpt>
      <trkpt lat="46.57108" lon="5.313">
        <ele>215.80000305176</ele>
        <time>2022-06-16T12:44:52.000Z</time>
      </trkpt>
      <trkpt lat="46.57113" lon="5.31301">
        <ele>216</ele>
        <time>2022-06-16T12:44:53.000Z</time>
      </trkpt>
      <trkpt lat="46.57132" lon="5.31301">
        <ele>216.39999389648</ele>
        <time>2022-06-16T12:44:57.000Z</time>
      </trkpt>
      <trkpt lat="46.57159" lon="5.31304">
        <ele>217</ele>
        <time>2022-06-16T12:45:03.000Z</time>
      </trkpt>
      <trkpt lat="46.57163" lon="5.31306">
        <ele>217.19999694824</ele>
        <time>2022-06-16T12:45:04.000Z</time>
      </trkpt>
      <trkpt lat="46.57171" lon="5.3131">
        <ele>217.19999694824</ele>
        <time>2022-06-16T12:45:06.000Z</time>
      </trkpt>
      <trkpt lat="46.57187" lon="5.31325">
        <ele>217.80000305176</ele>
        <time>2022-06-16T12:45:10.000Z</time>
      </trkpt>
      <trkpt lat="46.57202" lon="5.31342">
        <ele>218.39999389648</ele>
        <time>2022-06-16T12:45:14.000Z</time>
      </trkpt>
      <trkpt lat="46.57212" lon="5.31358">
        <ele>219.19999694824</ele>
        <time>2022-06-16T12:45:17.000Z</time>
      </trkpt>
      <trkpt lat="46.57215" lon="5.31363">
        <ele>219.39999389648</ele>
        <time>2022-06-16T12:45:18.000Z</time>
      </trkpt>
      <trkpt lat="46.57221" lon="5.31375">
        <ele>219.80000305176</ele>
        <time>2022-06-16T12:45:20.000Z</time>
      </trkpt>
      <trkpt lat="46.57227" lon="5.31395">
        <ele>220</ele>
        <time>2022-06-16T12:45:23.000Z</time>
      </trkpt>
      <trkpt lat="46.57242" lon="5.31454">
        <ele>220.39999389648</ele>
        <time>2022-06-16T12:45:32.000Z</time>
      </trkpt>
      <trkpt lat="46.57247" lon="5.31467">
        <ele>220.60000610352</ele>
        <time>2022-06-16T12:45:34.000Z</time>
      </trkpt>
      <trkpt lat="46.57264" lon="5.31495">
        <ele>221</ele>
        <time>2022-06-16T12:45:39.000Z</time>
      </trkpt>
      <trkpt lat="46.57296" lon="5.31543">
        <ele>221.39999389648</ele>
        <time>2022-06-16T12:45:47.000Z</time>
      </trkpt>
      <trkpt lat="46.57299" lon="5.31548">
        <ele>221.60000610352</ele>
        <time>2022-06-16T12:45:48.000Z</time>
      </trkpt>
      <trkpt lat="46.57334" lon="5.31597">
        <ele>221.80000305176</ele>
        <time>2022-06-16T12:45:56.000Z</time>
      </trkpt>
      <trkpt lat="46.57346" lon="5.31608">
        <ele>221.80000305176</ele>
        <time>2022-06-16T12:45:58.000Z</time>
      </trkpt>
      <trkpt lat="46.57358" lon="5.31615">
        <ele>221.80000305176</ele>
        <time>2022-06-16T12:46:00.000Z</time>
      </trkpt>
      <trkpt lat="46.57389" lon="5.3162">
        <ele>221.60000610352</ele>
        <time>2022-06-16T12:46:05.000Z</time>
      </trkpt>
      <trkpt lat="46.57447" lon="5.31617">
        <ele>221.19999694824</ele>
        <time>2022-06-16T12:46:14.000Z</time>
      </trkpt>
      <trkpt lat="46.57506" lon="5.31613">
        <ele>220.80000305176</ele>
        <time>2022-06-16T12:46:23.000Z</time>
      </trkpt>
      <trkpt lat="46.57512" lon="5.31612">
        <ele>220.80000305176</ele>
        <time>2022-06-16T12:46:24.000Z</time>
      </trkpt>
      <trkpt lat="46.57569" lon="5.31603">
        <ele>221</ele>
        <time>2022-06-16T12:46:33.000Z</time>
      </trkpt>
      <trkpt lat="46.57575" lon="5.31602">
        <ele>221</ele>
        <time>2022-06-16T12:46:34.000Z</time>
      </trkpt>
      <trkpt lat="46.57608" lon="5.31598">
        <ele>220.60000610352</ele>
        <time>2022-06-16T12:46:39.000Z</time>
      </trkpt>
      <trkpt lat="46.57627" lon="5.31595">
        <ele>220.60000610352</ele>
        <time>2022-06-16T12:46:42.000Z</time>
      </trkpt>
      <trkpt lat="46.57684" lon="5.31585">
        <ele>220.60000610352</ele>
        <time>2022-06-16T12:46:51.000Z</time>
      </trkpt>
      <trkpt lat="46.57698" lon="5.31581">
        <ele>220.39999389648</ele>
        <time>2022-06-16T12:46:53.000Z</time>
      </trkpt>
      <trkpt lat="46.57737" lon="5.31559">
        <ele>220.39999389648</ele>
        <time>2022-06-16T12:46:59.000Z</time>
      </trkpt>
      <trkpt lat="46.5779" lon="5.31517">
        <ele>219.80000305176</ele>
        <time>2022-06-16T12:47:07.000Z</time>
      </trkpt>
      <trkpt lat="46.57797" lon="5.31512">
        <ele>219.60000610352</ele>
        <time>2022-06-16T12:47:08.000Z</time>
      </trkpt>
      <trkpt lat="46.57804" lon="5.31507">
        <ele>219.60000610352</ele>
        <time>2022-06-16T12:47:09.000Z</time>
      </trkpt>
      <trkpt lat="46.57851" lon="5.31485">
        <ele>218.80000305176</ele>
        <time>2022-06-16T12:47:15.000Z</time>
      </trkpt>
      <trkpt lat="46.57882" lon="5.31475">
        <ele>218.60000610352</ele>
        <time>2022-06-16T12:47:19.000Z</time>
      </trkpt>
      <trkpt lat="46.57921" lon="5.31463">
        <ele>218</ele>
        <time>2022-06-16T12:47:24.000Z</time>
      </trkpt>
      <trkpt lat="46.57966" lon="5.3145">
        <ele>217.60000610352</ele>
        <time>2022-06-16T12:47:30.000Z</time>
      </trkpt>
      <trkpt lat="46.57989" lon="5.31443">
        <ele>217.39999389648</ele>
        <time>2022-06-16T12:47:33.000Z</time>
      </trkpt>
      <trkpt lat="46.58049" lon="5.3143">
        <ele>217</ele>
        <time>2022-06-16T12:47:41.000Z</time>
      </trkpt>
      <trkpt lat="46.58056" lon="5.3143">
        <ele>217</ele>
        <time>2022-06-16T12:47:42.000Z</time>
      </trkpt>
      <trkpt lat="46.58113" lon="5.31435">
        <ele>216.80000305176</ele>
        <time>2022-06-16T12:47:50.000Z</time>
      </trkpt>
      <trkpt lat="46.5812" lon="5.31435">
        <ele>216.80000305176</ele>
        <time>2022-06-16T12:47:51.000Z</time>
      </trkpt>
      <trkpt lat="46.5814" lon="5.31429">
        <ele>216.80000305176</ele>
        <time>2022-06-16T12:47:54.000Z</time>
      </trkpt>
      <trkpt lat="46.58173" lon="5.31405">
        <ele>216.60000610352</ele>
        <time>2022-06-16T12:47:59.000Z</time>
      </trkpt>
      <trkpt lat="46.58226" lon="5.31363">
        <ele>216.19999694824</ele>
        <time>2022-06-16T12:48:07.000Z</time>
      </trkpt>
      <trkpt lat="46.58246" lon="5.31346">
        <ele>215.39999389648</ele>
        <time>2022-06-16T12:48:10.000Z</time>
      </trkpt>
      <trkpt lat="46.58298" lon="5.31303">
        <ele>214.39999389648</ele>
        <time>2022-06-16T12:48:18.000Z</time>
      </trkpt>
      <trkpt lat="46.58305" lon="5.31298">
        <ele>214.39999389648</ele>
        <time>2022-06-16T12:48:19.000Z</time>
      </trkpt>
      <trkpt lat="46.58338" lon="5.31274">
        <ele>213.80000305176</ele>
        <time>2022-06-16T12:48:24.000Z</time>
      </trkpt>
      <trkpt lat="46.58351" lon="5.31267">
        <ele>213.80000305176</ele>
        <time>2022-06-16T12:48:26.000Z</time>
      </trkpt>
      <trkpt lat="46.58364" lon="5.31261">
        <ele>213.60000610352</ele>
        <time>2022-06-16T12:48:28.000Z</time>
      </trkpt>
      <trkpt lat="46.58385" lon="5.31253">
        <ele>213.39999389648</ele>
        <time>2022-06-16T12:48:31.000Z</time>
      </trkpt>
      <trkpt lat="46.58412" lon="5.31241">
        <ele>213</ele>
        <time>2022-06-16T12:48:35.000Z</time>
      </trkpt>
      <trkpt lat="46.58462" lon="5.31219">
        <ele>213</ele>
        <time>2022-06-16T12:48:43.000Z</time>
      </trkpt>
      <trkpt lat="46.58513" lon="5.31197">
        <ele>213.19999694824</ele>
        <time>2022-06-16T12:48:51.000Z</time>
      </trkpt>
      <trkpt lat="46.58555" lon="5.31172">
        <ele>213</ele>
        <time>2022-06-16T12:48:58.000Z</time>
      </trkpt>
      <trkpt lat="46.58601" lon="5.31128">
        <ele>212.80000305176</ele>
        <time>2022-06-16T12:49:06.000Z</time>
      </trkpt>
      <trkpt lat="46.58629" lon="5.31099">
        <ele>212.39999389648</ele>
        <time>2022-06-16T12:49:11.000Z</time>
      </trkpt>
      <trkpt lat="46.58651" lon="5.31076">
        <ele>212</ele>
        <time>2022-06-16T12:49:15.000Z</time>
      </trkpt>
      <trkpt lat="46.58697" lon="5.31028">
        <ele>211.60000610352</ele>
        <time>2022-06-16T12:49:24.000Z</time>
      </trkpt>
      <trkpt lat="46.58707" lon="5.31018">
        <ele>211.39999389648</ele>
        <time>2022-06-16T12:49:26.000Z</time>
      </trkpt>
      <trkpt lat="46.58745" lon="5.30978">
        <ele>211.80000305176</ele>
        <time>2022-06-16T12:49:34.000Z</time>
      </trkpt>
      <trkpt lat="46.58785" lon="5.30935">
        <ele>213</ele>
        <time>2022-06-16T12:49:43.000Z</time>
      </trkpt>
      <trkpt lat="46.58807" lon="5.30914">
        <ele>213.80000305176</ele>
        <time>2022-06-16T12:49:48.000Z</time>
      </trkpt>
      <trkpt lat="46.58817" lon="5.30907">
        <ele>214</ele>
        <time>2022-06-16T12:49:50.000Z</time>
      </trkpt>
      <trkpt lat="46.58822" lon="5.30905">
        <ele>214.19999694824</ele>
        <time>2022-06-16T12:49:51.000Z</time>
      </trkpt>
      <trkpt lat="46.58845" lon="5.309">
        <ele>215</ele>
        <time>2022-06-16T12:49:55.000Z</time>
      </trkpt>
      <trkpt lat="46.58852" lon="5.30899">
        <ele>215.19999694824</ele>
        <time>2022-06-16T12:49:56.000Z</time>
      </trkpt>
      <trkpt lat="46.58903" lon="5.30893">
        <ele>215.80000305176</ele>
        <time>2022-06-16T12:50:04.000Z</time>
      </trkpt>
      <trkpt lat="46.58929" lon="5.3089">
        <ele>215.80000305176</ele>
        <time>2022-06-16T12:50:08.000Z</time>
      </trkpt>
      <trkpt lat="46.5895" lon="5.30888">
        <ele>215.60000610352</ele>
        <time>2022-06-16T12:50:11.000Z</time>
      </trkpt>
      <trkpt lat="46.5901" lon="5.3088">
        <ele>214.39999389648</ele>
        <time>2022-06-16T12:50:19.000Z</time>
      </trkpt>
      <trkpt lat="46.59026" lon="5.30878">
        <ele>213.80000305176</ele>
        <time>2022-06-16T12:50:21.000Z</time>
      </trkpt>
      <trkpt lat="46.59052" lon="5.30875">
        <ele>212.39999389648</ele>
        <time>2022-06-16T12:50:24.000Z</time>
      </trkpt>
      <trkpt lat="46.59061" lon="5.30874">
        <ele>212</ele>
        <time>2022-06-16T12:50:25.000Z</time>
      </trkpt>
      <trkpt lat="46.59088" lon="5.3087">
        <ele>211.39999389648</ele>
        <time>2022-06-16T12:50:28.000Z</time>
      </trkpt>
      <trkpt lat="46.59126" lon="5.30865">
        <ele>209.80000305176</ele>
        <time>2022-06-16T12:50:32.000Z</time>
      </trkpt>
      <trkpt lat="46.59135" lon="5.30864">
        <ele>209.39999389648</ele>
        <time>2022-06-16T12:50:33.000Z</time>
      </trkpt>
      <trkpt lat="46.59154" lon="5.30861">
        <ele>208.80000305176</ele>
        <time>2022-06-16T12:50:35.000Z</time>
      </trkpt>
      <trkpt lat="46.59181" lon="5.30857">
        <ele>207.60000610352</ele>
        <time>2022-06-16T12:50:38.000Z</time>
      </trkpt>
      <trkpt lat="46.59208" lon="5.30855">
        <ele>206.19999694824</ele>
        <time>2022-06-16T12:50:41.000Z</time>
      </trkpt>
      <trkpt lat="46.59244" lon="5.3085">
        <ele>205</ele>
        <time>2022-06-16T12:50:45.000Z</time>
      </trkpt>
      <trkpt lat="46.59272" lon="5.30847">
        <ele>203.80000305176</ele>
        <time>2022-06-16T12:50:48.000Z</time>
      </trkpt>
      <trkpt lat="46.593" lon="5.30843">
        <ele>203</ele>
        <time>2022-06-16T12:50:51.000Z</time>
      </trkpt>
      <trkpt lat="46.59309" lon="5.30842">
        <ele>202.80000305176</ele>
        <time>2022-06-16T12:50:52.000Z</time>
      </trkpt>
      <trkpt lat="46.59337" lon="5.30838">
        <ele>201.80000305176</ele>
        <time>2022-06-16T12:50:55.000Z</time>
      </trkpt>
      <trkpt lat="46.59383" lon="5.30832">
        <ele>200.39999389648</ele>
        <time>2022-06-16T12:51:00.000Z</time>
      </trkpt>
      <trkpt lat="46.59392" lon="5.30831">
        <ele>200</ele>
        <time>2022-06-16T12:51:01.000Z</time>
      </trkpt>
      <trkpt lat="46.59429" lon="5.30826">
        <ele>199.19999694824</ele>
        <time>2022-06-16T12:51:05.000Z</time>
      </trkpt>
      <trkpt lat="46.59465" lon="5.30821">
        <ele>198</ele>
        <time>2022-06-16T12:51:09.000Z</time>
      </trkpt>
      <trkpt lat="46.59508" lon="5.30816">
        <ele>197</ele>
        <time>2022-06-16T12:51:14.000Z</time>
      </trkpt>
      <trkpt lat="46.59533" lon="5.30813">
        <ele>196.80000305176</ele>
        <time>2022-06-16T12:51:17.000Z</time>
      </trkpt>
      <trkpt lat="46.59579" lon="5.30807">
        <ele>196.39999389648</ele>
        <time>2022-06-16T12:51:23.000Z</time>
      </trkpt>
      <trkpt lat="46.59638" lon="5.30799">
        <ele>196.39999389648</ele>
        <time>2022-06-16T12:51:31.000Z</time>
      </trkpt>
      <trkpt lat="46.59645" lon="5.30797">
        <ele>196.39999389648</ele>
        <time>2022-06-16T12:51:32.000Z</time>
      </trkpt>
      <trkpt lat="46.59684" lon="5.30793">
        <ele>196.39999389648</ele>
        <time>2022-06-16T12:51:38.000Z</time>
      </trkpt>
      <trkpt lat="46.59719" lon="5.30791">
        <ele>197.60000610352</ele>
        <time>2022-06-16T12:51:44.000Z</time>
      </trkpt>
      <trkpt lat="46.59735" lon="5.3079">
        <ele>198.19999694824</ele>
        <time>2022-06-16T12:51:47.000Z</time>
      </trkpt>
      <trkpt lat="46.5975" lon="5.3079">
        <ele>199.19999694824</ele>
        <time>2022-06-16T12:51:50.000Z</time>
      </trkpt>
      <trkpt lat="46.59768" lon="5.30788">
        <ele>199.80000305176</ele>
        <time>2022-06-16T12:51:54.000Z</time>
      </trkpt>
      <trkpt lat="46.59773" lon="5.30788">
        <ele>200.19999694824</ele>
        <time>2022-06-16T12:51:55.000Z</time>
      </trkpt>
      <trkpt lat="46.59781" lon="5.30789">
        <ele>200.60000610352</ele>
        <time>2022-06-16T12:51:57.000Z</time>
      </trkpt>
      <trkpt lat="46.59794" lon="5.30793">
        <ele>201.60000610352</ele>
        <time>2022-06-16T12:52:00.000Z</time>
      </trkpt>
      <trkpt lat="46.59809" lon="5.308">
        <ele>202.19999694824</ele>
        <time>2022-06-16T12:52:03.000Z</time>
      </trkpt>
      <trkpt lat="46.59813" lon="5.30802">
        <ele>202.39999389648</ele>
        <time>2022-06-16T12:52:04.000Z</time>
      </trkpt>
      <trkpt lat="46.59818" lon="5.30804">
        <ele>202.60000610352</ele>
        <time>2022-06-16T12:52:05.000Z</time>
      </trkpt>
      <trkpt lat="46.59837" lon="5.30812">
        <ele>203.39999389648</ele>
        <time>2022-06-16T12:52:09.000Z</time>
      </trkpt>
      <trkpt lat="46.59852" lon="5.30816">
        <ele>203.80000305176</ele>
        <time>2022-06-16T12:52:12.000Z</time>
      </trkpt>
      <trkpt lat="46.59886" lon="5.30825">
        <ele>204.60000610352</ele>
        <time>2022-06-16T12:52:19.000Z</time>
      </trkpt>
      <trkpt lat="46.59906" lon="5.30828">
        <ele>204.80000305176</ele>
        <time>2022-06-16T12:52:23.000Z</time>
      </trkpt>
      <trkpt lat="46.59931" lon="5.30833">
        <ele>205.39999389648</ele>
        <time>2022-06-16T12:52:28.000Z</time>
      </trkpt>
      <trkpt lat="46.59955" lon="5.30839">
        <ele>205.80000305176</ele>
        <time>2022-06-16T12:52:33.000Z</time>
      </trkpt>
      <trkpt lat="46.59969" lon="5.30847">
        <ele>206.19999694824</ele>
        <time>2022-06-16T12:52:36.000Z</time>
      </trkpt>
      <trkpt lat="46.5998" lon="5.3086">
        <ele>207</ele>
        <time>2022-06-16T12:52:39.000Z</time>
      </trkpt>
      <trkpt lat="46.59991" lon="5.30872">
        <ele>207.39999389648</ele>
        <time>2022-06-16T12:52:42.000Z</time>
      </trkpt>
      <trkpt lat="46.60006" lon="5.30889">
        <ele>208.19999694824</ele>
        <time>2022-06-16T12:52:46.000Z</time>
      </trkpt>
      <trkpt lat="46.60026" lon="5.30909">
        <ele>209.19999694824</ele>
        <time>2022-06-16T12:52:51.000Z</time>
      </trkpt>
      <trkpt lat="46.60033" lon="5.30919">
        <ele>209.19999694824</ele>
        <time>2022-06-16T12:52:53.000Z</time>
      </trkpt>
      <trkpt lat="46.60058" lon="5.30947">
        <ele>210.19999694824</ele>
        <time>2022-06-16T12:52:59.000Z</time>
      </trkpt>
      <trkpt lat="46.60062" lon="5.30952">
        <ele>210.39999389648</ele>
        <time>2022-06-16T12:53:00.000Z</time>
      </trkpt>
      <trkpt lat="46.60094" lon="5.30988">
        <ele>211.19999694824</ele>
        <time>2022-06-16T12:53:08.000Z</time>
      </trkpt>
      <trkpt lat="46.60097" lon="5.30991">
        <ele>211.39999389648</ele>
        <time>2022-06-16T12:53:09.000Z</time>
      </trkpt>
      <trkpt lat="46.601" lon="5.30995">
        <ele>211.60000610352</ele>
        <time>2022-06-16T12:53:10.000Z</time>
      </trkpt>
      <trkpt lat="46.60107" lon="5.31006">
        <ele>211.60000610352</ele>
        <time>2022-06-16T12:53:13.000Z</time>
      </trkpt>
      <trkpt lat="46.60108" lon="5.31009">
        <ele>211.80000305176</ele>
        <time>2022-06-16T12:53:14.000Z</time>
      </trkpt>
      <trkpt lat="46.60104" lon="5.31022">
        <ele>211.80000305176</ele>
        <time>2022-06-16T12:53:17.000Z</time>
      </trkpt>
      <trkpt lat="46.6009" lon="5.31047">
        <ele>211.60000610352</ele>
        <time>2022-06-16T12:53:21.000Z</time>
      </trkpt>
      <trkpt lat="46.60079" lon="5.31069">
        <ele>211.60000610352</ele>
        <time>2022-06-16T12:53:24.000Z</time>
      </trkpt>
      <trkpt lat="46.60074" lon="5.31085">
        <ele>211.60000610352</ele>
        <time>2022-06-16T12:53:26.000Z</time>
      </trkpt>
      <trkpt lat="46.60068" lon="5.3114">
        <ele>211.80000305176</ele>
        <time>2022-06-16T12:53:32.000Z</time>
      </trkpt>
      <trkpt lat="46.60062" lon="5.31225">
        <ele>211.80000305176</ele>
        <time>2022-06-16T12:53:41.000Z</time>
      </trkpt>
      <trkpt lat="46.60056" lon="5.31309">
        <ele>211.39999389648</ele>
        <time>2022-06-16T12:53:49.000Z</time>
      </trkpt>
      <trkpt lat="46.60056" lon="5.3132">
        <ele>211.39999389648</ele>
        <time>2022-06-16T12:53:50.000Z</time>
      </trkpt>
      <trkpt lat="46.60054" lon="5.31355">
        <ele>211.19999694824</ele>
        <time>2022-06-16T12:53:53.000Z</time>
      </trkpt>
      <trkpt lat="46.60051" lon="5.31436">
        <ele>210.60000610352</ele>
        <time>2022-06-16T12:54:00.000Z</time>
      </trkpt>
      <trkpt lat="46.60054" lon="5.31471">
        <ele>210.19999694824</ele>
        <time>2022-06-16T12:54:03.000Z</time>
      </trkpt>
      <trkpt lat="46.60059" lon="5.31494">
        <ele>210.19999694824</ele>
        <time>2022-06-16T12:54:05.000Z</time>
      </trkpt>
      <trkpt lat="46.60063" lon="5.31505">
        <ele>210.19999694824</ele>
        <time>2022-06-16T12:54:06.000Z</time>
      </trkpt>
      <trkpt lat="46.60075" lon="5.31535">
        <ele>209.80000305176</ele>
        <time>2022-06-16T12:54:09.000Z</time>
      </trkpt>
      <trkpt lat="46.60108" lon="5.31601">
        <ele>209.19999694824</ele>
        <time>2022-06-16T12:54:16.000Z</time>
      </trkpt>
      <trkpt lat="46.60118" lon="5.31619">
        <ele>209.39999389648</ele>
        <time>2022-06-16T12:54:18.000Z</time>
      </trkpt>
      <trkpt lat="46.60122" lon="5.31628">
        <ele>209.39999389648</ele>
        <time>2022-06-16T12:54:19.000Z</time>
      </trkpt>
      <trkpt lat="46.60157" lon="5.31698">
        <ele>209.19999694824</ele>
        <time>2022-06-16T12:54:27.000Z</time>
      </trkpt>
      <trkpt lat="46.60177" lon="5.31737">
        <ele>209.80000305176</ele>
        <time>2022-06-16T12:54:32.000Z</time>
      </trkpt>
      <trkpt lat="46.60185" lon="5.31752">
        <ele>210.19999694824</ele>
        <time>2022-06-16T12:54:34.000Z</time>
      </trkpt>
      <trkpt lat="46.60197" lon="5.31774">
        <ele>210.60000610352</ele>
        <time>2022-06-16T12:54:37.000Z</time>
      </trkpt>
      <trkpt lat="46.60213" lon="5.31803">
        <ele>211.19999694824</ele>
        <time>2022-06-16T12:54:41.000Z</time>
      </trkpt>
      <trkpt lat="46.60217" lon="5.31811">
        <ele>211.60000610352</ele>
        <time>2022-06-16T12:54:42.000Z</time>
      </trkpt>
      <trkpt lat="46.60248" lon="5.31877">
        <ele>212.39999389648</ele>
        <time>2022-06-16T12:54:50.000Z</time>
      </trkpt>
      <trkpt lat="46.60256" lon="5.31892">
        <ele>212.60000610352</ele>
        <time>2022-06-16T12:54:52.000Z</time>
      </trkpt>
      <trkpt lat="46.60286" lon="5.31953">
        <ele>213.39999389648</ele>
        <time>2022-06-16T12:55:00.000Z</time>
      </trkpt>
      <trkpt lat="46.60305" lon="5.3199">
        <ele>213.60000610352</ele>
        <time>2022-06-16T12:55:05.000Z</time>
      </trkpt>
      <trkpt lat="46.60327" lon="5.32034">
        <ele>214</ele>
        <time>2022-06-16T12:55:11.000Z</time>
      </trkpt>
      <trkpt lat="46.60362" lon="5.32103">
        <ele>214.19999694824</ele>
        <time>2022-06-16T12:55:20.000Z</time>
      </trkpt>
      <trkpt lat="46.60379" lon="5.32137">
        <ele>214.19999694824</ele>
        <time>2022-06-16T12:55:24.000Z</time>
      </trkpt>
      <trkpt lat="46.60412" lon="5.32202">
        <ele>214</ele>
        <time>2022-06-16T12:55:32.000Z</time>
      </trkpt>
      <trkpt lat="46.6042" lon="5.32218">
        <ele>214</ele>
        <time>2022-06-16T12:55:34.000Z</time>
      </trkpt>
      <trkpt lat="46.60448" lon="5.32279">
        <ele>213.80000305176</ele>
        <time>2022-06-16T12:55:42.000Z</time>
      </trkpt>
      <trkpt lat="46.60475" lon="5.32351">
        <ele>214</ele>
        <time>2022-06-16T12:55:51.000Z</time>
      </trkpt>
      <trkpt lat="46.60499" lon="5.32426">
        <ele>213.80000305176</ele>
        <time>2022-06-16T12:56:00.000Z</time>
      </trkpt>
      <trkpt lat="46.60505" lon="5.32443">
        <ele>213.80000305176</ele>
        <time>2022-06-16T12:56:02.000Z</time>
      </trkpt>
      <trkpt lat="46.6053" lon="5.3252">
        <ele>213.80000305176</ele>
        <time>2022-06-16T12:56:11.000Z</time>
      </trkpt>
      <trkpt lat="46.60533" lon="5.32528">
        <ele>213.80000305176</ele>
        <time>2022-06-16T12:56:12.000Z</time>
      </trkpt>
      <trkpt lat="46.60538" lon="5.32545">
        <ele>213.80000305176</ele>
        <time>2022-06-16T12:56:14.000Z</time>
      </trkpt>
      <trkpt lat="46.60552" lon="5.32607">
        <ele>213.80000305176</ele>
        <time>2022-06-16T12:56:21.000Z</time>
      </trkpt>
      <trkpt lat="46.60554" lon="5.32677">
        <ele>213.80000305176</ele>
        <time>2022-06-16T12:56:28.000Z</time>
      </trkpt>
      <trkpt lat="46.60554" lon="5.32754">
        <ele>213.60000610352</ele>
        <time>2022-06-16T12:56:35.000Z</time>
      </trkpt>
      <trkpt lat="46.60554" lon="5.32815">
        <ele>212.60000610352</ele>
        <time>2022-06-16T12:56:40.000Z</time>
      </trkpt>
      <trkpt lat="46.60554" lon="5.32851">
        <ele>211.80000305176</ele>
        <time>2022-06-16T12:56:43.000Z</time>
      </trkpt>
      <trkpt lat="46.60554" lon="5.32863">
        <ele>211.60000610352</ele>
        <time>2022-06-16T12:56:44.000Z</time>
      </trkpt>
      <trkpt lat="46.60554" lon="5.32942">
        <ele>210.80000305176</ele>
        <time>2022-06-16T12:56:51.000Z</time>
      </trkpt>
      <trkpt lat="46.60554" lon="5.32962">
        <ele>210.60000610352</ele>
        <time>2022-06-16T12:56:53.000Z</time>
      </trkpt>
      <trkpt lat="46.60554" lon="5.33026">
        <ele>210.60000610352</ele>
        <time>2022-06-16T12:57:00.000Z</time>
      </trkpt>
      <trkpt lat="46.60553" lon="5.33104">
        <ele>211.60000610352</ele>
        <time>2022-06-16T12:57:09.000Z</time>
      </trkpt>
      <trkpt lat="46.60552" lon="5.33145">
        <ele>212.80000305176</ele>
        <time>2022-06-16T12:57:14.000Z</time>
      </trkpt>
      <trkpt lat="46.60547" lon="5.33178">
        <ele>213.39999389648</ele>
        <time>2022-06-16T12:57:18.000Z</time>
      </trkpt>
      <trkpt lat="46.60539" lon="5.33214">
        <ele>213.80000305176</ele>
        <time>2022-06-16T12:57:22.000Z</time>
      </trkpt>
      <trkpt lat="46.60537" lon="5.33224">
        <ele>213.80000305176</ele>
        <time>2022-06-16T12:57:23.000Z</time>
      </trkpt>
      <trkpt lat="46.60519" lon="5.333">
        <ele>213.39999389648</ele>
        <time>2022-06-16T12:57:31.000Z</time>
      </trkpt>
      <trkpt lat="46.60504" lon="5.3336">
        <ele>213.80000305176</ele>
        <time>2022-06-16T12:57:38.000Z</time>
      </trkpt>
      <trkpt lat="46.6049" lon="5.33416">
        <ele>215</ele>
        <time>2022-06-16T12:57:45.000Z</time>
      </trkpt>
      <trkpt lat="46.60488" lon="5.33424">
        <ele>215.19999694824</ele>
        <time>2022-06-16T12:57:46.000Z</time>
      </trkpt>
      <trkpt lat="46.60473" lon="5.33485">
        <ele>215.80000305176</ele>
        <time>2022-06-16T12:57:54.000Z</time>
      </trkpt>
      <trkpt lat="46.60457" lon="5.33548">
        <ele>215.80000305176</ele>
        <time>2022-06-16T12:58:02.000Z</time>
      </trkpt>
      <trkpt lat="46.60442" lon="5.33627">
        <ele>215.60000610352</ele>
        <time>2022-06-16T12:58:11.000Z</time>
      </trkpt>
      <trkpt lat="46.60433" lon="5.33703">
        <ele>215.39999389648</ele>
        <time>2022-06-16T12:58:19.000Z</time>
      </trkpt>
      <trkpt lat="46.60426" lon="5.33782">
        <ele>215</ele>
        <time>2022-06-16T12:58:27.000Z</time>
      </trkpt>
      <trkpt lat="46.6042" lon="5.33859">
        <ele>215.19999694824</ele>
        <time>2022-06-16T12:58:35.000Z</time>
      </trkpt>
      <trkpt lat="46.60422" lon="5.33926">
        <ele>215.39999389648</ele>
        <time>2022-06-16T12:58:42.000Z</time>
      </trkpt>
      <trkpt lat="46.60432" lon="5.33998">
        <ele>215.60000610352</ele>
        <time>2022-06-16T12:58:50.000Z</time>
      </trkpt>
      <trkpt lat="46.60444" lon="5.34056">
        <ele>215.80000305176</ele>
        <time>2022-06-16T12:58:57.000Z</time>
      </trkpt>
      <trkpt lat="46.60464" lon="5.341">
        <ele>216</ele>
        <time>2022-06-16T12:59:03.000Z</time>
      </trkpt>
      <trkpt lat="46.60472" lon="5.34114">
        <ele>216</ele>
        <time>2022-06-16T12:59:05.000Z</time>
      </trkpt>
      <trkpt lat="46.6049" lon="5.34142">
        <ele>216.19999694824</ele>
        <time>2022-06-16T12:59:09.000Z</time>
      </trkpt>
      <trkpt lat="46.60507" lon="5.34173">
        <ele>216.19999694824</ele>
        <time>2022-06-16T12:59:13.000Z</time>
      </trkpt>
      <trkpt lat="46.60513" lon="5.34192">
        <ele>216.19999694824</ele>
        <time>2022-06-16T12:59:15.000Z</time>
      </trkpt>
      <trkpt lat="46.60517" lon="5.34213">
        <ele>215.80000305176</ele>
        <time>2022-06-16T12:59:17.000Z</time>
      </trkpt>
      <trkpt lat="46.60518" lon="5.34235">
        <ele>215.60000610352</ele>
        <time>2022-06-16T12:59:19.000Z</time>
      </trkpt>
      <trkpt lat="46.60519" lon="5.34271">
        <ele>214.80000305176</ele>
        <time>2022-06-16T12:59:22.000Z</time>
      </trkpt>
      <trkpt lat="46.60521" lon="5.3431">
        <ele>213.39999389648</ele>
        <time>2022-06-16T12:59:25.000Z</time>
      </trkpt>
      <trkpt lat="46.60521" lon="5.34324">
        <ele>213.19999694824</ele>
        <time>2022-06-16T12:59:26.000Z</time>
      </trkpt>
      <trkpt lat="46.60523" lon="5.3435">
        <ele>212</ele>
        <time>2022-06-16T12:59:28.000Z</time>
      </trkpt>
      <trkpt lat="46.60525" lon="5.34406">
        <ele>210.39999389648</ele>
        <time>2022-06-16T12:59:32.000Z</time>
      </trkpt>
      <trkpt lat="46.60526" lon="5.3442">
        <ele>210</ele>
        <time>2022-06-16T12:59:33.000Z</time>
      </trkpt>
      <trkpt lat="46.60528" lon="5.34464">
        <ele>208.60000610352</ele>
        <time>2022-06-16T12:59:36.000Z</time>
      </trkpt>
      <trkpt lat="46.60529" lon="5.34492">
        <ele>207.39999389648</ele>
        <time>2022-06-16T12:59:38.000Z</time>
      </trkpt>
      <trkpt lat="46.6053" lon="5.34506">
        <ele>206.80000305176</ele>
        <time>2022-06-16T12:59:39.000Z</time>
      </trkpt>
      <trkpt lat="46.60531" lon="5.34534">
        <ele>206.39999389648</ele>
        <time>2022-06-16T12:59:41.000Z</time>
      </trkpt>
      <trkpt lat="46.60534" lon="5.34586">
        <ele>205.19999694824</ele>
        <time>2022-06-16T12:59:45.000Z</time>
      </trkpt>
      <trkpt lat="46.60534" lon="5.34598">
        <ele>205</ele>
        <time>2022-06-16T12:59:46.000Z</time>
      </trkpt>
      <trkpt lat="46.60538" lon="5.34678">
        <ele>204.80000305176</ele>
        <time>2022-06-16T12:59:53.000Z</time>
      </trkpt>
      <trkpt lat="46.60542" lon="5.3475">
        <ele>204</ele>
        <time>2022-06-16T12:59:59.000Z</time>
      </trkpt>
      <trkpt lat="46.60544" lon="5.34786">
        <ele>203.19999694824</ele>
        <time>2022-06-16T13:00:02.000Z</time>
      </trkpt>
      <trkpt lat="46.60546" lon="5.34824">
        <ele>203</ele>
        <time>2022-06-16T13:00:05.000Z</time>
      </trkpt>
      <trkpt lat="46.6055" lon="5.34903">
        <ele>201.80000305176</ele>
        <time>2022-06-16T13:00:11.000Z</time>
      </trkpt>
      <trkpt lat="46.60553" lon="5.34965">
        <ele>200.80000305176</ele>
        <time>2022-06-16T13:00:16.000Z</time>
      </trkpt>
      <trkpt lat="46.60554" lon="5.34997">
        <ele>200.80000305176</ele>
        <time>2022-06-16T13:00:19.000Z</time>
      </trkpt>
      <trkpt lat="46.60556" lon="5.35052">
        <ele>201.60000610352</ele>
        <time>2022-06-16T13:00:25.000Z</time>
      </trkpt>
      <trkpt lat="46.60557" lon="5.35069">
        <ele>202</ele>
        <time>2022-06-16T13:00:27.000Z</time>
      </trkpt>
      <trkpt lat="46.60559" lon="5.35102">
        <ele>202.60000610352</ele>
        <time>2022-06-16T13:00:31.000Z</time>
      </trkpt>
      <trkpt lat="46.60559" lon="5.3511">
        <ele>203</ele>
        <time>2022-06-16T13:00:32.000Z</time>
      </trkpt>
      <trkpt lat="46.60557" lon="5.35163">
        <ele>203.19999694824</ele>
        <time>2022-06-16T13:00:38.000Z</time>
      </trkpt>
      <trkpt lat="46.60556" lon="5.35172">
        <ele>203.19999694824</ele>
        <time>2022-06-16T13:00:39.000Z</time>
      </trkpt>
      <trkpt lat="46.60555" lon="5.35181">
        <ele>203.19999694824</ele>
        <time>2022-06-16T13:00:40.000Z</time>
      </trkpt>
      <trkpt lat="46.6056" lon="5.35197">
        <ele>203.19999694824</ele>
        <time>2022-06-16T13:00:42.000Z</time>
      </trkpt>
      <trkpt lat="46.60588" lon="5.35239">
        <ele>203.39999389648</ele>
        <time>2022-06-16T13:00:48.000Z</time>
      </trkpt>
      <trkpt lat="46.60601" lon="5.35258">
        <ele>204</ele>
        <time>2022-06-16T13:00:51.000Z</time>
      </trkpt>
      <trkpt lat="46.60616" lon="5.35274">
        <ele>204.39999389648</ele>
        <time>2022-06-16T13:00:54.000Z</time>
      </trkpt>
      <trkpt lat="46.60636" lon="5.35288">
        <ele>205</ele>
        <time>2022-06-16T13:00:58.000Z</time>
      </trkpt>
      <trkpt lat="46.60645" lon="5.35294">
        <ele>205.19999694824</ele>
        <time>2022-06-16T13:01:00.000Z</time>
      </trkpt>
      <trkpt lat="46.6066" lon="5.35302">
        <ele>205.80000305176</ele>
        <time>2022-06-16T13:01:03.000Z</time>
      </trkpt>
      <trkpt lat="46.60669" lon="5.35309">
        <ele>206.19999694824</ele>
        <time>2022-06-16T13:01:05.000Z</time>
      </trkpt>
      <trkpt lat="46.60674" lon="5.35313">
        <ele>206.39999389648</ele>
        <time>2022-06-16T13:01:06.000Z</time>
      </trkpt>
      <trkpt lat="46.60696" lon="5.35343">
        <ele>207.80000305176</ele>
        <time>2022-06-16T13:01:12.000Z</time>
      </trkpt>
      <trkpt lat="46.60712" lon="5.35369">
        <ele>208.80000305176</ele>
        <time>2022-06-16T13:01:17.000Z</time>
      </trkpt>
      <trkpt lat="46.60715" lon="5.35374">
        <ele>209</ele>
        <time>2022-06-16T13:01:18.000Z</time>
      </trkpt>
      <trkpt lat="46.60722" lon="5.35384">
        <ele>209.39999389648</ele>
        <time>2022-06-16T13:01:20.000Z</time>
      </trkpt>
      <trkpt lat="46.60733" lon="5.35397">
        <ele>210</ele>
        <time>2022-06-16T13:01:23.000Z</time>
      </trkpt>
      <trkpt lat="46.6075" lon="5.35411">
        <ele>210.60000610352</ele>
        <time>2022-06-16T13:01:27.000Z</time>
      </trkpt>
      <trkpt lat="46.60763" lon="5.3542">
        <ele>211</ele>
        <time>2022-06-16T13:01:30.000Z</time>
      </trkpt>
      <trkpt lat="46.60767" lon="5.35423">
        <ele>211</ele>
        <time>2022-06-16T13:01:31.000Z</time>
      </trkpt>
      <trkpt lat="46.60786" lon="5.35431">
        <ele>211.80000305176</ele>
        <time>2022-06-16T13:01:35.000Z</time>
      </trkpt>
      <trkpt lat="46.60797" lon="5.35433">
        <ele>212.19999694824</ele>
        <time>2022-06-16T13:01:37.000Z</time>
      </trkpt>
      <trkpt lat="46.60802" lon="5.35433">
        <ele>212.39999389648</ele>
        <time>2022-06-16T13:01:38.000Z</time>
      </trkpt>
      <trkpt lat="46.60817" lon="5.35429">
        <ele>212.60000610352</ele>
        <time>2022-06-16T13:01:41.000Z</time>
      </trkpt>
      <trkpt lat="46.60822" lon="5.35427">
        <ele>212.60000610352</ele>
        <time>2022-06-16T13:01:42.000Z</time>
      </trkpt>
      <trkpt lat="46.60831" lon="5.35421">
        <ele>212.80000305176</ele>
        <time>2022-06-16T13:01:44.000Z</time>
      </trkpt>
      <trkpt lat="46.60838" lon="5.35415">
        <ele>212.80000305176</ele>
        <time>2022-06-16T13:01:46.000Z</time>
      </trkpt>
      <trkpt lat="46.60849" lon="5.35406">
        <ele>213.19999694824</ele>
        <time>2022-06-16T13:01:49.000Z</time>
      </trkpt>
      <trkpt lat="46.60853" lon="5.35404">
        <ele>213.39999389648</ele>
        <time>2022-06-16T13:01:50.000Z</time>
      </trkpt>
      <trkpt lat="46.60858" lon="5.35402">
        <ele>213.60000610352</ele>
        <time>2022-06-16T13:01:51.000Z</time>
      </trkpt>
      <trkpt lat="46.60866" lon="5.354">
        <ele>213.80000305176</ele>
        <time>2022-06-16T13:01:53.000Z</time>
      </trkpt>
      <trkpt lat="46.60875" lon="5.35401">
        <ele>214</ele>
        <time>2022-06-16T13:01:55.000Z</time>
      </trkpt>
      <trkpt lat="46.60884" lon="5.35406">
        <ele>214.39999389648</ele>
        <time>2022-06-16T13:01:57.000Z</time>
      </trkpt>
      <trkpt lat="46.60889" lon="5.35408">
        <ele>214.60000610352</ele>
        <time>2022-06-16T13:01:58.000Z</time>
      </trkpt>
      <trkpt lat="46.6092" lon="5.35427">
        <ele>215</ele>
        <time>2022-06-16T13:02:04.000Z</time>
      </trkpt>
      <trkpt lat="46.60931" lon="5.35436">
        <ele>215.19999694824</ele>
        <time>2022-06-16T13:02:06.000Z</time>
      </trkpt>
      <trkpt lat="46.6094" lon="5.35449">
        <ele>215.19999694824</ele>
        <time>2022-06-16T13:02:08.000Z</time>
      </trkpt>
      <trkpt lat="46.60946" lon="5.35465">
        <ele>215.39999389648</ele>
        <time>2022-06-16T13:02:10.000Z</time>
      </trkpt>
      <trkpt lat="46.60949" lon="5.35483">
        <ele>215.39999389648</ele>
        <time>2022-06-16T13:02:12.000Z</time>
      </trkpt>
      <trkpt lat="46.60951" lon="5.3554">
        <ele>215.39999389648</ele>
        <time>2022-06-16T13:02:18.000Z</time>
      </trkpt>
      <trkpt lat="46.60948" lon="5.3557">
        <ele>215.39999389648</ele>
        <time>2022-06-16T13:02:21.000Z</time>
      </trkpt>
      <trkpt lat="46.60942" lon="5.35598">
        <ele>215.39999389648</ele>
        <time>2022-06-16T13:02:24.000Z</time>
      </trkpt>
      <trkpt lat="46.60937" lon="5.35627">
        <ele>215.39999389648</ele>
        <time>2022-06-16T13:02:27.000Z</time>
      </trkpt>
      <trkpt lat="46.60938" lon="5.35638">
        <ele>215.39999389648</ele>
        <time>2022-06-16T13:02:28.000Z</time>
      </trkpt>
      <trkpt lat="46.6094" lon="5.35648">
        <ele>215.39999389648</ele>
        <time>2022-06-16T13:02:29.000Z</time>
      </trkpt>
      <trkpt lat="46.60947" lon="5.35669">
        <ele>215.19999694824</ele>
        <time>2022-06-16T13:02:31.000Z</time>
      </trkpt>
      <trkpt lat="46.60974" lon="5.35738">
        <ele>214.80000305176</ele>
        <time>2022-06-16T13:02:38.000Z</time>
      </trkpt>
      <trkpt lat="46.61005" lon="5.35803">
        <ele>214.60000610352</ele>
        <time>2022-06-16T13:02:45.000Z</time>
      </trkpt>
      <trkpt lat="46.61014" lon="5.3582">
        <ele>214.39999389648</ele>
        <time>2022-06-16T13:02:47.000Z</time>
      </trkpt>
      <trkpt lat="46.61047" lon="5.35887">
        <ele>214.39999389648</ele>
        <time>2022-06-16T13:02:55.000Z</time>
      </trkpt>
      <trkpt lat="46.6108" lon="5.35953">
        <ele>214.39999389648</ele>
        <time>2022-06-16T13:03:03.000Z</time>
      </trkpt>
      <trkpt lat="46.61084" lon="5.35961">
        <ele>214.39999389648</ele>
        <time>2022-06-16T13:03:04.000Z</time>
      </trkpt>
      <trkpt lat="46.61099" lon="5.35981">
        <ele>214.39999389648</ele>
        <time>2022-06-16T13:03:07.000Z</time>
      </trkpt>
      <trkpt lat="46.61111" lon="5.35993">
        <ele>214.19999694824</ele>
        <time>2022-06-16T13:03:09.000Z</time>
      </trkpt>
      <trkpt lat="46.61145" lon="5.36019">
        <ele>214</ele>
        <time>2022-06-16T13:03:15.000Z</time>
      </trkpt>
      <trkpt lat="46.61175" lon="5.36041">
        <ele>214</ele>
        <time>2022-06-16T13:03:20.000Z</time>
      </trkpt>
      <trkpt lat="46.61185" lon="5.36052">
        <ele>214</ele>
        <time>2022-06-16T13:03:22.000Z</time>
      </trkpt>
      <trkpt lat="46.61202" lon="5.36081">
        <ele>214.19999694824</ele>
        <time>2022-06-16T13:03:26.000Z</time>
      </trkpt>
      <trkpt lat="46.61205" lon="5.36089">
        <ele>214.39999389648</ele>
        <time>2022-06-16T13:03:27.000Z</time>
      </trkpt>
      <trkpt lat="46.61222" lon="5.36126">
        <ele>214.60000610352</ele>
        <time>2022-06-16T13:03:32.000Z</time>
      </trkpt>
      <trkpt lat="46.61254" lon="5.36173">
        <ele>214.80000305176</ele>
        <time>2022-06-16T13:03:39.000Z</time>
      </trkpt>
      <trkpt lat="46.61272" lon="5.36187">
        <ele>215</ele>
        <time>2022-06-16T13:03:42.000Z</time>
      </trkpt>
      <trkpt lat="46.61285" lon="5.36194">
        <ele>214.60000610352</ele>
        <time>2022-06-16T13:03:44.000Z</time>
      </trkpt>
      <trkpt lat="46.61332" lon="5.36207">
        <ele>214</ele>
        <time>2022-06-16T13:03:51.000Z</time>
      </trkpt>
      <trkpt lat="46.61344" lon="5.36212">
        <ele>213.80000305176</ele>
        <time>2022-06-16T13:03:53.000Z</time>
      </trkpt>
      <trkpt lat="46.61366" lon="5.36224">
        <ele>214</ele>
        <time>2022-06-16T13:03:57.000Z</time>
      </trkpt>
      <trkpt lat="46.61408" lon="5.36253">
        <ele>214.39999389648</ele>
        <time>2022-06-16T13:04:05.000Z</time>
      </trkpt>
      <trkpt lat="46.6142" lon="5.36259">
        <ele>214.60000610352</ele>
        <time>2022-06-16T13:04:07.000Z</time>
      </trkpt>
      <trkpt lat="46.61432" lon="5.36262">
        <ele>214.80000305176</ele>
        <time>2022-06-16T13:04:09.000Z</time>
      </trkpt>
      <trkpt lat="46.61438" lon="5.36262">
        <ele>214.80000305176</ele>
        <time>2022-06-16T13:04:10.000Z</time>
      </trkpt>
      <trkpt lat="46.61451" lon="5.36261">
        <ele>214.60000610352</ele>
        <time>2022-06-16T13:04:12.000Z</time>
      </trkpt>
      <trkpt lat="46.61476" lon="5.36255">
        <ele>214.39999389648</ele>
        <time>2022-06-16T13:04:16.000Z</time>
      </trkpt>
      <trkpt lat="46.61502" lon="5.36254">
        <ele>214.60000610352</ele>
        <time>2022-06-16T13:04:20.000Z</time>
      </trkpt>
      <trkpt lat="46.61509" lon="5.36255">
        <ele>214.60000610352</ele>
        <time>2022-06-16T13:04:21.000Z</time>
      </trkpt>
      <trkpt lat="46.61539" lon="5.36271">
        <ele>214.60000610352</ele>
        <time>2022-06-16T13:04:26.000Z</time>
      </trkpt>
      <trkpt lat="46.61572" lon="5.36291">
        <ele>214.60000610352</ele>
        <time>2022-06-16T13:04:32.000Z</time>
      </trkpt>
      <trkpt lat="46.61607" lon="5.36313">
        <ele>214.60000610352</ele>
        <time>2022-06-16T13:04:38.000Z</time>
      </trkpt>
      <trkpt lat="46.61617" lon="5.36325">
        <ele>214.80000305176</ele>
        <time>2022-06-16T13:04:40.000Z</time>
      </trkpt>
      <trkpt lat="46.61624" lon="5.36341">
        <ele>214.80000305176</ele>
        <time>2022-06-16T13:04:42.000Z</time>
      </trkpt>
      <trkpt lat="46.61626" lon="5.36351">
        <ele>214.80000305176</ele>
        <time>2022-06-16T13:04:43.000Z</time>
      </trkpt>
      <trkpt lat="46.6163" lon="5.36369">
        <ele>214.80000305176</ele>
        <time>2022-06-16T13:04:45.000Z</time>
      </trkpt>
      <trkpt lat="46.61638" lon="5.36387">
        <ele>214.80000305176</ele>
        <time>2022-06-16T13:04:47.000Z</time>
      </trkpt>
      <trkpt lat="46.61644" lon="5.36394">
        <ele>214.80000305176</ele>
        <time>2022-06-16T13:04:48.000Z</time>
      </trkpt>
      <trkpt lat="46.61652" lon="5.36399">
        <ele>214.60000610352</ele>
        <time>2022-06-16T13:04:49.000Z</time>
      </trkpt>
      <trkpt lat="46.61668" lon="5.36401">
        <ele>214.39999389648</ele>
        <time>2022-06-16T13:04:51.000Z</time>
      </trkpt>
      <trkpt lat="46.61676" lon="5.36398">
        <ele>213.60000610352</ele>
        <time>2022-06-16T13:04:52.000Z</time>
      </trkpt>
      <trkpt lat="46.61693" lon="5.36391">
        <ele>212.80000305176</ele>
        <time>2022-06-16T13:04:54.000Z</time>
      </trkpt>
      <trkpt lat="46.617" lon="5.3639">
        <ele>212.80000305176</ele>
        <time>2022-06-16T13:04:55.000Z</time>
      </trkpt>
      <trkpt lat="46.61715" lon="5.36389">
        <ele>212.60000610352</ele>
        <time>2022-06-16T13:04:57.000Z</time>
      </trkpt>
      <trkpt lat="46.61728" lon="5.36391">
        <ele>212.80000305176</ele>
        <time>2022-06-16T13:04:59.000Z</time>
      </trkpt>
      <trkpt lat="46.61742" lon="5.36397">
        <ele>212.80000305176</ele>
        <time>2022-06-16T13:05:01.000Z</time>
      </trkpt>
      <trkpt lat="46.61754" lon="5.36409">
        <ele>212.80000305176</ele>
        <time>2022-06-16T13:05:03.000Z</time>
      </trkpt>
      <trkpt lat="46.61788" lon="5.36452">
        <ele>212.80000305176</ele>
        <time>2022-06-16T13:05:09.000Z</time>
      </trkpt>
      <trkpt lat="46.61826" lon="5.36483">
        <ele>212.39999389648</ele>
        <time>2022-06-16T13:05:15.000Z</time>
      </trkpt>
      <trkpt lat="46.61833" lon="5.36488">
        <ele>212.39999389648</ele>
        <time>2022-06-16T13:05:16.000Z</time>
      </trkpt>
      <trkpt lat="46.61884" lon="5.36527">
        <ele>211.39999389648</ele>
        <time>2022-06-16T13:05:24.000Z</time>
      </trkpt>
      <trkpt lat="46.6189" lon="5.36532">
        <ele>211.39999389648</ele>
        <time>2022-06-16T13:05:25.000Z</time>
      </trkpt>
      <trkpt lat="46.61909" lon="5.36548">
        <ele>211</ele>
        <time>2022-06-16T13:05:28.000Z</time>
      </trkpt>
      <trkpt lat="46.6194" lon="5.36582">
        <ele>210.39999389648</ele>
        <time>2022-06-16T13:05:33.000Z</time>
      </trkpt>
      <trkpt lat="46.61952" lon="5.36599">
        <ele>209.80000305176</ele>
        <time>2022-06-16T13:05:35.000Z</time>
      </trkpt>
      <trkpt lat="46.61959" lon="5.36623">
        <ele>209.39999389648</ele>
        <time>2022-06-16T13:05:37.000Z</time>
      </trkpt>
      <trkpt lat="46.61959" lon="5.36636">
        <ele>208.80000305176</ele>
        <time>2022-06-16T13:05:38.000Z</time>
      </trkpt>
      <trkpt lat="46.61956" lon="5.36662">
        <ele>208</ele>
        <time>2022-06-16T13:05:40.000Z</time>
      </trkpt>
      <trkpt lat="46.61953" lon="5.36677">
        <ele>207.60000610352</ele>
        <time>2022-06-16T13:05:41.000Z</time>
      </trkpt>
      <trkpt lat="46.6194" lon="5.36718">
        <ele>206.39999389648</ele>
        <time>2022-06-16T13:05:44.000Z</time>
      </trkpt>
      <trkpt lat="46.61936" lon="5.36731">
        <ele>204.80000305176</ele>
        <time>2022-06-16T13:05:45.000Z</time>
      </trkpt>
      <trkpt lat="46.61927" lon="5.36757">
        <ele>203.80000305176</ele>
        <time>2022-06-16T13:05:47.000Z</time>
      </trkpt>
      <trkpt lat="46.61923" lon="5.3677">
        <ele>203.80000305176</ele>
        <time>2022-06-16T13:05:48.000Z</time>
      </trkpt>
      <trkpt lat="46.61902" lon="5.36845">
        <ele>202.60000610352</ele>
        <time>2022-06-16T13:05:54.000Z</time>
      </trkpt>
      <trkpt lat="46.61894" lon="5.36909">
        <ele>201.80000305176</ele>
        <time>2022-06-16T13:05:59.000Z</time>
      </trkpt>
      <trkpt lat="46.61894" lon="5.36946">
        <ele>201.60000610352</ele>
        <time>2022-06-16T13:06:02.000Z</time>
      </trkpt>
      <trkpt lat="46.61896" lon="5.3697">
        <ele>201.39999389648</ele>
        <time>2022-06-16T13:06:04.000Z</time>
      </trkpt>
      <trkpt lat="46.61911" lon="5.37025">
        <ele>201.19999694824</ele>
        <time>2022-06-16T13:06:09.000Z</time>
      </trkpt>
      <trkpt lat="46.61936" lon="5.37092">
        <ele>201.19999694824</ele>
        <time>2022-06-16T13:06:16.000Z</time>
      </trkpt>
      <trkpt lat="46.61959" lon="5.37155">
        <ele>201.19999694824</ele>
        <time>2022-06-16T13:06:23.000Z</time>
      </trkpt>
      <trkpt lat="46.61983" lon="5.37232">
        <ele>202.19999694824</ele>
        <time>2022-06-16T13:06:32.000Z</time>
      </trkpt>
      <trkpt lat="46.61993" lon="5.37254">
        <ele>202.60000610352</ele>
        <time>2022-06-16T13:06:35.000Z</time>
      </trkpt>
      <trkpt lat="46.62005" lon="5.37273">
        <ele>203.39999389648</ele>
        <time>2022-06-16T13:06:38.000Z</time>
      </trkpt>
      <trkpt lat="46.62014" lon="5.37285">
        <ele>203.80000305176</ele>
        <time>2022-06-16T13:06:40.000Z</time>
      </trkpt>
      <trkpt lat="46.62037" lon="5.37313">
        <ele>204.39999389648</ele>
        <time>2022-06-16T13:06:45.000Z</time>
      </trkpt>
      <trkpt lat="46.62046" lon="5.37324">
        <ele>204.80000305176</ele>
        <time>2022-06-16T13:06:47.000Z</time>
      </trkpt>
      <trkpt lat="46.62077" lon="5.37361">
        <ele>205.80000305176</ele>
        <time>2022-06-16T13:06:54.000Z</time>
      </trkpt>
      <trkpt lat="46.62109" lon="5.37396">
        <ele>206.80000305176</ele>
        <time>2022-06-16T13:07:01.000Z</time>
      </trkpt>
      <trkpt lat="46.62114" lon="5.37401">
        <ele>207</ele>
        <time>2022-06-16T13:07:02.000Z</time>
      </trkpt>
      <trkpt lat="46.62157" lon="5.37452">
        <ele>207.80000305176</ele>
        <time>2022-06-16T13:07:11.000Z</time>
      </trkpt>
      <trkpt lat="46.62166" lon="5.37462">
        <ele>207.80000305176</ele>
        <time>2022-06-16T13:07:13.000Z</time>
      </trkpt>
      <trkpt lat="46.62192" lon="5.37499">
        <ele>208.80000305176</ele>
        <time>2022-06-16T13:07:19.000Z</time>
      </trkpt>
      <trkpt lat="46.62195" lon="5.37506">
        <ele>208.80000305176</ele>
        <time>2022-06-16T13:07:20.000Z</time>
      </trkpt>
      <trkpt lat="46.62205" lon="5.37538">
        <ele>209</ele>
        <time>2022-06-16T13:07:24.000Z</time>
      </trkpt>
      <trkpt lat="46.62206" lon="5.37546">
        <ele>209</ele>
        <time>2022-06-16T13:07:25.000Z</time>
      </trkpt>
      <trkpt lat="46.62209" lon="5.37573">
        <ele>209.39999389648</ele>
        <time>2022-06-16T13:07:28.000Z</time>
      </trkpt>
      <trkpt lat="46.62209" lon="5.3759">
        <ele>209.39999389648</ele>
        <time>2022-06-16T13:07:30.000Z</time>
      </trkpt>
      <trkpt lat="46.62206" lon="5.37608">
        <ele>209.39999389648</ele>
        <time>2022-06-16T13:07:32.000Z</time>
      </trkpt>
      <trkpt lat="46.62199" lon="5.37633">
        <ele>209.39999389648</ele>
        <time>2022-06-16T13:07:35.000Z</time>
      </trkpt>
      <trkpt lat="46.62181" lon="5.3767">
        <ele>209.39999389648</ele>
        <time>2022-06-16T13:07:40.000Z</time>
      </trkpt>
      <trkpt lat="46.62141" lon="5.37722">
        <ele>209.19999694824</ele>
        <time>2022-06-16T13:07:48.000Z</time>
      </trkpt>
      <trkpt lat="46.62105" lon="5.37766">
        <ele>208.60000610352</ele>
        <time>2022-06-16T13:07:54.000Z</time>
      </trkpt>
      <trkpt lat="46.62076" lon="5.37812">
        <ele>207.60000610352</ele>
        <time>2022-06-16T13:07:59.000Z</time>
      </trkpt>
      <trkpt lat="46.6206" lon="5.37861">
        <ele>207</ele>
        <time>2022-06-16T13:08:03.000Z</time>
      </trkpt>
      <trkpt lat="46.62048" lon="5.37911">
        <ele>206.80000305176</ele>
        <time>2022-06-16T13:08:07.000Z</time>
      </trkpt>
      <trkpt lat="46.62041" lon="5.37946">
        <ele>206.19999694824</ele>
        <time>2022-06-16T13:08:10.000Z</time>
      </trkpt>
      <trkpt lat="46.62029" lon="5.38001">
        <ele>205.80000305176</ele>
        <time>2022-06-16T13:08:15.000Z</time>
      </trkpt>
      <trkpt lat="46.62027" lon="5.38012">
        <ele>205.80000305176</ele>
        <time>2022-06-16T13:08:16.000Z</time>
      </trkpt>
      <trkpt lat="46.62008" lon="5.3809">
        <ele>205.60000610352</ele>
        <time>2022-06-16T13:08:23.000Z</time>
      </trkpt>
      <trkpt lat="46.61988" lon="5.38163">
        <ele>205.60000610352</ele>
        <time>2022-06-16T13:08:30.000Z</time>
      </trkpt>
      <trkpt lat="46.61975" lon="5.38237">
        <ele>205.60000610352</ele>
        <time>2022-06-16T13:08:37.000Z</time>
      </trkpt>
      <trkpt lat="46.61965" lon="5.38281">
        <ele>205.80000305176</ele>
        <time>2022-06-16T13:08:41.000Z</time>
      </trkpt>
      <trkpt lat="46.6196" lon="5.3829">
        <ele>205.80000305176</ele>
        <time>2022-06-16T13:08:42.000Z</time>
      </trkpt>
      <trkpt lat="46.61949" lon="5.38316">
        <ele>205.80000305176</ele>
        <time>2022-06-16T13:08:45.000Z</time>
      </trkpt>
      <trkpt lat="46.61947" lon="5.38325">
        <ele>205.80000305176</ele>
        <time>2022-06-16T13:08:46.000Z</time>
      </trkpt>
      <trkpt lat="46.61943" lon="5.3833">
        <ele>205.19999694824</ele>
        <time>2022-06-16T13:08:48.000Z</time>
      </trkpt>
      <trkpt lat="46.61939" lon="5.38319">
        <ele>205.19999694824</ele>
        <time>2022-06-16T13:08:49.000Z</time>
      </trkpt>
      <trkpt lat="46.61909" lon="5.38267">
        <ele>204.60000610352</ele>
        <time>2022-06-16T13:08:52.000Z</time>
      </trkpt>
      <trkpt lat="46.61887" lon="5.38255">
        <ele>204.39999389648</ele>
        <time>2022-06-16T13:08:54.000Z</time>
      </trkpt>
      <trkpt lat="46.61878" lon="5.38255">
        <ele>204.39999389648</ele>
        <time>2022-06-16T13:08:55.000Z</time>
      </trkpt>
      <trkpt lat="46.61869" lon="5.38257">
        <ele>204.39999389648</ele>
        <time>2022-06-16T13:08:56.000Z</time>
      </trkpt>
      <trkpt lat="46.61855" lon="5.38271">
        <ele>204.39999389648</ele>
        <time>2022-06-16T13:08:58.000Z</time>
      </trkpt>
      <trkpt lat="46.61818" lon="5.38331">
        <ele>204</ele>
        <time>2022-06-16T13:09:05.000Z</time>
      </trkpt>
      <trkpt lat="46.61792" lon="5.38358">
        <ele>204</ele>
        <time>2022-06-16T13:09:09.000Z</time>
      </trkpt>
      <trkpt lat="46.61786" lon="5.38365">
        <ele>204</ele>
        <time>2022-06-16T13:09:10.000Z</time>
      </trkpt>
      <trkpt lat="46.61778" lon="5.38384">
        <ele>204</ele>
        <time>2022-06-16T13:09:12.000Z</time>
      </trkpt>
      <trkpt lat="46.61767" lon="5.38453">
        <ele>203.60000610352</ele>
        <time>2022-06-16T13:09:18.000Z</time>
      </trkpt>
      <trkpt lat="46.61752" lon="5.3853">
        <ele>202.80000305176</ele>
        <time>2022-06-16T13:09:25.000Z</time>
      </trkpt>
      <trkpt lat="46.61748" lon="5.38552">
        <ele>202.80000305176</ele>
        <time>2022-06-16T13:09:27.000Z</time>
      </trkpt>
      <trkpt lat="46.61747" lon="5.38563">
        <ele>202.80000305176</ele>
        <time>2022-06-16T13:09:28.000Z</time>
      </trkpt>
      <trkpt lat="46.61747" lon="5.38574">
        <ele>202.60000610352</ele>
        <time>2022-06-16T13:09:29.000Z</time>
      </trkpt>
      <trkpt lat="46.61748" lon="5.38595">
        <ele>202.39999389648</ele>
        <time>2022-06-16T13:09:31.000Z</time>
      </trkpt>
      <trkpt lat="46.61756" lon="5.38637">
        <ele>202.19999694824</ele>
        <time>2022-06-16T13:09:35.000Z</time>
      </trkpt>
      <trkpt lat="46.6176" lon="5.38647">
        <ele>202.19999694824</ele>
        <time>2022-06-16T13:09:36.000Z</time>
      </trkpt>
      <trkpt lat="46.61764" lon="5.38655">
        <ele>202.19999694824</ele>
        <time>2022-06-16T13:09:37.000Z</time>
      </trkpt>
      <trkpt lat="46.61778" lon="5.3868">
        <ele>202.19999694824</ele>
        <time>2022-06-16T13:09:40.000Z</time>
      </trkpt>
      <trkpt lat="46.61781" lon="5.38689">
        <ele>202.19999694824</ele>
        <time>2022-06-16T13:09:41.000Z</time>
      </trkpt>
      <trkpt lat="46.61781" lon="5.38699">
        <ele>202.19999694824</ele>
        <time>2022-06-16T13:09:42.000Z</time>
      </trkpt>
      <trkpt lat="46.61778" lon="5.38708">
        <ele>202.60000610352</ele>
        <time>2022-06-16T13:09:43.000Z</time>
      </trkpt>
      <trkpt lat="46.61775" lon="5.38716">
        <ele>202.60000610352</ele>
        <time>2022-06-16T13:09:44.000Z</time>
      </trkpt>
      <trkpt lat="46.61762" lon="5.3874">
        <ele>203</ele>
        <time>2022-06-16T13:09:47.000Z</time>
      </trkpt>
      <trkpt lat="46.61738" lon="5.38786">
        <ele>203.39999389648</ele>
        <time>2022-06-16T13:09:52.000Z</time>
      </trkpt>
      <trkpt lat="46.61699" lon="5.3884">
        <ele>203.39999389648</ele>
        <time>2022-06-16T13:09:59.000Z</time>
      </trkpt>
      <trkpt lat="46.61655" lon="5.38901">
        <ele>203.19999694824</ele>
        <time>2022-06-16T13:10:07.000Z</time>
      </trkpt>
      <trkpt lat="46.61612" lon="5.38963">
        <ele>202.80000305176</ele>
        <time>2022-06-16T13:10:15.000Z</time>
      </trkpt>
      <trkpt lat="46.61577" lon="5.39024">
        <ele>202.39999389648</ele>
        <time>2022-06-16T13:10:22.000Z</time>
      </trkpt>
      <trkpt lat="46.61568" lon="5.39042">
        <ele>202.19999694824</ele>
        <time>2022-06-16T13:10:24.000Z</time>
      </trkpt>
      <trkpt lat="46.61561" lon="5.39061">
        <ele>202.19999694824</ele>
        <time>2022-06-16T13:10:26.000Z</time>
      </trkpt>
      <trkpt lat="46.61553" lon="5.39092">
        <ele>202</ele>
        <time>2022-06-16T13:10:29.000Z</time>
      </trkpt>
      <trkpt lat="46.6155" lon="5.39145">
        <ele>202</ele>
        <time>2022-06-16T13:10:34.000Z</time>
      </trkpt>
      <trkpt lat="46.61551" lon="5.39156">
        <ele>202</ele>
        <time>2022-06-16T13:10:35.000Z</time>
      </trkpt>
      <trkpt lat="46.61558" lon="5.39186">
        <ele>202.19999694824</ele>
        <time>2022-06-16T13:10:38.000Z</time>
      </trkpt>
      <trkpt lat="46.61578" lon="5.3924">
        <ele>202.60000610352</ele>
        <time>2022-06-16T13:10:44.000Z</time>
      </trkpt>
      <trkpt lat="46.61592" lon="5.39274">
        <ele>203.19999694824</ele>
        <time>2022-06-16T13:10:48.000Z</time>
      </trkpt>
      <trkpt lat="46.61598" lon="5.39292">
        <ele>203.39999389648</ele>
        <time>2022-06-16T13:10:50.000Z</time>
      </trkpt>
      <trkpt lat="46.61609" lon="5.39318">
        <ele>203.80000305176</ele>
        <time>2022-06-16T13:10:53.000Z</time>
      </trkpt>
      <trkpt lat="46.6162" lon="5.39343">
        <ele>204</ele>
        <time>2022-06-16T13:10:56.000Z</time>
      </trkpt>
      <trkpt lat="46.61658" lon="5.39404">
        <ele>204.19999694824</ele>
        <time>2022-06-16T13:11:04.000Z</time>
      </trkpt>
      <trkpt lat="46.61689" lon="5.39456">
        <ele>204.39999389648</ele>
        <time>2022-06-16T13:11:11.000Z</time>
      </trkpt>
      <trkpt lat="46.61721" lon="5.39503">
        <ele>204.80000305176</ele>
        <time>2022-06-16T13:11:18.000Z</time>
      </trkpt>
      <trkpt lat="46.61744" lon="5.39525">
        <ele>205</ele>
        <time>2022-06-16T13:11:22.000Z</time>
      </trkpt>
      <trkpt lat="46.61749" lon="5.39531">
        <ele>205</ele>
        <time>2022-06-16T13:11:23.000Z</time>
      </trkpt>
      <trkpt lat="46.61753" lon="5.3954">
        <ele>205</ele>
        <time>2022-06-16T13:11:24.000Z</time>
      </trkpt>
      <trkpt lat="46.61755" lon="5.3955">
        <ele>205</ele>
        <time>2022-06-16T13:11:25.000Z</time>
      </trkpt>
      <trkpt lat="46.61766" lon="5.39626">
        <ele>204.19999694824</ele>
        <time>2022-06-16T13:11:32.000Z</time>
      </trkpt>
      <trkpt lat="46.61769" lon="5.39648">
        <ele>203.80000305176</ele>
        <time>2022-06-16T13:11:34.000Z</time>
      </trkpt>
      <trkpt lat="46.61778" lon="5.397">
        <ele>203</ele>
        <time>2022-06-16T13:11:39.000Z</time>
      </trkpt>
      <trkpt lat="46.6179" lon="5.39748">
        <ele>202.80000305176</ele>
        <time>2022-06-16T13:11:44.000Z</time>
      </trkpt>
      <trkpt lat="46.61793" lon="5.39757">
        <ele>202.80000305176</ele>
        <time>2022-06-16T13:11:45.000Z</time>
      </trkpt>
      <trkpt lat="46.61814" lon="5.39816">
        <ele>202.80000305176</ele>
        <time>2022-06-16T13:11:52.000Z</time>
      </trkpt>
      <trkpt lat="46.6184" lon="5.39888">
        <ele>202.80000305176</ele>
        <time>2022-06-16T13:12:01.000Z</time>
      </trkpt>
      <trkpt lat="46.61843" lon="5.39896">
        <ele>203</ele>
        <time>2022-06-16T13:12:02.000Z</time>
      </trkpt>
      <trkpt lat="46.61868" lon="5.39966">
        <ele>202.80000305176</ele>
        <time>2022-06-16T13:12:11.000Z</time>
      </trkpt>
      <trkpt lat="46.61876" lon="5.39989">
        <ele>202.60000610352</ele>
        <time>2022-06-16T13:12:14.000Z</time>
      </trkpt>
      <trkpt lat="46.61907" lon="5.40054">
        <ele>203.39999389648</ele>
        <time>2022-06-16T13:12:23.000Z</time>
      </trkpt>
      <trkpt lat="46.61941" lon="5.40119">
        <ele>203.80000305176</ele>
        <time>2022-06-16T13:12:32.000Z</time>
      </trkpt>
      <trkpt lat="46.61948" lon="5.40134">
        <ele>203.80000305176</ele>
        <time>2022-06-16T13:12:34.000Z</time>
      </trkpt>
      <trkpt lat="46.61963" lon="5.40163">
        <ele>203.80000305176</ele>
        <time>2022-06-16T13:12:38.000Z</time>
      </trkpt>
      <trkpt lat="46.61978" lon="5.40193">
        <ele>204</ele>
        <time>2022-06-16T13:12:42.000Z</time>
      </trkpt>
      <trkpt lat="46.62001" lon="5.40238">
        <ele>204</ele>
        <time>2022-06-16T13:12:48.000Z</time>
      </trkpt>
      <trkpt lat="46.62009" lon="5.40253">
        <ele>204</ele>
        <time>2022-06-16T13:12:50.000Z</time>
      </trkpt>
      <trkpt lat="46.62031" lon="5.40301">
        <ele>204.19999694824</ele>
        <time>2022-06-16T13:12:56.000Z</time>
      </trkpt>
      <trkpt lat="46.62035" lon="5.40309">
        <ele>204.19999694824</ele>
        <time>2022-06-16T13:12:57.000Z</time>
      </trkpt>
      <trkpt lat="46.6205" lon="5.40362">
        <ele>204.19999694824</ele>
        <time>2022-06-16T13:13:03.000Z</time>
      </trkpt>
      <trkpt lat="46.62068" lon="5.40425">
        <ele>204</ele>
        <time>2022-06-16T13:13:10.000Z</time>
      </trkpt>
      <trkpt lat="46.62088" lon="5.40474">
        <ele>203.80000305176</ele>
        <time>2022-06-16T13:13:16.000Z</time>
      </trkpt>
      <trkpt lat="46.62124" lon="5.40541">
        <ele>204</ele>
        <time>2022-06-16T13:13:25.000Z</time>
      </trkpt>
      <trkpt lat="46.62128" lon="5.40549">
        <ele>204.39999389648</ele>
        <time>2022-06-16T13:13:26.000Z</time>
      </trkpt>
      <trkpt lat="46.62143" lon="5.40589">
        <ele>204.39999389648</ele>
        <time>2022-06-16T13:13:31.000Z</time>
      </trkpt>
      <trkpt lat="46.62146" lon="5.40597">
        <ele>204.39999389648</ele>
        <time>2022-06-16T13:13:32.000Z</time>
      </trkpt>
      <trkpt lat="46.62157" lon="5.4065">
        <ele>204</ele>
        <time>2022-06-16T13:13:38.000Z</time>
      </trkpt>
      <trkpt lat="46.62156" lon="5.4066">
        <ele>203.80000305176</ele>
        <time>2022-06-16T13:13:39.000Z</time>
      </trkpt>
      <trkpt lat="46.62153" lon="5.40668">
        <ele>203.80000305176</ele>
        <time>2022-06-16T13:13:40.000Z</time>
      </trkpt>
      <trkpt lat="46.62144" lon="5.40683">
        <ele>203.80000305176</ele>
        <time>2022-06-16T13:13:42.000Z</time>
      </trkpt>
      <trkpt lat="46.62122" lon="5.40724">
        <ele>203.19999694824</ele>
        <time>2022-06-16T13:13:47.000Z</time>
      </trkpt>
      <trkpt lat="46.62119" lon="5.40733">
        <ele>203.19999694824</ele>
        <time>2022-06-16T13:13:48.000Z</time>
      </trkpt>
      <trkpt lat="46.62111" lon="5.40759">
        <ele>203.19999694824</ele>
        <time>2022-06-16T13:13:51.000Z</time>
      </trkpt>
      <trkpt lat="46.62108" lon="5.40768">
        <ele>203.19999694824</ele>
        <time>2022-06-16T13:13:52.000Z</time>
      </trkpt>
      <trkpt lat="46.62087" lon="5.4082">
        <ele>203.60000610352</ele>
        <time>2022-06-16T13:13:58.000Z</time>
      </trkpt>
      <trkpt lat="46.62062" lon="5.40889">
        <ele>203.60000610352</ele>
        <time>2022-06-16T13:14:05.000Z</time>
      </trkpt>
      <trkpt lat="46.62036" lon="5.40967">
        <ele>203.19999694824</ele>
        <time>2022-06-16T13:14:13.000Z</time>
      </trkpt>
      <trkpt lat="46.6203" lon="5.40986">
        <ele>203.19999694824</ele>
        <time>2022-06-16T13:14:15.000Z</time>
      </trkpt>
      <trkpt lat="46.62001" lon="5.41058">
        <ele>203</ele>
        <time>2022-06-16T13:14:23.000Z</time>
      </trkpt>
      <trkpt lat="46.61986" lon="5.4108">
        <ele>202.80000305176</ele>
        <time>2022-06-16T13:14:26.000Z</time>
      </trkpt>
      <trkpt lat="46.61954" lon="5.41124">
        <ele>202.60000610352</ele>
        <time>2022-06-16T13:14:32.000Z</time>
      </trkpt>
      <trkpt lat="46.61911" lon="5.41182">
        <ele>202.60000610352</ele>
        <time>2022-06-16T13:14:40.000Z</time>
      </trkpt>
      <trkpt lat="46.61905" lon="5.4119">
        <ele>202.60000610352</ele>
        <time>2022-06-16T13:14:41.000Z</time>
      </trkpt>
      <trkpt lat="46.61862" lon="5.41252">
        <ele>202.19999694824</ele>
        <time>2022-06-16T13:14:49.000Z</time>
      </trkpt>
      <trkpt lat="46.61827" lon="5.41313">
        <ele>202</ele>
        <time>2022-06-16T13:14:56.000Z</time>
      </trkpt>
      <trkpt lat="46.61811" lon="5.4134">
        <ele>202.19999694824</ele>
        <time>2022-06-16T13:14:59.000Z</time>
      </trkpt>
      <trkpt lat="46.61774" lon="5.41401">
        <ele>202.39999389648</ele>
        <time>2022-06-16T13:15:06.000Z</time>
      </trkpt>
      <trkpt lat="46.61768" lon="5.41409">
        <ele>202.60000610352</ele>
        <time>2022-06-16T13:15:07.000Z</time>
      </trkpt>
      <trkpt lat="46.61755" lon="5.41421">
        <ele>202.60000610352</ele>
        <time>2022-06-16T13:15:09.000Z</time>
      </trkpt>
      <trkpt lat="46.6174" lon="5.4143">
        <ele>202.60000610352</ele>
        <time>2022-06-16T13:15:11.000Z</time>
      </trkpt>
      <trkpt lat="46.61724" lon="5.41435">
        <ele>202.60000610352</ele>
        <time>2022-06-16T13:15:13.000Z</time>
      </trkpt>
      <trkpt lat="46.61707" lon="5.41435">
        <ele>202.60000610352</ele>
        <time>2022-06-16T13:15:15.000Z</time>
      </trkpt>
      <trkpt lat="46.61691" lon="5.41431">
        <ele>202.60000610352</ele>
        <time>2022-06-16T13:15:17.000Z</time>
      </trkpt>
      <trkpt lat="46.61676" lon="5.41423">
        <ele>202.39999389648</ele>
        <time>2022-06-16T13:15:19.000Z</time>
      </trkpt>
      <trkpt lat="46.61643" lon="5.41391">
        <ele>202.39999389648</ele>
        <time>2022-06-16T13:15:24.000Z</time>
      </trkpt>
      <trkpt lat="46.61596" lon="5.41341">
        <ele>202.80000305176</ele>
        <time>2022-06-16T13:15:31.000Z</time>
      </trkpt>
      <trkpt lat="46.61582" lon="5.41331">
        <ele>202.80000305176</ele>
        <time>2022-06-16T13:15:33.000Z</time>
      </trkpt>
      <trkpt lat="46.61546" lon="5.41305">
        <ele>202.80000305176</ele>
        <time>2022-06-16T13:15:38.000Z</time>
      </trkpt>
      <trkpt lat="46.6151" lon="5.41282">
        <ele>202.60000610352</ele>
        <time>2022-06-16T13:15:43.000Z</time>
      </trkpt>
      <trkpt lat="46.61494" lon="5.41277">
        <ele>202.60000610352</ele>
        <time>2022-06-16T13:15:45.000Z</time>
      </trkpt>
      <trkpt lat="46.6144" lon="5.41261">
        <ele>202.80000305176</ele>
        <time>2022-06-16T13:15:52.000Z</time>
      </trkpt>
      <trkpt lat="46.61432" lon="5.41258">
        <ele>202.80000305176</ele>
        <time>2022-06-16T13:15:53.000Z</time>
      </trkpt>
      <trkpt lat="46.61375" lon="5.41242">
        <ele>202.80000305176</ele>
        <time>2022-06-16T13:16:00.000Z</time>
      </trkpt>
      <trkpt lat="46.61359" lon="5.41237">
        <ele>202.80000305176</ele>
        <time>2022-06-16T13:16:02.000Z</time>
      </trkpt>
      <trkpt lat="46.61302" lon="5.41221">
        <ele>202.19999694824</ele>
        <time>2022-06-16T13:16:09.000Z</time>
      </trkpt>
      <trkpt lat="46.61287" lon="5.41217">
        <ele>202</ele>
        <time>2022-06-16T13:16:11.000Z</time>
      </trkpt>
      <trkpt lat="46.61269" lon="5.41212">
        <ele>202</ele>
        <time>2022-06-16T13:16:13.000Z</time>
      </trkpt>
      <trkpt lat="46.61211" lon="5.41196">
        <ele>201.80000305176</ele>
        <time>2022-06-16T13:16:20.000Z</time>
      </trkpt>
      <trkpt lat="46.61195" lon="5.41192">
        <ele>201.80000305176</ele>
        <time>2022-06-16T13:16:22.000Z</time>
      </trkpt>
      <trkpt lat="46.61163" lon="5.41183">
        <ele>202</ele>
        <time>2022-06-16T13:16:26.000Z</time>
      </trkpt>
      <trkpt lat="46.61123" lon="5.41172">
        <ele>202.39999389648</ele>
        <time>2022-06-16T13:16:31.000Z</time>
      </trkpt>
      <trkpt lat="46.61068" lon="5.41156">
        <ele>202.60000610352</ele>
        <time>2022-06-16T13:16:38.000Z</time>
      </trkpt>
      <trkpt lat="46.6106" lon="5.41154">
        <ele>202.60000610352</ele>
        <time>2022-06-16T13:16:39.000Z</time>
      </trkpt>
      <trkpt lat="46.61021" lon="5.41154">
        <ele>202.39999389648</ele>
        <time>2022-06-16T13:16:44.000Z</time>
      </trkpt>
      <trkpt lat="46.61006" lon="5.41162">
        <ele>202.60000610352</ele>
        <time>2022-06-16T13:16:46.000Z</time>
      </trkpt>
      <trkpt lat="46.60992" lon="5.41173">
        <ele>202.60000610352</ele>
        <time>2022-06-16T13:16:48.000Z</time>
      </trkpt>
      <trkpt lat="46.60946" lon="5.41216">
        <ele>203.19999694824</ele>
        <time>2022-06-16T13:16:55.000Z</time>
      </trkpt>
      <trkpt lat="46.6094" lon="5.41222">
        <ele>203.19999694824</ele>
        <time>2022-06-16T13:16:56.000Z</time>
      </trkpt>
      <trkpt lat="46.60896" lon="5.41274">
        <ele>203.80000305176</ele>
        <time>2022-06-16T13:17:04.000Z</time>
      </trkpt>
      <trkpt lat="46.60867" lon="5.41311">
        <ele>204.19999694824</ele>
        <time>2022-06-16T13:17:10.000Z</time>
      </trkpt>
      <trkpt lat="46.60863" lon="5.41317">
        <ele>204.19999694824</ele>
        <time>2022-06-16T13:17:11.000Z</time>
      </trkpt>
      <trkpt lat="46.60844" lon="5.41354">
        <ele>204.60000610352</ele>
        <time>2022-06-16T13:17:16.000Z</time>
      </trkpt>
      <trkpt lat="46.60822" lon="5.41414">
        <ele>204.80000305176</ele>
        <time>2022-06-16T13:17:23.000Z</time>
      </trkpt>
      <trkpt lat="46.60814" lon="5.4143">
        <ele>204.80000305176</ele>
        <time>2022-06-16T13:17:25.000Z</time>
      </trkpt>
      <trkpt lat="46.60796" lon="5.4146">
        <ele>204.80000305176</ele>
        <time>2022-06-16T13:17:29.000Z</time>
      </trkpt>
      <trkpt lat="46.60784" lon="5.41484">
        <ele>205</ele>
        <time>2022-06-16T13:17:32.000Z</time>
      </trkpt>
      <trkpt lat="46.60778" lon="5.415">
        <ele>205.60000610352</ele>
        <time>2022-06-16T13:17:34.000Z</time>
      </trkpt>
      <trkpt lat="46.60756" lon="5.41548">
        <ele>206.80000305176</ele>
        <time>2022-06-16T13:17:40.000Z</time>
      </trkpt>
      <trkpt lat="46.60746" lon="5.41564">
        <ele>207</ele>
        <time>2022-06-16T13:17:42.000Z</time>
      </trkpt>
      <trkpt lat="46.60722" lon="5.41623">
        <ele>207.19999694824</ele>
        <time>2022-06-16T13:17:48.000Z</time>
      </trkpt>
      <trkpt lat="46.60707" lon="5.41663">
        <ele>208</ele>
        <time>2022-06-16T13:17:52.000Z</time>
      </trkpt>
      <trkpt lat="46.60698" lon="5.41693">
        <ele>207.80000305176</ele>
        <time>2022-06-16T13:17:55.000Z</time>
      </trkpt>
      <trkpt lat="46.60684" lon="5.41757">
        <ele>207.60000610352</ele>
        <time>2022-06-16T13:18:01.000Z</time>
      </trkpt>
      <trkpt lat="46.60663" lon="5.41834">
        <ele>207.80000305176</ele>
        <time>2022-06-16T13:18:09.000Z</time>
      </trkpt>
      <trkpt lat="46.60646" lon="5.41889">
        <ele>208</ele>
        <time>2022-06-16T13:18:15.000Z</time>
      </trkpt>
      <trkpt lat="46.60625" lon="5.41956">
        <ele>208.80000305176</ele>
        <time>2022-06-16T13:18:22.000Z</time>
      </trkpt>
      <trkpt lat="46.60622" lon="5.41966">
        <ele>208.80000305176</ele>
        <time>2022-06-16T13:18:23.000Z</time>
      </trkpt>
      <trkpt lat="46.606" lon="5.42037">
        <ele>209.39999389648</ele>
        <time>2022-06-16T13:18:31.000Z</time>
      </trkpt>
      <trkpt lat="46.60593" lon="5.42062">
        <ele>209.80000305176</ele>
        <time>2022-06-16T13:18:34.000Z</time>
      </trkpt>
      <trkpt lat="46.60581" lon="5.42106">
        <ele>210</ele>
        <time>2022-06-16T13:18:39.000Z</time>
      </trkpt>
      <trkpt lat="46.60564" lon="5.42168">
        <ele>209.80000305176</ele>
        <time>2022-06-16T13:18:46.000Z</time>
      </trkpt>
      <trkpt lat="46.60543" lon="5.42245">
        <ele>210.19999694824</ele>
        <time>2022-06-16T13:18:55.000Z</time>
      </trkpt>
      <trkpt lat="46.6054" lon="5.42253">
        <ele>210.19999694824</ele>
        <time>2022-06-16T13:18:56.000Z</time>
      </trkpt>
      <trkpt lat="46.60513" lon="5.42329">
        <ele>210.39999389648</ele>
        <time>2022-06-16T13:19:05.000Z</time>
      </trkpt>
      <trkpt lat="46.60502" lon="5.42374">
        <ele>210.39999389648</ele>
        <time>2022-06-16T13:19:10.000Z</time>
      </trkpt>
      <trkpt lat="46.60501" lon="5.42383">
        <ele>210.39999389648</ele>
        <time>2022-06-16T13:19:11.000Z</time>
      </trkpt>
      <trkpt lat="46.60501" lon="5.42392">
        <ele>210.39999389648</ele>
        <time>2022-06-16T13:19:12.000Z</time>
      </trkpt>
      <trkpt lat="46.60503" lon="5.42411">
        <ele>210.39999389648</ele>
        <time>2022-06-16T13:19:14.000Z</time>
      </trkpt>
      <trkpt lat="46.60505" lon="5.4242">
        <ele>210.60000610352</ele>
        <time>2022-06-16T13:19:15.000Z</time>
      </trkpt>
      <trkpt lat="46.60508" lon="5.42429">
        <ele>210.60000610352</ele>
        <time>2022-06-16T13:19:16.000Z</time>
      </trkpt>
      <trkpt lat="46.60518" lon="5.42454">
        <ele>210.80000305176</ele>
        <time>2022-06-16T13:19:19.000Z</time>
      </trkpt>
      <trkpt lat="46.60521" lon="5.42463">
        <ele>210.80000305176</ele>
        <time>2022-06-16T13:19:20.000Z</time>
      </trkpt>
      <trkpt lat="46.60523" lon="5.42473">
        <ele>210.80000305176</ele>
        <time>2022-06-16T13:19:21.000Z</time>
      </trkpt>
      <trkpt lat="46.60524" lon="5.42495">
        <ele>210.80000305176</ele>
        <time>2022-06-16T13:19:23.000Z</time>
      </trkpt>
      <trkpt lat="46.60523" lon="5.42506">
        <ele>210.80000305176</ele>
        <time>2022-06-16T13:19:24.000Z</time>
      </trkpt>
      <trkpt lat="46.60521" lon="5.42517">
        <ele>210.80000305176</ele>
        <time>2022-06-16T13:19:25.000Z</time>
      </trkpt>
      <trkpt lat="46.60509" lon="5.42572">
        <ele>209.80000305176</ele>
        <time>2022-06-16T13:19:30.000Z</time>
      </trkpt>
      <trkpt lat="46.6049" lon="5.42635">
        <ele>209</ele>
        <time>2022-06-16T13:19:36.000Z</time>
      </trkpt>
      <trkpt lat="46.6047" lon="5.42685">
        <ele>208.60000610352</ele>
        <time>2022-06-16T13:19:41.000Z</time>
      </trkpt>
      <trkpt lat="46.60455" lon="5.42727">
        <ele>208.80000305176</ele>
        <time>2022-06-16T13:19:45.000Z</time>
      </trkpt>
      <trkpt lat="46.60433" lon="5.42788">
        <ele>209</ele>
        <time>2022-06-16T13:19:51.000Z</time>
      </trkpt>
      <trkpt lat="46.6043" lon="5.42799">
        <ele>209</ele>
        <time>2022-06-16T13:19:52.000Z</time>
      </trkpt>
      <trkpt lat="46.60428" lon="5.4281">
        <ele>209</ele>
        <time>2022-06-16T13:19:53.000Z</time>
      </trkpt>
      <trkpt lat="46.60427" lon="5.42832">
        <ele>209</ele>
        <time>2022-06-16T13:19:55.000Z</time>
      </trkpt>
      <trkpt lat="46.60427" lon="5.42844">
        <ele>209</ele>
        <time>2022-06-16T13:19:56.000Z</time>
      </trkpt>
      <trkpt lat="46.60436" lon="5.42903">
        <ele>209</ele>
        <time>2022-06-16T13:20:01.000Z</time>
      </trkpt>
      <trkpt lat="46.60451" lon="5.42971">
        <ele>208.60000610352</ele>
        <time>2022-06-16T13:20:07.000Z</time>
      </trkpt>
      <trkpt lat="46.60452" lon="5.42982">
        <ele>208.39999389648</ele>
        <time>2022-06-16T13:20:08.000Z</time>
      </trkpt>
      <trkpt lat="46.60452" lon="5.42993">
        <ele>208.39999389648</ele>
        <time>2022-06-16T13:20:09.000Z</time>
      </trkpt>
      <trkpt lat="46.6045" lon="5.43014">
        <ele>208.39999389648</ele>
        <time>2022-06-16T13:20:11.000Z</time>
      </trkpt>
      <trkpt lat="46.60448" lon="5.43025">
        <ele>208.39999389648</ele>
        <time>2022-06-16T13:20:12.000Z</time>
      </trkpt>
      <trkpt lat="46.60434" lon="5.4307">
        <ele>208.80000305176</ele>
        <time>2022-06-16T13:20:17.000Z</time>
      </trkpt>
      <trkpt lat="46.60429" lon="5.43078">
        <ele>209</ele>
        <time>2022-06-16T13:20:18.000Z</time>
      </trkpt>
      <trkpt lat="46.60424" lon="5.43084">
        <ele>209</ele>
        <time>2022-06-16T13:20:19.000Z</time>
      </trkpt>
      <trkpt lat="46.60413" lon="5.43093">
        <ele>209.19999694824</ele>
        <time>2022-06-16T13:20:21.000Z</time>
      </trkpt>
      <trkpt lat="46.60402" lon="5.43099">
        <ele>209.39999389648</ele>
        <time>2022-06-16T13:20:23.000Z</time>
      </trkpt>
      <trkpt lat="46.60384" lon="5.43104">
        <ele>209.60000610352</ele>
        <time>2022-06-16T13:20:26.000Z</time>
      </trkpt>
      <trkpt lat="46.60372" lon="5.43107">
        <ele>209.60000610352</ele>
        <time>2022-06-16T13:20:28.000Z</time>
      </trkpt>
      <trkpt lat="46.60331" lon="5.43114">
        <ele>210.80000305176</ele>
        <time>2022-06-16T13:20:35.000Z</time>
      </trkpt>
      <trkpt lat="46.60326" lon="5.43115">
        <ele>211.19999694824</ele>
        <time>2022-06-16T13:20:36.000Z</time>
      </trkpt>
      <trkpt lat="46.60299" lon="5.43116">
        <ele>212</ele>
        <time>2022-06-16T13:20:41.000Z</time>
      </trkpt>
      <trkpt lat="46.60289" lon="5.43117">
        <ele>212.60000610352</ele>
        <time>2022-06-16T13:20:43.000Z</time>
      </trkpt>
      <trkpt lat="46.60273" lon="5.4312">
        <ele>213</ele>
        <time>2022-06-16T13:20:46.000Z</time>
      </trkpt>
      <trkpt lat="46.60248" lon="5.43132">
        <ele>213.80000305176</ele>
        <time>2022-06-16T13:20:51.000Z</time>
      </trkpt>
      <trkpt lat="46.60243" lon="5.43135">
        <ele>214.19999694824</ele>
        <time>2022-06-16T13:20:52.000Z</time>
      </trkpt>
      <trkpt lat="46.6022" lon="5.43153">
        <ele>214.80000305176</ele>
        <time>2022-06-16T13:20:57.000Z</time>
      </trkpt>
      <trkpt lat="46.60211" lon="5.43163">
        <ele>214.80000305176</ele>
        <time>2022-06-16T13:20:59.000Z</time>
      </trkpt>
      <trkpt lat="46.60196" lon="5.4318">
        <ele>215.19999694824</ele>
        <time>2022-06-16T13:21:02.000Z</time>
      </trkpt>
      <trkpt lat="46.60185" lon="5.43193">
        <ele>215.39999389648</ele>
        <time>2022-06-16T13:21:04.000Z</time>
      </trkpt>
      <trkpt lat="46.60147" lon="5.43233">
        <ele>215.19999694824</ele>
        <time>2022-06-16T13:21:10.000Z</time>
      </trkpt>
      <trkpt lat="46.60099" lon="5.43275">
        <ele>214.80000305176</ele>
        <time>2022-06-16T13:21:17.000Z</time>
      </trkpt>
      <trkpt lat="46.60047" lon="5.43318">
        <ele>215.19999694824</ele>
        <time>2022-06-16T13:21:25.000Z</time>
      </trkpt>
      <trkpt lat="46.60011" lon="5.43343">
        <ele>215.60000610352</ele>
        <time>2022-06-16T13:21:31.000Z</time>
      </trkpt>
      <trkpt lat="46.59994" lon="5.43351">
        <ele>216.60000610352</ele>
        <time>2022-06-16T13:21:34.000Z</time>
      </trkpt>
      <trkpt lat="46.59984" lon="5.43354">
        <ele>217.60000610352</ele>
        <time>2022-06-16T13:21:36.000Z</time>
      </trkpt>
      <trkpt lat="46.59978" lon="5.43354">
        <ele>218</ele>
        <time>2022-06-16T13:21:37.000Z</time>
      </trkpt>
      <trkpt lat="46.59973" lon="5.43354">
        <ele>218</ele>
        <time>2022-06-16T13:21:38.000Z</time>
      </trkpt>
      <trkpt lat="46.5996" lon="5.43355">
        <ele>218.60000610352</ele>
        <time>2022-06-16T13:21:40.000Z</time>
      </trkpt>
      <trkpt lat="46.59948" lon="5.43356">
        <ele>219</ele>
        <time>2022-06-16T13:21:42.000Z</time>
      </trkpt>
      <trkpt lat="46.59928" lon="5.43359">
        <ele>220.19999694824</ele>
        <time>2022-06-16T13:21:45.000Z</time>
      </trkpt>
      <trkpt lat="46.59921" lon="5.43361">
        <ele>220.39999389648</ele>
        <time>2022-06-16T13:21:46.000Z</time>
      </trkpt>
      <trkpt lat="46.59888" lon="5.43373">
        <ele>221.19999694824</ele>
        <time>2022-06-16T13:21:51.000Z</time>
      </trkpt>
      <trkpt lat="46.59881" lon="5.43376">
        <ele>221.39999389648</ele>
        <time>2022-06-16T13:21:52.000Z</time>
      </trkpt>
      <trkpt lat="46.59875" lon="5.43381">
        <ele>221.80000305176</ele>
        <time>2022-06-16T13:21:53.000Z</time>
      </trkpt>
      <trkpt lat="46.59857" lon="5.43391">
        <ele>222.19999694824</ele>
        <time>2022-06-16T13:21:56.000Z</time>
      </trkpt>
      <trkpt lat="46.59845" lon="5.43399">
        <ele>222.60000610352</ele>
        <time>2022-06-16T13:21:58.000Z</time>
      </trkpt>
      <trkpt lat="46.59839" lon="5.43402">
        <ele>222.60000610352</ele>
        <time>2022-06-16T13:21:59.000Z</time>
      </trkpt>
      <trkpt lat="46.59802" lon="5.4342">
        <ele>223.19999694824</ele>
        <time>2022-06-16T13:22:05.000Z</time>
      </trkpt>
      <trkpt lat="46.59788" lon="5.43425">
        <ele>223.19999694824</ele>
        <time>2022-06-16T13:22:07.000Z</time>
      </trkpt>
      <trkpt lat="46.59738" lon="5.43441">
        <ele>222.80000305176</ele>
        <time>2022-06-16T13:22:14.000Z</time>
      </trkpt>
      <trkpt lat="46.59687" lon="5.43451">
        <ele>222.19999694824</ele>
        <time>2022-06-16T13:22:21.000Z</time>
      </trkpt>
      <trkpt lat="46.59672" lon="5.43451">
        <ele>222.19999694824</ele>
        <time>2022-06-16T13:22:23.000Z</time>
      </trkpt>
      <trkpt lat="46.59637" lon="5.4344">
        <ele>222.19999694824</ele>
        <time>2022-06-16T13:22:28.000Z</time>
      </trkpt>
      <trkpt lat="46.5958" lon="5.4342">
        <ele>222.60000610352</ele>
        <time>2022-06-16T13:22:37.000Z</time>
      </trkpt>
      <trkpt lat="46.59574" lon="5.43418">
        <ele>222.60000610352</ele>
        <time>2022-06-16T13:22:38.000Z</time>
      </trkpt>
      <trkpt lat="46.59557" lon="5.43408">
        <ele>223</ele>
        <time>2022-06-16T13:22:41.000Z</time>
      </trkpt>
      <trkpt lat="46.59552" lon="5.43404">
        <ele>223.39999389648</ele>
        <time>2022-06-16T13:22:42.000Z</time>
      </trkpt>
      <trkpt lat="46.59533" lon="5.43389">
        <ele>224.60000610352</ele>
        <time>2022-06-16T13:22:46.000Z</time>
      </trkpt>
      <trkpt lat="46.59528" lon="5.43384">
        <ele>224.60000610352</ele>
        <time>2022-06-16T13:22:47.000Z</time>
      </trkpt>
      <trkpt lat="46.59514" lon="5.4337">
        <ele>225.60000610352</ele>
        <time>2022-06-16T13:22:50.000Z</time>
      </trkpt>
      <trkpt lat="46.59505" lon="5.4336">
        <ele>226.19999694824</ele>
        <time>2022-06-16T13:22:52.000Z</time>
      </trkpt>
      <trkpt lat="46.59489" lon="5.43347">
        <ele>226.60000610352</ele>
        <time>2022-06-16T13:22:55.000Z</time>
      </trkpt>
      <trkpt lat="46.59483" lon="5.43343">
        <ele>226.80000305176</ele>
        <time>2022-06-16T13:22:56.000Z</time>
      </trkpt>
      <trkpt lat="46.59478" lon="5.4334">
        <ele>226.80000305176</ele>
        <time>2022-06-16T13:22:57.000Z</time>
      </trkpt>
      <trkpt lat="46.59446" lon="5.43331">
        <ele>227.39999389648</ele>
        <time>2022-06-16T13:23:02.000Z</time>
      </trkpt>
      <trkpt lat="46.5944" lon="5.4333">
        <ele>227.39999389648</ele>
        <time>2022-06-16T13:23:03.000Z</time>
      </trkpt>
      <trkpt lat="46.59399" lon="5.43334">
        <ele>227.60000610352</ele>
        <time>2022-06-16T13:23:09.000Z</time>
      </trkpt>
      <trkpt lat="46.59347" lon="5.43348">
        <ele>227.19999694824</ele>
        <time>2022-06-16T13:23:16.000Z</time>
      </trkpt>
      <trkpt lat="46.59303" lon="5.43351">
        <ele>227.19999694824</ele>
        <time>2022-06-16T13:23:22.000Z</time>
      </trkpt>
      <trkpt lat="46.59297" lon="5.43352">
        <ele>227.39999389648</ele>
        <time>2022-06-16T13:23:23.000Z</time>
      </trkpt>
      <trkpt lat="46.59277" lon="5.43357">
        <ele>227.19999694824</ele>
        <time>2022-06-16T13:23:26.000Z</time>
      </trkpt>
      <trkpt lat="46.59235" lon="5.43378">
        <ele>227.19999694824</ele>
        <time>2022-06-16T13:23:32.000Z</time>
      </trkpt>
      <trkpt lat="46.59221" lon="5.43386">
        <ele>227.39999389648</ele>
        <time>2022-06-16T13:23:34.000Z</time>
      </trkpt>
      <trkpt lat="46.59215" lon="5.43391">
        <ele>227.60000610352</ele>
        <time>2022-06-16T13:23:35.000Z</time>
      </trkpt>
      <trkpt lat="46.59202" lon="5.43398">
        <ele>227.60000610352</ele>
        <time>2022-06-16T13:23:37.000Z</time>
      </trkpt>
      <trkpt lat="46.59175" lon="5.43413">
        <ele>228.19999694824</ele>
        <time>2022-06-16T13:23:41.000Z</time>
      </trkpt>
      <trkpt lat="46.59161" lon="5.43417">
        <ele>228.39999389648</ele>
        <time>2022-06-16T13:23:43.000Z</time>
      </trkpt>
      <trkpt lat="46.59146" lon="5.4342">
        <ele>228.60000610352</ele>
        <time>2022-06-16T13:23:45.000Z</time>
      </trkpt>
      <trkpt lat="46.59109" lon="5.43425">
        <ele>228.80000305176</ele>
        <time>2022-06-16T13:23:50.000Z</time>
      </trkpt>
      <trkpt lat="46.59051" lon="5.43436">
        <ele>229.19999694824</ele>
        <time>2022-06-16T13:23:58.000Z</time>
      </trkpt>
      <trkpt lat="46.59036" lon="5.4344">
        <ele>229</ele>
        <time>2022-06-16T13:24:00.000Z</time>
      </trkpt>
      <trkpt lat="46.58981" lon="5.43463">
        <ele>229.19999694824</ele>
        <time>2022-06-16T13:24:08.000Z</time>
      </trkpt>
      <trkpt lat="46.58953" lon="5.43481">
        <ele>228.80000305176</ele>
        <time>2022-06-16T13:24:12.000Z</time>
      </trkpt>
      <trkpt lat="46.58947" lon="5.43488">
        <ele>228.80000305176</ele>
        <time>2022-06-16T13:24:13.000Z</time>
      </trkpt>
      <trkpt lat="46.5893" lon="5.43512">
        <ele>228.39999389648</ele>
        <time>2022-06-16T13:24:16.000Z</time>
      </trkpt>
      <trkpt lat="46.58919" lon="5.43531">
        <ele>228.19999694824</ele>
        <time>2022-06-16T13:24:18.000Z</time>
      </trkpt>
      <trkpt lat="46.58887" lon="5.43599">
        <ele>228.19999694824</ele>
        <time>2022-06-16T13:24:25.000Z</time>
      </trkpt>
      <trkpt lat="46.58882" lon="5.43608">
        <ele>228</ele>
        <time>2022-06-16T13:24:26.000Z</time>
      </trkpt>
      <trkpt lat="46.58848" lon="5.43672">
        <ele>228</ele>
        <time>2022-06-16T13:24:33.000Z</time>
      </trkpt>
      <trkpt lat="46.58834" lon="5.43697">
        <ele>228</ele>
        <time>2022-06-16T13:24:36.000Z</time>
      </trkpt>
      <trkpt lat="46.58799" lon="5.4376">
        <ele>228.60000610352</ele>
        <time>2022-06-16T13:24:44.000Z</time>
      </trkpt>
      <trkpt lat="46.58779" lon="5.43802">
        <ele>229.39999389648</ele>
        <time>2022-06-16T13:24:50.000Z</time>
      </trkpt>
      <trkpt lat="46.58773" lon="5.43816">
        <ele>229.80000305176</ele>
        <time>2022-06-16T13:24:52.000Z</time>
      </trkpt>
      <trkpt lat="46.58766" lon="5.43829">
        <ele>230</ele>
        <time>2022-06-16T13:24:54.000Z</time>
      </trkpt>
      <trkpt lat="46.58758" lon="5.43841">
        <ele>230.39999389648</ele>
        <time>2022-06-16T13:24:56.000Z</time>
      </trkpt>
      <trkpt lat="46.58754" lon="5.43846">
        <ele>230.60000610352</ele>
        <time>2022-06-16T13:24:57.000Z</time>
      </trkpt>
      <trkpt lat="46.58749" lon="5.43851">
        <ele>231</ele>
        <time>2022-06-16T13:24:58.000Z</time>
      </trkpt>
      <trkpt lat="46.5873" lon="5.4387">
        <ele>231.80000305176</ele>
        <time>2022-06-16T13:25:02.000Z</time>
      </trkpt>
      <trkpt lat="46.58726" lon="5.43874">
        <ele>232</ele>
        <time>2022-06-16T13:25:03.000Z</time>
      </trkpt>
      <trkpt lat="46.5868" lon="5.43918">
        <ele>233.19999694824</ele>
        <time>2022-06-16T13:25:12.000Z</time>
      </trkpt>
      <trkpt lat="46.58675" lon="5.43924">
        <ele>233.19999694824</ele>
        <time>2022-06-16T13:25:13.000Z</time>
      </trkpt>
      <trkpt lat="46.58664" lon="5.43933">
        <ele>233.39999389648</ele>
        <time>2022-06-16T13:25:15.000Z</time>
      </trkpt>
      <trkpt lat="46.58647" lon="5.43943">
        <ele>233.39999389648</ele>
        <time>2022-06-16T13:25:18.000Z</time>
      </trkpt>
      <trkpt lat="46.58635" lon="5.43949">
        <ele>233.60000610352</ele>
        <time>2022-06-16T13:25:20.000Z</time>
      </trkpt>
      <trkpt lat="46.58617" lon="5.43959">
        <ele>233.60000610352</ele>
        <time>2022-06-16T13:25:23.000Z</time>
      </trkpt>
      <trkpt lat="46.58577" lon="5.43984">
        <ele>233.19999694824</ele>
        <time>2022-06-16T13:25:29.000Z</time>
      </trkpt>
      <trkpt lat="46.58548" lon="5.44">
        <ele>232</ele>
        <time>2022-06-16T13:25:33.000Z</time>
      </trkpt>
      <trkpt lat="46.5854" lon="5.44003">
        <ele>231.80000305176</ele>
        <time>2022-06-16T13:25:34.000Z</time>
      </trkpt>
      <trkpt lat="46.5851" lon="5.44021">
        <ele>230.80000305176</ele>
        <time>2022-06-16T13:25:38.000Z</time>
      </trkpt>
      <trkpt lat="46.58495" lon="5.44029">
        <ele>230.60000610352</ele>
        <time>2022-06-16T13:25:40.000Z</time>
      </trkpt>
      <trkpt lat="46.58488" lon="5.44035">
        <ele>230.39999389648</ele>
        <time>2022-06-16T13:25:41.000Z</time>
      </trkpt>
      <trkpt lat="46.58476" lon="5.44048">
        <ele>230</ele>
        <time>2022-06-16T13:25:43.000Z</time>
      </trkpt>
      <trkpt lat="46.5847" lon="5.44057">
        <ele>229.80000305176</ele>
        <time>2022-06-16T13:25:44.000Z</time>
      </trkpt>
      <trkpt lat="46.5845" lon="5.44105">
        <ele>228.80000305176</ele>
        <time>2022-06-16T13:25:49.000Z</time>
      </trkpt>
      <trkpt lat="46.58446" lon="5.44115">
        <ele>228.80000305176</ele>
        <time>2022-06-16T13:25:50.000Z</time>
      </trkpt>
      <trkpt lat="46.58429" lon="5.44148">
        <ele>228.19999694824</ele>
        <time>2022-06-16T13:25:54.000Z</time>
      </trkpt>
      <trkpt lat="46.58423" lon="5.44155">
        <ele>228.19999694824</ele>
        <time>2022-06-16T13:25:55.000Z</time>
      </trkpt>
      <trkpt lat="46.58412" lon="5.44165">
        <ele>228</ele>
        <time>2022-06-16T13:25:57.000Z</time>
      </trkpt>
      <trkpt lat="46.58406" lon="5.44168">
        <ele>228</ele>
        <time>2022-06-16T13:25:58.000Z</time>
      </trkpt>
      <trkpt lat="46.58399" lon="5.44169">
        <ele>228</ele>
        <time>2022-06-16T13:25:59.000Z</time>
      </trkpt>
      <trkpt lat="46.58373" lon="5.44172">
        <ele>228</ele>
        <time>2022-06-16T13:26:03.000Z</time>
      </trkpt>
      <trkpt lat="46.58368" lon="5.44174">
        <ele>228</ele>
        <time>2022-06-16T13:26:04.000Z</time>
      </trkpt>
      <trkpt lat="46.58358" lon="5.4418">
        <ele>228</ele>
        <time>2022-06-16T13:26:06.000Z</time>
      </trkpt>
      <trkpt lat="46.58354" lon="5.44185">
        <ele>228</ele>
        <time>2022-06-16T13:26:07.000Z</time>
      </trkpt>
      <trkpt lat="46.58331" lon="5.44223">
        <ele>228.80000305176</ele>
        <time>2022-06-16T13:26:13.000Z</time>
      </trkpt>
      <trkpt lat="46.58307" lon="5.44264">
        <ele>229</ele>
        <time>2022-06-16T13:26:19.000Z</time>
      </trkpt>
      <trkpt lat="46.58295" lon="5.44272">
        <ele>229</ele>
        <time>2022-06-16T13:26:21.000Z</time>
      </trkpt>
      <trkpt lat="46.58289" lon="5.44273">
        <ele>229</ele>
        <time>2022-06-16T13:26:22.000Z</time>
      </trkpt>
      <trkpt lat="46.58283" lon="5.44272">
        <ele>229</ele>
        <time>2022-06-16T13:26:23.000Z</time>
      </trkpt>
      <trkpt lat="46.58273" lon="5.44262">
        <ele>229</ele>
        <time>2022-06-16T13:26:25.000Z</time>
      </trkpt>
      <trkpt lat="46.58258" lon="5.44236">
        <ele>229.19999694824</ele>
        <time>2022-06-16T13:26:29.000Z</time>
      </trkpt>
      <trkpt lat="46.58255" lon="5.44228">
        <ele>229.19999694824</ele>
        <time>2022-06-16T13:26:30.000Z</time>
      </trkpt>
      <trkpt lat="46.58247" lon="5.44184">
        <ele>229.80000305176</ele>
        <time>2022-06-16T13:26:35.000Z</time>
      </trkpt>
      <trkpt lat="46.58246" lon="5.44175">
        <ele>229.80000305176</ele>
        <time>2022-06-16T13:26:36.000Z</time>
      </trkpt>
      <trkpt lat="46.58235" lon="5.44112">
        <ele>230.19999694824</ele>
        <time>2022-06-16T13:26:43.000Z</time>
      </trkpt>
      <trkpt lat="46.58221" lon="5.44039">
        <ele>230.19999694824</ele>
        <time>2022-06-16T13:26:51.000Z</time>
      </trkpt>
      <trkpt lat="46.582" lon="5.4398">
        <ele>230.39999389648</ele>
        <time>2022-06-16T13:26:58.000Z</time>
      </trkpt>
      <trkpt lat="46.58194" lon="5.43964">
        <ele>230.60000610352</ele>
        <time>2022-06-16T13:27:00.000Z</time>
      </trkpt>
      <trkpt lat="46.58166" lon="5.43896">
        <ele>230.80000305176</ele>
        <time>2022-06-16T13:27:08.000Z</time>
      </trkpt>
      <trkpt lat="46.58163" lon="5.43886">
        <ele>230.80000305176</ele>
        <time>2022-06-16T13:27:09.000Z</time>
      </trkpt>
      <trkpt lat="46.5815" lon="5.43841">
        <ele>231.19999694824</ele>
        <time>2022-06-16T13:27:14.000Z</time>
      </trkpt>
      <trkpt lat="46.58135" lon="5.43777">
        <ele>231.80000305176</ele>
        <time>2022-06-16T13:27:21.000Z</time>
      </trkpt>
      <trkpt lat="46.58132" lon="5.43759">
        <ele>232</ele>
        <time>2022-06-16T13:27:23.000Z</time>
      </trkpt>
      <trkpt lat="46.58121" lon="5.43694">
        <ele>232.39999389648</ele>
        <time>2022-06-16T13:27:30.000Z</time>
      </trkpt>
      <trkpt lat="46.58113" lon="5.43649">
        <ele>232.60000610352</ele>
        <time>2022-06-16T13:27:35.000Z</time>
      </trkpt>
      <trkpt lat="46.5811" lon="5.43631">
        <ele>232.80000305176</ele>
        <time>2022-06-16T13:27:37.000Z</time>
      </trkpt>
      <trkpt lat="46.58106" lon="5.43615">
        <ele>233</ele>
        <time>2022-06-16T13:27:39.000Z</time>
      </trkpt>
      <trkpt lat="46.58096" lon="5.43572">
        <ele>233.39999389648</ele>
        <time>2022-06-16T13:27:44.000Z</time>
      </trkpt>
      <trkpt lat="46.5809" lon="5.4355">
        <ele>234</ele>
        <time>2022-06-16T13:27:47.000Z</time>
      </trkpt>
      <trkpt lat="46.58084" lon="5.43523">
        <ele>234.39999389648</ele>
        <time>2022-06-16T13:27:50.000Z</time>
      </trkpt>
      <trkpt lat="46.58067" lon="5.43443">
        <ele>234.80000305176</ele>
        <time>2022-06-16T13:27:59.000Z</time>
      </trkpt>
      <trkpt lat="46.58063" lon="5.43425">
        <ele>235</ele>
        <time>2022-06-16T13:28:01.000Z</time>
      </trkpt>
      <trkpt lat="46.58059" lon="5.43407">
        <ele>235</ele>
        <time>2022-06-16T13:28:03.000Z</time>
      </trkpt>
      <trkpt lat="46.58047" lon="5.43362">
        <ele>235.19999694824</ele>
        <time>2022-06-16T13:28:08.000Z</time>
      </trkpt>
      <trkpt lat="46.58023" lon="5.43297">
        <ele>235.80000305176</ele>
        <time>2022-06-16T13:28:16.000Z</time>
      </trkpt>
      <trkpt lat="46.58019" lon="5.4329">
        <ele>235.80000305176</ele>
        <time>2022-06-16T13:28:17.000Z</time>
      </trkpt>
      <trkpt lat="46.58006" lon="5.4327">
        <ele>236</ele>
        <time>2022-06-16T13:28:20.000Z</time>
      </trkpt>
      <trkpt lat="46.58001" lon="5.43265">
        <ele>235.80000305176</ele>
        <time>2022-06-16T13:28:21.000Z</time>
      </trkpt>
      <trkpt lat="46.5799" lon="5.43257">
        <ele>235.80000305176</ele>
        <time>2022-06-16T13:28:23.000Z</time>
      </trkpt>
      <trkpt lat="46.5798" lon="5.43247">
        <ele>235.80000305176</ele>
        <time>2022-06-16T13:28:25.000Z</time>
      </trkpt>
      <trkpt lat="46.57956" lon="5.43227">
        <ele>236</ele>
        <time>2022-06-16T13:28:30.000Z</time>
      </trkpt>
      <trkpt lat="46.57952" lon="5.43223">
        <ele>236.19999694824</ele>
        <time>2022-06-16T13:28:31.000Z</time>
      </trkpt>
      <trkpt lat="46.57937" lon="5.43205">
        <ele>236.60000610352</ele>
        <time>2022-06-16T13:28:35.000Z</time>
      </trkpt>
      <trkpt lat="46.57934" lon="5.43201">
        <ele>236.60000610352</ele>
        <time>2022-06-16T13:28:36.000Z</time>
      </trkpt>
      <trkpt lat="46.57929" lon="5.43196">
        <ele>236.60000610352</ele>
        <time>2022-06-16T13:28:38.000Z</time>
      </trkpt>
      <trkpt lat="46.57926" lon="5.43197">
        <ele>236.60000610352</ele>
        <time>2022-06-16T13:28:39.000Z</time>
      </trkpt>
      <trkpt lat="46.57923" lon="5.432">
        <ele>236.60000610352</ele>
        <time>2022-06-16T13:28:40.000Z</time>
      </trkpt>
      <trkpt lat="46.57918" lon="5.43209">
        <ele>236.60000610352</ele>
        <time>2022-06-16T13:28:42.000Z</time>
      </trkpt>
      <trkpt lat="46.57907" lon="5.43239">
        <ele>237.19999694824</ele>
        <time>2022-06-16T13:28:47.000Z</time>
      </trkpt>
      <trkpt lat="46.57897" lon="5.43264">
        <ele>238.19999694824</ele>
        <time>2022-06-16T13:28:51.000Z</time>
      </trkpt>
      <trkpt lat="46.57889" lon="5.43282">
        <ele>239</ele>
        <time>2022-06-16T13:28:54.000Z</time>
      </trkpt>
      <trkpt lat="46.57887" lon="5.43288">
        <ele>239.19999694824</ele>
        <time>2022-06-16T13:28:55.000Z</time>
      </trkpt>
      <trkpt lat="46.57871" lon="5.43324">
        <ele>240.39999389648</ele>
        <time>2022-06-16T13:29:01.000Z</time>
      </trkpt>
      <trkpt lat="46.57862" lon="5.43348">
        <ele>241.19999694824</ele>
        <time>2022-06-16T13:29:05.000Z</time>
      </trkpt>
      <trkpt lat="46.57857" lon="5.43359">
        <ele>241.39999389648</ele>
        <time>2022-06-16T13:29:07.000Z</time>
      </trkpt>
      <trkpt lat="46.57838" lon="5.43404">
        <ele>242.60000610352</ele>
        <time>2022-06-16T13:29:15.000Z</time>
      </trkpt>
      <trkpt lat="46.57824" lon="5.43438">
        <ele>243.60000610352</ele>
        <time>2022-06-16T13:29:21.000Z</time>
      </trkpt>
      <trkpt lat="46.57823" lon="5.43444">
        <ele>243.80000305176</ele>
        <time>2022-06-16T13:29:22.000Z</time>
      </trkpt>
      <trkpt lat="46.57817" lon="5.43463">
        <ele>244.60000610352</ele>
        <time>2022-06-16T13:29:25.000Z</time>
      </trkpt>
      <trkpt lat="46.57806" lon="5.43498">
        <ele>245.19999694824</ele>
        <time>2022-06-16T13:29:31.000Z</time>
      </trkpt>
      <trkpt lat="46.57801" lon="5.43517">
        <ele>245.60000610352</ele>
        <time>2022-06-16T13:29:34.000Z</time>
      </trkpt>
      <trkpt lat="46.57789" lon="5.43553">
        <ele>246.80000305176</ele>
        <time>2022-06-16T13:29:40.000Z</time>
      </trkpt>
      <trkpt lat="46.57787" lon="5.43559">
        <ele>247.19999694824</ele>
        <time>2022-06-16T13:29:41.000Z</time>
      </trkpt>
      <trkpt lat="46.57781" lon="5.43577">
        <ele>247.80000305176</ele>
        <time>2022-06-16T13:29:44.000Z</time>
      </trkpt>
      <trkpt lat="46.57768" lon="5.43611">
        <ele>249</ele>
        <time>2022-06-16T13:29:50.000Z</time>
      </trkpt>
      <trkpt lat="46.5775" lon="5.43655">
        <ele>250</ele>
        <time>2022-06-16T13:29:58.000Z</time>
      </trkpt>
      <trkpt lat="46.5774" lon="5.43677">
        <ele>251.39999389648</ele>
        <time>2022-06-16T13:30:02.000Z</time>
      </trkpt>
      <trkpt lat="46.57728" lon="5.43698">
        <ele>252.19999694824</ele>
        <time>2022-06-16T13:30:06.000Z</time>
      </trkpt>
      <trkpt lat="46.57725" lon="5.43703">
        <ele>252.39999389648</ele>
        <time>2022-06-16T13:30:07.000Z</time>
      </trkpt>
      <trkpt lat="46.57707" lon="5.43725">
        <ele>253</ele>
        <time>2022-06-16T13:30:12.000Z</time>
      </trkpt>
      <trkpt lat="46.57704" lon="5.43729">
        <ele>253.19999694824</ele>
        <time>2022-06-16T13:30:13.000Z</time>
      </trkpt>
      <trkpt lat="46.57699" lon="5.43732">
        <ele>253.39999389648</ele>
        <time>2022-06-16T13:30:14.000Z</time>
      </trkpt>
      <trkpt lat="46.57683" lon="5.43742">
        <ele>254.19999694824</ele>
        <time>2022-06-16T13:30:18.000Z</time>
      </trkpt>
      <trkpt lat="46.57674" lon="5.43746">
        <ele>254.80000305176</ele>
        <time>2022-06-16T13:30:20.000Z</time>
      </trkpt>
      <trkpt lat="46.57664" lon="5.43751">
        <ele>255</ele>
        <time>2022-06-16T13:30:22.000Z</time>
      </trkpt>
      <trkpt lat="46.57647" lon="5.43767">
        <ele>255</ele>
        <time>2022-06-16T13:30:26.000Z</time>
      </trkpt>
      <trkpt lat="46.57618" lon="5.43803">
        <ele>254.60000610352</ele>
        <time>2022-06-16T13:30:33.000Z</time>
      </trkpt>
      <trkpt lat="46.5761" lon="5.43811">
        <ele>254.39999389648</ele>
        <time>2022-06-16T13:30:35.000Z</time>
      </trkpt>
      <trkpt lat="46.57605" lon="5.43814">
        <ele>254.39999389648</ele>
        <time>2022-06-16T13:30:37.000Z</time>
      </trkpt>
      <trkpt lat="46.57602" lon="5.43814">
        <ele>254.39999389648</ele>
        <time>2022-06-16T13:30:39.000Z</time>
      </trkpt>
      <trkpt lat="46.57602" lon="5.43814">
        <ele>254.19999694824</ele>
        <time>2022-06-16T13:30:41.000Z</time>
      </trkpt>
      <trkpt lat="46.57596" lon="5.43811">
        <ele>254</ele>
        <time>2022-06-16T13:30:45.000Z</time>
      </trkpt>
      <trkpt lat="46.5759" lon="5.43805">
        <ele>254</ele>
        <time>2022-06-16T13:30:47.000Z</time>
      </trkpt>
      <trkpt lat="46.57577" lon="5.4379">
        <ele>254.39999389648</ele>
        <time>2022-06-16T13:30:51.000Z</time>
      </trkpt>
      <trkpt lat="46.57573" lon="5.43788">
        <ele>254.60000610352</ele>
        <time>2022-06-16T13:30:52.000Z</time>
      </trkpt>
      <trkpt lat="46.57561" lon="5.43791">
        <ele>255.19999694824</ele>
        <time>2022-06-16T13:30:55.000Z</time>
      </trkpt>
      <trkpt lat="46.57557" lon="5.43793">
        <ele>255.19999694824</ele>
        <time>2022-06-16T13:30:56.000Z</time>
      </trkpt>
      <trkpt lat="46.57546" lon="5.43803">
        <ele>256</ele>
        <time>2022-06-16T13:30:59.000Z</time>
      </trkpt>
      <trkpt lat="46.57528" lon="5.43817">
        <ele>257</ele>
        <time>2022-06-16T13:31:04.000Z</time>
      </trkpt>
      <trkpt lat="46.57514" lon="5.43831">
        <ele>258.20001220703</ele>
        <time>2022-06-16T13:31:08.000Z</time>
      </trkpt>
      <trkpt lat="46.57503" lon="5.43838">
        <ele>258.79998779297</ele>
        <time>2022-06-16T13:31:11.000Z</time>
      </trkpt>
      <trkpt lat="46.57495" lon="5.4384">
        <ele>259.20001220703</ele>
        <time>2022-06-16T13:31:13.000Z</time>
      </trkpt>
      <trkpt lat="46.57472" lon="5.4384">
        <ele>260.39999389648</ele>
        <time>2022-06-16T13:31:19.000Z</time>
      </trkpt>
      <trkpt lat="46.57456" lon="5.4384">
        <ele>261.79998779297</ele>
        <time>2022-06-16T13:31:23.000Z</time>
      </trkpt>
      <trkpt lat="46.57448" lon="5.43838">
        <ele>262.39999389648</ele>
        <time>2022-06-16T13:31:25.000Z</time>
      </trkpt>
      <trkpt lat="46.57444" lon="5.43836">
        <ele>262.79998779297</ele>
        <time>2022-06-16T13:31:26.000Z</time>
      </trkpt>
      <trkpt lat="46.57424" lon="5.43835">
        <ele>263.60000610352</ele>
        <time>2022-06-16T13:31:31.000Z</time>
      </trkpt>
      <trkpt lat="46.5742" lon="5.43835">
        <ele>263.79998779297</ele>
        <time>2022-06-16T13:31:32.000Z</time>
      </trkpt>
      <trkpt lat="46.57388" lon="5.43842">
        <ele>264.79998779297</ele>
        <time>2022-06-16T13:31:39.000Z</time>
      </trkpt>
      <trkpt lat="46.57358" lon="5.43847">
        <ele>265.39999389648</ele>
        <time>2022-06-16T13:31:45.000Z</time>
      </trkpt>
      <trkpt lat="46.57353" lon="5.43847">
        <ele>265.60000610352</ele>
        <time>2022-06-16T13:31:46.000Z</time>
      </trkpt>
      <trkpt lat="46.57341" lon="5.43845">
        <ele>266</ele>
        <time>2022-06-16T13:31:49.000Z</time>
      </trkpt>
      <trkpt lat="46.57332" lon="5.43843">
        <ele>266.39999389648</ele>
        <time>2022-06-16T13:31:51.000Z</time>
      </trkpt>
      <trkpt lat="46.57319" lon="5.43843">
        <ele>266.79998779297</ele>
        <time>2022-06-16T13:31:54.000Z</time>
      </trkpt>
      <trkpt lat="46.57315" lon="5.43843">
        <ele>267</ele>
        <time>2022-06-16T13:31:55.000Z</time>
      </trkpt>
      <trkpt lat="46.57302" lon="5.43843">
        <ele>267.39999389648</ele>
        <time>2022-06-16T13:31:58.000Z</time>
      </trkpt>
      <trkpt lat="46.57283" lon="5.43843">
        <ele>267.60000610352</ele>
        <time>2022-06-16T13:32:02.000Z</time>
      </trkpt>
      <trkpt lat="46.57275" lon="5.43839">
        <ele>267.79998779297</ele>
        <time>2022-06-16T13:32:04.000Z</time>
      </trkpt>
      <trkpt lat="46.57271" lon="5.43836">
        <ele>267.79998779297</ele>
        <time>2022-06-16T13:32:05.000Z</time>
      </trkpt>
      <trkpt lat="46.57264" lon="5.43828">
        <ele>268</ele>
        <time>2022-06-16T13:32:07.000Z</time>
      </trkpt>
      <trkpt lat="46.57261" lon="5.43823">
        <ele>268.39999389648</ele>
        <time>2022-06-16T13:32:08.000Z</time>
      </trkpt>
      <trkpt lat="46.57256" lon="5.43813">
        <ele>268.79998779297</ele>
        <time>2022-06-16T13:32:10.000Z</time>
      </trkpt>
      <trkpt lat="46.57249" lon="5.43805">
        <ele>269.20001220703</ele>
        <time>2022-06-16T13:32:12.000Z</time>
      </trkpt>
      <trkpt lat="46.57246" lon="5.43801">
        <ele>269.20001220703</ele>
        <time>2022-06-16T13:32:13.000Z</time>
      </trkpt>
      <trkpt lat="46.57226" lon="5.43779">
        <ele>269.60000610352</ele>
        <time>2022-06-16T13:32:18.000Z</time>
      </trkpt>
      <trkpt lat="46.57209" lon="5.43764">
        <ele>270</ele>
        <time>2022-06-16T13:32:22.000Z</time>
      </trkpt>
      <trkpt lat="46.57193" lon="5.4375">
        <ele>270.39999389648</ele>
        <time>2022-06-16T13:32:25.000Z</time>
      </trkpt>
      <trkpt lat="46.57149" lon="5.43715">
        <ele>270.20001220703</ele>
        <time>2022-06-16T13:32:32.000Z</time>
      </trkpt>
      <trkpt lat="46.57106" lon="5.4368">
        <ele>269.60000610352</ele>
        <time>2022-06-16T13:32:38.000Z</time>
      </trkpt>
      <trkpt lat="46.57064" lon="5.43646">
        <ele>269</ele>
        <time>2022-06-16T13:32:44.000Z</time>
      </trkpt>
      <trkpt lat="46.57044" lon="5.43631">
        <ele>269</ele>
        <time>2022-06-16T13:32:47.000Z</time>
      </trkpt>
      <trkpt lat="46.57008" lon="5.43604">
        <ele>269.20001220703</ele>
        <time>2022-06-16T13:32:53.000Z</time>
      </trkpt>
      <trkpt lat="46.56998" lon="5.43595">
        <ele>269.60000610352</ele>
        <time>2022-06-16T13:32:55.000Z</time>
      </trkpt>
      <trkpt lat="46.56984" lon="5.4358">
        <ele>270.20001220703</ele>
        <time>2022-06-16T13:32:58.000Z</time>
      </trkpt>
      <trkpt lat="46.5695" lon="5.43549">
        <ele>271.20001220703</ele>
        <time>2022-06-16T13:33:05.000Z</time>
      </trkpt>
      <trkpt lat="46.56926" lon="5.43526">
        <ele>272.39999389648</ele>
        <time>2022-06-16T13:33:10.000Z</time>
      </trkpt>
      <trkpt lat="46.56903" lon="5.43506">
        <ele>273.60000610352</ele>
        <time>2022-06-16T13:33:15.000Z</time>
      </trkpt>
      <trkpt lat="46.56878" lon="5.43479">
        <ele>274.79998779297</ele>
        <time>2022-06-16T13:33:21.000Z</time>
      </trkpt>
      <trkpt lat="46.5687" lon="5.43469">
        <ele>275.20001220703</ele>
        <time>2022-06-16T13:33:23.000Z</time>
      </trkpt>
      <trkpt lat="46.56853" lon="5.43443">
        <ele>275.79998779297</ele>
        <time>2022-06-16T13:33:27.000Z</time>
      </trkpt>
      <trkpt lat="46.56848" lon="5.43435">
        <ele>275.79998779297</ele>
        <time>2022-06-16T13:33:28.000Z</time>
      </trkpt>
      <trkpt lat="46.56825" lon="5.43382">
        <ele>275.79998779297</ele>
        <time>2022-06-16T13:33:34.000Z</time>
      </trkpt>
      <trkpt lat="46.56805" lon="5.43344">
        <ele>275.39999389648</ele>
        <time>2022-06-16T13:33:38.000Z</time>
      </trkpt>
      <trkpt lat="46.56785" lon="5.4332">
        <ele>274.79998779297</ele>
        <time>2022-06-16T13:33:41.000Z</time>
      </trkpt>
      <trkpt lat="46.56766" lon="5.43298">
        <ele>274.39999389648</ele>
        <time>2022-06-16T13:33:44.000Z</time>
      </trkpt>
      <trkpt lat="46.56733" lon="5.43252">
        <ele>274</ele>
        <time>2022-06-16T13:33:50.000Z</time>
      </trkpt>
      <trkpt lat="46.56704" lon="5.43192">
        <ele>274</ele>
        <time>2022-06-16T13:33:57.000Z</time>
      </trkpt>
      <trkpt lat="46.56676" lon="5.4312">
        <ele>274.20001220703</ele>
        <time>2022-06-16T13:34:05.000Z</time>
      </trkpt>
      <trkpt lat="46.56669" lon="5.43102">
        <ele>274.39999389648</ele>
        <time>2022-06-16T13:34:07.000Z</time>
      </trkpt>
      <trkpt lat="46.56639" lon="5.43032">
        <ele>273.79998779297</ele>
        <time>2022-06-16T13:34:15.000Z</time>
      </trkpt>
      <trkpt lat="46.56634" lon="5.43024">
        <ele>273.60000610352</ele>
        <time>2022-06-16T13:34:16.000Z</time>
      </trkpt>
      <trkpt lat="46.5663" lon="5.43016">
        <ele>273.60000610352</ele>
        <time>2022-06-16T13:34:17.000Z</time>
      </trkpt>
      <trkpt lat="46.56608" lon="5.42988">
        <ele>273</ele>
        <time>2022-06-16T13:34:21.000Z</time>
      </trkpt>
      <trkpt lat="46.56602" lon="5.42983">
        <ele>273</ele>
        <time>2022-06-16T13:34:22.000Z</time>
      </trkpt>
      <trkpt lat="46.56568" lon="5.42949">
        <ele>272.60000610352</ele>
        <time>2022-06-16T13:34:28.000Z</time>
      </trkpt>
      <trkpt lat="46.56563" lon="5.42943">
        <ele>272.60000610352</ele>
        <time>2022-06-16T13:34:29.000Z</time>
      </trkpt>
      <trkpt lat="46.56535" lon="5.42908">
        <ele>272.60000610352</ele>
        <time>2022-06-16T13:34:34.000Z</time>
      </trkpt>
      <trkpt lat="46.56514" lon="5.42877">
        <ele>272.39999389648</ele>
        <time>2022-06-16T13:34:38.000Z</time>
      </trkpt>
      <trkpt lat="46.56483" lon="5.42809">
        <ele>271.79998779297</ele>
        <time>2022-06-16T13:34:45.000Z</time>
      </trkpt>
      <trkpt lat="46.56478" lon="5.42799">
        <ele>271.60000610352</ele>
        <time>2022-06-16T13:34:46.000Z</time>
      </trkpt>
      <trkpt lat="46.56453" lon="5.42762">
        <ele>270</ele>
        <time>2022-06-16T13:34:50.000Z</time>
      </trkpt>
      <trkpt lat="46.56415" lon="5.42723">
        <ele>268.79998779297</ele>
        <time>2022-06-16T13:34:55.000Z</time>
      </trkpt>
      <trkpt lat="46.56407" lon="5.42716">
        <ele>268.60000610352</ele>
        <time>2022-06-16T13:34:56.000Z</time>
      </trkpt>
      <trkpt lat="46.56392" lon="5.427">
        <ele>267.79998779297</ele>
        <time>2022-06-16T13:34:58.000Z</time>
      </trkpt>
      <trkpt lat="46.56365" lon="5.42666">
        <ele>267.20001220703</ele>
        <time>2022-06-16T13:35:02.000Z</time>
      </trkpt>
      <trkpt lat="46.56337" lon="5.4262">
        <ele>266.79998779297</ele>
        <time>2022-06-16T13:35:07.000Z</time>
      </trkpt>
      <trkpt lat="46.56332" lon="5.42611">
        <ele>266.79998779297</ele>
        <time>2022-06-16T13:35:08.000Z</time>
      </trkpt>
      <trkpt lat="46.56312" lon="5.42571">
        <ele>267.39999389648</ele>
        <time>2022-06-16T13:35:13.000Z</time>
      </trkpt>
      <trkpt lat="46.56309" lon="5.42565">
        <ele>267.60000610352</ele>
        <time>2022-06-16T13:35:14.000Z</time>
      </trkpt>
      <trkpt lat="46.56302" lon="5.42553">
        <ele>267.79998779297</ele>
        <time>2022-06-16T13:35:16.000Z</time>
      </trkpt>
      <trkpt lat="46.56299" lon="5.42549">
        <ele>268</ele>
        <time>2022-06-16T13:35:17.000Z</time>
      </trkpt>
      <trkpt lat="46.56295" lon="5.42543">
        <ele>268.79998779297</ele>
        <time>2022-06-16T13:35:19.000Z</time>
      </trkpt>
      <trkpt lat="46.56294" lon="5.42542">
        <ele>269</ele>
        <time>2022-06-16T13:35:20.000Z</time>
      </trkpt>
      <trkpt lat="46.56294" lon="5.42541">
        <ele>269.60000610352</ele>
        <time>2022-06-16T13:35:23.000Z</time>
      </trkpt>
      <trkpt lat="46.56289" lon="5.42535">
        <ele>269</ele>
        <time>2022-06-16T13:36:38.000Z</time>
      </trkpt>
      <trkpt lat="46.56273" lon="5.42521">
        <ele>269</ele>
        <time>2022-06-16T13:36:43.000Z</time>
      </trkpt>
      <trkpt lat="46.56266" lon="5.42513">
        <ele>269</ele>
        <time>2022-06-16T13:36:45.000Z</time>
      </trkpt>
      <trkpt lat="46.56258" lon="5.42503">
        <ele>269</ele>
        <time>2022-06-16T13:36:47.000Z</time>
      </trkpt>
      <trkpt lat="46.56255" lon="5.42497">
        <ele>269.20001220703</ele>
        <time>2022-06-16T13:36:48.000Z</time>
      </trkpt>
      <trkpt lat="46.5624" lon="5.42457">
        <ele>269.20001220703</ele>
        <time>2022-06-16T13:36:54.000Z</time>
      </trkpt>
      <trkpt lat="46.56238" lon="5.42444">
        <ele>269.39999389648</ele>
        <time>2022-06-16T13:36:56.000Z</time>
      </trkpt>
      <trkpt lat="46.56238" lon="5.42438">
        <ele>269.39999389648</ele>
        <time>2022-06-16T13:36:57.000Z</time>
      </trkpt>
      <trkpt lat="46.56237" lon="5.42424">
        <ele>270</ele>
        <time>2022-06-16T13:36:59.000Z</time>
      </trkpt>
      <trkpt lat="46.56234" lon="5.4241">
        <ele>270.60000610352</ele>
        <time>2022-06-16T13:37:01.000Z</time>
      </trkpt>
      <trkpt lat="46.56234" lon="5.42395">
        <ele>270.79998779297</ele>
        <time>2022-06-16T13:37:03.000Z</time>
      </trkpt>
      <trkpt lat="46.5623" lon="5.42381">
        <ele>270.79998779297</ele>
        <time>2022-06-16T13:37:05.000Z</time>
      </trkpt>
      <trkpt lat="46.56216" lon="5.42353">
        <ele>270.60000610352</ele>
        <time>2022-06-16T13:37:09.000Z</time>
      </trkpt>
      <trkpt lat="46.56194" lon="5.42317">
        <ele>270.20001220703</ele>
        <time>2022-06-16T13:37:14.000Z</time>
      </trkpt>
      <trkpt lat="46.5619" lon="5.42311">
        <ele>270</ele>
        <time>2022-06-16T13:37:15.000Z</time>
      </trkpt>
      <trkpt lat="46.56184" lon="5.42306">
        <ele>270</ele>
        <time>2022-06-16T13:37:16.000Z</time>
      </trkpt>
      <trkpt lat="46.56169" lon="5.42294">
        <ele>269.60000610352</ele>
        <time>2022-06-16T13:37:19.000Z</time>
      </trkpt>
      <trkpt lat="46.56159" lon="5.42288">
        <ele>269.60000610352</ele>
        <time>2022-06-16T13:37:21.000Z</time>
      </trkpt>
      <trkpt lat="46.56138" lon="5.42279">
        <ele>269.79998779297</ele>
        <time>2022-06-16T13:37:25.000Z</time>
      </trkpt>
      <trkpt lat="46.5612" lon="5.42274">
        <ele>270.79998779297</ele>
        <time>2022-06-16T13:37:29.000Z</time>
      </trkpt>
      <trkpt lat="46.56116" lon="5.42274">
        <ele>271</ele>
        <time>2022-06-16T13:37:30.000Z</time>
      </trkpt>
      <trkpt lat="46.56103" lon="5.42272">
        <ele>272.20001220703</ele>
        <time>2022-06-16T13:37:33.000Z</time>
      </trkpt>
      <trkpt lat="46.56088" lon="5.4227">
        <ele>273</ele>
        <time>2022-06-16T13:37:37.000Z</time>
      </trkpt>
      <trkpt lat="46.56084" lon="5.42269">
        <ele>273.39999389648</ele>
        <time>2022-06-16T13:37:38.000Z</time>
      </trkpt>
      <trkpt lat="46.56068" lon="5.42262">
        <ele>274.60000610352</ele>
        <time>2022-06-16T13:37:43.000Z</time>
      </trkpt>
      <trkpt lat="46.56056" lon="5.42248">
        <ele>276</ele>
        <time>2022-06-16T13:37:48.000Z</time>
      </trkpt>
      <trkpt lat="46.56052" lon="5.42241">
        <ele>276.39999389648</ele>
        <time>2022-06-16T13:37:50.000Z</time>
      </trkpt>
      <trkpt lat="46.56052" lon="5.42232">
        <ele>276.79998779297</ele>
        <time>2022-06-16T13:37:52.000Z</time>
      </trkpt>
      <trkpt lat="46.56053" lon="5.42227">
        <ele>276.79998779297</ele>
        <time>2022-06-16T13:37:53.000Z</time>
      </trkpt>
      <trkpt lat="46.56056" lon="5.42216">
        <ele>277.20001220703</ele>
        <time>2022-06-16T13:37:55.000Z</time>
      </trkpt>
      <trkpt lat="46.56058" lon="5.42195">
        <ele>277.79998779297</ele>
        <time>2022-06-16T13:37:59.000Z</time>
      </trkpt>
      <trkpt lat="46.56053" lon="5.42181">
        <ele>278.20001220703</ele>
        <time>2022-06-16T13:38:02.000Z</time>
      </trkpt>
      <trkpt lat="46.56047" lon="5.42174">
        <ele>278.60000610352</ele>
        <time>2022-06-16T13:38:04.000Z</time>
      </trkpt>
      <trkpt lat="46.56023" lon="5.42146">
        <ele>279.20001220703</ele>
        <time>2022-06-16T13:38:11.000Z</time>
      </trkpt>
      <trkpt lat="46.5602" lon="5.42142">
        <ele>279.20001220703</ele>
        <time>2022-06-16T13:38:12.000Z</time>
      </trkpt>
      <trkpt lat="46.56005" lon="5.42125">
        <ele>279.79998779297</ele>
        <time>2022-06-16T13:38:17.000Z</time>
      </trkpt>
      <trkpt lat="46.56001" lon="5.42124">
        <ele>280.20001220703</ele>
        <time>2022-06-16T13:38:18.000Z</time>
      </trkpt>
      <trkpt lat="46.55997" lon="5.42123">
        <ele>280.39999389648</ele>
        <time>2022-06-16T13:38:19.000Z</time>
      </trkpt>
      <trkpt lat="46.55984" lon="5.42122">
        <ele>281</ele>
        <time>2022-06-16T13:38:22.000Z</time>
      </trkpt>
      <trkpt lat="46.55975" lon="5.4212">
        <ele>281.39999389648</ele>
        <time>2022-06-16T13:38:24.000Z</time>
      </trkpt>
      <trkpt lat="46.55953" lon="5.42113">
        <ele>281.79998779297</ele>
        <time>2022-06-16T13:38:29.000Z</time>
      </trkpt>
      <trkpt lat="46.55944" lon="5.4211">
        <ele>282</ele>
        <time>2022-06-16T13:38:31.000Z</time>
      </trkpt>
      <trkpt lat="46.55915" lon="5.421">
        <ele>282.39999389648</ele>
        <time>2022-06-16T13:38:37.000Z</time>
      </trkpt>
      <trkpt lat="46.55911" lon="5.42099">
        <ele>282.60000610352</ele>
        <time>2022-06-16T13:38:38.000Z</time>
      </trkpt>
      <trkpt lat="46.55903" lon="5.42098">
        <ele>282.79998779297</ele>
        <time>2022-06-16T13:38:40.000Z</time>
      </trkpt>
      <trkpt lat="46.55887" lon="5.42096">
        <ele>283.79998779297</ele>
        <time>2022-06-16T13:38:44.000Z</time>
      </trkpt>
      <trkpt lat="46.5588" lon="5.42095">
        <ele>284.20001220703</ele>
        <time>2022-06-16T13:38:46.000Z</time>
      </trkpt>
      <trkpt lat="46.55864" lon="5.42093">
        <ele>284.79998779297</ele>
        <time>2022-06-16T13:38:50.000Z</time>
      </trkpt>
      <trkpt lat="46.55844" lon="5.42089">
        <ele>286</ele>
        <time>2022-06-16T13:38:55.000Z</time>
      </trkpt>
      <trkpt lat="46.55825" lon="5.42084">
        <ele>287.20001220703</ele>
        <time>2022-06-16T13:39:00.000Z</time>
      </trkpt>
      <trkpt lat="46.55809" lon="5.42083">
        <ele>288</ele>
        <time>2022-06-16T13:39:04.000Z</time>
      </trkpt>
      <trkpt lat="46.55802" lon="5.42089">
        <ele>288.20001220703</ele>
        <time>2022-06-16T13:39:06.000Z</time>
      </trkpt>
      <trkpt lat="46.558" lon="5.42094">
        <ele>288.39999389648</ele>
        <time>2022-06-16T13:39:07.000Z</time>
      </trkpt>
      <trkpt lat="46.558" lon="5.42109">
        <ele>289</ele>
        <time>2022-06-16T13:39:10.000Z</time>
      </trkpt>
      <trkpt lat="46.55802" lon="5.42113">
        <ele>289.20001220703</ele>
        <time>2022-06-16T13:39:11.000Z</time>
      </trkpt>
      <trkpt lat="46.55811" lon="5.42122">
        <ele>289.79998779297</ele>
        <time>2022-06-16T13:39:14.000Z</time>
      </trkpt>
      <trkpt lat="46.55817" lon="5.42126">
        <ele>290.39999389648</ele>
        <time>2022-06-16T13:39:16.000Z</time>
      </trkpt>
      <trkpt lat="46.55834" lon="5.42134">
        <ele>291.60000610352</ele>
        <time>2022-06-16T13:39:21.000Z</time>
      </trkpt>
      <trkpt lat="46.5584" lon="5.42137">
        <ele>292</ele>
        <time>2022-06-16T13:39:23.000Z</time>
      </trkpt>
      <trkpt lat="46.55856" lon="5.42145">
        <ele>292.60000610352</ele>
        <time>2022-06-16T13:39:28.000Z</time>
      </trkpt>
      <trkpt lat="46.55866" lon="5.42151">
        <ele>293.20001220703</ele>
        <time>2022-06-16T13:39:31.000Z</time>
      </trkpt>
      <trkpt lat="46.55874" lon="5.42159">
        <ele>293.79998779297</ele>
        <time>2022-06-16T13:39:34.000Z</time>
      </trkpt>
      <trkpt lat="46.55885" lon="5.42172">
        <ele>294.20001220703</ele>
        <time>2022-06-16T13:39:38.000Z</time>
      </trkpt>
      <trkpt lat="46.55895" lon="5.42186">
        <ele>294.79998779297</ele>
        <time>2022-06-16T13:39:42.000Z</time>
      </trkpt>
      <trkpt lat="46.55908" lon="5.42205">
        <ele>295.39999389648</ele>
        <time>2022-06-16T13:39:47.000Z</time>
      </trkpt>
      <trkpt lat="46.5591" lon="5.4221">
        <ele>295.79998779297</ele>
        <time>2022-06-16T13:39:48.000Z</time>
      </trkpt>
      <trkpt lat="46.55915" lon="5.42223">
        <ele>297</ele>
        <time>2022-06-16T13:39:51.000Z</time>
      </trkpt>
      <trkpt lat="46.55917" lon="5.42237">
        <ele>297.39999389648</ele>
        <time>2022-06-16T13:39:54.000Z</time>
      </trkpt>
      <trkpt lat="46.55913" lon="5.42253">
        <ele>298</ele>
        <time>2022-06-16T13:39:57.000Z</time>
      </trkpt>
      <trkpt lat="46.55909" lon="5.42262">
        <ele>298.20001220703</ele>
        <time>2022-06-16T13:39:59.000Z</time>
      </trkpt>
      <trkpt lat="46.55892" lon="5.42277">
        <ele>299</ele>
        <time>2022-06-16T13:40:05.000Z</time>
      </trkpt>
      <trkpt lat="46.55879" lon="5.42274">
        <ele>299.79998779297</ele>
        <time>2022-06-16T13:40:09.000Z</time>
      </trkpt>
      <trkpt lat="46.55877" lon="5.42271">
        <ele>300.20001220703</ele>
        <time>2022-06-16T13:40:10.000Z</time>
      </trkpt>
      <trkpt lat="46.55868" lon="5.42257">
        <ele>301.39999389648</ele>
        <time>2022-06-16T13:40:14.000Z</time>
      </trkpt>
      <trkpt lat="46.55855" lon="5.4224">
        <ele>302.60000610352</ele>
        <time>2022-06-16T13:40:20.000Z</time>
      </trkpt>
      <trkpt lat="46.55852" lon="5.4224">
        <ele>302.79998779297</ele>
        <time>2022-06-16T13:40:21.000Z</time>
      </trkpt>
      <trkpt lat="46.55846" lon="5.42239">
        <ele>303.39999389648</ele>
        <time>2022-06-16T13:40:23.000Z</time>
      </trkpt>
      <trkpt lat="46.55832" lon="5.42239">
        <ele>304</ele>
        <time>2022-06-16T13:40:27.000Z</time>
      </trkpt>
      <trkpt lat="46.55823" lon="5.42238">
        <ele>304.60000610352</ele>
        <time>2022-06-16T13:40:30.000Z</time>
      </trkpt>
      <trkpt lat="46.55817" lon="5.42238">
        <ele>305</ele>
        <time>2022-06-16T13:40:32.000Z</time>
      </trkpt>
      <trkpt lat="46.55815" lon="5.42237">
        <ele>305.20001220703</ele>
        <time>2022-06-16T13:40:33.000Z</time>
      </trkpt>
      <trkpt lat="46.55809" lon="5.42235">
        <ele>305.60000610352</ele>
        <time>2022-06-16T13:40:35.000Z</time>
      </trkpt>
      <trkpt lat="46.55797" lon="5.42232">
        <ele>306.60000610352</ele>
        <time>2022-06-16T13:40:39.000Z</time>
      </trkpt>
      <trkpt lat="46.55794" lon="5.42231">
        <ele>306.79998779297</ele>
        <time>2022-06-16T13:40:40.000Z</time>
      </trkpt>
      <trkpt lat="46.55773" lon="5.42219">
        <ele>307.39999389648</ele>
        <time>2022-06-16T13:40:46.000Z</time>
      </trkpt>
      <trkpt lat="46.55765" lon="5.42215">
        <ele>307.79998779297</ele>
        <time>2022-06-16T13:40:48.000Z</time>
      </trkpt>
      <trkpt lat="46.55743" lon="5.42207">
        <ele>309</ele>
        <time>2022-06-16T13:40:54.000Z</time>
      </trkpt>
      <trkpt lat="46.55718" lon="5.42201">
        <ele>310.20001220703</ele>
        <time>2022-06-16T13:41:01.000Z</time>
      </trkpt>
      <trkpt lat="46.55709" lon="5.42198">
        <ele>310.79998779297</ele>
        <time>2022-06-16T13:41:04.000Z</time>
      </trkpt>
      <trkpt lat="46.55702" lon="5.42197">
        <ele>311.20001220703</ele>
        <time>2022-06-16T13:41:06.000Z</time>
      </trkpt>
      <trkpt lat="46.55683" lon="5.42193">
        <ele>312.60000610352</ele>
        <time>2022-06-16T13:41:12.000Z</time>
      </trkpt>
      <trkpt lat="46.5567" lon="5.42188">
        <ele>313.39999389648</ele>
        <time>2022-06-16T13:41:16.000Z</time>
      </trkpt>
      <trkpt lat="46.55667" lon="5.42187">
        <ele>313.60000610352</ele>
        <time>2022-06-16T13:41:17.000Z</time>
      </trkpt>
      <trkpt lat="46.55649" lon="5.42177">
        <ele>314.79998779297</ele>
        <time>2022-06-16T13:41:23.000Z</time>
      </trkpt>
      <trkpt lat="46.55643" lon="5.42174">
        <ele>315</ele>
        <time>2022-06-16T13:41:25.000Z</time>
      </trkpt>
      <trkpt lat="46.55631" lon="5.42167">
        <ele>316</ele>
        <time>2022-06-16T13:41:29.000Z</time>
      </trkpt>
      <trkpt lat="46.55621" lon="5.42163">
        <ele>316.60000610352</ele>
        <time>2022-06-16T13:41:32.000Z</time>
      </trkpt>
      <trkpt lat="46.55611" lon="5.4216">
        <ele>317</ele>
        <time>2022-06-16T13:41:35.000Z</time>
      </trkpt>
      <trkpt lat="46.55596" lon="5.42158">
        <ele>317.79998779297</ele>
        <time>2022-06-16T13:41:40.000Z</time>
      </trkpt>
      <trkpt lat="46.5559" lon="5.42159">
        <ele>318.20001220703</ele>
        <time>2022-06-16T13:41:42.000Z</time>
      </trkpt>
      <trkpt lat="46.55572" lon="5.42165">
        <ele>319.60000610352</ele>
        <time>2022-06-16T13:41:48.000Z</time>
      </trkpt>
      <trkpt lat="46.55557" lon="5.42168">
        <ele>320.79998779297</ele>
        <time>2022-06-16T13:41:53.000Z</time>
      </trkpt>
      <trkpt lat="46.55547" lon="5.42171">
        <ele>321.79998779297</ele>
        <time>2022-06-16T13:41:56.000Z</time>
      </trkpt>
      <trkpt lat="46.55544" lon="5.42172">
        <ele>322.20001220703</ele>
        <time>2022-06-16T13:41:57.000Z</time>
      </trkpt>
      <trkpt lat="46.55526" lon="5.42177">
        <ele>323</ele>
        <time>2022-06-16T13:42:03.000Z</time>
      </trkpt>
      <trkpt lat="46.55523" lon="5.42178">
        <ele>323.39999389648</ele>
        <time>2022-06-16T13:42:04.000Z</time>
      </trkpt>
      <trkpt lat="46.55516" lon="5.42181">
        <ele>324</ele>
        <time>2022-06-16T13:42:07.000Z</time>
      </trkpt>
      <trkpt lat="46.5551" lon="5.42183">
        <ele>324.79998779297</ele>
        <time>2022-06-16T13:42:09.000Z</time>
      </trkpt>
      <trkpt lat="46.55505" lon="5.42186">
        <ele>325.20001220703</ele>
        <time>2022-06-16T13:42:11.000Z</time>
      </trkpt>
      <trkpt lat="46.55495" lon="5.42191">
        <ele>325.79998779297</ele>
        <time>2022-06-16T13:42:14.000Z</time>
      </trkpt>
      <trkpt lat="46.55488" lon="5.42195">
        <ele>326.39999389648</ele>
        <time>2022-06-16T13:42:16.000Z</time>
      </trkpt>
      <trkpt lat="46.55469" lon="5.42208">
        <ele>327.20001220703</ele>
        <time>2022-06-16T13:42:22.000Z</time>
      </trkpt>
      <trkpt lat="46.55467" lon="5.42211">
        <ele>327.39999389648</ele>
        <time>2022-06-16T13:42:23.000Z</time>
      </trkpt>
      <trkpt lat="46.5545" lon="5.42225">
        <ele>328.60000610352</ele>
        <time>2022-06-16T13:42:29.000Z</time>
      </trkpt>
      <trkpt lat="46.55439" lon="5.42233">
        <ele>330</ele>
        <time>2022-06-16T13:42:33.000Z</time>
      </trkpt>
      <trkpt lat="46.55428" lon="5.42243">
        <ele>331.39999389648</ele>
        <time>2022-06-16T13:42:37.000Z</time>
      </trkpt>
      <trkpt lat="46.55412" lon="5.42258">
        <ele>332.39999389648</ele>
        <time>2022-06-16T13:42:43.000Z</time>
      </trkpt>
      <trkpt lat="46.55403" lon="5.42266">
        <ele>332.79998779297</ele>
        <time>2022-06-16T13:42:46.000Z</time>
      </trkpt>
      <trkpt lat="46.55396" lon="5.42274">
        <ele>333.39999389648</ele>
        <time>2022-06-16T13:42:49.000Z</time>
      </trkpt>
      <trkpt lat="46.55381" lon="5.42291">
        <ele>334.60000610352</ele>
        <time>2022-06-16T13:42:55.000Z</time>
      </trkpt>
      <trkpt lat="46.55377" lon="5.42297">
        <ele>335</ele>
        <time>2022-06-16T13:42:57.000Z</time>
      </trkpt>
      <trkpt lat="46.55366" lon="5.42309">
        <ele>335.60000610352</ele>
        <time>2022-06-16T13:43:01.000Z</time>
      </trkpt>
      <trkpt lat="46.55364" lon="5.42311">
        <ele>335.79998779297</ele>
        <time>2022-06-16T13:43:02.000Z</time>
      </trkpt>
      <trkpt lat="46.55355" lon="5.42318">
        <ele>336.60000610352</ele>
        <time>2022-06-16T13:43:05.000Z</time>
      </trkpt>
      <trkpt lat="46.5535" lon="5.42326">
        <ele>337.39999389648</ele>
        <time>2022-06-16T13:43:07.000Z</time>
      </trkpt>
      <trkpt lat="46.55345" lon="5.42332">
        <ele>338</ele>
        <time>2022-06-16T13:43:09.000Z</time>
      </trkpt>
      <trkpt lat="46.55329" lon="5.42352">
        <ele>339</ele>
        <time>2022-06-16T13:43:15.000Z</time>
      </trkpt>
      <trkpt lat="46.55326" lon="5.42356">
        <ele>339.20001220703</ele>
        <time>2022-06-16T13:43:16.000Z</time>
      </trkpt>
      <trkpt lat="46.55321" lon="5.42368">
        <ele>340</ele>
        <time>2022-06-16T13:43:19.000Z</time>
      </trkpt>
      <trkpt lat="46.55311" lon="5.42379">
        <ele>341</ele>
        <time>2022-06-16T13:43:23.000Z</time>
      </trkpt>
      <trkpt lat="46.55306" lon="5.42388">
        <ele>341.60000610352</ele>
        <time>2022-06-16T13:43:26.000Z</time>
      </trkpt>
      <trkpt lat="46.55297" lon="5.42399">
        <ele>342.39999389648</ele>
        <time>2022-06-16T13:43:30.000Z</time>
      </trkpt>
      <trkpt lat="46.55294" lon="5.42404">
        <ele>343</ele>
        <time>2022-06-16T13:43:32.000Z</time>
      </trkpt>
      <trkpt lat="46.5529" lon="5.42411">
        <ele>343.60000610352</ele>
        <time>2022-06-16T13:43:34.000Z</time>
      </trkpt>
      <trkpt lat="46.55286" lon="5.42423">
        <ele>344.39999389648</ele>
        <time>2022-06-16T13:43:37.000Z</time>
      </trkpt>
      <trkpt lat="46.55283" lon="5.42431">
        <ele>344.79998779297</ele>
        <time>2022-06-16T13:43:39.000Z</time>
      </trkpt>
      <trkpt lat="46.5528" lon="5.42449">
        <ele>345.39999389648</ele>
        <time>2022-06-16T13:43:43.000Z</time>
      </trkpt>
      <trkpt lat="46.55279" lon="5.42454">
        <ele>346</ele>
        <time>2022-06-16T13:43:44.000Z</time>
      </trkpt>
      <trkpt lat="46.55275" lon="5.42475">
        <ele>347.20001220703</ele>
        <time>2022-06-16T13:43:48.000Z</time>
      </trkpt>
      <trkpt lat="46.55274" lon="5.42485">
        <ele>347.39999389648</ele>
        <time>2022-06-16T13:43:50.000Z</time>
      </trkpt>
      <trkpt lat="46.55271" lon="5.42511">
        <ele>348.20001220703</ele>
        <time>2022-06-16T13:43:56.000Z</time>
      </trkpt>
      <trkpt lat="46.55271" lon="5.4252">
        <ele>348.39999389648</ele>
        <time>2022-06-16T13:43:58.000Z</time>
      </trkpt>
      <trkpt lat="46.55271" lon="5.42536">
        <ele>349.39999389648</ele>
        <time>2022-06-16T13:44:02.000Z</time>
      </trkpt>
      <trkpt lat="46.5527" lon="5.42555">
        <ele>350.60000610352</ele>
        <time>2022-06-16T13:44:06.000Z</time>
      </trkpt>
      <trkpt lat="46.5527" lon="5.4256">
        <ele>350.79998779297</ele>
        <time>2022-06-16T13:44:07.000Z</time>
      </trkpt>
      <trkpt lat="46.55269" lon="5.4258">
        <ele>351.60000610352</ele>
        <time>2022-06-16T13:44:12.000Z</time>
      </trkpt>
      <trkpt lat="46.55266" lon="5.42589">
        <ele>352.39999389648</ele>
        <time>2022-06-16T13:44:15.000Z</time>
      </trkpt>
      <trkpt lat="46.55265" lon="5.42592">
        <ele>352.79998779297</ele>
        <time>2022-06-16T13:44:16.000Z</time>
      </trkpt>
      <trkpt lat="46.55262" lon="5.42601">
        <ele>353.79998779297</ele>
        <time>2022-06-16T13:44:19.000Z</time>
      </trkpt>
      <trkpt lat="46.55261" lon="5.42602">
        <ele>353.79998779297</ele>
        <time>2022-06-16T13:44:20.000Z</time>
      </trkpt>
      <trkpt lat="46.55254" lon="5.42602">
        <ele>354.39999389648</ele>
        <time>2022-06-16T13:44:23.000Z</time>
      </trkpt>
      <trkpt lat="46.55251" lon="5.42599">
        <ele>354.60000610352</ele>
        <time>2022-06-16T13:44:24.000Z</time>
      </trkpt>
      <trkpt lat="46.55249" lon="5.42595">
        <ele>355</ele>
        <time>2022-06-16T13:44:25.000Z</time>
      </trkpt>
      <trkpt lat="46.55241" lon="5.42586">
        <ele>355.60000610352</ele>
        <time>2022-06-16T13:44:28.000Z</time>
      </trkpt>
      <trkpt lat="46.55236" lon="5.42583">
        <ele>356.20001220703</ele>
        <time>2022-06-16T13:44:30.000Z</time>
      </trkpt>
      <trkpt lat="46.55228" lon="5.4258">
        <ele>357.39999389648</ele>
        <time>2022-06-16T13:44:33.000Z</time>
      </trkpt>
      <trkpt lat="46.55218" lon="5.42575">
        <ele>358.39999389648</ele>
        <time>2022-06-16T13:44:37.000Z</time>
      </trkpt>
      <trkpt lat="46.55215" lon="5.42573">
        <ele>358.60000610352</ele>
        <time>2022-06-16T13:44:38.000Z</time>
      </trkpt>
      <trkpt lat="46.55208" lon="5.42566">
        <ele>359</ele>
        <time>2022-06-16T13:44:41.000Z</time>
      </trkpt>
      <trkpt lat="46.55203" lon="5.42557">
        <ele>359.79998779297</ele>
        <time>2022-06-16T13:44:44.000Z</time>
      </trkpt>
      <trkpt lat="46.55198" lon="5.4255">
        <ele>360.39999389648</ele>
        <time>2022-06-16T13:44:47.000Z</time>
      </trkpt>
      <trkpt lat="46.55191" lon="5.42544">
        <ele>360.60000610352</ele>
        <time>2022-06-16T13:44:50.000Z</time>
      </trkpt>
      <trkpt lat="46.55186" lon="5.42539">
        <ele>361.20001220703</ele>
        <time>2022-06-16T13:44:52.000Z</time>
      </trkpt>
      <trkpt lat="46.55178" lon="5.42532">
        <ele>361.79998779297</ele>
        <time>2022-06-16T13:44:54.000Z</time>
      </trkpt>
      <trkpt lat="46.55166" lon="5.42517">
        <ele>362</ele>
        <time>2022-06-16T13:44:57.000Z</time>
      </trkpt>
      <trkpt lat="46.55154" lon="5.42484">
        <ele>362.20001220703</ele>
        <time>2022-06-16T13:45:02.000Z</time>
      </trkpt>
      <trkpt lat="46.55151" lon="5.42464">
        <ele>362.60000610352</ele>
        <time>2022-06-16T13:45:06.000Z</time>
      </trkpt>
      <trkpt lat="46.55148" lon="5.42455">
        <ele>362.79998779297</ele>
        <time>2022-06-16T13:45:08.000Z</time>
      </trkpt>
      <trkpt lat="46.55142" lon="5.42434">
        <ele>363.79998779297</ele>
        <time>2022-06-16T13:45:12.000Z</time>
      </trkpt>
      <trkpt lat="46.55142" lon="5.4243">
        <ele>364.20001220703</ele>
        <time>2022-06-16T13:45:13.000Z</time>
      </trkpt>
      <trkpt lat="46.5514" lon="5.42407">
        <ele>364.79998779297</ele>
        <time>2022-06-16T13:45:18.000Z</time>
      </trkpt>
      <trkpt lat="46.55139" lon="5.42402">
        <ele>365.20001220703</ele>
        <time>2022-06-16T13:45:19.000Z</time>
      </trkpt>
      <trkpt lat="46.55136" lon="5.42387">
        <ele>365.79998779297</ele>
        <time>2022-06-16T13:45:22.000Z</time>
      </trkpt>
      <trkpt lat="46.55135" lon="5.42377">
        <ele>366.20001220703</ele>
        <time>2022-06-16T13:45:24.000Z</time>
      </trkpt>
      <trkpt lat="46.55133" lon="5.42355">
        <ele>366.60000610352</ele>
        <time>2022-06-16T13:45:28.000Z</time>
      </trkpt>
      <trkpt lat="46.55133" lon="5.42339">
        <ele>367.20001220703</ele>
        <time>2022-06-16T13:45:31.000Z</time>
      </trkpt>
      <trkpt lat="46.55133" lon="5.42322">
        <ele>367.79998779297</ele>
        <time>2022-06-16T13:45:34.000Z</time>
      </trkpt>
      <trkpt lat="46.55134" lon="5.42303">
        <ele>368.20001220703</ele>
        <time>2022-06-16T13:45:37.000Z</time>
      </trkpt>
      <trkpt lat="46.55133" lon="5.42299">
        <ele>368.60000610352</ele>
        <time>2022-06-16T13:45:38.000Z</time>
      </trkpt>
      <trkpt lat="46.55131" lon="5.42274">
        <ele>369.39999389648</ele>
        <time>2022-06-16T13:45:43.000Z</time>
      </trkpt>
      <trkpt lat="46.55127" lon="5.42255">
        <ele>369.60000610352</ele>
        <time>2022-06-16T13:45:47.000Z</time>
      </trkpt>
      <trkpt lat="46.55121" lon="5.4224">
        <ele>370.39999389648</ele>
        <time>2022-06-16T13:45:51.000Z</time>
      </trkpt>
      <trkpt lat="46.55115" lon="5.42223">
        <ele>371.60000610352</ele>
        <time>2022-06-16T13:45:56.000Z</time>
      </trkpt>
      <trkpt lat="46.55113" lon="5.42207">
        <ele>372.60000610352</ele>
        <time>2022-06-16T13:45:59.000Z</time>
      </trkpt>
      <trkpt lat="46.55112" lon="5.422">
        <ele>372.60000610352</ele>
        <time>2022-06-16T13:46:00.000Z</time>
      </trkpt>
      <trkpt lat="46.55111" lon="5.4219">
        <ele>373</ele>
        <time>2022-06-16T13:46:02.000Z</time>
      </trkpt>
      <trkpt lat="46.55111" lon="5.42177">
        <ele>373.20001220703</ele>
        <time>2022-06-16T13:46:05.000Z</time>
      </trkpt>
      <trkpt lat="46.55112" lon="5.42173">
        <ele>373.20001220703</ele>
        <time>2022-06-16T13:46:06.000Z</time>
      </trkpt>
      <trkpt lat="46.55114" lon="5.42164">
        <ele>373.79998779297</ele>
        <time>2022-06-16T13:46:08.000Z</time>
      </trkpt>
      <trkpt lat="46.55114" lon="5.42158">
        <ele>374</ele>
        <time>2022-06-16T13:46:09.000Z</time>
      </trkpt>
      <trkpt lat="46.55112" lon="5.42153">
        <ele>374.20001220703</ele>
        <time>2022-06-16T13:46:10.000Z</time>
      </trkpt>
      <trkpt lat="46.55107" lon="5.42138">
        <ele>374.79998779297</ele>
        <time>2022-06-16T13:46:13.000Z</time>
      </trkpt>
      <trkpt lat="46.55099" lon="5.42125">
        <ele>375.60000610352</ele>
        <time>2022-06-16T13:46:16.000Z</time>
      </trkpt>
      <trkpt lat="46.55095" lon="5.42118">
        <ele>376</ele>
        <time>2022-06-16T13:46:18.000Z</time>
      </trkpt>
      <trkpt lat="46.55082" lon="5.42111">
        <ele>376.79998779297</ele>
        <time>2022-06-16T13:46:23.000Z</time>
      </trkpt>
      <trkpt lat="46.55079" lon="5.42109">
        <ele>377</ele>
        <time>2022-06-16T13:46:24.000Z</time>
      </trkpt>
      <trkpt lat="46.55077" lon="5.42108">
        <ele>377.20001220703</ele>
        <time>2022-06-16T13:46:25.000Z</time>
      </trkpt>
      <trkpt lat="46.55063" lon="5.42103">
        <ele>378.39999389648</ele>
        <time>2022-06-16T13:46:30.000Z</time>
      </trkpt>
      <trkpt lat="46.5506" lon="5.42102">
        <ele>378.79998779297</ele>
        <time>2022-06-16T13:46:31.000Z</time>
      </trkpt>
      <trkpt lat="46.55052" lon="5.42104">
        <ele>379.79998779297</ele>
        <time>2022-06-16T13:46:34.000Z</time>
      </trkpt>
      <trkpt lat="46.55042" lon="5.42107">
        <ele>380.39999389648</ele>
        <time>2022-06-16T13:46:38.000Z</time>
      </trkpt>
      <trkpt lat="46.55036" lon="5.42107">
        <ele>380.79998779297</ele>
        <time>2022-06-16T13:46:40.000Z</time>
      </trkpt>
      <trkpt lat="46.55026" lon="5.42109">
        <ele>382</ele>
        <time>2022-06-16T13:46:44.000Z</time>
      </trkpt>
      <trkpt lat="46.55023" lon="5.4211">
        <ele>382.20001220703</ele>
        <time>2022-06-16T13:46:45.000Z</time>
      </trkpt>
      <trkpt lat="46.55016" lon="5.42114">
        <ele>383</ele>
        <time>2022-06-16T13:46:48.000Z</time>
      </trkpt>
      <trkpt lat="46.55006" lon="5.42117">
        <ele>383.79998779297</ele>
        <time>2022-06-16T13:46:51.000Z</time>
      </trkpt>
      <trkpt lat="46.54999" lon="5.42119">
        <ele>384.20001220703</ele>
        <time>2022-06-16T13:46:53.000Z</time>
      </trkpt>
      <trkpt lat="46.54979" lon="5.42126">
        <ele>385.20001220703</ele>
        <time>2022-06-16T13:46:59.000Z</time>
      </trkpt>
      <trkpt lat="46.54962" lon="5.42132">
        <ele>386.39999389648</ele>
        <time>2022-06-16T13:47:04.000Z</time>
      </trkpt>
      <trkpt lat="46.54957" lon="5.42134">
        <ele>386.79998779297</ele>
        <time>2022-06-16T13:47:06.000Z</time>
      </trkpt>
      <trkpt lat="46.54954" lon="5.42133">
        <ele>387.20001220703</ele>
        <time>2022-06-16T13:47:07.000Z</time>
      </trkpt>
      <trkpt lat="46.54951" lon="5.42135">
        <ele>387.39999389648</ele>
        <time>2022-06-16T13:47:08.000Z</time>
      </trkpt>
      <trkpt lat="46.54942" lon="5.42141">
        <ele>388.60000610352</ele>
        <time>2022-06-16T13:47:12.000Z</time>
      </trkpt>
      <trkpt lat="46.54932" lon="5.42145">
        <ele>389.60000610352</ele>
        <time>2022-06-16T13:47:16.000Z</time>
      </trkpt>
      <trkpt lat="46.54918" lon="5.42152">
        <ele>390.60000610352</ele>
        <time>2022-06-16T13:47:21.000Z</time>
      </trkpt>
      <trkpt lat="46.54911" lon="5.42155">
        <ele>390.79998779297</ele>
        <time>2022-06-16T13:47:23.000Z</time>
      </trkpt>
      <trkpt lat="46.54898" lon="5.42165">
        <ele>391.39999389648</ele>
        <time>2022-06-16T13:47:27.000Z</time>
      </trkpt>
      <trkpt lat="46.54887" lon="5.42172">
        <ele>392</ele>
        <time>2022-06-16T13:47:30.000Z</time>
      </trkpt>
      <trkpt lat="46.54874" lon="5.42183">
        <ele>392.60000610352</ele>
        <time>2022-06-16T13:47:34.000Z</time>
      </trkpt>
      <trkpt lat="46.54868" lon="5.42188">
        <ele>393</ele>
        <time>2022-06-16T13:47:36.000Z</time>
      </trkpt>
      <trkpt lat="46.54849" lon="5.42203">
        <ele>393.79998779297</ele>
        <time>2022-06-16T13:47:41.000Z</time>
      </trkpt>
      <trkpt lat="46.54845" lon="5.42207">
        <ele>394</ele>
        <time>2022-06-16T13:47:42.000Z</time>
      </trkpt>
      <trkpt lat="46.54826" lon="5.4223">
        <ele>394.39999389648</ele>
        <time>2022-06-16T13:47:48.000Z</time>
      </trkpt>
      <trkpt lat="46.54809" lon="5.42257">
        <ele>395.20001220703</ele>
        <time>2022-06-16T13:47:54.000Z</time>
      </trkpt>
      <trkpt lat="46.54803" lon="5.42267">
        <ele>395.20001220703</ele>
        <time>2022-06-16T13:47:56.000Z</time>
      </trkpt>
      <trkpt lat="46.54782" lon="5.42297">
        <ele>396.20001220703</ele>
        <time>2022-06-16T13:48:03.000Z</time>
      </trkpt>
      <trkpt lat="46.54776" lon="5.42306">
        <ele>396.79998779297</ele>
        <time>2022-06-16T13:48:05.000Z</time>
      </trkpt>
      <trkpt lat="46.54768" lon="5.42318">
        <ele>397.39999389648</ele>
        <time>2022-06-16T13:48:08.000Z</time>
      </trkpt>
      <trkpt lat="46.54766" lon="5.42321">
        <ele>397.60000610352</ele>
        <time>2022-06-16T13:48:09.000Z</time>
      </trkpt>
      <trkpt lat="46.54758" lon="5.42343">
        <ele>398.79998779297</ele>
        <time>2022-06-16T13:48:14.000Z</time>
      </trkpt>
      <trkpt lat="46.54756" lon="5.42346">
        <ele>399.20001220703</ele>
        <time>2022-06-16T13:48:15.000Z</time>
      </trkpt>
      <trkpt lat="46.54751" lon="5.42363">
        <ele>400</ele>
        <time>2022-06-16T13:48:19.000Z</time>
      </trkpt>
      <trkpt lat="46.54744" lon="5.42378">
        <ele>400.79998779297</ele>
        <time>2022-06-16T13:48:23.000Z</time>
      </trkpt>
      <trkpt lat="46.54742" lon="5.42382">
        <ele>401.20001220703</ele>
        <time>2022-06-16T13:48:24.000Z</time>
      </trkpt>
      <trkpt lat="46.54729" lon="5.42394">
        <ele>402.20001220703</ele>
        <time>2022-06-16T13:48:29.000Z</time>
      </trkpt>
      <trkpt lat="46.54726" lon="5.42395">
        <ele>402.39999389648</ele>
        <time>2022-06-16T13:48:30.000Z</time>
      </trkpt>
      <trkpt lat="46.5471" lon="5.42403">
        <ele>403.39999389648</ele>
        <time>2022-06-16T13:48:35.000Z</time>
      </trkpt>
      <trkpt lat="46.54698" lon="5.42405">
        <ele>404</ele>
        <time>2022-06-16T13:48:38.000Z</time>
      </trkpt>
      <trkpt lat="46.5467" lon="5.42405">
        <ele>404.60000610352</ele>
        <time>2022-06-16T13:48:45.000Z</time>
      </trkpt>
      <trkpt lat="46.54657" lon="5.42409">
        <ele>405</ele>
        <time>2022-06-16T13:48:48.000Z</time>
      </trkpt>
      <trkpt lat="46.54644" lon="5.42418">
        <ele>405.39999389648</ele>
        <time>2022-06-16T13:48:51.000Z</time>
      </trkpt>
      <trkpt lat="46.5464" lon="5.4242">
        <ele>405.39999389648</ele>
        <time>2022-06-16T13:48:52.000Z</time>
      </trkpt>
      <trkpt lat="46.5463" lon="5.42421">
        <ele>405.39999389648</ele>
        <time>2022-06-16T13:48:54.000Z</time>
      </trkpt>
      <trkpt lat="46.54625" lon="5.4242">
        <ele>405.39999389648</ele>
        <time>2022-06-16T13:48:55.000Z</time>
      </trkpt>
      <trkpt lat="46.54621" lon="5.42418">
        <ele>405.39999389648</ele>
        <time>2022-06-16T13:48:56.000Z</time>
      </trkpt>
      <trkpt lat="46.54603" lon="5.42403">
        <ele>405.20001220703</ele>
        <time>2022-06-16T13:49:00.000Z</time>
      </trkpt>
      <trkpt lat="46.54585" lon="5.42386">
        <ele>405.60000610352</ele>
        <time>2022-06-16T13:49:05.000Z</time>
      </trkpt>
      <trkpt lat="46.54582" lon="5.42382">
        <ele>405.60000610352</ele>
        <time>2022-06-16T13:49:06.000Z</time>
      </trkpt>
      <trkpt lat="46.54563" lon="5.42369">
        <ele>406.39999389648</ele>
        <time>2022-06-16T13:49:11.000Z</time>
      </trkpt>
      <trkpt lat="46.54556" lon="5.42365">
        <ele>406.79998779297</ele>
        <time>2022-06-16T13:49:13.000Z</time>
      </trkpt>
      <trkpt lat="46.54541" lon="5.42363">
        <ele>407.39999389648</ele>
        <time>2022-06-16T13:49:17.000Z</time>
      </trkpt>
      <trkpt lat="46.5453" lon="5.42366">
        <ele>408.20001220703</ele>
        <time>2022-06-16T13:49:20.000Z</time>
      </trkpt>
      <trkpt lat="46.54519" lon="5.42372">
        <ele>408.60000610352</ele>
        <time>2022-06-16T13:49:23.000Z</time>
      </trkpt>
      <trkpt lat="46.54508" lon="5.4238">
        <ele>409.20001220703</ele>
        <time>2022-06-16T13:49:26.000Z</time>
      </trkpt>
      <trkpt lat="46.54495" lon="5.42391">
        <ele>410.39999389648</ele>
        <time>2022-06-16T13:49:30.000Z</time>
      </trkpt>
      <trkpt lat="46.54485" lon="5.42397">
        <ele>411</ele>
        <time>2022-06-16T13:49:33.000Z</time>
      </trkpt>
      <trkpt lat="46.54478" lon="5.424">
        <ele>411.39999389648</ele>
        <time>2022-06-16T13:49:35.000Z</time>
      </trkpt>
      <trkpt lat="46.54461" lon="5.42402">
        <ele>412.39999389648</ele>
        <time>2022-06-16T13:49:40.000Z</time>
      </trkpt>
      <trkpt lat="46.54458" lon="5.42402">
        <ele>412.60000610352</ele>
        <time>2022-06-16T13:49:41.000Z</time>
      </trkpt>
      <trkpt lat="46.54444" lon="5.42396">
        <ele>413.60000610352</ele>
        <time>2022-06-16T13:49:45.000Z</time>
      </trkpt>
      <trkpt lat="46.54438" lon="5.42392">
        <ele>414</ele>
        <time>2022-06-16T13:49:47.000Z</time>
      </trkpt>
      <trkpt lat="46.54429" lon="5.42383">
        <ele>414.79998779297</ele>
        <time>2022-06-16T13:49:50.000Z</time>
      </trkpt>
      <trkpt lat="46.54415" lon="5.42367">
        <ele>415.79998779297</ele>
        <time>2022-06-16T13:49:55.000Z</time>
      </trkpt>
      <trkpt lat="46.54412" lon="5.42363">
        <ele>416</ele>
        <time>2022-06-16T13:49:56.000Z</time>
      </trkpt>
      <trkpt lat="46.54395" lon="5.42345">
        <ele>416.79998779297</ele>
        <time>2022-06-16T13:50:02.000Z</time>
      </trkpt>
      <trkpt lat="46.54383" lon="5.42334">
        <ele>418</ele>
        <time>2022-06-16T13:50:07.000Z</time>
      </trkpt>
      <trkpt lat="46.54375" lon="5.42324">
        <ele>419.39999389648</ele>
        <time>2022-06-16T13:50:11.000Z</time>
      </trkpt>
      <trkpt lat="46.5437" lon="5.42319">
        <ele>420</ele>
        <time>2022-06-16T13:50:13.000Z</time>
      </trkpt>
      <trkpt lat="46.54361" lon="5.42312">
        <ele>420.60000610352</ele>
        <time>2022-06-16T13:50:16.000Z</time>
      </trkpt>
      <trkpt lat="46.54342" lon="5.42298">
        <ele>421</ele>
        <time>2022-06-16T13:50:22.000Z</time>
      </trkpt>
      <trkpt lat="46.54325" lon="5.42291">
        <ele>421.79998779297</ele>
        <time>2022-06-16T13:50:27.000Z</time>
      </trkpt>
      <trkpt lat="46.54315" lon="5.42288">
        <ele>422.60000610352</ele>
        <time>2022-06-16T13:50:30.000Z</time>
      </trkpt>
      <trkpt lat="46.54309" lon="5.42287">
        <ele>423</ele>
        <time>2022-06-16T13:50:32.000Z</time>
      </trkpt>
      <trkpt lat="46.54292" lon="5.42283">
        <ele>424</ele>
        <time>2022-06-16T13:50:37.000Z</time>
      </trkpt>
      <trkpt lat="46.54277" lon="5.42282">
        <ele>425</ele>
        <time>2022-06-16T13:50:42.000Z</time>
      </trkpt>
      <trkpt lat="46.54272" lon="5.42281">
        <ele>425.39999389648</ele>
        <time>2022-06-16T13:50:43.000Z</time>
      </trkpt>
      <trkpt lat="46.54258" lon="5.42276">
        <ele>426.60000610352</ele>
        <time>2022-06-16T13:50:47.000Z</time>
      </trkpt>
      <trkpt lat="46.54255" lon="5.42274">
        <ele>426.79998779297</ele>
        <time>2022-06-16T13:50:48.000Z</time>
      </trkpt>
      <trkpt lat="46.54237" lon="5.42269">
        <ele>428</ele>
        <time>2022-06-16T13:50:53.000Z</time>
      </trkpt>
      <trkpt lat="46.5423" lon="5.42267">
        <ele>428.60000610352</ele>
        <time>2022-06-16T13:50:55.000Z</time>
      </trkpt>
      <trkpt lat="46.5422" lon="5.42265">
        <ele>429.20001220703</ele>
        <time>2022-06-16T13:50:58.000Z</time>
      </trkpt>
      <trkpt lat="46.54212" lon="5.42262">
        <ele>429.79998779297</ele>
        <time>2022-06-16T13:51:01.000Z</time>
      </trkpt>
      <trkpt lat="46.54203" lon="5.42255">
        <ele>430.20001220703</ele>
        <time>2022-06-16T13:51:04.000Z</time>
      </trkpt>
      <trkpt lat="46.54197" lon="5.42251">
        <ele>430.60000610352</ele>
        <time>2022-06-16T13:51:06.000Z</time>
      </trkpt>
      <trkpt lat="46.54191" lon="5.42245">
        <ele>431.20001220703</ele>
        <time>2022-06-16T13:51:08.000Z</time>
      </trkpt>
      <trkpt lat="46.54182" lon="5.4223">
        <ele>432.20001220703</ele>
        <time>2022-06-16T13:51:12.000Z</time>
      </trkpt>
      <trkpt lat="46.54181" lon="5.42226">
        <ele>432.39999389648</ele>
        <time>2022-06-16T13:51:13.000Z</time>
      </trkpt>
      <trkpt lat="46.54171" lon="5.42208">
        <ele>433.39999389648</ele>
        <time>2022-06-16T13:51:18.000Z</time>
      </trkpt>
      <trkpt lat="46.54163" lon="5.42194">
        <ele>433.79998779297</ele>
        <time>2022-06-16T13:51:20.000Z</time>
      </trkpt>
      <trkpt lat="46.54155" lon="5.42181">
        <ele>434.60000610352</ele>
        <time>2022-06-16T13:51:22.000Z</time>
      </trkpt>
      <trkpt lat="46.54149" lon="5.42172">
        <ele>435.20001220703</ele>
        <time>2022-06-16T13:51:24.000Z</time>
      </trkpt>
      <trkpt lat="46.54139" lon="5.42152">
        <ele>435.60000610352</ele>
        <time>2022-06-16T13:51:29.000Z</time>
      </trkpt>
      <trkpt lat="46.54134" lon="5.42145">
        <ele>436</ele>
        <time>2022-06-16T13:51:31.000Z</time>
      </trkpt>
      <trkpt lat="46.54125" lon="5.42128">
        <ele>436.60000610352</ele>
        <time>2022-06-16T13:51:36.000Z</time>
      </trkpt>
      <trkpt lat="46.54116" lon="5.42118">
        <ele>437.39999389648</ele>
        <time>2022-06-16T13:51:39.000Z</time>
      </trkpt>
      <trkpt lat="46.54113" lon="5.42114">
        <ele>437.60000610352</ele>
        <time>2022-06-16T13:51:40.000Z</time>
      </trkpt>
      <trkpt lat="46.54106" lon="5.42108">
        <ele>438.20001220703</ele>
        <time>2022-06-16T13:51:42.000Z</time>
      </trkpt>
      <trkpt lat="46.54095" lon="5.42099">
        <ele>438.60000610352</ele>
        <time>2022-06-16T13:51:45.000Z</time>
      </trkpt>
      <trkpt lat="46.54082" lon="5.42087">
        <ele>439.20001220703</ele>
        <time>2022-06-16T13:51:49.000Z</time>
      </trkpt>
      <trkpt lat="46.54068" lon="5.42076">
        <ele>439.60000610352</ele>
        <time>2022-06-16T13:51:53.000Z</time>
      </trkpt>
      <trkpt lat="46.54045" lon="5.4206">
        <ele>441</ele>
        <time>2022-06-16T13:52:00.000Z</time>
      </trkpt>
      <trkpt lat="46.54041" lon="5.42058">
        <ele>441</ele>
        <time>2022-06-16T13:52:01.000Z</time>
      </trkpt>
      <trkpt lat="46.54024" lon="5.42047">
        <ele>442</ele>
        <time>2022-06-16T13:52:06.000Z</time>
      </trkpt>
      <trkpt lat="46.5401" lon="5.42038">
        <ele>442.60000610352</ele>
        <time>2022-06-16T13:52:10.000Z</time>
      </trkpt>
      <trkpt lat="46.54001" lon="5.42032">
        <ele>443</ele>
        <time>2022-06-16T13:52:13.000Z</time>
      </trkpt>
      <trkpt lat="46.53988" lon="5.42026">
        <ele>444</ele>
        <time>2022-06-16T13:52:17.000Z</time>
      </trkpt>
      <trkpt lat="46.53981" lon="5.42024">
        <ele>444.39999389648</ele>
        <time>2022-06-16T13:52:19.000Z</time>
      </trkpt>
      <trkpt lat="46.53973" lon="5.42026">
        <ele>444.39999389648</ele>
        <time>2022-06-16T13:52:21.000Z</time>
      </trkpt>
      <trkpt lat="46.53949" lon="5.42041">
        <ele>445.20001220703</ele>
        <time>2022-06-16T13:52:28.000Z</time>
      </trkpt>
      <trkpt lat="46.53946" lon="5.42043">
        <ele>445.20001220703</ele>
        <time>2022-06-16T13:52:29.000Z</time>
      </trkpt>
      <trkpt lat="46.53924" lon="5.42048">
        <ele>446.39999389648</ele>
        <time>2022-06-16T13:52:35.000Z</time>
      </trkpt>
      <trkpt lat="46.53918" lon="5.42048">
        <ele>446.79998779297</ele>
        <time>2022-06-16T13:52:37.000Z</time>
      </trkpt>
      <trkpt lat="46.53906" lon="5.42047">
        <ele>447.39999389648</ele>
        <time>2022-06-16T13:52:41.000Z</time>
      </trkpt>
      <trkpt lat="46.53901" lon="5.42046">
        <ele>447.79998779297</ele>
        <time>2022-06-16T13:52:43.000Z</time>
      </trkpt>
      <trkpt lat="46.53892" lon="5.42046">
        <ele>448.60000610352</ele>
        <time>2022-06-16T13:52:46.000Z</time>
      </trkpt>
      <trkpt lat="46.53877" lon="5.42044">
        <ele>449.79998779297</ele>
        <time>2022-06-16T13:52:51.000Z</time>
      </trkpt>
      <trkpt lat="46.53874" lon="5.42043">
        <ele>450.39999389648</ele>
        <time>2022-06-16T13:52:52.000Z</time>
      </trkpt>
      <trkpt lat="46.53868" lon="5.42041">
        <ele>450.79998779297</ele>
        <time>2022-06-16T13:52:54.000Z</time>
      </trkpt>
      <trkpt lat="46.53859" lon="5.42046">
        <ele>451.20001220703</ele>
        <time>2022-06-16T13:52:57.000Z</time>
      </trkpt>
      <trkpt lat="46.53856" lon="5.42053">
        <ele>452</ele>
        <time>2022-06-16T13:52:59.000Z</time>
      </trkpt>
      <trkpt lat="46.53854" lon="5.42064">
        <ele>452.39999389648</ele>
        <time>2022-06-16T13:53:02.000Z</time>
      </trkpt>
      <trkpt lat="46.53853" lon="5.42076">
        <ele>453.20001220703</ele>
        <time>2022-06-16T13:53:05.000Z</time>
      </trkpt>
      <trkpt lat="46.53853" lon="5.42093">
        <ele>454</ele>
        <time>2022-06-16T13:53:09.000Z</time>
      </trkpt>
      <trkpt lat="46.53853" lon="5.42097">
        <ele>454.39999389648</ele>
        <time>2022-06-16T13:53:10.000Z</time>
      </trkpt>
      <trkpt lat="46.53852" lon="5.42118">
        <ele>455.60000610352</ele>
        <time>2022-06-16T13:53:15.000Z</time>
      </trkpt>
      <trkpt lat="46.53852" lon="5.4213">
        <ele>456.20001220703</ele>
        <time>2022-06-16T13:53:18.000Z</time>
      </trkpt>
      <trkpt lat="46.53851" lon="5.42138">
        <ele>456.60000610352</ele>
        <time>2022-06-16T13:53:20.000Z</time>
      </trkpt>
      <trkpt lat="46.53847" lon="5.42149">
        <ele>457.79998779297</ele>
        <time>2022-06-16T13:53:23.000Z</time>
      </trkpt>
      <trkpt lat="46.53846" lon="5.42152">
        <ele>458</ele>
        <time>2022-06-16T13:53:24.000Z</time>
      </trkpt>
      <trkpt lat="46.53839" lon="5.42158">
        <ele>459</ele>
        <time>2022-06-16T13:53:27.000Z</time>
      </trkpt>
      <trkpt lat="46.5383" lon="5.4216">
        <ele>459.60000610352</ele>
        <time>2022-06-16T13:53:30.000Z</time>
      </trkpt>
      <trkpt lat="46.53824" lon="5.4216">
        <ele>460</ele>
        <time>2022-06-16T13:53:32.000Z</time>
      </trkpt>
      <trkpt lat="46.53807" lon="5.42157">
        <ele>460.79998779297</ele>
        <time>2022-06-16T13:53:37.000Z</time>
      </trkpt>
      <trkpt lat="46.53794" lon="5.42152">
        <ele>461</ele>
        <time>2022-06-16T13:53:41.000Z</time>
      </trkpt>
      <trkpt lat="46.53779" lon="5.42145">
        <ele>461.79998779297</ele>
        <time>2022-06-16T13:53:45.000Z</time>
      </trkpt>
      <trkpt lat="46.53773" lon="5.42141">
        <ele>462.20001220703</ele>
        <time>2022-06-16T13:53:47.000Z</time>
      </trkpt>
      <trkpt lat="46.53755" lon="5.42129">
        <ele>463.39999389648</ele>
        <time>2022-06-16T13:53:53.000Z</time>
      </trkpt>
      <trkpt lat="46.53745" lon="5.42123">
        <ele>464.39999389648</ele>
        <time>2022-06-16T13:53:56.000Z</time>
      </trkpt>
      <trkpt lat="46.53733" lon="5.42118">
        <ele>464.79998779297</ele>
        <time>2022-06-16T13:54:00.000Z</time>
      </trkpt>
      <trkpt lat="46.53723" lon="5.42121">
        <ele>465.39999389648</ele>
        <time>2022-06-16T13:54:03.000Z</time>
      </trkpt>
      <trkpt lat="46.53721" lon="5.42124">
        <ele>465.79998779297</ele>
        <time>2022-06-16T13:54:04.000Z</time>
      </trkpt>
      <trkpt lat="46.53719" lon="5.42136">
        <ele>466.39999389648</ele>
        <time>2022-06-16T13:54:07.000Z</time>
      </trkpt>
      <trkpt lat="46.53721" lon="5.42141">
        <ele>466.60000610352</ele>
        <time>2022-06-16T13:54:08.000Z</time>
      </trkpt>
      <trkpt lat="46.53727" lon="5.42153">
        <ele>467.60000610352</ele>
        <time>2022-06-16T13:54:11.000Z</time>
      </trkpt>
      <trkpt lat="46.5373" lon="5.42157">
        <ele>467.79998779297</ele>
        <time>2022-06-16T13:54:12.000Z</time>
      </trkpt>
      <trkpt lat="46.53743" lon="5.42176">
        <ele>468.79998779297</ele>
        <time>2022-06-16T13:54:17.000Z</time>
      </trkpt>
      <trkpt lat="46.5375" lon="5.42189">
        <ele>469.60000610352</ele>
        <time>2022-06-16T13:54:20.000Z</time>
      </trkpt>
      <trkpt lat="46.53754" lon="5.42196">
        <ele>470</ele>
        <time>2022-06-16T13:54:22.000Z</time>
      </trkpt>
      <trkpt lat="46.53766" lon="5.42216">
        <ele>471.20001220703</ele>
        <time>2022-06-16T13:54:27.000Z</time>
      </trkpt>
      <trkpt lat="46.5377" lon="5.42225">
        <ele>471.39999389648</ele>
        <time>2022-06-16T13:54:29.000Z</time>
      </trkpt>
      <trkpt lat="46.53777" lon="5.42237">
        <ele>472.39999389648</ele>
        <time>2022-06-16T13:54:32.000Z</time>
      </trkpt>
      <trkpt lat="46.53785" lon="5.42252">
        <ele>473.20001220703</ele>
        <time>2022-06-16T13:54:36.000Z</time>
      </trkpt>
      <trkpt lat="46.53791" lon="5.42263">
        <ele>473.60000610352</ele>
        <time>2022-06-16T13:54:39.000Z</time>
      </trkpt>
      <trkpt lat="46.53795" lon="5.42271">
        <ele>473.60000610352</ele>
        <time>2022-06-16T13:54:41.000Z</time>
      </trkpt>
      <trkpt lat="46.53802" lon="5.42283">
        <ele>474.39999389648</ele>
        <time>2022-06-16T13:54:44.000Z</time>
      </trkpt>
      <trkpt lat="46.53811" lon="5.42302">
        <ele>475.39999389648</ele>
        <time>2022-06-16T13:54:49.000Z</time>
      </trkpt>
      <trkpt lat="46.53813" lon="5.42306">
        <ele>475.60000610352</ele>
        <time>2022-06-16T13:54:50.000Z</time>
      </trkpt>
      <trkpt lat="46.5382" lon="5.42319">
        <ele>476.79998779297</ele>
        <time>2022-06-16T13:54:53.000Z</time>
      </trkpt>
      <trkpt lat="46.53828" lon="5.42337">
        <ele>477.60000610352</ele>
        <time>2022-06-16T13:54:57.000Z</time>
      </trkpt>
      <trkpt lat="46.5383" lon="5.42341">
        <ele>477.79998779297</ele>
        <time>2022-06-16T13:54:58.000Z</time>
      </trkpt>
      <trkpt lat="46.5384" lon="5.42362">
        <ele>478.79998779297</ele>
        <time>2022-06-16T13:55:03.000Z</time>
      </trkpt>
      <trkpt lat="46.53845" lon="5.42379">
        <ele>479.79998779297</ele>
        <time>2022-06-16T13:55:07.000Z</time>
      </trkpt>
      <trkpt lat="46.53845" lon="5.42384">
        <ele>480</ele>
        <time>2022-06-16T13:55:08.000Z</time>
      </trkpt>
      <trkpt lat="46.53843" lon="5.42397">
        <ele>480.79998779297</ele>
        <time>2022-06-16T13:55:11.000Z</time>
      </trkpt>
      <trkpt lat="46.53839" lon="5.42405">
        <ele>481.20001220703</ele>
        <time>2022-06-16T13:55:13.000Z</time>
      </trkpt>
      <trkpt lat="46.53829" lon="5.42409">
        <ele>481.79998779297</ele>
        <time>2022-06-16T13:55:16.000Z</time>
      </trkpt>
      <trkpt lat="46.53822" lon="5.42406">
        <ele>482.39999389648</ele>
        <time>2022-06-16T13:55:18.000Z</time>
      </trkpt>
      <trkpt lat="46.5381" lon="5.42398">
        <ele>483</ele>
        <time>2022-06-16T13:55:21.000Z</time>
      </trkpt>
      <trkpt lat="46.53798" lon="5.42385">
        <ele>483.20001220703</ele>
        <time>2022-06-16T13:55:24.000Z</time>
      </trkpt>
      <trkpt lat="46.53788" lon="5.42374">
        <ele>483</ele>
        <time>2022-06-16T13:55:26.000Z</time>
      </trkpt>
      <trkpt lat="46.53775" lon="5.42368">
        <ele>482.39999389648</ele>
        <time>2022-06-16T13:55:28.000Z</time>
      </trkpt>
      <trkpt lat="46.53768" lon="5.42367">
        <ele>482.20001220703</ele>
        <time>2022-06-16T13:55:29.000Z</time>
      </trkpt>
      <trkpt lat="46.53762" lon="5.42368">
        <ele>481.79998779297</ele>
        <time>2022-06-16T13:55:30.000Z</time>
      </trkpt>
      <trkpt lat="46.53749" lon="5.42371">
        <ele>481.20001220703</ele>
        <time>2022-06-16T13:55:32.000Z</time>
      </trkpt>
      <trkpt lat="46.53735" lon="5.42377">
        <ele>480.39999389648</ele>
        <time>2022-06-16T13:55:34.000Z</time>
      </trkpt>
      <trkpt lat="46.53728" lon="5.42384">
        <ele>480</ele>
        <time>2022-06-16T13:55:35.000Z</time>
      </trkpt>
      <trkpt lat="46.53723" lon="5.42393">
        <ele>479.79998779297</ele>
        <time>2022-06-16T13:55:36.000Z</time>
      </trkpt>
      <trkpt lat="46.53723" lon="5.42404">
        <ele>479</ele>
        <time>2022-06-16T13:55:37.000Z</time>
      </trkpt>
      <trkpt lat="46.53724" lon="5.42416">
        <ele>478.79998779297</ele>
        <time>2022-06-16T13:55:38.000Z</time>
      </trkpt>
      <trkpt lat="46.53731" lon="5.42442">
        <ele>478</ele>
        <time>2022-06-16T13:55:40.000Z</time>
      </trkpt>
      <trkpt lat="46.53735" lon="5.42454">
        <ele>477</ele>
        <time>2022-06-16T13:55:41.000Z</time>
      </trkpt>
      <trkpt lat="46.53742" lon="5.42474">
        <ele>476</ele>
        <time>2022-06-16T13:55:43.000Z</time>
      </trkpt>
      <trkpt lat="46.53744" lon="5.42482">
        <ele>475.39999389648</ele>
        <time>2022-06-16T13:55:44.000Z</time>
      </trkpt>
      <trkpt lat="46.53742" lon="5.42489">
        <ele>475</ele>
        <time>2022-06-16T13:55:45.000Z</time>
      </trkpt>
      <trkpt lat="46.53738" lon="5.42493">
        <ele>474.20001220703</ele>
        <time>2022-06-16T13:55:46.000Z</time>
      </trkpt>
      <trkpt lat="46.53733" lon="5.42493">
        <ele>473.79998779297</ele>
        <time>2022-06-16T13:55:47.000Z</time>
      </trkpt>
      <trkpt lat="46.53727" lon="5.42488">
        <ele>473.20001220703</ele>
        <time>2022-06-16T13:55:48.000Z</time>
      </trkpt>
      <trkpt lat="46.53723" lon="5.42481">
        <ele>472.60000610352</ele>
        <time>2022-06-16T13:55:49.000Z</time>
      </trkpt>
      <trkpt lat="46.53719" lon="5.42472">
        <ele>471.39999389648</ele>
        <time>2022-06-16T13:55:50.000Z</time>
      </trkpt>
      <trkpt lat="46.53714" lon="5.42463">
        <ele>470</ele>
        <time>2022-06-16T13:55:51.000Z</time>
      </trkpt>
      <trkpt lat="46.53708" lon="5.42454">
        <ele>469.79998779297</ele>
        <time>2022-06-16T13:55:52.000Z</time>
      </trkpt>
      <trkpt lat="46.53694" lon="5.42436">
        <ele>468.79998779297</ele>
        <time>2022-06-16T13:55:54.000Z</time>
      </trkpt>
      <trkpt lat="46.53687" lon="5.42428">
        <ele>467.60000610352</ele>
        <time>2022-06-16T13:55:55.000Z</time>
      </trkpt>
      <trkpt lat="46.5367" lon="5.42411">
        <ele>466.20001220703</ele>
        <time>2022-06-16T13:55:57.000Z</time>
      </trkpt>
      <trkpt lat="46.53652" lon="5.42394">
        <ele>465</ele>
        <time>2022-06-16T13:55:59.000Z</time>
      </trkpt>
      <trkpt lat="46.53643" lon="5.42386">
        <ele>464.39999389648</ele>
        <time>2022-06-16T13:56:00.000Z</time>
      </trkpt>
      <trkpt lat="46.53624" lon="5.42371">
        <ele>463.60000610352</ele>
        <time>2022-06-16T13:56:02.000Z</time>
      </trkpt>
      <trkpt lat="46.53604" lon="5.42357">
        <ele>462.60000610352</ele>
        <time>2022-06-16T13:56:04.000Z</time>
      </trkpt>
      <trkpt lat="46.53594" lon="5.4235">
        <ele>461.39999389648</ele>
        <time>2022-06-16T13:56:05.000Z</time>
      </trkpt>
      <trkpt lat="46.53574" lon="5.42336">
        <ele>460</ele>
        <time>2022-06-16T13:56:07.000Z</time>
      </trkpt>
      <trkpt lat="46.53552" lon="5.42323">
        <ele>459</ele>
        <time>2022-06-16T13:56:09.000Z</time>
      </trkpt>
      <trkpt lat="46.5353" lon="5.42309">
        <ele>458</ele>
        <time>2022-06-16T13:56:11.000Z</time>
      </trkpt>
      <trkpt lat="46.53518" lon="5.42302">
        <ele>456.60000610352</ele>
        <time>2022-06-16T13:56:12.000Z</time>
      </trkpt>
      <trkpt lat="46.53495" lon="5.42288">
        <ele>455.20001220703</ele>
        <time>2022-06-16T13:56:14.000Z</time>
      </trkpt>
      <trkpt lat="46.53461" lon="5.42264">
        <ele>453.79998779297</ele>
        <time>2022-06-16T13:56:17.000Z</time>
      </trkpt>
      <trkpt lat="46.5344" lon="5.42247">
        <ele>452</ele>
        <time>2022-06-16T13:56:19.000Z</time>
      </trkpt>
      <trkpt lat="46.53426" lon="5.42232">
        <ele>451.20001220703</ele>
        <time>2022-06-16T13:56:21.000Z</time>
      </trkpt>
      <trkpt lat="46.5342" lon="5.42227">
        <ele>450.60000610352</ele>
        <time>2022-06-16T13:56:22.000Z</time>
      </trkpt>
      <trkpt lat="46.53413" lon="5.42223">
        <ele>449</ele>
        <time>2022-06-16T13:56:23.000Z</time>
      </trkpt>
      <trkpt lat="46.53407" lon="5.42223">
        <ele>448.39999389648</ele>
        <time>2022-06-16T13:56:24.000Z</time>
      </trkpt>
      <trkpt lat="46.53402" lon="5.42226">
        <ele>447.20001220703</ele>
        <time>2022-06-16T13:56:25.000Z</time>
      </trkpt>
      <trkpt lat="46.53399" lon="5.42237">
        <ele>446.20001220703</ele>
        <time>2022-06-16T13:56:26.000Z</time>
      </trkpt>
      <trkpt lat="46.53402" lon="5.42261">
        <ele>445.20001220703</ele>
        <time>2022-06-16T13:56:28.000Z</time>
      </trkpt>
      <trkpt lat="46.53412" lon="5.42285">
        <ele>444</ele>
        <time>2022-06-16T13:56:30.000Z</time>
      </trkpt>
      <trkpt lat="46.53417" lon="5.42296">
        <ele>443.60000610352</ele>
        <time>2022-06-16T13:56:31.000Z</time>
      </trkpt>
      <trkpt lat="46.53428" lon="5.42319">
        <ele>442</ele>
        <time>2022-06-16T13:56:33.000Z</time>
      </trkpt>
      <trkpt lat="46.53444" lon="5.42354">
        <ele>441</ele>
        <time>2022-06-16T13:56:36.000Z</time>
      </trkpt>
      <trkpt lat="46.5346" lon="5.42388">
        <ele>440</ele>
        <time>2022-06-16T13:56:39.000Z</time>
      </trkpt>
      <trkpt lat="46.53466" lon="5.424">
        <ele>439.79998779297</ele>
        <time>2022-06-16T13:56:40.000Z</time>
      </trkpt>
      <trkpt lat="46.53478" lon="5.42422">
        <ele>438.60000610352</ele>
        <time>2022-06-16T13:56:42.000Z</time>
      </trkpt>
      <trkpt lat="46.53492" lon="5.42443">
        <ele>437.60000610352</ele>
        <time>2022-06-16T13:56:44.000Z</time>
      </trkpt>
      <trkpt lat="46.53513" lon="5.42474">
        <ele>436.39999389648</ele>
        <time>2022-06-16T13:56:47.000Z</time>
      </trkpt>
      <trkpt lat="46.53519" lon="5.42486">
        <ele>436</ele>
        <time>2022-06-16T13:56:48.000Z</time>
      </trkpt>
      <trkpt lat="46.53529" lon="5.42513">
        <ele>435.39999389648</ele>
        <time>2022-06-16T13:56:50.000Z</time>
      </trkpt>
      <trkpt lat="46.53537" lon="5.42542">
        <ele>434.79998779297</ele>
        <time>2022-06-16T13:56:52.000Z</time>
      </trkpt>
      <trkpt lat="46.53538" lon="5.42557">
        <ele>434</ele>
        <time>2022-06-16T13:56:53.000Z</time>
      </trkpt>
      <trkpt lat="46.53538" lon="5.42573">
        <ele>433.60000610352</ele>
        <time>2022-06-16T13:56:54.000Z</time>
      </trkpt>
      <trkpt lat="46.53536" lon="5.42589">
        <ele>433.39999389648</ele>
        <time>2022-06-16T13:56:55.000Z</time>
      </trkpt>
      <trkpt lat="46.53533" lon="5.42605">
        <ele>432.39999389648</ele>
        <time>2022-06-16T13:56:56.000Z</time>
      </trkpt>
      <trkpt lat="46.53524" lon="5.42638">
        <ele>431</ele>
        <time>2022-06-16T13:56:58.000Z</time>
      </trkpt>
      <trkpt lat="46.53519" lon="5.42654">
        <ele>430.79998779297</ele>
        <time>2022-06-16T13:56:59.000Z</time>
      </trkpt>
      <trkpt lat="46.53514" lon="5.42671">
        <ele>429.79998779297</ele>
        <time>2022-06-16T13:57:00.000Z</time>
      </trkpt>
      <trkpt lat="46.53502" lon="5.42702">
        <ele>428.39999389648</ele>
        <time>2022-06-16T13:57:02.000Z</time>
      </trkpt>
      <trkpt lat="46.53495" lon="5.42716">
        <ele>426</ele>
        <time>2022-06-16T13:57:03.000Z</time>
      </trkpt>
      <trkpt lat="46.53488" lon="5.42728">
        <ele>425.20001220703</ele>
        <time>2022-06-16T13:57:04.000Z</time>
      </trkpt>
      <trkpt lat="46.53483" lon="5.42737">
        <ele>423.60000610352</ele>
        <time>2022-06-16T13:57:05.000Z</time>
      </trkpt>
      <trkpt lat="46.53478" lon="5.42745">
        <ele>423</ele>
        <time>2022-06-16T13:57:06.000Z</time>
      </trkpt>
      <trkpt lat="46.53474" lon="5.42751">
        <ele>422.20001220703</ele>
        <time>2022-06-16T13:57:07.000Z</time>
      </trkpt>
      <trkpt lat="46.5347" lon="5.42755">
        <ele>420.60000610352</ele>
        <time>2022-06-16T13:57:08.000Z</time>
      </trkpt>
      <trkpt lat="46.53465" lon="5.42757">
        <ele>420</ele>
        <time>2022-06-16T13:57:09.000Z</time>
      </trkpt>
      <trkpt lat="46.5346" lon="5.42759">
        <ele>418.39999389648</ele>
        <time>2022-06-16T13:57:10.000Z</time>
      </trkpt>
      <trkpt lat="46.53455" lon="5.42762">
        <ele>417</ele>
        <time>2022-06-16T13:57:11.000Z</time>
      </trkpt>
      <trkpt lat="46.53451" lon="5.42763">
        <ele>415.60000610352</ele>
        <time>2022-06-16T13:57:12.000Z</time>
      </trkpt>
      <trkpt lat="46.53445" lon="5.42763">
        <ele>414.39999389648</ele>
        <time>2022-06-16T13:57:14.000Z</time>
      </trkpt>
      <trkpt lat="46.53444" lon="5.42766">
        <ele>414</ele>
        <time>2022-06-16T13:57:15.000Z</time>
      </trkpt>
      <trkpt lat="46.53443" lon="5.42771">
        <ele>413.20001220703</ele>
        <time>2022-06-16T13:57:16.000Z</time>
      </trkpt>
      <trkpt lat="46.53443" lon="5.42784">
        <ele>412</ele>
        <time>2022-06-16T13:57:18.000Z</time>
      </trkpt>
      <trkpt lat="46.53445" lon="5.42819">
        <ele>411</ele>
        <time>2022-06-16T13:57:21.000Z</time>
      </trkpt>
      <trkpt lat="46.53445" lon="5.42829">
        <ele>410.79998779297</ele>
        <time>2022-06-16T13:57:22.000Z</time>
      </trkpt>
      <trkpt lat="46.53446" lon="5.42899">
        <ele>409.79998779297</ele>
        <time>2022-06-16T13:57:27.000Z</time>
      </trkpt>
      <trkpt lat="46.53445" lon="5.42931">
        <ele>408.60000610352</ele>
        <time>2022-06-16T13:57:29.000Z</time>
      </trkpt>
      <trkpt lat="46.53441" lon="5.42974">
        <ele>407.79998779297</ele>
        <time>2022-06-16T13:57:32.000Z</time>
      </trkpt>
      <trkpt lat="46.5344" lon="5.42992">
        <ele>407.60000610352</ele>
        <time>2022-06-16T13:57:33.000Z</time>
      </trkpt>
      <trkpt lat="46.53436" lon="5.43038">
        <ele>405.79998779297</ele>
        <time>2022-06-16T13:57:36.000Z</time>
      </trkpt>
      <trkpt lat="46.53433" lon="5.43065">
        <ele>404.79998779297</ele>
        <time>2022-06-16T13:57:38.000Z</time>
      </trkpt>
      <trkpt lat="46.53432" lon="5.4308">
        <ele>404.60000610352</ele>
        <time>2022-06-16T13:57:39.000Z</time>
      </trkpt>
      <trkpt lat="46.53429" lon="5.43123">
        <ele>403.60000610352</ele>
        <time>2022-06-16T13:57:42.000Z</time>
      </trkpt>
      <trkpt lat="46.53424" lon="5.43196">
        <ele>402.39999389648</ele>
        <time>2022-06-16T13:57:47.000Z</time>
      </trkpt>
      <trkpt lat="46.53423" lon="5.43208">
        <ele>402.20001220703</ele>
        <time>2022-06-16T13:57:48.000Z</time>
      </trkpt>
      <trkpt lat="46.5342" lon="5.43238">
        <ele>401.20001220703</ele>
        <time>2022-06-16T13:57:50.000Z</time>
      </trkpt>
      <trkpt lat="46.53418" lon="5.43267">
        <ele>400.60000610352</ele>
        <time>2022-06-16T13:57:52.000Z</time>
      </trkpt>
      <trkpt lat="46.53419" lon="5.43282">
        <ele>400.39999389648</ele>
        <time>2022-06-16T13:57:53.000Z</time>
      </trkpt>
      <trkpt lat="46.53421" lon="5.43293">
        <ele>399.79998779297</ele>
        <time>2022-06-16T13:57:54.000Z</time>
      </trkpt>
      <trkpt lat="46.53429" lon="5.43321">
        <ele>399</ele>
        <time>2022-06-16T13:57:56.000Z</time>
      </trkpt>
      <trkpt lat="46.5343" lon="5.4333">
        <ele>398.79998779297</ele>
        <time>2022-06-16T13:57:57.000Z</time>
      </trkpt>
      <trkpt lat="46.53429" lon="5.43342">
        <ele>398.60000610352</ele>
        <time>2022-06-16T13:57:58.000Z</time>
      </trkpt>
      <trkpt lat="46.53417" lon="5.43361">
        <ele>398</ele>
        <time>2022-06-16T13:58:00.000Z</time>
      </trkpt>
      <trkpt lat="46.5341" lon="5.43363">
        <ele>397.20001220703</ele>
        <time>2022-06-16T13:58:01.000Z</time>
      </trkpt>
      <trkpt lat="46.53402" lon="5.43363">
        <ele>396.79998779297</ele>
        <time>2022-06-16T13:58:02.000Z</time>
      </trkpt>
      <trkpt lat="46.53392" lon="5.43361">
        <ele>396</ele>
        <time>2022-06-16T13:58:03.000Z</time>
      </trkpt>
      <trkpt lat="46.53372" lon="5.43356">
        <ele>394.39999389648</ele>
        <time>2022-06-16T13:58:05.000Z</time>
      </trkpt>
      <trkpt lat="46.53351" lon="5.43352">
        <ele>393.20001220703</ele>
        <time>2022-06-16T13:58:07.000Z</time>
      </trkpt>
      <trkpt lat="46.53329" lon="5.43346">
        <ele>391.79998779297</ele>
        <time>2022-06-16T13:58:09.000Z</time>
      </trkpt>
      <trkpt lat="46.53295" lon="5.43333">
        <ele>390.60000610352</ele>
        <time>2022-06-16T13:58:12.000Z</time>
      </trkpt>
      <trkpt lat="46.53259" lon="5.43313">
        <ele>388.79998779297</ele>
        <time>2022-06-16T13:58:15.000Z</time>
      </trkpt>
      <trkpt lat="46.53235" lon="5.43298">
        <ele>387.60000610352</ele>
        <time>2022-06-16T13:58:17.000Z</time>
      </trkpt>
      <trkpt lat="46.53222" lon="5.43292">
        <ele>387</ele>
        <time>2022-06-16T13:58:18.000Z</time>
      </trkpt>
      <trkpt lat="46.53209" lon="5.43289">
        <ele>385.79998779297</ele>
        <time>2022-06-16T13:58:19.000Z</time>
      </trkpt>
      <trkpt lat="46.53196" lon="5.43286">
        <ele>384.79998779297</ele>
        <time>2022-06-16T13:58:20.000Z</time>
      </trkpt>
      <trkpt lat="46.53169" lon="5.43283">
        <ele>383.60000610352</ele>
        <time>2022-06-16T13:58:22.000Z</time>
      </trkpt>
      <trkpt lat="46.53143" lon="5.43276">
        <ele>381.60000610352</ele>
        <time>2022-06-16T13:58:24.000Z</time>
      </trkpt>
      <trkpt lat="46.53116" lon="5.4327">
        <ele>380.60000610352</ele>
        <time>2022-06-16T13:58:26.000Z</time>
      </trkpt>
      <trkpt lat="46.53103" lon="5.43265">
        <ele>379.60000610352</ele>
        <time>2022-06-16T13:58:27.000Z</time>
      </trkpt>
      <trkpt lat="46.53091" lon="5.43263">
        <ele>379.20001220703</ele>
        <time>2022-06-16T13:58:28.000Z</time>
      </trkpt>
      <trkpt lat="46.53078" lon="5.43262">
        <ele>378.39999389648</ele>
        <time>2022-06-16T13:58:29.000Z</time>
      </trkpt>
      <trkpt lat="46.53067" lon="5.43266">
        <ele>378.20001220703</ele>
        <time>2022-06-16T13:58:30.000Z</time>
      </trkpt>
      <trkpt lat="46.53056" lon="5.43274">
        <ele>377.20001220703</ele>
        <time>2022-06-16T13:58:31.000Z</time>
      </trkpt>
      <trkpt lat="46.53047" lon="5.43287">
        <ele>376.60000610352</ele>
        <time>2022-06-16T13:58:32.000Z</time>
      </trkpt>
      <trkpt lat="46.53041" lon="5.43303">
        <ele>375.79998779297</ele>
        <time>2022-06-16T13:58:33.000Z</time>
      </trkpt>
      <trkpt lat="46.53038" lon="5.43319">
        <ele>375</ele>
        <time>2022-06-16T13:58:34.000Z</time>
      </trkpt>
      <trkpt lat="46.53037" lon="5.43336">
        <ele>374.20001220703</ele>
        <time>2022-06-16T13:58:35.000Z</time>
      </trkpt>
      <trkpt lat="46.53036" lon="5.43352">
        <ele>373.20001220703</ele>
        <time>2022-06-16T13:58:36.000Z</time>
      </trkpt>
      <trkpt lat="46.53035" lon="5.43369">
        <ele>372.79998779297</ele>
        <time>2022-06-16T13:58:37.000Z</time>
      </trkpt>
      <trkpt lat="46.53032" lon="5.43417">
        <ele>372</ele>
        <time>2022-06-16T13:58:40.000Z</time>
      </trkpt>
      <trkpt lat="46.53031" lon="5.43447">
        <ele>371.60000610352</ele>
        <time>2022-06-16T13:58:42.000Z</time>
      </trkpt>
      <trkpt lat="46.53027" lon="5.43518">
        <ele>371</ele>
        <time>2022-06-16T13:58:47.000Z</time>
      </trkpt>
      <trkpt lat="46.53024" lon="5.436">
        <ele>370.20001220703</ele>
        <time>2022-06-16T13:58:53.000Z</time>
      </trkpt>
      <trkpt lat="46.53023" lon="5.43613">
        <ele>370</ele>
        <time>2022-06-16T13:58:54.000Z</time>
      </trkpt>
      <trkpt lat="46.53022" lon="5.43625">
        <ele>369.79998779297</ele>
        <time>2022-06-16T13:58:55.000Z</time>
      </trkpt>
      <trkpt lat="46.53017" lon="5.4368">
        <ele>369.60000610352</ele>
        <time>2022-06-16T13:59:00.000Z</time>
      </trkpt>
      <trkpt lat="46.53008" lon="5.43718">
        <ele>370.60000610352</ele>
        <time>2022-06-16T13:59:05.000Z</time>
      </trkpt>
      <trkpt lat="46.53006" lon="5.43724">
        <ele>371</ele>
        <time>2022-06-16T13:59:06.000Z</time>
      </trkpt>
      <trkpt lat="46.52998" lon="5.43747">
        <ele>372</ele>
        <time>2022-06-16T13:59:10.000Z</time>
      </trkpt>
      <trkpt lat="46.52995" lon="5.43759">
        <ele>372.79998779297</ele>
        <time>2022-06-16T13:59:12.000Z</time>
      </trkpt>
      <trkpt lat="46.52993" lon="5.43764">
        <ele>373.20001220703</ele>
        <time>2022-06-16T13:59:13.000Z</time>
      </trkpt>
      <trkpt lat="46.52985" lon="5.43792">
        <ele>374.60000610352</ele>
        <time>2022-06-16T13:59:18.000Z</time>
      </trkpt>
      <trkpt lat="46.52984" lon="5.43798">
        <ele>374.79998779297</ele>
        <time>2022-06-16T13:59:19.000Z</time>
      </trkpt>
      <trkpt lat="46.52983" lon="5.43809">
        <ele>375.39999389648</ele>
        <time>2022-06-16T13:59:21.000Z</time>
      </trkpt>
      <trkpt lat="46.52983" lon="5.43815">
        <ele>375.60000610352</ele>
        <time>2022-06-16T13:59:22.000Z</time>
      </trkpt>
      <trkpt lat="46.52983" lon="5.43821">
        <ele>376</ele>
        <time>2022-06-16T13:59:23.000Z</time>
      </trkpt>
      <trkpt lat="46.52985" lon="5.43838">
        <ele>376.60000610352</ele>
        <time>2022-06-16T13:59:26.000Z</time>
      </trkpt>
      <trkpt lat="46.52986" lon="5.43843">
        <ele>377</ele>
        <time>2022-06-16T13:59:27.000Z</time>
      </trkpt>
      <trkpt lat="46.52992" lon="5.43858">
        <ele>378.20001220703</ele>
        <time>2022-06-16T13:59:30.000Z</time>
      </trkpt>
      <trkpt lat="46.53" lon="5.43873">
        <ele>379.20001220703</ele>
        <time>2022-06-16T13:59:33.000Z</time>
      </trkpt>
      <trkpt lat="46.5301" lon="5.43894">
        <ele>380.20001220703</ele>
        <time>2022-06-16T13:59:38.000Z</time>
      </trkpt>
      <trkpt lat="46.53011" lon="5.43898">
        <ele>380.39999389648</ele>
        <time>2022-06-16T13:59:39.000Z</time>
      </trkpt>
      <trkpt lat="46.5302" lon="5.43917">
        <ele>381.20001220703</ele>
        <time>2022-06-16T13:59:44.000Z</time>
      </trkpt>
      <trkpt lat="46.53025" lon="5.43925">
        <ele>381.60000610352</ele>
        <time>2022-06-16T13:59:46.000Z</time>
      </trkpt>
      <trkpt lat="46.53035" lon="5.43945">
        <ele>382.60000610352</ele>
        <time>2022-06-16T13:59:51.000Z</time>
      </trkpt>
      <trkpt lat="46.53037" lon="5.43949">
        <ele>382.79998779297</ele>
        <time>2022-06-16T13:59:52.000Z</time>
      </trkpt>
      <trkpt lat="46.5305" lon="5.43975">
        <ele>384</ele>
        <time>2022-06-16T13:59:58.000Z</time>
      </trkpt>
      <trkpt lat="46.53054" lon="5.43983">
        <ele>384.39999389648</ele>
        <time>2022-06-16T14:00:00.000Z</time>
      </trkpt>
      <trkpt lat="46.53061" lon="5.43995">
        <ele>385.20001220703</ele>
        <time>2022-06-16T14:00:03.000Z</time>
      </trkpt>
      <trkpt lat="46.53065" lon="5.44004">
        <ele>385.60000610352</ele>
        <time>2022-06-16T14:00:05.000Z</time>
      </trkpt>
      <trkpt lat="46.53075" lon="5.44022">
        <ele>386</ele>
        <time>2022-06-16T14:00:09.000Z</time>
      </trkpt>
      <trkpt lat="46.53079" lon="5.4403">
        <ele>386.60000610352</ele>
        <time>2022-06-16T14:00:11.000Z</time>
      </trkpt>
      <trkpt lat="46.53086" lon="5.44044">
        <ele>387.20001220703</ele>
        <time>2022-06-16T14:00:14.000Z</time>
      </trkpt>
      <trkpt lat="46.53095" lon="5.44061">
        <ele>387.60000610352</ele>
        <time>2022-06-16T14:00:18.000Z</time>
      </trkpt>
      <trkpt lat="46.53102" lon="5.44075">
        <ele>388.39999389648</ele>
        <time>2022-06-16T14:00:21.000Z</time>
      </trkpt>
      <trkpt lat="46.53107" lon="5.44093">
        <ele>389.39999389648</ele>
        <time>2022-06-16T14:00:25.000Z</time>
      </trkpt>
      <trkpt lat="46.53114" lon="5.44124">
        <ele>390.39999389648</ele>
        <time>2022-06-16T14:00:31.000Z</time>
      </trkpt>
      <trkpt lat="46.53115" lon="5.44129">
        <ele>390.79998779297</ele>
        <time>2022-06-16T14:00:32.000Z</time>
      </trkpt>
      <trkpt lat="46.53111" lon="5.44159">
        <ele>391.79998779297</ele>
        <time>2022-06-16T14:00:38.000Z</time>
      </trkpt>
      <trkpt lat="46.531" lon="5.44181">
        <ele>393</ele>
        <time>2022-06-16T14:00:43.000Z</time>
      </trkpt>
      <trkpt lat="46.53095" lon="5.44188">
        <ele>393.39999389648</ele>
        <time>2022-06-16T14:00:45.000Z</time>
      </trkpt>
      <trkpt lat="46.53089" lon="5.44195">
        <ele>394</ele>
        <time>2022-06-16T14:00:47.000Z</time>
      </trkpt>
      <trkpt lat="46.53072" lon="5.44219">
        <ele>395.20001220703</ele>
        <time>2022-06-16T14:00:53.000Z</time>
      </trkpt>
      <trkpt lat="46.53053" lon="5.44231">
        <ele>396.20001220703</ele>
        <time>2022-06-16T14:00:58.000Z</time>
      </trkpt>
      <trkpt lat="46.53034" lon="5.44244">
        <ele>397.39999389648</ele>
        <time>2022-06-16T14:01:03.000Z</time>
      </trkpt>
      <trkpt lat="46.53018" lon="5.44262">
        <ele>398.60000610352</ele>
        <time>2022-06-16T14:01:08.000Z</time>
      </trkpt>
      <trkpt lat="46.53015" lon="5.44267">
        <ele>398.79998779297</ele>
        <time>2022-06-16T14:01:09.000Z</time>
      </trkpt>
      <trkpt lat="46.53003" lon="5.44299">
        <ele>399.60000610352</ele>
        <time>2022-06-16T14:01:15.000Z</time>
      </trkpt>
      <trkpt lat="46.53001" lon="5.44305">
        <ele>399.79998779297</ele>
        <time>2022-06-16T14:01:16.000Z</time>
      </trkpt>
      <trkpt lat="46.52992" lon="5.44339">
        <ele>400.20001220703</ele>
        <time>2022-06-16T14:01:22.000Z</time>
      </trkpt>
      <trkpt lat="46.52989" lon="5.44343">
        <ele>400.39999389648</ele>
        <time>2022-06-16T14:01:23.000Z</time>
      </trkpt>
      <trkpt lat="46.52985" lon="5.44345">
        <ele>400.60000610352</ele>
        <time>2022-06-16T14:01:24.000Z</time>
      </trkpt>
      <trkpt lat="46.52977" lon="5.44343">
        <ele>400.60000610352</ele>
        <time>2022-06-16T14:01:26.000Z</time>
      </trkpt>
      <trkpt lat="46.52967" lon="5.44337">
        <ele>400.60000610352</ele>
        <time>2022-06-16T14:01:28.000Z</time>
      </trkpt>
      <trkpt lat="46.52951" lon="5.44327">
        <ele>400.79998779297</ele>
        <time>2022-06-16T14:01:31.000Z</time>
      </trkpt>
      <trkpt lat="46.52919" lon="5.44309">
        <ele>400.79998779297</ele>
        <time>2022-06-16T14:01:36.000Z</time>
      </trkpt>
      <trkpt lat="46.5287" lon="5.44278">
        <ele>400</ele>
        <time>2022-06-16T14:01:43.000Z</time>
      </trkpt>
      <trkpt lat="46.52855" lon="5.44269">
        <ele>400</ele>
        <time>2022-06-16T14:01:45.000Z</time>
      </trkpt>
      <trkpt lat="46.52833" lon="5.4426">
        <ele>400</ele>
        <time>2022-06-16T14:01:48.000Z</time>
      </trkpt>
      <trkpt lat="46.52819" lon="5.44254">
        <ele>400</ele>
        <time>2022-06-16T14:01:50.000Z</time>
      </trkpt>
      <trkpt lat="46.52805" lon="5.44244">
        <ele>400</ele>
        <time>2022-06-16T14:01:52.000Z</time>
      </trkpt>
      <trkpt lat="46.52799" lon="5.44237">
        <ele>400</ele>
        <time>2022-06-16T14:01:53.000Z</time>
      </trkpt>
      <trkpt lat="46.52772" lon="5.44211">
        <ele>400</ele>
        <time>2022-06-16T14:01:57.000Z</time>
      </trkpt>
      <trkpt lat="46.52764" lon="5.44206">
        <ele>400</ele>
        <time>2022-06-16T14:01:58.000Z</time>
      </trkpt>
      <trkpt lat="46.52742" lon="5.44188">
        <ele>399.79998779297</ele>
        <time>2022-06-16T14:02:01.000Z</time>
      </trkpt>
      <trkpt lat="46.52736" lon="5.4418">
        <ele>399.60000610352</ele>
        <time>2022-06-16T14:02:02.000Z</time>
      </trkpt>
      <trkpt lat="46.5273" lon="5.4417">
        <ele>399.20001220703</ele>
        <time>2022-06-16T14:02:03.000Z</time>
      </trkpt>
      <trkpt lat="46.52721" lon="5.44151">
        <ele>399.20001220703</ele>
        <time>2022-06-16T14:02:05.000Z</time>
      </trkpt>
      <trkpt lat="46.52715" lon="5.44142">
        <ele>398.79998779297</ele>
        <time>2022-06-16T14:02:06.000Z</time>
      </trkpt>
      <trkpt lat="46.52709" lon="5.44135">
        <ele>399</ele>
        <time>2022-06-16T14:02:07.000Z</time>
      </trkpt>
      <trkpt lat="46.52696" lon="5.44123">
        <ele>398.79998779297</ele>
        <time>2022-06-16T14:02:09.000Z</time>
      </trkpt>
      <trkpt lat="46.5269" lon="5.44119">
        <ele>398.79998779297</ele>
        <time>2022-06-16T14:02:10.000Z</time>
      </trkpt>
      <trkpt lat="46.52643" lon="5.44094">
        <ele>399.79998779297</ele>
        <time>2022-06-16T14:02:17.000Z</time>
      </trkpt>
      <trkpt lat="46.52613" lon="5.44086">
        <ele>400.39999389648</ele>
        <time>2022-06-16T14:02:21.000Z</time>
      </trkpt>
      <trkpt lat="46.52605" lon="5.44087">
        <ele>400.39999389648</ele>
        <time>2022-06-16T14:02:22.000Z</time>
      </trkpt>
      <trkpt lat="46.5259" lon="5.44095">
        <ele>400.39999389648</ele>
        <time>2022-06-16T14:02:24.000Z</time>
      </trkpt>
      <trkpt lat="46.52576" lon="5.44107">
        <ele>400.39999389648</ele>
        <time>2022-06-16T14:02:26.000Z</time>
      </trkpt>
      <trkpt lat="46.52528" lon="5.44147">
        <ele>399.60000610352</ele>
        <time>2022-06-16T14:02:33.000Z</time>
      </trkpt>
      <trkpt lat="46.52514" lon="5.4415">
        <ele>399.60000610352</ele>
        <time>2022-06-16T14:02:35.000Z</time>
      </trkpt>
      <trkpt lat="46.52508" lon="5.44148">
        <ele>399.79998779297</ele>
        <time>2022-06-16T14:02:36.000Z</time>
      </trkpt>
      <trkpt lat="46.52502" lon="5.44145">
        <ele>399.79998779297</ele>
        <time>2022-06-16T14:02:37.000Z</time>
      </trkpt>
      <trkpt lat="46.52486" lon="5.44131">
        <ele>400.20001220703</ele>
        <time>2022-06-16T14:02:40.000Z</time>
      </trkpt>
      <trkpt lat="46.52475" lon="5.4412">
        <ele>400.39999389648</ele>
        <time>2022-06-16T14:02:42.000Z</time>
      </trkpt>
      <trkpt lat="46.52461" lon="5.441">
        <ele>400.60000610352</ele>
        <time>2022-06-16T14:02:45.000Z</time>
      </trkpt>
      <trkpt lat="46.52456" lon="5.44093">
        <ele>400.79998779297</ele>
        <time>2022-06-16T14:02:46.000Z</time>
      </trkpt>
      <trkpt lat="46.52417" lon="5.44037">
        <ele>401.60000610352</ele>
        <time>2022-06-16T14:02:54.000Z</time>
      </trkpt>
      <trkpt lat="46.52411" lon="5.44031">
        <ele>401.60000610352</ele>
        <time>2022-06-16T14:02:55.000Z</time>
      </trkpt>
      <trkpt lat="46.52392" lon="5.44018">
        <ele>401.60000610352</ele>
        <time>2022-06-16T14:02:58.000Z</time>
      </trkpt>
      <trkpt lat="46.52373" lon="5.44006">
        <ele>402</ele>
        <time>2022-06-16T14:03:01.000Z</time>
      </trkpt>
      <trkpt lat="46.52363" lon="5.43993">
        <ele>402.39999389648</ele>
        <time>2022-06-16T14:03:03.000Z</time>
      </trkpt>
      <trkpt lat="46.52353" lon="5.4398">
        <ele>402.60000610352</ele>
        <time>2022-06-16T14:03:05.000Z</time>
      </trkpt>
      <trkpt lat="46.52338" lon="5.43961">
        <ele>403.20001220703</ele>
        <time>2022-06-16T14:03:08.000Z</time>
      </trkpt>
      <trkpt lat="46.52332" lon="5.43956">
        <ele>403.39999389648</ele>
        <time>2022-06-16T14:03:09.000Z</time>
      </trkpt>
      <trkpt lat="46.5232" lon="5.43948">
        <ele>403.60000610352</ele>
        <time>2022-06-16T14:03:11.000Z</time>
      </trkpt>
      <trkpt lat="46.52298" lon="5.43935">
        <ele>404.60000610352</ele>
        <time>2022-06-16T14:03:15.000Z</time>
      </trkpt>
      <trkpt lat="46.52293" lon="5.43932">
        <ele>405.20001220703</ele>
        <time>2022-06-16T14:03:16.000Z</time>
      </trkpt>
      <trkpt lat="46.52271" lon="5.4392">
        <ele>406.60000610352</ele>
        <time>2022-06-16T14:03:20.000Z</time>
      </trkpt>
      <trkpt lat="46.52259" lon="5.43914">
        <ele>407</ele>
        <time>2022-06-16T14:03:22.000Z</time>
      </trkpt>
      <trkpt lat="46.52248" lon="5.43907">
        <ele>407.60000610352</ele>
        <time>2022-06-16T14:03:24.000Z</time>
      </trkpt>
      <trkpt lat="46.52217" lon="5.43896">
        <ele>408.39999389648</ele>
        <time>2022-06-16T14:03:29.000Z</time>
      </trkpt>
      <trkpt lat="46.52203" lon="5.43895">
        <ele>408.60000610352</ele>
        <time>2022-06-16T14:03:31.000Z</time>
      </trkpt>
      <trkpt lat="46.52176" lon="5.43899">
        <ele>408.79998779297</ele>
        <time>2022-06-16T14:03:35.000Z</time>
      </trkpt>
      <trkpt lat="46.52129" lon="5.43916">
        <ele>408.79998779297</ele>
        <time>2022-06-16T14:03:42.000Z</time>
      </trkpt>
      <trkpt lat="46.52094" lon="5.4393">
        <ele>409.60000610352</ele>
        <time>2022-06-16T14:03:48.000Z</time>
      </trkpt>
      <trkpt lat="46.52079" lon="5.43937">
        <ele>410.79998779297</ele>
        <time>2022-06-16T14:03:51.000Z</time>
      </trkpt>
      <trkpt lat="46.52063" lon="5.43943">
        <ele>411.20001220703</ele>
        <time>2022-06-16T14:03:54.000Z</time>
      </trkpt>
      <trkpt lat="46.52036" lon="5.43952">
        <ele>411.79998779297</ele>
        <time>2022-06-16T14:03:59.000Z</time>
      </trkpt>
      <trkpt lat="46.52025" lon="5.43956">
        <ele>412</ele>
        <time>2022-06-16T14:04:01.000Z</time>
      </trkpt>
      <trkpt lat="46.5202" lon="5.43957">
        <ele>412.20001220703</ele>
        <time>2022-06-16T14:04:02.000Z</time>
      </trkpt>
      <trkpt lat="46.52006" lon="5.43961">
        <ele>412.79998779297</ele>
        <time>2022-06-16T14:04:05.000Z</time>
      </trkpt>
      <trkpt lat="46.52002" lon="5.43963">
        <ele>413</ele>
        <time>2022-06-16T14:04:06.000Z</time>
      </trkpt>
      <trkpt lat="46.51997" lon="5.43966">
        <ele>413.39999389648</ele>
        <time>2022-06-16T14:04:07.000Z</time>
      </trkpt>
      <trkpt lat="46.51981" lon="5.43972">
        <ele>414.20001220703</ele>
        <time>2022-06-16T14:04:11.000Z</time>
      </trkpt>
      <trkpt lat="46.51976" lon="5.43974">
        <ele>414.39999389648</ele>
        <time>2022-06-16T14:04:12.000Z</time>
      </trkpt>
      <trkpt lat="46.51967" lon="5.43976">
        <ele>414.79998779297</ele>
        <time>2022-06-16T14:04:14.000Z</time>
      </trkpt>
      <trkpt lat="46.51962" lon="5.43978">
        <ele>415</ele>
        <time>2022-06-16T14:04:15.000Z</time>
      </trkpt>
      <trkpt lat="46.51957" lon="5.43979">
        <ele>415.20001220703</ele>
        <time>2022-06-16T14:04:16.000Z</time>
      </trkpt>
      <trkpt lat="46.51945" lon="5.43974">
        <ele>415.79998779297</ele>
        <time>2022-06-16T14:04:19.000Z</time>
      </trkpt>
      <trkpt lat="46.5192" lon="5.43961">
        <ele>416</ele>
        <time>2022-06-16T14:04:23.000Z</time>
      </trkpt>
      <trkpt lat="46.51916" lon="5.43958">
        <ele>416.20001220703</ele>
        <time>2022-06-16T14:04:24.000Z</time>
      </trkpt>
      <trkpt lat="46.51901" lon="5.43938">
        <ele>417</ele>
        <time>2022-06-16T14:04:28.000Z</time>
      </trkpt>
      <trkpt lat="46.51899" lon="5.43934">
        <ele>417</ele>
        <time>2022-06-16T14:04:29.000Z</time>
      </trkpt>
      <trkpt lat="46.51878" lon="5.43903">
        <ele>417.79998779297</ele>
        <time>2022-06-16T14:04:34.000Z</time>
      </trkpt>
      <trkpt lat="46.51863" lon="5.43881">
        <ele>418.20001220703</ele>
        <time>2022-06-16T14:04:38.000Z</time>
      </trkpt>
      <trkpt lat="46.51857" lon="5.43875">
        <ele>418.39999389648</ele>
        <time>2022-06-16T14:04:40.000Z</time>
      </trkpt>
      <trkpt lat="46.51833" lon="5.4386">
        <ele>419.20001220703</ele>
        <time>2022-06-16T14:04:45.000Z</time>
      </trkpt>
      <trkpt lat="46.51828" lon="5.43858">
        <ele>419.39999389648</ele>
        <time>2022-06-16T14:04:46.000Z</time>
      </trkpt>
      <trkpt lat="46.51811" lon="5.43851">
        <ele>420.60000610352</ele>
        <time>2022-06-16T14:04:49.000Z</time>
      </trkpt>
      <trkpt lat="46.518" lon="5.43843">
        <ele>421.20001220703</ele>
        <time>2022-06-16T14:04:52.000Z</time>
      </trkpt>
      <trkpt lat="46.51794" lon="5.43842">
        <ele>421.79998779297</ele>
        <time>2022-06-16T14:04:53.000Z</time>
      </trkpt>
      <trkpt lat="46.51783" lon="5.43838">
        <ele>422.79998779297</ele>
        <time>2022-06-16T14:04:56.000Z</time>
      </trkpt>
      <trkpt lat="46.5178" lon="5.43837">
        <ele>422.79998779297</ele>
        <time>2022-06-16T14:04:57.000Z</time>
      </trkpt>
      <trkpt lat="46.51762" lon="5.43834">
        <ele>424</ele>
        <time>2022-06-16T14:05:02.000Z</time>
      </trkpt>
      <trkpt lat="46.51748" lon="5.4383">
        <ele>425.20001220703</ele>
        <time>2022-06-16T14:05:05.000Z</time>
      </trkpt>
      <trkpt lat="46.51739" lon="5.43829">
        <ele>425.60000610352</ele>
        <time>2022-06-16T14:05:07.000Z</time>
      </trkpt>
      <trkpt lat="46.51727" lon="5.43819">
        <ele>426.20001220703</ele>
        <time>2022-06-16T14:05:09.000Z</time>
      </trkpt>
      <trkpt lat="46.51707" lon="5.43805">
        <ele>427.20001220703</ele>
        <time>2022-06-16T14:05:12.000Z</time>
      </trkpt>
      <trkpt lat="46.51686" lon="5.43782">
        <ele>427.60000610352</ele>
        <time>2022-06-16T14:05:16.000Z</time>
      </trkpt>
      <trkpt lat="46.51668" lon="5.43755">
        <ele>427.79998779297</ele>
        <time>2022-06-16T14:05:22.000Z</time>
      </trkpt>
      <trkpt lat="46.51655" lon="5.43743">
        <ele>427.79998779297</ele>
        <time>2022-06-16T14:05:27.000Z</time>
      </trkpt>
      <trkpt lat="46.51634" lon="5.43723">
        <ele>427.79998779297</ele>
        <time>2022-06-16T14:05:34.000Z</time>
      </trkpt>
      <trkpt lat="46.51615" lon="5.43709">
        <ele>427.60000610352</ele>
        <time>2022-06-16T14:05:37.000Z</time>
      </trkpt>
      <trkpt lat="46.51587" lon="5.43699">
        <ele>427.39999389648</ele>
        <time>2022-06-16T14:05:41.000Z</time>
      </trkpt>
      <trkpt lat="46.51576" lon="5.43697">
        <ele>427</ele>
        <time>2022-06-16T14:05:42.000Z</time>
      </trkpt>
      <trkpt lat="46.51541" lon="5.43689">
        <ele>426.79998779297</ele>
        <time>2022-06-16T14:05:46.000Z</time>
      </trkpt>
      <trkpt lat="46.51534" lon="5.43684">
        <ele>426.79998779297</ele>
        <time>2022-06-16T14:05:47.000Z</time>
      </trkpt>
      <trkpt lat="46.51528" lon="5.43676">
        <ele>426.60000610352</ele>
        <time>2022-06-16T14:05:48.000Z</time>
      </trkpt>
      <trkpt lat="46.51518" lon="5.43656">
        <ele>426.60000610352</ele>
        <time>2022-06-16T14:05:50.000Z</time>
      </trkpt>
      <trkpt lat="46.51509" lon="5.43636">
        <ele>426.20001220703</ele>
        <time>2022-06-16T14:05:52.000Z</time>
      </trkpt>
      <trkpt lat="46.51493" lon="5.43612">
        <ele>426</ele>
        <time>2022-06-16T14:05:55.000Z</time>
      </trkpt>
      <trkpt lat="46.51488" lon="5.43605">
        <ele>426</ele>
        <time>2022-06-16T14:05:56.000Z</time>
      </trkpt>
      <trkpt lat="46.51455" lon="5.43568">
        <ele>426.20001220703</ele>
        <time>2022-06-16T14:06:02.000Z</time>
      </trkpt>
      <trkpt lat="46.51439" lon="5.43553">
        <ele>427</ele>
        <time>2022-06-16T14:06:05.000Z</time>
      </trkpt>
      <trkpt lat="46.51434" lon="5.43549">
        <ele>427</ele>
        <time>2022-06-16T14:06:06.000Z</time>
      </trkpt>
      <trkpt lat="46.51428" lon="5.43547">
        <ele>427.20001220703</ele>
        <time>2022-06-16T14:06:07.000Z</time>
      </trkpt>
      <trkpt lat="46.51414" lon="5.43544">
        <ele>427.60000610352</ele>
        <time>2022-06-16T14:06:09.000Z</time>
      </trkpt>
      <trkpt lat="46.51377" lon="5.4353">
        <ele>427.79998779297</ele>
        <time>2022-06-16T14:06:14.000Z</time>
      </trkpt>
      <trkpt lat="46.51336" lon="5.43516">
        <ele>427.39999389648</ele>
        <time>2022-06-16T14:06:19.000Z</time>
      </trkpt>
      <trkpt lat="46.51294" lon="5.43511">
        <ele>427</ele>
        <time>2022-06-16T14:06:24.000Z</time>
      </trkpt>
      <trkpt lat="46.51279" lon="5.43507">
        <ele>427</ele>
        <time>2022-06-16T14:06:26.000Z</time>
      </trkpt>
      <trkpt lat="46.51264" lon="5.43497">
        <ele>427</ele>
        <time>2022-06-16T14:06:28.000Z</time>
      </trkpt>
      <trkpt lat="46.51248" lon="5.43479">
        <ele>427</ele>
        <time>2022-06-16T14:06:30.000Z</time>
      </trkpt>
      <trkpt lat="46.51237" lon="5.43465">
        <ele>427</ele>
        <time>2022-06-16T14:06:32.000Z</time>
      </trkpt>
      <trkpt lat="46.51197" lon="5.43414">
        <ele>427.39999389648</ele>
        <time>2022-06-16T14:06:39.000Z</time>
      </trkpt>
      <trkpt lat="46.51175" lon="5.43398">
        <ele>427.60000610352</ele>
        <time>2022-06-16T14:06:42.000Z</time>
      </trkpt>
      <trkpt lat="46.51167" lon="5.43395">
        <ele>427.79998779297</ele>
        <time>2022-06-16T14:06:43.000Z</time>
      </trkpt>
      <trkpt lat="46.51159" lon="5.43394">
        <ele>428</ele>
        <time>2022-06-16T14:06:44.000Z</time>
      </trkpt>
      <trkpt lat="46.51134" lon="5.43394">
        <ele>428</ele>
        <time>2022-06-16T14:06:47.000Z</time>
      </trkpt>
      <trkpt lat="46.51119" lon="5.43394">
        <ele>428.20001220703</ele>
        <time>2022-06-16T14:06:49.000Z</time>
      </trkpt>
      <trkpt lat="46.51104" lon="5.4339">
        <ele>428.20001220703</ele>
        <time>2022-06-16T14:06:51.000Z</time>
      </trkpt>
      <trkpt lat="46.51085" lon="5.43376">
        <ele>428.39999389648</ele>
        <time>2022-06-16T14:06:54.000Z</time>
      </trkpt>
      <trkpt lat="46.51071" lon="5.43371">
        <ele>428.60000610352</ele>
        <time>2022-06-16T14:06:56.000Z</time>
      </trkpt>
      <trkpt lat="46.51065" lon="5.43368">
        <ele>429</ele>
        <time>2022-06-16T14:06:57.000Z</time>
      </trkpt>
      <trkpt lat="46.51046" lon="5.43362">
        <ele>429.60000610352</ele>
        <time>2022-06-16T14:07:00.000Z</time>
      </trkpt>
      <trkpt lat="46.51035" lon="5.43359">
        <ele>429.79998779297</ele>
        <time>2022-06-16T14:07:02.000Z</time>
      </trkpt>
      <trkpt lat="46.51002" lon="5.43356">
        <ele>429.79998779297</ele>
        <time>2022-06-16T14:07:07.000Z</time>
      </trkpt>
      <trkpt lat="46.50995" lon="5.43359">
        <ele>429.79998779297</ele>
        <time>2022-06-16T14:07:08.000Z</time>
      </trkpt>
      <trkpt lat="46.50982" lon="5.43368">
        <ele>430</ele>
        <time>2022-06-16T14:07:10.000Z</time>
      </trkpt>
      <trkpt lat="46.50964" lon="5.43388">
        <ele>430.20001220703</ele>
        <time>2022-06-16T14:07:13.000Z</time>
      </trkpt>
      <trkpt lat="46.50958" lon="5.43395">
        <ele>430.20001220703</ele>
        <time>2022-06-16T14:07:14.000Z</time>
      </trkpt>
      <trkpt lat="46.50951" lon="5.43401">
        <ele>430.20001220703</ele>
        <time>2022-06-16T14:07:15.000Z</time>
      </trkpt>
      <trkpt lat="46.50937" lon="5.4341">
        <ele>430.39999389648</ele>
        <time>2022-06-16T14:07:17.000Z</time>
      </trkpt>
      <trkpt lat="46.5093" lon="5.43412">
        <ele>430.39999389648</ele>
        <time>2022-06-16T14:07:18.000Z</time>
      </trkpt>
      <trkpt lat="46.50916" lon="5.43415">
        <ele>430.39999389648</ele>
        <time>2022-06-16T14:07:20.000Z</time>
      </trkpt>
      <trkpt lat="46.50902" lon="5.43412">
        <ele>430.39999389648</ele>
        <time>2022-06-16T14:07:22.000Z</time>
      </trkpt>
      <trkpt lat="46.50895" lon="5.43408">
        <ele>430.60000610352</ele>
        <time>2022-06-16T14:07:23.000Z</time>
      </trkpt>
      <trkpt lat="46.50866" lon="5.43386">
        <ele>430</ele>
        <time>2022-06-16T14:07:28.000Z</time>
      </trkpt>
      <trkpt lat="46.50843" lon="5.43369">
        <ele>430.39999389648</ele>
        <time>2022-06-16T14:07:32.000Z</time>
      </trkpt>
      <trkpt lat="46.50831" lon="5.43358">
        <ele>430.20001220703</ele>
        <time>2022-06-16T14:07:34.000Z</time>
      </trkpt>
      <trkpt lat="46.50809" lon="5.43341">
        <ele>430.20001220703</ele>
        <time>2022-06-16T14:07:37.000Z</time>
      </trkpt>
      <trkpt lat="46.50769" lon="5.43313">
        <ele>430.60000610352</ele>
        <time>2022-06-16T14:07:42.000Z</time>
      </trkpt>
      <trkpt lat="46.50761" lon="5.43312">
        <ele>430.60000610352</ele>
        <time>2022-06-16T14:07:43.000Z</time>
      </trkpt>
      <trkpt lat="46.50744" lon="5.43311">
        <ele>430.79998779297</ele>
        <time>2022-06-16T14:07:45.000Z</time>
      </trkpt>
      <trkpt lat="46.50736" lon="5.43313">
        <ele>430.79998779297</ele>
        <time>2022-06-16T14:07:46.000Z</time>
      </trkpt>
      <trkpt lat="46.5072" lon="5.43321">
        <ele>431</ele>
        <time>2022-06-16T14:07:48.000Z</time>
      </trkpt>
      <trkpt lat="46.50706" lon="5.43329">
        <ele>431</ele>
        <time>2022-06-16T14:07:50.000Z</time>
      </trkpt>
      <trkpt lat="46.50692" lon="5.43332">
        <ele>431</ele>
        <time>2022-06-16T14:07:52.000Z</time>
      </trkpt>
      <trkpt lat="46.50681" lon="5.43325">
        <ele>431.20001220703</ele>
        <time>2022-06-16T14:07:54.000Z</time>
      </trkpt>
      <trkpt lat="46.50665" lon="5.43312">
        <ele>431.39999389648</ele>
        <time>2022-06-16T14:07:58.000Z</time>
      </trkpt>
      <trkpt lat="46.50646" lon="5.43299">
        <ele>431.79998779297</ele>
        <time>2022-06-16T14:08:02.000Z</time>
      </trkpt>
      <trkpt lat="46.50641" lon="5.43294">
        <ele>431.79998779297</ele>
        <time>2022-06-16T14:08:03.000Z</time>
      </trkpt>
      <trkpt lat="46.50635" lon="5.43289">
        <ele>432</ele>
        <time>2022-06-16T14:08:04.000Z</time>
      </trkpt>
      <trkpt lat="46.50608" lon="5.43273">
        <ele>432.39999389648</ele>
        <time>2022-06-16T14:08:08.000Z</time>
      </trkpt>
      <trkpt lat="46.50599" lon="5.43265">
        <ele>432.79998779297</ele>
        <time>2022-06-16T14:08:09.000Z</time>
      </trkpt>
      <trkpt lat="46.50571" lon="5.43247">
        <ele>433.39999389648</ele>
        <time>2022-06-16T14:08:13.000Z</time>
      </trkpt>
      <trkpt lat="46.50559" lon="5.43238">
        <ele>433.60000610352</ele>
        <time>2022-06-16T14:08:15.000Z</time>
      </trkpt>
      <trkpt lat="46.50541" lon="5.43225">
        <ele>433.79998779297</ele>
        <time>2022-06-16T14:08:18.000Z</time>
      </trkpt>
      <trkpt lat="46.50528" lon="5.43222">
        <ele>434</ele>
        <time>2022-06-16T14:08:20.000Z</time>
      </trkpt>
      <trkpt lat="46.50487" lon="5.43217">
        <ele>434.20001220703</ele>
        <time>2022-06-16T14:08:26.000Z</time>
      </trkpt>
      <trkpt lat="46.50452" lon="5.43211">
        <ele>434.60000610352</ele>
        <time>2022-06-16T14:08:32.000Z</time>
      </trkpt>
      <trkpt lat="46.50429" lon="5.43201">
        <ele>435</ele>
        <time>2022-06-16T14:08:36.000Z</time>
      </trkpt>
      <trkpt lat="46.50418" lon="5.43195">
        <ele>435.20001220703</ele>
        <time>2022-06-16T14:08:38.000Z</time>
      </trkpt>
      <trkpt lat="46.50371" lon="5.43167">
        <ele>435</ele>
        <time>2022-06-16T14:08:46.000Z</time>
      </trkpt>
      <trkpt lat="46.50326" lon="5.4314">
        <ele>435.39999389648</ele>
        <time>2022-06-16T14:08:53.000Z</time>
      </trkpt>
      <trkpt lat="46.50295" lon="5.4312">
        <ele>436.20001220703</ele>
        <time>2022-06-16T14:08:58.000Z</time>
      </trkpt>
      <trkpt lat="46.50289" lon="5.43117">
        <ele>436.20001220703</ele>
        <time>2022-06-16T14:08:59.000Z</time>
      </trkpt>
      <trkpt lat="46.50284" lon="5.43114">
        <ele>436.39999389648</ele>
        <time>2022-06-16T14:09:00.000Z</time>
      </trkpt>
      <trkpt lat="46.50265" lon="5.43108">
        <ele>436.60000610352</ele>
        <time>2022-06-16T14:09:03.000Z</time>
      </trkpt>
      <trkpt lat="46.50252" lon="5.43106">
        <ele>436.79998779297</ele>
        <time>2022-06-16T14:09:05.000Z</time>
      </trkpt>
      <trkpt lat="46.50227" lon="5.43105">
        <ele>437</ele>
        <time>2022-06-16T14:09:09.000Z</time>
      </trkpt>
      <trkpt lat="46.50209" lon="5.43103">
        <ele>437.39999389648</ele>
        <time>2022-06-16T14:09:12.000Z</time>
      </trkpt>
      <trkpt lat="46.50165" lon="5.43096">
        <ele>438.20001220703</ele>
        <time>2022-06-16T14:09:20.000Z</time>
      </trkpt>
      <trkpt lat="46.50112" lon="5.43088">
        <ele>438.79998779297</ele>
        <time>2022-06-16T14:09:29.000Z</time>
      </trkpt>
      <trkpt lat="46.50075" lon="5.43081">
        <ele>439.20001220703</ele>
        <time>2022-06-16T14:09:35.000Z</time>
      </trkpt>
      <trkpt lat="46.50069" lon="5.43081">
        <ele>439.20001220703</ele>
        <time>2022-06-16T14:09:36.000Z</time>
      </trkpt>
      <trkpt lat="46.50041" lon="5.43078">
        <ele>439.39999389648</ele>
        <time>2022-06-16T14:09:40.000Z</time>
      </trkpt>
      <trkpt lat="46.50034" lon="5.43077">
        <ele>439.39999389648</ele>
        <time>2022-06-16T14:09:41.000Z</time>
      </trkpt>
      <trkpt lat="46.50006" lon="5.43074">
        <ele>440</ele>
        <time>2022-06-16T14:09:45.000Z</time>
      </trkpt>
      <trkpt lat="46.49999" lon="5.43074">
        <ele>440.20001220703</ele>
        <time>2022-06-16T14:09:46.000Z</time>
      </trkpt>
      <trkpt lat="46.49993" lon="5.43074">
        <ele>440.20001220703</ele>
        <time>2022-06-16T14:09:47.000Z</time>
      </trkpt>
      <trkpt lat="46.49987" lon="5.43074">
        <ele>440.20001220703</ele>
        <time>2022-06-16T14:09:48.000Z</time>
      </trkpt>
      <trkpt lat="46.49975" lon="5.43074">
        <ele>440.39999389648</ele>
        <time>2022-06-16T14:09:50.000Z</time>
      </trkpt>
      <trkpt lat="46.49958" lon="5.43072">
        <ele>441.20001220703</ele>
        <time>2022-06-16T14:09:53.000Z</time>
      </trkpt>
      <trkpt lat="46.4994" lon="5.4307">
        <ele>442.60000610352</ele>
        <time>2022-06-16T14:09:56.000Z</time>
      </trkpt>
      <trkpt lat="46.49934" lon="5.4307">
        <ele>442.79998779297</ele>
        <time>2022-06-16T14:09:57.000Z</time>
      </trkpt>
      <trkpt lat="46.49919" lon="5.43071">
        <ele>443.60000610352</ele>
        <time>2022-06-16T14:10:00.000Z</time>
      </trkpt>
      <trkpt lat="46.49914" lon="5.4307">
        <ele>444</ele>
        <time>2022-06-16T14:10:01.000Z</time>
      </trkpt>
      <trkpt lat="46.49903" lon="5.43067">
        <ele>444.39999389648</ele>
        <time>2022-06-16T14:10:03.000Z</time>
      </trkpt>
      <trkpt lat="46.49892" lon="5.43065">
        <ele>445</ele>
        <time>2022-06-16T14:10:05.000Z</time>
      </trkpt>
      <trkpt lat="46.49885" lon="5.43061">
        <ele>445</ele>
        <time>2022-06-16T14:10:06.000Z</time>
      </trkpt>
      <trkpt lat="46.49856" lon="5.43063">
        <ele>445.60000610352</ele>
        <time>2022-06-16T14:10:10.000Z</time>
      </trkpt>
      <trkpt lat="46.49848" lon="5.43058">
        <ele>445.60000610352</ele>
        <time>2022-06-16T14:10:11.000Z</time>
      </trkpt>
      <trkpt lat="46.49798" lon="5.43054">
        <ele>445.79998779297</ele>
        <time>2022-06-16T14:10:19.000Z</time>
      </trkpt>
      <trkpt lat="46.49788" lon="5.43053">
        <ele>446</ele>
        <time>2022-06-16T14:10:21.000Z</time>
      </trkpt>
      <trkpt lat="46.49748" lon="5.43044">
        <ele>447</ele>
        <time>2022-06-16T14:10:28.000Z</time>
      </trkpt>
      <trkpt lat="46.49704" lon="5.43028">
        <ele>447.20001220703</ele>
        <time>2022-06-16T14:10:35.000Z</time>
      </trkpt>
      <trkpt lat="46.49653" lon="5.43006">
        <ele>447.60000610352</ele>
        <time>2022-06-16T14:10:43.000Z</time>
      </trkpt>
      <trkpt lat="46.49642" lon="5.43001">
        <ele>448</ele>
        <time>2022-06-16T14:10:45.000Z</time>
      </trkpt>
      <trkpt lat="46.49616" lon="5.42992">
        <ele>448.60000610352</ele>
        <time>2022-06-16T14:10:51.000Z</time>
      </trkpt>
      <trkpt lat="46.49596" lon="5.42984">
        <ele>449.20001220703</ele>
        <time>2022-06-16T14:10:54.000Z</time>
      </trkpt>
      <trkpt lat="46.49577" lon="5.42975">
        <ele>450.20001220703</ele>
        <time>2022-06-16T14:10:58.000Z</time>
      </trkpt>
      <trkpt lat="46.49572" lon="5.42973">
        <ele>450.60000610352</ele>
        <time>2022-06-16T14:10:59.000Z</time>
      </trkpt>
      <trkpt lat="46.49562" lon="5.42968">
        <ele>451.60000610352</ele>
        <time>2022-06-16T14:11:01.000Z</time>
      </trkpt>
      <trkpt lat="46.49548" lon="5.42962">
        <ele>452.39999389648</ele>
        <time>2022-06-16T14:11:04.000Z</time>
      </trkpt>
      <trkpt lat="46.49543" lon="5.4296">
        <ele>452.79998779297</ele>
        <time>2022-06-16T14:11:05.000Z</time>
      </trkpt>
      <trkpt lat="46.49538" lon="5.42957">
        <ele>453.20001220703</ele>
        <time>2022-06-16T14:11:06.000Z</time>
      </trkpt>
      <trkpt lat="46.49508" lon="5.4294">
        <ele>453.79998779297</ele>
        <time>2022-06-16T14:11:12.000Z</time>
      </trkpt>
      <trkpt lat="46.49503" lon="5.42937">
        <ele>454.20001220703</ele>
        <time>2022-06-16T14:11:13.000Z</time>
      </trkpt>
      <trkpt lat="46.49498" lon="5.42933">
        <ele>454.20001220703</ele>
        <time>2022-06-16T14:11:14.000Z</time>
      </trkpt>
      <trkpt lat="46.49473" lon="5.42912">
        <ele>455</ele>
        <time>2022-06-16T14:11:19.000Z</time>
      </trkpt>
      <trkpt lat="46.49468" lon="5.42907">
        <ele>455</ele>
        <time>2022-06-16T14:11:20.000Z</time>
      </trkpt>
      <trkpt lat="46.4946" lon="5.42896">
        <ele>455.20001220703</ele>
        <time>2022-06-16T14:11:22.000Z</time>
      </trkpt>
      <trkpt lat="46.49441" lon="5.42867">
        <ele>456</ele>
        <time>2022-06-16T14:11:27.000Z</time>
      </trkpt>
      <trkpt lat="46.49429" lon="5.42848">
        <ele>456.20001220703</ele>
        <time>2022-06-16T14:11:30.000Z</time>
      </trkpt>
      <trkpt lat="46.49399" lon="5.42799">
        <ele>456.60000610352</ele>
        <time>2022-06-16T14:11:38.000Z</time>
      </trkpt>
      <trkpt lat="46.49372" lon="5.42754">
        <ele>456.39999389648</ele>
        <time>2022-06-16T14:11:45.000Z</time>
      </trkpt>
      <trkpt lat="46.49369" lon="5.42747">
        <ele>456.60000610352</ele>
        <time>2022-06-16T14:11:47.000Z</time>
      </trkpt>
      <trkpt lat="46.49358" lon="5.42726">
        <ele>456.79998779297</ele>
        <time>2022-06-16T14:11:49.000Z</time>
      </trkpt>
      <trkpt lat="46.49339" lon="5.42702">
        <ele>457.39999389648</ele>
        <time>2022-06-16T14:11:53.000Z</time>
      </trkpt>
      <trkpt lat="46.4933" lon="5.42692">
        <ele>457.79998779297</ele>
        <time>2022-06-16T14:11:55.000Z</time>
      </trkpt>
      <trkpt lat="46.49321" lon="5.42683">
        <ele>458</ele>
        <time>2022-06-16T14:11:57.000Z</time>
      </trkpt>
      <trkpt lat="46.49311" lon="5.42674">
        <ele>458.60000610352</ele>
        <time>2022-06-16T14:11:59.000Z</time>
      </trkpt>
      <trkpt lat="46.49301" lon="5.42664">
        <ele>458.79998779297</ele>
        <time>2022-06-16T14:12:01.000Z</time>
      </trkpt>
      <trkpt lat="46.49284" lon="5.42642">
        <ele>459.39999389648</ele>
        <time>2022-06-16T14:12:05.000Z</time>
      </trkpt>
      <trkpt lat="46.49279" lon="5.42636">
        <ele>459.60000610352</ele>
        <time>2022-06-16T14:12:06.000Z</time>
      </trkpt>
      <trkpt lat="46.49258" lon="5.4261">
        <ele>460.39999389648</ele>
        <time>2022-06-16T14:12:11.000Z</time>
      </trkpt>
      <trkpt lat="46.49249" lon="5.426">
        <ele>461</ele>
        <time>2022-06-16T14:12:13.000Z</time>
      </trkpt>
      <trkpt lat="46.49245" lon="5.42595">
        <ele>461</ele>
        <time>2022-06-16T14:12:14.000Z</time>
      </trkpt>
      <trkpt lat="46.4923" lon="5.4258">
        <ele>461.79998779297</ele>
        <time>2022-06-16T14:12:17.000Z</time>
      </trkpt>
      <trkpt lat="46.4923" lon="5.4258">
        <ele>462.20001220703</ele>
        <time>2022-06-16T14:12:18.000Z</time>
      </trkpt>
      <trkpt lat="46.49212" lon="5.42562">
        <ele>462.60000610352</ele>
        <time>2022-06-16T14:12:21.000Z</time>
      </trkpt>
      <trkpt lat="46.49201" lon="5.42552">
        <ele>463.20001220703</ele>
        <time>2022-06-16T14:12:23.000Z</time>
      </trkpt>
      <trkpt lat="46.49195" lon="5.42547">
        <ele>463.39999389648</ele>
        <time>2022-06-16T14:12:24.000Z</time>
      </trkpt>
      <trkpt lat="46.49162" lon="5.42516">
        <ele>464.20001220703</ele>
        <time>2022-06-16T14:12:31.000Z</time>
      </trkpt>
      <trkpt lat="46.49162" lon="5.42516">
        <ele>464.20001220703</ele>
        <time>2022-06-16T14:12:32.000Z</time>
      </trkpt>
      <trkpt lat="46.49125" lon="5.42475">
        <ele>465.20001220703</ele>
        <time>2022-06-16T14:12:39.000Z</time>
      </trkpt>
      <trkpt lat="46.49111" lon="5.4246">
        <ele>465.60000610352</ele>
        <time>2022-06-16T14:12:42.000Z</time>
      </trkpt>
      <trkpt lat="46.49094" lon="5.42441">
        <ele>466.39999389648</ele>
        <time>2022-06-16T14:12:46.000Z</time>
      </trkpt>
      <trkpt lat="46.49076" lon="5.42421">
        <ele>466.79998779297</ele>
        <time>2022-06-16T14:12:50.000Z</time>
      </trkpt>
      <trkpt lat="46.49063" lon="5.42406">
        <ele>467.20001220703</ele>
        <time>2022-06-16T14:12:53.000Z</time>
      </trkpt>
      <trkpt lat="46.49029" lon="5.42373">
        <ele>468.60000610352</ele>
        <time>2022-06-16T14:13:00.000Z</time>
      </trkpt>
      <trkpt lat="46.48999" lon="5.42354">
        <ele>470</ele>
        <time>2022-06-16T14:13:06.000Z</time>
      </trkpt>
      <trkpt lat="46.48993" lon="5.42351">
        <ele>470.39999389648</ele>
        <time>2022-06-16T14:13:07.000Z</time>
      </trkpt>
      <trkpt lat="46.48961" lon="5.42332">
        <ele>471</ele>
        <time>2022-06-16T14:13:14.000Z</time>
      </trkpt>
      <trkpt lat="46.48956" lon="5.4233">
        <ele>471.20001220703</ele>
        <time>2022-06-16T14:13:15.000Z</time>
      </trkpt>
      <trkpt lat="46.48947" lon="5.42325">
        <ele>472</ele>
        <time>2022-06-16T14:13:17.000Z</time>
      </trkpt>
      <trkpt lat="46.48933" lon="5.42317">
        <ele>473.20001220703</ele>
        <time>2022-06-16T14:13:20.000Z</time>
      </trkpt>
      <trkpt lat="46.48923" lon="5.42315">
        <ele>473.79998779297</ele>
        <time>2022-06-16T14:13:22.000Z</time>
      </trkpt>
      <trkpt lat="46.48918" lon="5.42315">
        <ele>474.20001220703</ele>
        <time>2022-06-16T14:13:23.000Z</time>
      </trkpt>
      <trkpt lat="46.48913" lon="5.42315">
        <ele>474.39999389648</ele>
        <time>2022-06-16T14:13:24.000Z</time>
      </trkpt>
      <trkpt lat="46.48898" lon="5.42318">
        <ele>474.79998779297</ele>
        <time>2022-06-16T14:13:28.000Z</time>
      </trkpt>
      <trkpt lat="46.48888" lon="5.42321">
        <ele>474.79998779297</ele>
        <time>2022-06-16T14:13:29.000Z</time>
      </trkpt>
      <trkpt lat="46.48874" lon="5.42324">
        <ele>475.20001220703</ele>
        <time>2022-06-16T14:13:32.000Z</time>
      </trkpt>
      <trkpt lat="46.48864" lon="5.42326">
        <ele>475.39999389648</ele>
        <time>2022-06-16T14:13:34.000Z</time>
      </trkpt>
      <trkpt lat="46.48859" lon="5.42325">
        <ele>475.60000610352</ele>
        <time>2022-06-16T14:13:35.000Z</time>
      </trkpt>
      <trkpt lat="46.48826" lon="5.42317">
        <ele>476.39999389648</ele>
        <time>2022-06-16T14:13:41.000Z</time>
      </trkpt>
      <trkpt lat="46.48777" lon="5.42291">
        <ele>477</ele>
        <time>2022-06-16T14:13:49.000Z</time>
      </trkpt>
      <trkpt lat="46.48729" lon="5.4227">
        <ele>477</ele>
        <time>2022-06-16T14:13:57.000Z</time>
      </trkpt>
      <trkpt lat="46.48696" lon="5.42259">
        <ele>477.60000610352</ele>
        <time>2022-06-16T14:14:03.000Z</time>
      </trkpt>
      <trkpt lat="46.4869" lon="5.42258">
        <ele>477.60000610352</ele>
        <time>2022-06-16T14:14:04.000Z</time>
      </trkpt>
      <trkpt lat="46.48672" lon="5.42254">
        <ele>478</ele>
        <time>2022-06-16T14:14:07.000Z</time>
      </trkpt>
      <trkpt lat="46.48642" lon="5.42251">
        <ele>478.39999389648</ele>
        <time>2022-06-16T14:14:12.000Z</time>
      </trkpt>
      <trkpt lat="46.48632" lon="5.42256">
        <ele>478.39999389648</ele>
        <time>2022-06-16T14:14:14.000Z</time>
      </trkpt>
      <trkpt lat="46.48623" lon="5.42262">
        <ele>478.79998779297</ele>
        <time>2022-06-16T14:14:16.000Z</time>
      </trkpt>
      <trkpt lat="46.48606" lon="5.42276">
        <ele>479.79998779297</ele>
        <time>2022-06-16T14:14:20.000Z</time>
      </trkpt>
      <trkpt lat="46.48595" lon="5.42285">
        <ele>481</ele>
        <time>2022-06-16T14:14:23.000Z</time>
      </trkpt>
      <trkpt lat="46.48576" lon="5.42298">
        <ele>482</ele>
        <time>2022-06-16T14:14:28.000Z</time>
      </trkpt>
      <trkpt lat="46.48571" lon="5.423">
        <ele>482.20001220703</ele>
        <time>2022-06-16T14:14:29.000Z</time>
      </trkpt>
      <trkpt lat="46.48562" lon="5.423">
        <ele>483</ele>
        <time>2022-06-16T14:14:31.000Z</time>
      </trkpt>
      <trkpt lat="46.48557" lon="5.42298">
        <ele>483.20001220703</ele>
        <time>2022-06-16T14:14:32.000Z</time>
      </trkpt>
      <trkpt lat="46.4855" lon="5.42291">
        <ele>483.39999389648</ele>
        <time>2022-06-16T14:14:34.000Z</time>
      </trkpt>
      <trkpt lat="46.48542" lon="5.42283">
        <ele>483.79998779297</ele>
        <time>2022-06-16T14:14:36.000Z</time>
      </trkpt>
      <trkpt lat="46.48537" lon="5.42279">
        <ele>484.60000610352</ele>
        <time>2022-06-16T14:14:37.000Z</time>
      </trkpt>
      <trkpt lat="46.48516" lon="5.42262">
        <ele>485.79998779297</ele>
        <time>2022-06-16T14:14:42.000Z</time>
      </trkpt>
      <trkpt lat="46.48486" lon="5.42237">
        <ele>486.60000610352</ele>
        <time>2022-06-16T14:14:49.000Z</time>
      </trkpt>
      <trkpt lat="46.48476" lon="5.4223">
        <ele>486.79998779297</ele>
        <time>2022-06-16T14:14:51.000Z</time>
      </trkpt>
      <trkpt lat="46.48441" lon="5.422">
        <ele>487.60000610352</ele>
        <time>2022-06-16T14:14:59.000Z</time>
      </trkpt>
      <trkpt lat="46.48423" lon="5.42187">
        <ele>488</ele>
        <time>2022-06-16T14:15:03.000Z</time>
      </trkpt>
      <trkpt lat="46.48408" lon="5.42178">
        <ele>488.20001220703</ele>
        <time>2022-06-16T14:15:06.000Z</time>
      </trkpt>
      <trkpt lat="46.48371" lon="5.42157">
        <ele>489</ele>
        <time>2022-06-16T14:15:14.000Z</time>
      </trkpt>
      <trkpt lat="46.48361" lon="5.42152">
        <ele>489.60000610352</ele>
        <time>2022-06-16T14:15:16.000Z</time>
      </trkpt>
      <trkpt lat="46.48346" lon="5.42143">
        <ele>490.20001220703</ele>
        <time>2022-06-16T14:15:19.000Z</time>
      </trkpt>
      <trkpt lat="46.48329" lon="5.42133">
        <ele>490.79998779297</ele>
        <time>2022-06-16T14:15:22.000Z</time>
      </trkpt>
      <trkpt lat="46.48306" lon="5.4212">
        <ele>491.39999389648</ele>
        <time>2022-06-16T14:15:26.000Z</time>
      </trkpt>
      <trkpt lat="46.4829" lon="5.4211">
        <ele>491.39999389648</ele>
        <time>2022-06-16T14:15:29.000Z</time>
      </trkpt>
      <trkpt lat="46.48271" lon="5.42099">
        <ele>491.60000610352</ele>
        <time>2022-06-16T14:15:33.000Z</time>
      </trkpt>
      <trkpt lat="46.48262" lon="5.42094">
        <ele>491.60000610352</ele>
        <time>2022-06-16T14:15:35.000Z</time>
      </trkpt>
      <trkpt lat="46.48249" lon="5.42087">
        <ele>492.39999389648</ele>
        <time>2022-06-16T14:15:38.000Z</time>
      </trkpt>
      <trkpt lat="46.48225" lon="5.42075">
        <ele>493.20001220703</ele>
        <time>2022-06-16T14:15:43.000Z</time>
      </trkpt>
      <trkpt lat="46.48215" lon="5.4207">
        <ele>493.79998779297</ele>
        <time>2022-06-16T14:15:45.000Z</time>
      </trkpt>
      <trkpt lat="46.48193" lon="5.42056">
        <ele>495</ele>
        <time>2022-06-16T14:15:50.000Z</time>
      </trkpt>
      <trkpt lat="46.48184" lon="5.42051">
        <ele>495.39999389648</ele>
        <time>2022-06-16T14:15:52.000Z</time>
      </trkpt>
      <trkpt lat="46.48168" lon="5.42039">
        <ele>496</ele>
        <time>2022-06-16T14:15:56.000Z</time>
      </trkpt>
      <trkpt lat="46.48145" lon="5.42021">
        <ele>497</ele>
        <time>2022-06-16T14:16:02.000Z</time>
      </trkpt>
      <trkpt lat="46.48122" lon="5.42">
        <ele>498.20001220703</ele>
        <time>2022-06-16T14:16:08.000Z</time>
      </trkpt>
      <trkpt lat="46.48118" lon="5.41997">
        <ele>498.39999389648</ele>
        <time>2022-06-16T14:16:09.000Z</time>
      </trkpt>
      <trkpt lat="46.48118" lon="5.41997">
        <ele>498.79998779297</ele>
        <time>2022-06-16T14:16:10.000Z</time>
      </trkpt>
      <trkpt lat="46.48108" lon="5.41992">
        <ele>499</ele>
        <time>2022-06-16T14:16:11.000Z</time>
      </trkpt>
      <trkpt lat="46.48094" lon="5.41989">
        <ele>499.20001220703</ele>
        <time>2022-06-16T14:16:14.000Z</time>
      </trkpt>
      <trkpt lat="46.48089" lon="5.41989">
        <ele>499.39999389648</ele>
        <time>2022-06-16T14:16:15.000Z</time>
      </trkpt>
      <trkpt lat="46.48052" lon="5.41996">
        <ele>500.20001220703</ele>
        <time>2022-06-16T14:16:22.000Z</time>
      </trkpt>
      <trkpt lat="46.48047" lon="5.41996">
        <ele>500.20001220703</ele>
        <time>2022-06-16T14:16:23.000Z</time>
      </trkpt>
      <trkpt lat="46.48042" lon="5.41994">
        <ele>500.20001220703</ele>
        <time>2022-06-16T14:16:24.000Z</time>
      </trkpt>
      <trkpt lat="46.48032" lon="5.41989">
        <ele>500.39999389648</ele>
        <time>2022-06-16T14:16:26.000Z</time>
      </trkpt>
      <trkpt lat="46.48027" lon="5.41986">
        <ele>500.39999389648</ele>
        <time>2022-06-16T14:16:27.000Z</time>
      </trkpt>
      <trkpt lat="46.48003" lon="5.41965">
        <ele>500.60000610352</ele>
        <time>2022-06-16T14:16:32.000Z</time>
      </trkpt>
      <trkpt lat="46.4799" lon="5.41947">
        <ele>500.79998779297</ele>
        <time>2022-06-16T14:16:35.000Z</time>
      </trkpt>
      <trkpt lat="46.47968" lon="5.41917">
        <ele>501</ele>
        <time>2022-06-16T14:16:39.000Z</time>
      </trkpt>
      <trkpt lat="46.47954" lon="5.41904">
        <ele>501</ele>
        <time>2022-06-16T14:16:41.000Z</time>
      </trkpt>
      <trkpt lat="46.47939" lon="5.41896">
        <ele>501</ele>
        <time>2022-06-16T14:16:43.000Z</time>
      </trkpt>
      <trkpt lat="46.47892" lon="5.41879">
        <ele>500.79998779297</ele>
        <time>2022-06-16T14:16:49.000Z</time>
      </trkpt>
      <trkpt lat="46.47839" lon="5.4186">
        <ele>500.39999389648</ele>
        <time>2022-06-16T14:16:56.000Z</time>
      </trkpt>
      <trkpt lat="46.47779" lon="5.41841">
        <ele>500.60000610352</ele>
        <time>2022-06-16T14:17:04.000Z</time>
      </trkpt>
      <trkpt lat="46.47741" lon="5.41827">
        <ele>501.39999389648</ele>
        <time>2022-06-16T14:17:09.000Z</time>
      </trkpt>
      <trkpt lat="46.47703" lon="5.41814">
        <ele>501.39999389648</ele>
        <time>2022-06-16T14:17:14.000Z</time>
      </trkpt>
      <trkpt lat="46.47642" lon="5.41791">
        <ele>500.60000610352</ele>
        <time>2022-06-16T14:17:22.000Z</time>
      </trkpt>
      <trkpt lat="46.47604" lon="5.41769">
        <ele>500.39999389648</ele>
        <time>2022-06-16T14:17:27.000Z</time>
      </trkpt>
      <trkpt lat="46.47593" lon="5.41754">
        <ele>500</ele>
        <time>2022-06-16T14:17:29.000Z</time>
      </trkpt>
      <trkpt lat="46.47582" lon="5.41738">
        <ele>500.39999389648</ele>
        <time>2022-06-16T14:17:31.000Z</time>
      </trkpt>
      <trkpt lat="46.47571" lon="5.41724">
        <ele>500.39999389648</ele>
        <time>2022-06-16T14:17:33.000Z</time>
      </trkpt>
      <trkpt lat="46.47559" lon="5.41715">
        <ele>500.60000610352</ele>
        <time>2022-06-16T14:17:35.000Z</time>
      </trkpt>
      <trkpt lat="46.47536" lon="5.41698">
        <ele>501.39999389648</ele>
        <time>2022-06-16T14:17:39.000Z</time>
      </trkpt>
      <trkpt lat="46.47526" lon="5.41691">
        <ele>501.60000610352</ele>
        <time>2022-06-16T14:17:41.000Z</time>
      </trkpt>
      <trkpt lat="46.47517" lon="5.41684">
        <ele>502.39999389648</ele>
        <time>2022-06-16T14:17:43.000Z</time>
      </trkpt>
      <trkpt lat="46.47503" lon="5.41674">
        <ele>503.60000610352</ele>
        <time>2022-06-16T14:17:46.000Z</time>
      </trkpt>
      <trkpt lat="46.4749" lon="5.41662">
        <ele>504.20001220703</ele>
        <time>2022-06-16T14:17:49.000Z</time>
      </trkpt>
      <trkpt lat="46.47485" lon="5.41658">
        <ele>504.39999389648</ele>
        <time>2022-06-16T14:17:50.000Z</time>
      </trkpt>
      <trkpt lat="46.47453" lon="5.41632">
        <ele>505.60000610352</ele>
        <time>2022-06-16T14:17:57.000Z</time>
      </trkpt>
      <trkpt lat="46.47449" lon="5.41629">
        <ele>506</ele>
        <time>2022-06-16T14:17:58.000Z</time>
      </trkpt>
      <trkpt lat="46.47436" lon="5.41621">
        <ele>506.60000610352</ele>
        <time>2022-06-16T14:18:01.000Z</time>
      </trkpt>
      <trkpt lat="46.47409" lon="5.41605">
        <ele>507.79998779297</ele>
        <time>2022-06-16T14:18:07.000Z</time>
      </trkpt>
      <trkpt lat="46.47366" lon="5.41582">
        <ele>508.39999389648</ele>
        <time>2022-06-16T14:18:16.000Z</time>
      </trkpt>
      <trkpt lat="46.47357" lon="5.41577">
        <ele>509</ele>
        <time>2022-06-16T14:18:18.000Z</time>
      </trkpt>
      <trkpt lat="46.47342" lon="5.41567">
        <ele>509.79998779297</ele>
        <time>2022-06-16T14:18:22.000Z</time>
      </trkpt>
      <trkpt lat="46.47338" lon="5.41563">
        <ele>510.20001220703</ele>
        <time>2022-06-16T14:18:23.000Z</time>
      </trkpt>
      <trkpt lat="46.47327" lon="5.41554">
        <ele>511.20001220703</ele>
        <time>2022-06-16T14:18:26.000Z</time>
      </trkpt>
      <trkpt lat="46.47323" lon="5.41551">
        <ele>511.39999389648</ele>
        <time>2022-06-16T14:18:27.000Z</time>
      </trkpt>
      <trkpt lat="46.47316" lon="5.41543">
        <ele>511.79998779297</ele>
        <time>2022-06-16T14:18:29.000Z</time>
      </trkpt>
      <trkpt lat="46.47306" lon="5.41531">
        <ele>512.40002441406</ele>
        <time>2022-06-16T14:18:32.000Z</time>
      </trkpt>
      <trkpt lat="46.47297" lon="5.41518">
        <ele>513.59997558594</ele>
        <time>2022-06-16T14:18:35.000Z</time>
      </trkpt>
      <trkpt lat="46.47285" lon="5.415">
        <ele>514.59997558594</ele>
        <time>2022-06-16T14:18:39.000Z</time>
      </trkpt>
      <trkpt lat="46.47276" lon="5.41486">
        <ele>515.59997558594</ele>
        <time>2022-06-16T14:18:42.000Z</time>
      </trkpt>
      <trkpt lat="46.47257" lon="5.41452">
        <ele>517</ele>
        <time>2022-06-16T14:18:49.000Z</time>
      </trkpt>
      <trkpt lat="46.47254" lon="5.41447">
        <ele>517</ele>
        <time>2022-06-16T14:18:50.000Z</time>
      </trkpt>
      <trkpt lat="46.47243" lon="5.41428">
        <ele>518.40002441406</ele>
        <time>2022-06-16T14:18:54.000Z</time>
      </trkpt>
      <trkpt lat="46.4723" lon="5.41405">
        <ele>519.20001220703</ele>
        <time>2022-06-16T14:18:59.000Z</time>
      </trkpt>
      <trkpt lat="46.47228" lon="5.41401">
        <ele>519.40002441406</ele>
        <time>2022-06-16T14:19:00.000Z</time>
      </trkpt>
      <trkpt lat="46.4722" lon="5.41388">
        <ele>520.59997558594</ele>
        <time>2022-06-16T14:19:03.000Z</time>
      </trkpt>
      <trkpt lat="46.47209" lon="5.41371">
        <ele>521.79998779297</ele>
        <time>2022-06-16T14:19:07.000Z</time>
      </trkpt>
      <trkpt lat="46.47206" lon="5.41367">
        <ele>522.20001220703</ele>
        <time>2022-06-16T14:19:08.000Z</time>
      </trkpt>
      <trkpt lat="46.47197" lon="5.41351">
        <ele>523</ele>
        <time>2022-06-16T14:19:11.000Z</time>
      </trkpt>
      <trkpt lat="46.47189" lon="5.41332">
        <ele>523.40002441406</ele>
        <time>2022-06-16T14:19:14.000Z</time>
      </trkpt>
      <trkpt lat="46.47177" lon="5.41293">
        <ele>524</ele>
        <time>2022-06-16T14:19:20.000Z</time>
      </trkpt>
      <trkpt lat="46.47175" lon="5.41286">
        <ele>524</ele>
        <time>2022-06-16T14:19:21.000Z</time>
      </trkpt>
      <trkpt lat="46.47167" lon="5.41237">
        <ele>524.59997558594</ele>
        <time>2022-06-16T14:19:27.000Z</time>
      </trkpt>
      <trkpt lat="46.47152" lon="5.41171">
        <ele>524.59997558594</ele>
        <time>2022-06-16T14:19:34.000Z</time>
      </trkpt>
      <trkpt lat="46.47132" lon="5.41123">
        <ele>524.59997558594</ele>
        <time>2022-06-16T14:19:39.000Z</time>
      </trkpt>
      <trkpt lat="46.471" lon="5.41068">
        <ele>524.40002441406</ele>
        <time>2022-06-16T14:19:45.000Z</time>
      </trkpt>
      <trkpt lat="46.47068" lon="5.41036">
        <ele>524.20001220703</ele>
        <time>2022-06-16T14:19:50.000Z</time>
      </trkpt>
      <trkpt lat="46.47031" lon="5.41">
        <ele>525.59997558594</ele>
        <time>2022-06-16T14:19:56.000Z</time>
      </trkpt>
      <trkpt lat="46.47009" lon="5.4097">
        <ele>526.79998779297</ele>
        <time>2022-06-16T14:20:00.000Z</time>
      </trkpt>
      <trkpt lat="46.47004" lon="5.40962">
        <ele>527</ele>
        <time>2022-06-16T14:20:01.000Z</time>
      </trkpt>
      <trkpt lat="46.47" lon="5.40954">
        <ele>527.20001220703</ele>
        <time>2022-06-16T14:20:02.000Z</time>
      </trkpt>
      <trkpt lat="46.46991" lon="5.4093">
        <ele>527.79998779297</ele>
        <time>2022-06-16T14:20:05.000Z</time>
      </trkpt>
      <trkpt lat="46.46983" lon="5.40881">
        <ele>528.79998779297</ele>
        <time>2022-06-16T14:20:11.000Z</time>
      </trkpt>
      <trkpt lat="46.46982" lon="5.40873">
        <ele>529</ele>
        <time>2022-06-16T14:20:12.000Z</time>
      </trkpt>
      <trkpt lat="46.46977" lon="5.40833">
        <ele>530</ele>
        <time>2022-06-16T14:20:17.000Z</time>
      </trkpt>
      <trkpt lat="46.46975" lon="5.40824">
        <ele>530.20001220703</ele>
        <time>2022-06-16T14:20:18.000Z</time>
      </trkpt>
      <trkpt lat="46.46969" lon="5.40781">
        <ele>530.59997558594</ele>
        <time>2022-06-16T14:20:23.000Z</time>
      </trkpt>
      <trkpt lat="46.46967" lon="5.40761">
        <ele>530.79998779297</ele>
        <time>2022-06-16T14:20:25.000Z</time>
      </trkpt>
      <trkpt lat="46.4696" lon="5.40713">
        <ele>530.79998779297</ele>
        <time>2022-06-16T14:20:29.000Z</time>
      </trkpt>
      <trkpt lat="46.46951" lon="5.40646">
        <ele>528.40002441406</ele>
        <time>2022-06-16T14:20:34.000Z</time>
      </trkpt>
      <trkpt lat="46.46948" lon="5.4062">
        <ele>527.79998779297</ele>
        <time>2022-06-16T14:20:36.000Z</time>
      </trkpt>
      <trkpt lat="46.46945" lon="5.40594">
        <ele>527.20001220703</ele>
        <time>2022-06-16T14:20:38.000Z</time>
      </trkpt>
      <trkpt lat="46.46939" lon="5.40528">
        <ele>526.20001220703</ele>
        <time>2022-06-16T14:20:43.000Z</time>
      </trkpt>
      <trkpt lat="46.46929" lon="5.40449">
        <ele>525.40002441406</ele>
        <time>2022-06-16T14:20:49.000Z</time>
      </trkpt>
      <trkpt lat="46.46927" lon="5.40437">
        <ele>525.20001220703</ele>
        <time>2022-06-16T14:20:50.000Z</time>
      </trkpt>
      <trkpt lat="46.46926" lon="5.40424">
        <ele>525.20001220703</ele>
        <time>2022-06-16T14:20:51.000Z</time>
      </trkpt>
      <trkpt lat="46.46919" lon="5.40358">
        <ele>524.20001220703</ele>
        <time>2022-06-16T14:20:56.000Z</time>
      </trkpt>
      <trkpt lat="46.46914" lon="5.40296">
        <ele>523</ele>
        <time>2022-06-16T14:21:01.000Z</time>
      </trkpt>
      <trkpt lat="46.46915" lon="5.40288">
        <ele>522.40002441406</ele>
        <time>2022-06-16T14:21:02.000Z</time>
      </trkpt>
      <trkpt lat="46.46919" lon="5.40282">
        <ele>522.20001220703</ele>
        <time>2022-06-16T14:21:03.000Z</time>
      </trkpt>
      <trkpt lat="46.46923" lon="5.4028">
        <ele>521.79998779297</ele>
        <time>2022-06-16T14:21:04.000Z</time>
      </trkpt>
      <trkpt lat="46.46928" lon="5.40281">
        <ele>521.79998779297</ele>
        <time>2022-06-16T14:21:05.000Z</time>
      </trkpt>
      <trkpt lat="46.46939" lon="5.40289">
        <ele>521.59997558594</ele>
        <time>2022-06-16T14:21:07.000Z</time>
      </trkpt>
      <trkpt lat="46.46952" lon="5.40295">
        <ele>521.59997558594</ele>
        <time>2022-06-16T14:21:09.000Z</time>
      </trkpt>
      <trkpt lat="46.46964" lon="5.403">
        <ele>521.59997558594</ele>
        <time>2022-06-16T14:21:11.000Z</time>
      </trkpt>
      <trkpt lat="46.46999" lon="5.40314">
        <ele>523</ele>
        <time>2022-06-16T14:21:16.000Z</time>
      </trkpt>
      <trkpt lat="46.47015" lon="5.40318">
        <ele>524</ele>
        <time>2022-06-16T14:21:18.000Z</time>
      </trkpt>
      <trkpt lat="46.47039" lon="5.40321">
        <ele>524.79998779297</ele>
        <time>2022-06-16T14:21:21.000Z</time>
      </trkpt>
      <trkpt lat="46.47047" lon="5.40322">
        <ele>525.20001220703</ele>
        <time>2022-06-16T14:21:22.000Z</time>
      </trkpt>
      <trkpt lat="46.47091" lon="5.40327">
        <ele>525.40002441406</ele>
        <time>2022-06-16T14:21:27.000Z</time>
      </trkpt>
      <trkpt lat="46.47136" lon="5.40336">
        <ele>524.59997558594</ele>
        <time>2022-06-16T14:21:32.000Z</time>
      </trkpt>
      <trkpt lat="46.47146" lon="5.40338">
        <ele>524</ele>
        <time>2022-06-16T14:21:33.000Z</time>
      </trkpt>
      <trkpt lat="46.47175" lon="5.4035">
        <ele>522.59997558594</ele>
        <time>2022-06-16T14:21:36.000Z</time>
      </trkpt>
      <trkpt lat="46.47193" lon="5.40361">
        <ele>521.20001220703</ele>
        <time>2022-06-16T14:21:38.000Z</time>
      </trkpt>
      <trkpt lat="46.47202" lon="5.40371">
        <ele>520.40002441406</ele>
        <time>2022-06-16T14:21:39.000Z</time>
      </trkpt>
      <trkpt lat="46.47211" lon="5.40382">
        <ele>520</ele>
        <time>2022-06-16T14:21:40.000Z</time>
      </trkpt>
      <trkpt lat="46.47233" lon="5.4041">
        <ele>518.79998779297</ele>
        <time>2022-06-16T14:21:43.000Z</time>
      </trkpt>
      <trkpt lat="46.47244" lon="5.40417">
        <ele>518.79998779297</ele>
        <time>2022-06-16T14:21:44.000Z</time>
      </trkpt>
      <trkpt lat="46.47267" lon="5.40428">
        <ele>518.20001220703</ele>
        <time>2022-06-16T14:21:46.000Z</time>
      </trkpt>
      <trkpt lat="46.47298" lon="5.40436">
        <ele>517.20001220703</ele>
        <time>2022-06-16T14:21:49.000Z</time>
      </trkpt>
      <trkpt lat="46.47314" lon="5.4044">
        <ele>515.79998779297</ele>
        <time>2022-06-16T14:21:51.000Z</time>
      </trkpt>
      <trkpt lat="46.4732" lon="5.40441">
        <ele>514.59997558594</ele>
        <time>2022-06-16T14:21:52.000Z</time>
      </trkpt>
      <trkpt lat="46.47329" lon="5.40442">
        <ele>513.40002441406</ele>
        <time>2022-06-16T14:21:53.000Z</time>
      </trkpt>
      <trkpt lat="46.4736" lon="5.40445">
        <ele>512.20001220703</ele>
        <time>2022-06-16T14:21:56.000Z</time>
      </trkpt>
      <trkpt lat="46.47369" lon="5.40446">
        <ele>511.60000610352</ele>
        <time>2022-06-16T14:21:57.000Z</time>
      </trkpt>
      <trkpt lat="46.47387" lon="5.40441">
        <ele>510.20001220703</ele>
        <time>2022-06-16T14:21:59.000Z</time>
      </trkpt>
      <trkpt lat="46.47408" lon="5.40438">
        <ele>509</ele>
        <time>2022-06-16T14:22:02.000Z</time>
      </trkpt>
      <trkpt lat="46.4743" lon="5.4044">
        <ele>507.79998779297</ele>
        <time>2022-06-16T14:22:04.000Z</time>
      </trkpt>
      <trkpt lat="46.4746" lon="5.40448">
        <ele>506.79998779297</ele>
        <time>2022-06-16T14:22:07.000Z</time>
      </trkpt>
      <trkpt lat="46.47467" lon="5.40454">
        <ele>506.60000610352</ele>
        <time>2022-06-16T14:22:08.000Z</time>
      </trkpt>
      <trkpt lat="46.47488" lon="5.40478">
        <ele>504.79998779297</ele>
        <time>2022-06-16T14:22:11.000Z</time>
      </trkpt>
      <trkpt lat="46.47504" lon="5.40468">
        <ele>503.79998779297</ele>
        <time>2022-06-16T14:22:13.000Z</time>
      </trkpt>
      <trkpt lat="46.47509" lon="5.40457">
        <ele>503.39999389648</ele>
        <time>2022-06-16T14:22:14.000Z</time>
      </trkpt>
      <trkpt lat="46.47512" lon="5.40444">
        <ele>502.79998779297</ele>
        <time>2022-06-16T14:22:15.000Z</time>
      </trkpt>
      <trkpt lat="46.47514" lon="5.40429">
        <ele>501.60000610352</ele>
        <time>2022-06-16T14:22:16.000Z</time>
      </trkpt>
      <trkpt lat="46.47511" lon="5.40399">
        <ele>500.60000610352</ele>
        <time>2022-06-16T14:22:18.000Z</time>
      </trkpt>
      <trkpt lat="46.475" lon="5.4036">
        <ele>499</ele>
        <time>2022-06-16T14:22:21.000Z</time>
      </trkpt>
      <trkpt lat="46.47499" lon="5.40346">
        <ele>498.60000610352</ele>
        <time>2022-06-16T14:22:22.000Z</time>
      </trkpt>
      <trkpt lat="46.475" lon="5.40331">
        <ele>497.79998779297</ele>
        <time>2022-06-16T14:22:23.000Z</time>
      </trkpt>
      <trkpt lat="46.47504" lon="5.40315">
        <ele>497.60000610352</ele>
        <time>2022-06-16T14:22:24.000Z</time>
      </trkpt>
      <trkpt lat="46.47513" lon="5.40302">
        <ele>497</ele>
        <time>2022-06-16T14:22:25.000Z</time>
      </trkpt>
      <trkpt lat="46.47521" lon="5.40289">
        <ele>496.60000610352</ele>
        <time>2022-06-16T14:22:26.000Z</time>
      </trkpt>
      <trkpt lat="46.47546" lon="5.4027">
        <ele>495.39999389648</ele>
        <time>2022-06-16T14:22:28.000Z</time>
      </trkpt>
      <trkpt lat="46.47556" lon="5.40263">
        <ele>494.60000610352</ele>
        <time>2022-06-16T14:22:29.000Z</time>
      </trkpt>
      <trkpt lat="46.47569" lon="5.40258">
        <ele>493.79998779297</ele>
        <time>2022-06-16T14:22:30.000Z</time>
      </trkpt>
      <trkpt lat="46.47596" lon="5.40251">
        <ele>492.60000610352</ele>
        <time>2022-06-16T14:22:32.000Z</time>
      </trkpt>
      <trkpt lat="46.47619" lon="5.40246">
        <ele>491.60000610352</ele>
        <time>2022-06-16T14:22:34.000Z</time>
      </trkpt>
      <trkpt lat="46.47641" lon="5.40242">
        <ele>491</ele>
        <time>2022-06-16T14:22:36.000Z</time>
      </trkpt>
      <trkpt lat="46.47653" lon="5.40242">
        <ele>490.39999389648</ele>
        <time>2022-06-16T14:22:37.000Z</time>
      </trkpt>
      <trkpt lat="46.47677" lon="5.40243">
        <ele>488.60000610352</ele>
        <time>2022-06-16T14:22:39.000Z</time>
      </trkpt>
      <trkpt lat="46.47686" lon="5.40241">
        <ele>488.20001220703</ele>
        <time>2022-06-16T14:22:40.000Z</time>
      </trkpt>
      <trkpt lat="46.47695" lon="5.40234">
        <ele>487.60000610352</ele>
        <time>2022-06-16T14:22:41.000Z</time>
      </trkpt>
      <trkpt lat="46.47711" lon="5.40224">
        <ele>487.20001220703</ele>
        <time>2022-06-16T14:22:42.000Z</time>
      </trkpt>
      <trkpt lat="46.47714" lon="5.40206">
        <ele>486.79998779297</ele>
        <time>2022-06-16T14:22:43.000Z</time>
      </trkpt>
      <trkpt lat="46.47721" lon="5.40174">
        <ele>486</ele>
        <time>2022-06-16T14:22:45.000Z</time>
      </trkpt>
      <trkpt lat="46.4773" lon="5.40158">
        <ele>485.39999389648</ele>
        <time>2022-06-16T14:22:46.000Z</time>
      </trkpt>
      <trkpt lat="46.47741" lon="5.40149">
        <ele>485.20001220703</ele>
        <time>2022-06-16T14:22:47.000Z</time>
      </trkpt>
      <trkpt lat="46.4775" lon="5.40135">
        <ele>484.79998779297</ele>
        <time>2022-06-16T14:22:48.000Z</time>
      </trkpt>
      <trkpt lat="46.47758" lon="5.40123">
        <ele>484.60000610352</ele>
        <time>2022-06-16T14:22:49.000Z</time>
      </trkpt>
      <trkpt lat="46.47761" lon="5.40109">
        <ele>484.39999389648</ele>
        <time>2022-06-16T14:22:50.000Z</time>
      </trkpt>
      <trkpt lat="46.47763" lon="5.40093">
        <ele>483.60000610352</ele>
        <time>2022-06-16T14:22:51.000Z</time>
      </trkpt>
      <trkpt lat="46.47765" lon="5.40079">
        <ele>483</ele>
        <time>2022-06-16T14:22:52.000Z</time>
      </trkpt>
      <trkpt lat="46.47766" lon="5.40065">
        <ele>482.20001220703</ele>
        <time>2022-06-16T14:22:53.000Z</time>
      </trkpt>
      <trkpt lat="46.47766" lon="5.40051">
        <ele>481.60000610352</ele>
        <time>2022-06-16T14:22:54.000Z</time>
      </trkpt>
      <trkpt lat="46.47766" lon="5.40037">
        <ele>480.79998779297</ele>
        <time>2022-06-16T14:22:55.000Z</time>
      </trkpt>
      <trkpt lat="46.47767" lon="5.40023">
        <ele>480.20001220703</ele>
        <time>2022-06-16T14:22:56.000Z</time>
      </trkpt>
      <trkpt lat="46.4777" lon="5.40009">
        <ele>479.79998779297</ele>
        <time>2022-06-16T14:22:57.000Z</time>
      </trkpt>
      <trkpt lat="46.47775" lon="5.39997">
        <ele>479</ele>
        <time>2022-06-16T14:22:58.000Z</time>
      </trkpt>
      <trkpt lat="46.47789" lon="5.3998">
        <ele>478.20001220703</ele>
        <time>2022-06-16T14:23:00.000Z</time>
      </trkpt>
      <trkpt lat="46.47799" lon="5.39976">
        <ele>477.60000610352</ele>
        <time>2022-06-16T14:23:01.000Z</time>
      </trkpt>
      <trkpt lat="46.47809" lon="5.39972">
        <ele>476.79998779297</ele>
        <time>2022-06-16T14:23:02.000Z</time>
      </trkpt>
      <trkpt lat="46.4782" lon="5.39967">
        <ele>475.79998779297</ele>
        <time>2022-06-16T14:23:03.000Z</time>
      </trkpt>
      <trkpt lat="46.47852" lon="5.3995">
        <ele>474.39999389648</ele>
        <time>2022-06-16T14:23:06.000Z</time>
      </trkpt>
      <trkpt lat="46.47874" lon="5.39938">
        <ele>472.79998779297</ele>
        <time>2022-06-16T14:23:08.000Z</time>
      </trkpt>
      <trkpt lat="46.47897" lon="5.39927">
        <ele>471</ele>
        <time>2022-06-16T14:23:10.000Z</time>
      </trkpt>
      <trkpt lat="46.47919" lon="5.39916">
        <ele>469.60000610352</ele>
        <time>2022-06-16T14:23:12.000Z</time>
      </trkpt>
      <trkpt lat="46.47942" lon="5.39904">
        <ele>468.60000610352</ele>
        <time>2022-06-16T14:23:14.000Z</time>
      </trkpt>
      <trkpt lat="46.47964" lon="5.39894">
        <ele>467.60000610352</ele>
        <time>2022-06-16T14:23:16.000Z</time>
      </trkpt>
      <trkpt lat="46.47985" lon="5.39884">
        <ele>466.39999389648</ele>
        <time>2022-06-16T14:23:18.000Z</time>
      </trkpt>
      <trkpt lat="46.48006" lon="5.39878">
        <ele>465.60000610352</ele>
        <time>2022-06-16T14:23:20.000Z</time>
      </trkpt>
      <trkpt lat="46.48017" lon="5.39877">
        <ele>465.20001220703</ele>
        <time>2022-06-16T14:23:21.000Z</time>
      </trkpt>
      <trkpt lat="46.48027" lon="5.39879">
        <ele>465</ele>
        <time>2022-06-16T14:23:22.000Z</time>
      </trkpt>
      <trkpt lat="46.48036" lon="5.39884">
        <ele>465</ele>
        <time>2022-06-16T14:23:23.000Z</time>
      </trkpt>
      <trkpt lat="46.48064" lon="5.399">
        <ele>464.60000610352</ele>
        <time>2022-06-16T14:23:26.000Z</time>
      </trkpt>
      <trkpt lat="46.48083" lon="5.39905">
        <ele>464.39999389648</ele>
        <time>2022-06-16T14:23:28.000Z</time>
      </trkpt>
      <trkpt lat="46.48113" lon="5.39903">
        <ele>464.39999389648</ele>
        <time>2022-06-16T14:23:31.000Z</time>
      </trkpt>
      <trkpt lat="46.48122" lon="5.399">
        <ele>464.39999389648</ele>
        <time>2022-06-16T14:23:32.000Z</time>
      </trkpt>
      <trkpt lat="46.48152" lon="5.39888">
        <ele>464.20001220703</ele>
        <time>2022-06-16T14:23:35.000Z</time>
      </trkpt>
      <trkpt lat="46.48181" lon="5.3987">
        <ele>464.20001220703</ele>
        <time>2022-06-16T14:23:38.000Z</time>
      </trkpt>
      <trkpt lat="46.48189" lon="5.39863">
        <ele>464.20001220703</ele>
        <time>2022-06-16T14:23:39.000Z</time>
      </trkpt>
      <trkpt lat="46.48194" lon="5.39853">
        <ele>464.20001220703</ele>
        <time>2022-06-16T14:23:40.000Z</time>
      </trkpt>
      <trkpt lat="46.48197" lon="5.3984">
        <ele>464.20001220703</ele>
        <time>2022-06-16T14:23:41.000Z</time>
      </trkpt>
      <trkpt lat="46.48196" lon="5.39826">
        <ele>464.20001220703</ele>
        <time>2022-06-16T14:23:42.000Z</time>
      </trkpt>
      <trkpt lat="46.48194" lon="5.39812">
        <ele>464.20001220703</ele>
        <time>2022-06-16T14:23:43.000Z</time>
      </trkpt>
      <trkpt lat="46.48187" lon="5.39773">
        <ele>463.79998779297</ele>
        <time>2022-06-16T14:23:46.000Z</time>
      </trkpt>
      <trkpt lat="46.48178" lon="5.39709">
        <ele>463</ele>
        <time>2022-06-16T14:23:51.000Z</time>
      </trkpt>
      <trkpt lat="46.48178" lon="5.39696">
        <ele>463</ele>
        <time>2022-06-16T14:23:52.000Z</time>
      </trkpt>
      <trkpt lat="46.48179" lon="5.39655">
        <ele>462.60000610352</ele>
        <time>2022-06-16T14:23:55.000Z</time>
      </trkpt>
      <trkpt lat="46.48182" lon="5.3964">
        <ele>462.39999389648</ele>
        <time>2022-06-16T14:23:56.000Z</time>
      </trkpt>
      <trkpt lat="46.48186" lon="5.39626">
        <ele>462.20001220703</ele>
        <time>2022-06-16T14:23:57.000Z</time>
      </trkpt>
      <trkpt lat="46.48191" lon="5.39613">
        <ele>461.60000610352</ele>
        <time>2022-06-16T14:23:58.000Z</time>
      </trkpt>
      <trkpt lat="46.48197" lon="5.39599">
        <ele>461.39999389648</ele>
        <time>2022-06-16T14:23:59.000Z</time>
      </trkpt>
      <trkpt lat="46.48208" lon="5.3957">
        <ele>459.79998779297</ele>
        <time>2022-06-16T14:24:01.000Z</time>
      </trkpt>
      <trkpt lat="46.48212" lon="5.39555">
        <ele>459.20001220703</ele>
        <time>2022-06-16T14:24:02.000Z</time>
      </trkpt>
      <trkpt lat="46.48215" lon="5.39539">
        <ele>458.20001220703</ele>
        <time>2022-06-16T14:24:03.000Z</time>
      </trkpt>
      <trkpt lat="46.48221" lon="5.39508">
        <ele>456.79998779297</ele>
        <time>2022-06-16T14:24:05.000Z</time>
      </trkpt>
      <trkpt lat="46.48226" lon="5.39494">
        <ele>456.39999389648</ele>
        <time>2022-06-16T14:24:06.000Z</time>
      </trkpt>
      <trkpt lat="46.48231" lon="5.39483">
        <ele>455</ele>
        <time>2022-06-16T14:24:07.000Z</time>
      </trkpt>
      <trkpt lat="46.48244" lon="5.39467">
        <ele>453.60000610352</ele>
        <time>2022-06-16T14:24:09.000Z</time>
      </trkpt>
      <trkpt lat="46.48259" lon="5.3946">
        <ele>452.79998779297</ele>
        <time>2022-06-16T14:24:11.000Z</time>
      </trkpt>
      <trkpt lat="46.48267" lon="5.39459">
        <ele>451.20001220703</ele>
        <time>2022-06-16T14:24:12.000Z</time>
      </trkpt>
      <trkpt lat="46.48283" lon="5.39461">
        <ele>448.60000610352</ele>
        <time>2022-06-16T14:24:14.000Z</time>
      </trkpt>
      <trkpt lat="46.48292" lon="5.39459">
        <ele>447.39999389648</ele>
        <time>2022-06-16T14:24:16.000Z</time>
      </trkpt>
      <trkpt lat="46.483" lon="5.39454">
        <ele>446.60000610352</ele>
        <time>2022-06-16T14:24:18.000Z</time>
      </trkpt>
      <trkpt lat="46.48305" lon="5.3945">
        <ele>445.60000610352</ele>
        <time>2022-06-16T14:24:19.000Z</time>
      </trkpt>
      <trkpt lat="46.48319" lon="5.39454">
        <ele>444.60000610352</ele>
        <time>2022-06-16T14:24:21.000Z</time>
      </trkpt>
      <trkpt lat="46.48326" lon="5.39454">
        <ele>444</ele>
        <time>2022-06-16T14:24:22.000Z</time>
      </trkpt>
      <trkpt lat="46.48334" lon="5.39453">
        <ele>443.60000610352</ele>
        <time>2022-06-16T14:24:23.000Z</time>
      </trkpt>
      <trkpt lat="46.48342" lon="5.39428">
        <ele>443</ele>
        <time>2022-06-16T14:24:24.000Z</time>
      </trkpt>
      <trkpt lat="46.48359" lon="5.3937">
        <ele>442.20001220703</ele>
        <time>2022-06-16T14:24:26.000Z</time>
      </trkpt>
      <trkpt lat="46.48369" lon="5.39355">
        <ele>441.79998779297</ele>
        <time>2022-06-16T14:24:27.000Z</time>
      </trkpt>
      <trkpt lat="46.48391" lon="5.39336">
        <ele>440.20001220703</ele>
        <time>2022-06-16T14:24:29.000Z</time>
      </trkpt>
      <trkpt lat="46.48402" lon="5.39337">
        <ele>439.79998779297</ele>
        <time>2022-06-16T14:24:30.000Z</time>
      </trkpt>
      <trkpt lat="46.48414" lon="5.39334">
        <ele>438.79998779297</ele>
        <time>2022-06-16T14:24:31.000Z</time>
      </trkpt>
      <trkpt lat="46.48426" lon="5.39332">
        <ele>438.60000610352</ele>
        <time>2022-06-16T14:24:32.000Z</time>
      </trkpt>
      <trkpt lat="46.48439" lon="5.39327">
        <ele>436.79998779297</ele>
        <time>2022-06-16T14:24:33.000Z</time>
      </trkpt>
      <trkpt lat="46.48464" lon="5.39318">
        <ele>434.39999389648</ele>
        <time>2022-06-16T14:24:35.000Z</time>
      </trkpt>
      <trkpt lat="46.48476" lon="5.39315">
        <ele>433.39999389648</ele>
        <time>2022-06-16T14:24:36.000Z</time>
      </trkpt>
      <trkpt lat="46.48501" lon="5.39308">
        <ele>431.60000610352</ele>
        <time>2022-06-16T14:24:38.000Z</time>
      </trkpt>
      <trkpt lat="46.48527" lon="5.39301">
        <ele>430.39999389648</ele>
        <time>2022-06-16T14:24:40.000Z</time>
      </trkpt>
      <trkpt lat="46.48553" lon="5.39296">
        <ele>429</ele>
        <time>2022-06-16T14:24:42.000Z</time>
      </trkpt>
      <trkpt lat="46.48566" lon="5.39294">
        <ele>428.20001220703</ele>
        <time>2022-06-16T14:24:43.000Z</time>
      </trkpt>
      <trkpt lat="46.48579" lon="5.39292">
        <ele>427.20001220703</ele>
        <time>2022-06-16T14:24:44.000Z</time>
      </trkpt>
      <trkpt lat="46.48592" lon="5.39289">
        <ele>425.79998779297</ele>
        <time>2022-06-16T14:24:45.000Z</time>
      </trkpt>
      <trkpt lat="46.48618" lon="5.39283">
        <ele>423.60000610352</ele>
        <time>2022-06-16T14:24:47.000Z</time>
      </trkpt>
      <trkpt lat="46.48643" lon="5.3928">
        <ele>422.20001220703</ele>
        <time>2022-06-16T14:24:49.000Z</time>
      </trkpt>
      <trkpt lat="46.48655" lon="5.39279">
        <ele>421.20001220703</ele>
        <time>2022-06-16T14:24:50.000Z</time>
      </trkpt>
      <trkpt lat="46.48679" lon="5.39284">
        <ele>419.39999389648</ele>
        <time>2022-06-16T14:24:52.000Z</time>
      </trkpt>
      <trkpt lat="46.4869" lon="5.39289">
        <ele>418.20001220703</ele>
        <time>2022-06-16T14:24:53.000Z</time>
      </trkpt>
      <trkpt lat="46.487" lon="5.39294">
        <ele>417</ele>
        <time>2022-06-16T14:24:54.000Z</time>
      </trkpt>
      <trkpt lat="46.48716" lon="5.39307">
        <ele>416</ele>
        <time>2022-06-16T14:24:56.000Z</time>
      </trkpt>
      <trkpt lat="46.48723" lon="5.3931">
        <ele>415</ele>
        <time>2022-06-16T14:24:57.000Z</time>
      </trkpt>
      <trkpt lat="46.48736" lon="5.39309">
        <ele>412.60000610352</ele>
        <time>2022-06-16T14:24:59.000Z</time>
      </trkpt>
      <trkpt lat="46.48742" lon="5.39306">
        <ele>411.20001220703</ele>
        <time>2022-06-16T14:25:00.000Z</time>
      </trkpt>
      <trkpt lat="46.48738" lon="5.39293">
        <ele>409.79998779297</ele>
        <time>2022-06-16T14:25:01.000Z</time>
      </trkpt>
      <trkpt lat="46.48725" lon="5.39266">
        <ele>408.39999389648</ele>
        <time>2022-06-16T14:25:03.000Z</time>
      </trkpt>
      <trkpt lat="46.48715" lon="5.39251">
        <ele>407.39999389648</ele>
        <time>2022-06-16T14:25:04.000Z</time>
      </trkpt>
      <trkpt lat="46.48695" lon="5.39222">
        <ele>405.60000610352</ele>
        <time>2022-06-16T14:25:06.000Z</time>
      </trkpt>
      <trkpt lat="46.48676" lon="5.39195">
        <ele>403.60000610352</ele>
        <time>2022-06-16T14:25:08.000Z</time>
      </trkpt>
      <trkpt lat="46.48657" lon="5.39166">
        <ele>402</ele>
        <time>2022-06-16T14:25:10.000Z</time>
      </trkpt>
      <trkpt lat="46.48647" lon="5.39151">
        <ele>400.79998779297</ele>
        <time>2022-06-16T14:25:11.000Z</time>
      </trkpt>
      <trkpt lat="46.48636" lon="5.39138">
        <ele>400.39999389648</ele>
        <time>2022-06-16T14:25:12.000Z</time>
      </trkpt>
      <trkpt lat="46.48624" lon="5.39126">
        <ele>399.39999389648</ele>
        <time>2022-06-16T14:25:13.000Z</time>
      </trkpt>
      <trkpt lat="46.48599" lon="5.39107">
        <ele>398.60000610352</ele>
        <time>2022-06-16T14:25:15.000Z</time>
      </trkpt>
      <trkpt lat="46.48586" lon="5.39099">
        <ele>397.60000610352</ele>
        <time>2022-06-16T14:25:16.000Z</time>
      </trkpt>
      <trkpt lat="46.48573" lon="5.3909">
        <ele>396.20001220703</ele>
        <time>2022-06-16T14:25:17.000Z</time>
      </trkpt>
      <trkpt lat="46.4856" lon="5.39081">
        <ele>394.39999389648</ele>
        <time>2022-06-16T14:25:18.000Z</time>
      </trkpt>
      <trkpt lat="46.48534" lon="5.39065">
        <ele>392.79998779297</ele>
        <time>2022-06-16T14:25:20.000Z</time>
      </trkpt>
      <trkpt lat="46.4852" lon="5.39056">
        <ele>392.39999389648</ele>
        <time>2022-06-16T14:25:21.000Z</time>
      </trkpt>
      <trkpt lat="46.48509" lon="5.39043">
        <ele>390.79998779297</ele>
        <time>2022-06-16T14:25:22.000Z</time>
      </trkpt>
      <trkpt lat="46.485" lon="5.39026">
        <ele>389.79998779297</ele>
        <time>2022-06-16T14:25:23.000Z</time>
      </trkpt>
      <trkpt lat="46.48494" lon="5.39007">
        <ele>388.39999389648</ele>
        <time>2022-06-16T14:25:24.000Z</time>
      </trkpt>
      <trkpt lat="46.48488" lon="5.38987">
        <ele>387.20001220703</ele>
        <time>2022-06-16T14:25:25.000Z</time>
      </trkpt>
      <trkpt lat="46.48483" lon="5.38967">
        <ele>386.20001220703</ele>
        <time>2022-06-16T14:25:26.000Z</time>
      </trkpt>
      <trkpt lat="46.48475" lon="5.3895">
        <ele>384.79998779297</ele>
        <time>2022-06-16T14:25:27.000Z</time>
      </trkpt>
      <trkpt lat="46.48459" lon="5.38921">
        <ele>383.39999389648</ele>
        <time>2022-06-16T14:25:29.000Z</time>
      </trkpt>
      <trkpt lat="46.48453" lon="5.38906">
        <ele>382.20001220703</ele>
        <time>2022-06-16T14:25:30.000Z</time>
      </trkpt>
      <trkpt lat="46.48449" lon="5.38891">
        <ele>380.79998779297</ele>
        <time>2022-06-16T14:25:31.000Z</time>
      </trkpt>
      <trkpt lat="46.48448" lon="5.38876">
        <ele>379.60000610352</ele>
        <time>2022-06-16T14:25:32.000Z</time>
      </trkpt>
      <trkpt lat="46.4845" lon="5.38863">
        <ele>379.20001220703</ele>
        <time>2022-06-16T14:25:33.000Z</time>
      </trkpt>
      <trkpt lat="46.48455" lon="5.38851">
        <ele>377.79998779297</ele>
        <time>2022-06-16T14:25:34.000Z</time>
      </trkpt>
      <trkpt lat="46.48463" lon="5.38843">
        <ele>377.20001220703</ele>
        <time>2022-06-16T14:25:35.000Z</time>
      </trkpt>
      <trkpt lat="46.48472" lon="5.38836">
        <ele>376.60000610352</ele>
        <time>2022-06-16T14:25:36.000Z</time>
      </trkpt>
      <trkpt lat="46.48492" lon="5.38824">
        <ele>375</ele>
        <time>2022-06-16T14:25:38.000Z</time>
      </trkpt>
      <trkpt lat="46.48513" lon="5.38813">
        <ele>374</ele>
        <time>2022-06-16T14:25:40.000Z</time>
      </trkpt>
      <trkpt lat="46.48523" lon="5.38806">
        <ele>373.39999389648</ele>
        <time>2022-06-16T14:25:41.000Z</time>
      </trkpt>
      <trkpt lat="46.48544" lon="5.38794">
        <ele>371.39999389648</ele>
        <time>2022-06-16T14:25:43.000Z</time>
      </trkpt>
      <trkpt lat="46.48574" lon="5.38776">
        <ele>369.20001220703</ele>
        <time>2022-06-16T14:25:46.000Z</time>
      </trkpt>
      <trkpt lat="46.48582" lon="5.38774">
        <ele>368.39999389648</ele>
        <time>2022-06-16T14:25:47.000Z</time>
      </trkpt>
      <trkpt lat="46.4859" lon="5.38775">
        <ele>367.60000610352</ele>
        <time>2022-06-16T14:25:48.000Z</time>
      </trkpt>
      <trkpt lat="46.48598" lon="5.38777">
        <ele>367</ele>
        <time>2022-06-16T14:25:49.000Z</time>
      </trkpt>
      <trkpt lat="46.48605" lon="5.38777">
        <ele>365.79998779297</ele>
        <time>2022-06-16T14:25:50.000Z</time>
      </trkpt>
      <trkpt lat="46.48612" lon="5.38772">
        <ele>365.60000610352</ele>
        <time>2022-06-16T14:25:51.000Z</time>
      </trkpt>
      <trkpt lat="46.48617" lon="5.38765">
        <ele>364.79998779297</ele>
        <time>2022-06-16T14:25:52.000Z</time>
      </trkpt>
      <trkpt lat="46.48628" lon="5.38744">
        <ele>363.20001220703</ele>
        <time>2022-06-16T14:25:54.000Z</time>
      </trkpt>
      <trkpt lat="46.48633" lon="5.38731">
        <ele>362</ele>
        <time>2022-06-16T14:25:55.000Z</time>
      </trkpt>
      <trkpt lat="46.48637" lon="5.38718">
        <ele>361.20001220703</ele>
        <time>2022-06-16T14:25:56.000Z</time>
      </trkpt>
      <trkpt lat="46.48639" lon="5.38703">
        <ele>360.20001220703</ele>
        <time>2022-06-16T14:25:57.000Z</time>
      </trkpt>
      <trkpt lat="46.4864" lon="5.38688">
        <ele>359.79998779297</ele>
        <time>2022-06-16T14:25:58.000Z</time>
      </trkpt>
      <trkpt lat="46.48641" lon="5.38673">
        <ele>359.20001220703</ele>
        <time>2022-06-16T14:25:59.000Z</time>
      </trkpt>
      <trkpt lat="46.4864" lon="5.38658">
        <ele>358.79998779297</ele>
        <time>2022-06-16T14:26:00.000Z</time>
      </trkpt>
      <trkpt lat="46.48633" lon="5.38628">
        <ele>357.60000610352</ele>
        <time>2022-06-16T14:26:02.000Z</time>
      </trkpt>
      <trkpt lat="46.48625" lon="5.38598">
        <ele>356.39999389648</ele>
        <time>2022-06-16T14:26:04.000Z</time>
      </trkpt>
      <trkpt lat="46.48617" lon="5.38568">
        <ele>355.39999389648</ele>
        <time>2022-06-16T14:26:06.000Z</time>
      </trkpt>
      <trkpt lat="46.48605" lon="5.38522">
        <ele>354</ele>
        <time>2022-06-16T14:26:09.000Z</time>
      </trkpt>
    </trkseg>
  </trk>
</gpx>